<?xml version="1.0" encoding="UTF-8" standalone="no" ?>
<gpx xmlns="http://www.topografix.com/GPX/1/1" xmlns:xsi="http://www.w3.org/2001/XMLSchema-instance" xsi:schemaLocation="http://www.topografix.com/GPX/1/1 http://www.topografix.com/GPX/1/1/gpx.xsd" version="1.1" creator="VisuGPX - https://www.visugpx.com">
  <metadata>
    <name>alpilles aureille</name>
    <desc><![CDATA[Une boucle dans les Alpilles. Aureille, Grand Callan, La beaume Brignolle, La coste plantier]]></desc>
  </metadata>
  <trk>
    <name><![CDATA[Piste 003]]></name>
    <trkseg>
      <trkpt lat="43.70921" lon="4.9373">
        <ele>109.727661</ele>
        <time>2010-12-30T06:57:29Z</time>
      </trkpt>
      <trkpt lat="43.70913" lon="4.9373">
        <ele>152.986938</ele>
        <time>2010-12-30T06:57:55Z</time>
      </trkpt>
      <trkpt lat="43.70917" lon="4.9373">
        <ele>151.064209</ele>
        <time>2010-12-30T06:58:17Z</time>
      </trkpt>
      <trkpt lat="43.70917" lon="4.93728">
        <ele>149.622314</ele>
        <time>2010-12-30T06:58:30Z</time>
      </trkpt>
      <trkpt lat="43.70917" lon="4.93733">
        <ele>154.428955</ele>
        <time>2010-12-30T06:58:51Z</time>
      </trkpt>
      <trkpt lat="43.70915" lon="4.9373">
        <ele>156.832153</ele>
        <time>2010-12-30T06:59:03Z</time>
      </trkpt>
      <trkpt lat="43.70915" lon="4.93726">
        <ele>158.27417</ele>
        <time>2010-12-30T06:59:16Z</time>
      </trkpt>
      <trkpt lat="43.70913" lon="4.93722">
        <ele>157.793579</ele>
        <time>2010-12-30T06:59:27Z</time>
      </trkpt>
      <trkpt lat="43.70913" lon="4.93722">
        <ele>156.351563</ele>
        <time>2010-12-30T06:59:44Z</time>
      </trkpt>
      <trkpt lat="43.70913" lon="4.93724">
        <ele>157.312866</ele>
        <time>2010-12-30T06:59:55Z</time>
      </trkpt>
      <trkpt lat="43.70913" lon="4.9372">
        <ele>156.832153</ele>
        <time>2010-12-30T07:00:12Z</time>
      </trkpt>
      <trkpt lat="43.70913" lon="4.9372">
        <ele>156.832153</ele>
        <time>2010-12-30T07:00:13Z</time>
      </trkpt>
      <trkpt lat="43.70913" lon="4.93713">
        <ele>156.351563</ele>
        <time>2010-12-30T07:00:18Z</time>
      </trkpt>
      <trkpt lat="43.70911" lon="4.93711">
        <ele>156.351563</ele>
        <time>2010-12-30T07:00:20Z</time>
      </trkpt>
      <trkpt lat="43.70911" lon="4.93705">
        <ele>156.832153</ele>
        <time>2010-12-30T07:00:24Z</time>
      </trkpt>
      <trkpt lat="43.70911" lon="4.93702">
        <ele>156.832153</ele>
        <time>2010-12-30T07:00:27Z</time>
      </trkpt>
      <trkpt lat="43.70913" lon="4.93687">
        <ele>159.235474</ele>
        <time>2010-12-30T07:00:39Z</time>
      </trkpt>
      <trkpt lat="43.70915" lon="4.93679">
        <ele>161.638916</ele>
        <time>2010-12-30T07:00:45Z</time>
      </trkpt>
      <trkpt lat="43.70915" lon="4.93666">
        <ele>161.638916</ele>
        <time>2010-12-30T07:00:53Z</time>
      </trkpt>
      <trkpt lat="43.70917" lon="4.93649">
        <ele>160.196899</ele>
        <time>2010-12-30T07:01:04Z</time>
      </trkpt>
      <trkpt lat="43.70919" lon="4.93647">
        <ele>159.716187</ele>
        <time>2010-12-30T07:01:06Z</time>
      </trkpt>
      <trkpt lat="43.70919" lon="4.93638">
        <ele>159.235474</ele>
        <time>2010-12-30T07:01:12Z</time>
      </trkpt>
      <trkpt lat="43.70921" lon="4.93621">
        <ele>157.793579</ele>
        <time>2010-12-30T07:01:24Z</time>
      </trkpt>
      <trkpt lat="43.70921" lon="4.93612">
        <ele>158.27417</ele>
        <time>2010-12-30T07:01:29Z</time>
      </trkpt>
      <trkpt lat="43.70921" lon="4.93608">
        <ele>158.27417</ele>
        <time>2010-12-30T07:01:33Z</time>
      </trkpt>
      <trkpt lat="43.70919" lon="4.93589">
        <ele>158.754761</ele>
        <time>2010-12-30T07:01:45Z</time>
      </trkpt>
      <trkpt lat="43.70917" lon="4.93578">
        <ele>158.754761</ele>
        <time>2010-12-30T07:01:51Z</time>
      </trkpt>
      <trkpt lat="43.70911" lon="4.93559">
        <ele>160.196899</ele>
        <time>2010-12-30T07:02:03Z</time>
      </trkpt>
      <trkpt lat="43.70909" lon="4.93544">
        <ele>162.119507</ele>
        <time>2010-12-30T07:02:14Z</time>
      </trkpt>
      <trkpt lat="43.70909" lon="4.93542">
        <ele>162.600098</ele>
        <time>2010-12-30T07:02:15Z</time>
      </trkpt>
      <trkpt lat="43.70909" lon="4.93535">
        <ele>163.561523</ele>
        <time>2010-12-30T07:02:18Z</time>
      </trkpt>
      <trkpt lat="43.70909" lon="4.93527">
        <ele>163.561523</ele>
        <time>2010-12-30T07:02:25Z</time>
      </trkpt>
      <trkpt lat="43.70909" lon="4.93518">
        <ele>164.522705</ele>
        <time>2010-12-30T07:02:31Z</time>
      </trkpt>
      <trkpt lat="43.70906" lon="4.93514">
        <ele>165.484131</ele>
        <time>2010-12-30T07:02:34Z</time>
      </trkpt>
      <trkpt lat="43.70911" lon="4.93496">
        <ele>167.406738</ele>
        <time>2010-12-30T07:02:46Z</time>
      </trkpt>
      <trkpt lat="43.70913" lon="4.93481">
        <ele>169.810059</ele>
        <time>2010-12-30T07:02:57Z</time>
      </trkpt>
      <trkpt lat="43.70913" lon="4.93473">
        <ele>170.290649</ele>
        <time>2010-12-30T07:03:03Z</time>
      </trkpt>
      <trkpt lat="43.70915" lon="4.93458">
        <ele>169.329468</ele>
        <time>2010-12-30T07:03:13Z</time>
      </trkpt>
      <trkpt lat="43.70917" lon="4.93454">
        <ele>169.329468</ele>
        <time>2010-12-30T07:03:17Z</time>
      </trkpt>
      <trkpt lat="43.70919" lon="4.93441">
        <ele>167.406738</ele>
        <time>2010-12-30T07:03:24Z</time>
      </trkpt>
      <trkpt lat="43.70924" lon="4.93432">
        <ele>166.926025</ele>
        <time>2010-12-30T07:03:30Z</time>
      </trkpt>
      <trkpt lat="43.70926" lon="4.93426">
        <ele>166.445313</ele>
        <time>2010-12-30T07:03:34Z</time>
      </trkpt>
      <trkpt lat="43.70928" lon="4.93421">
        <ele>165.964722</ele>
        <time>2010-12-30T07:03:37Z</time>
      </trkpt>
      <trkpt lat="43.70932" lon="4.93413">
        <ele>165.484131</ele>
        <time>2010-12-30T07:03:42Z</time>
      </trkpt>
      <trkpt lat="43.70936" lon="4.93393">
        <ele>163.080811</ele>
        <time>2010-12-30T07:03:55Z</time>
      </trkpt>
      <trkpt lat="43.70936" lon="4.93391">
        <ele>162.600098</ele>
        <time>2010-12-30T07:03:56Z</time>
      </trkpt>
      <trkpt lat="43.70939" lon="4.93376">
        <ele>158.754761</ele>
        <time>2010-12-30T07:04:05Z</time>
      </trkpt>
      <trkpt lat="43.70939" lon="4.93361">
        <ele>158.754761</ele>
        <time>2010-12-30T07:04:15Z</time>
      </trkpt>
      <trkpt lat="43.70941" lon="4.93342">
        <ele>157.793579</ele>
        <time>2010-12-30T07:04:27Z</time>
      </trkpt>
      <trkpt lat="43.70941" lon="4.9334">
        <ele>157.312866</ele>
        <time>2010-12-30T07:04:28Z</time>
      </trkpt>
      <trkpt lat="43.70943" lon="4.93338">
        <ele>157.312866</ele>
        <time>2010-12-30T07:04:30Z</time>
      </trkpt>
      <trkpt lat="43.70943" lon="4.93333">
        <ele>156.351563</ele>
        <time>2010-12-30T07:04:34Z</time>
      </trkpt>
      <trkpt lat="43.70945" lon="4.93329">
        <ele>155.390259</ele>
        <time>2010-12-30T07:04:37Z</time>
      </trkpt>
      <trkpt lat="43.70947" lon="4.93314">
        <ele>153.948364</ele>
        <time>2010-12-30T07:04:46Z</time>
      </trkpt>
      <trkpt lat="43.70947" lon="4.93308">
        <ele>153.467651</ele>
        <time>2010-12-30T07:04:50Z</time>
      </trkpt>
      <trkpt lat="43.70947" lon="4.93297">
        <ele>153.467651</ele>
        <time>2010-12-30T07:04:58Z</time>
      </trkpt>
      <trkpt lat="43.70947" lon="4.9329">
        <ele>152.986938</ele>
        <time>2010-12-30T07:05:02Z</time>
      </trkpt>
      <trkpt lat="43.70947" lon="4.93286">
        <ele>152.986938</ele>
        <time>2010-12-30T07:05:05Z</time>
      </trkpt>
      <trkpt lat="43.70947" lon="4.93271">
        <ele>153.948364</ele>
        <time>2010-12-30T07:05:15Z</time>
      </trkpt>
      <trkpt lat="43.70947" lon="4.93256">
        <ele>153.467651</ele>
        <time>2010-12-30T07:05:25Z</time>
      </trkpt>
      <trkpt lat="43.70945" lon="4.93245">
        <ele>152.986938</ele>
        <time>2010-12-30T07:05:31Z</time>
      </trkpt>
      <trkpt lat="43.70945" lon="4.93241">
        <ele>152.025757</ele>
        <time>2010-12-30T07:05:34Z</time>
      </trkpt>
      <trkpt lat="43.70943" lon="4.93228">
        <ele>151.544922</ele>
        <time>2010-12-30T07:05:42Z</time>
      </trkpt>
      <trkpt lat="43.70945" lon="4.93207">
        <ele>153.467651</ele>
        <time>2010-12-30T07:05:54Z</time>
      </trkpt>
      <trkpt lat="43.70945" lon="4.93205">
        <ele>153.467651</ele>
        <time>2010-12-30T07:05:55Z</time>
      </trkpt>
      <trkpt lat="43.70949" lon="4.93187">
        <ele>152.986938</ele>
        <time>2010-12-30T07:06:06Z</time>
      </trkpt>
      <trkpt lat="43.70951" lon="4.93175">
        <ele>153.467651</ele>
        <time>2010-12-30T07:06:15Z</time>
      </trkpt>
      <trkpt lat="43.70954" lon="4.9317">
        <ele>154.909546</ele>
        <time>2010-12-30T07:06:19Z</time>
      </trkpt>
      <trkpt lat="43.70956" lon="4.93168">
        <ele>154.428955</ele>
        <time>2010-12-30T07:06:21Z</time>
      </trkpt>
      <trkpt lat="43.70958" lon="4.93162">
        <ele>154.428955</ele>
        <time>2010-12-30T07:06:26Z</time>
      </trkpt>
      <trkpt lat="43.7096" lon="4.93155">
        <ele>154.909546</ele>
        <time>2010-12-30T07:06:31Z</time>
      </trkpt>
      <trkpt lat="43.70962" lon="4.93147">
        <ele>155.870972</ele>
        <time>2010-12-30T07:06:36Z</time>
      </trkpt>
      <trkpt lat="43.70964" lon="4.93142">
        <ele>156.351563</ele>
        <time>2010-12-30T07:06:39Z</time>
      </trkpt>
      <trkpt lat="43.70966" lon="4.93127">
        <ele>155.870972</ele>
        <time>2010-12-30T07:06:50Z</time>
      </trkpt>
      <trkpt lat="43.70969" lon="4.93125">
        <ele>156.351563</ele>
        <time>2010-12-30T07:06:52Z</time>
      </trkpt>
      <trkpt lat="43.70971" lon="4.9311">
        <ele>156.351563</ele>
        <time>2010-12-30T07:07:01Z</time>
      </trkpt>
      <trkpt lat="43.70973" lon="4.93108">
        <ele>156.351563</ele>
        <time>2010-12-30T07:07:04Z</time>
      </trkpt>
      <trkpt lat="43.70975" lon="4.93104">
        <ele>156.351563</ele>
        <time>2010-12-30T07:07:07Z</time>
      </trkpt>
      <trkpt lat="43.70982" lon="4.93093">
        <ele>156.351563</ele>
        <time>2010-12-30T07:07:17Z</time>
      </trkpt>
      <trkpt lat="43.70984" lon="4.93089">
        <ele>156.832153</ele>
        <time>2010-12-30T07:07:20Z</time>
      </trkpt>
      <trkpt lat="43.70984" lon="4.93078">
        <ele>157.312866</ele>
        <time>2010-12-30T07:07:27Z</time>
      </trkpt>
      <trkpt lat="43.70986" lon="4.93067">
        <ele>157.793579</ele>
        <time>2010-12-30T07:07:35Z</time>
      </trkpt>
      <trkpt lat="43.70992" lon="4.93054">
        <ele>157.793579</ele>
        <time>2010-12-30T07:07:45Z</time>
      </trkpt>
      <trkpt lat="43.71003" lon="4.93042">
        <ele>154.428955</ele>
        <time>2010-12-30T07:07:58Z</time>
      </trkpt>
      <trkpt lat="43.71005" lon="4.93035">
        <ele>154.909546</ele>
        <time>2010-12-30T07:08:02Z</time>
      </trkpt>
      <trkpt lat="43.71003" lon="4.93031">
        <ele>154.909546</ele>
        <time>2010-12-30T07:08:06Z</time>
      </trkpt>
      <trkpt lat="43.71003" lon="4.93024">
        <ele>154.428955</ele>
        <time>2010-12-30T07:08:10Z</time>
      </trkpt>
      <trkpt lat="43.70999" lon="4.93005">
        <ele>151.064209</ele>
        <time>2010-12-30T07:08:24Z</time>
      </trkpt>
      <trkpt lat="43.70999" lon="4.9299">
        <ele>149.622314</ele>
        <time>2010-12-30T07:08:35Z</time>
      </trkpt>
      <trkpt lat="43.71001" lon="4.92973">
        <ele>150.103027</ele>
        <time>2010-12-30T07:08:47Z</time>
      </trkpt>
      <trkpt lat="43.71001" lon="4.92966">
        <ele>149.622314</ele>
        <time>2010-12-30T07:08:50Z</time>
      </trkpt>
      <trkpt lat="43.71001" lon="4.92949">
        <ele>148.18042</ele>
        <time>2010-12-30T07:09:00Z</time>
      </trkpt>
      <trkpt lat="43.70999" lon="4.92936">
        <ele>147.218994</ele>
        <time>2010-12-30T07:09:08Z</time>
      </trkpt>
      <trkpt lat="43.70999" lon="4.92928">
        <ele>146.738403</ele>
        <time>2010-12-30T07:09:13Z</time>
      </trkpt>
      <trkpt lat="43.71005" lon="4.92913">
        <ele>145.296387</ele>
        <time>2010-12-30T07:09:25Z</time>
      </trkpt>
      <trkpt lat="43.71005" lon="4.92911">
        <ele>144.815796</ele>
        <time>2010-12-30T07:09:29Z</time>
      </trkpt>
      <trkpt lat="43.71009" lon="4.92894">
        <ele>145.7771</ele>
        <time>2010-12-30T07:09:41Z</time>
      </trkpt>
      <trkpt lat="43.71012" lon="4.92883">
        <ele>145.7771</ele>
        <time>2010-12-30T07:09:49Z</time>
      </trkpt>
      <trkpt lat="43.71018" lon="4.92863">
        <ele>144.815796</ele>
        <time>2010-12-30T07:10:02Z</time>
      </trkpt>
      <trkpt lat="43.71027" lon="4.92844">
        <ele>142.893066</ele>
        <time>2010-12-30T07:10:14Z</time>
      </trkpt>
      <trkpt lat="43.71029" lon="4.92838">
        <ele>141.931763</ele>
        <time>2010-12-30T07:10:19Z</time>
      </trkpt>
      <trkpt lat="43.71029" lon="4.92833">
        <ele>141.45105</ele>
        <time>2010-12-30T07:10:21Z</time>
      </trkpt>
      <trkpt lat="43.71029" lon="4.92829">
        <ele>140.970459</ele>
        <time>2010-12-30T07:10:25Z</time>
      </trkpt>
      <trkpt lat="43.71031" lon="4.92816">
        <ele>140.009155</ele>
        <time>2010-12-30T07:10:31Z</time>
      </trkpt>
      <trkpt lat="43.71037" lon="4.92801">
        <ele>138.086548</ele>
        <time>2010-12-30T07:10:42Z</time>
      </trkpt>
      <trkpt lat="43.71044" lon="4.92782">
        <ele>139.528442</ele>
        <time>2010-12-30T07:10:54Z</time>
      </trkpt>
      <trkpt lat="43.71046" lon="4.92771">
        <ele>139.047852</ele>
        <time>2010-12-30T07:11:01Z</time>
      </trkpt>
      <trkpt lat="43.71048" lon="4.92765">
        <ele>140.009155</ele>
        <time>2010-12-30T07:11:06Z</time>
      </trkpt>
      <trkpt lat="43.7105" lon="4.9275">
        <ele>140.489868</ele>
        <time>2010-12-30T07:11:17Z</time>
      </trkpt>
      <trkpt lat="43.7105" lon="4.92728">
        <ele>141.931763</ele>
        <time>2010-12-30T07:11:30Z</time>
      </trkpt>
      <trkpt lat="43.7105" lon="4.9272">
        <ele>142.412476</ele>
        <time>2010-12-30T07:11:35Z</time>
      </trkpt>
      <trkpt lat="43.7105" lon="4.927">
        <ele>145.296387</ele>
        <time>2010-12-30T07:11:49Z</time>
      </trkpt>
      <trkpt lat="43.7105" lon="4.92694">
        <ele>146.257813</ele>
        <time>2010-12-30T07:11:53Z</time>
      </trkpt>
      <trkpt lat="43.71052" lon="4.9269">
        <ele>146.257813</ele>
        <time>2010-12-30T07:11:55Z</time>
      </trkpt>
      <trkpt lat="43.71057" lon="4.92677">
        <ele>145.296387</ele>
        <time>2010-12-30T07:12:07Z</time>
      </trkpt>
      <trkpt lat="43.71059" lon="4.92664">
        <ele>145.7771</ele>
        <time>2010-12-30T07:12:15Z</time>
      </trkpt>
      <trkpt lat="43.71061" lon="4.92655">
        <ele>144.815796</ele>
        <time>2010-12-30T07:12:21Z</time>
      </trkpt>
      <trkpt lat="43.71065" lon="4.9264">
        <ele>145.7771</ele>
        <time>2010-12-30T07:12:32Z</time>
      </trkpt>
      <trkpt lat="43.71065" lon="4.92636">
        <ele>145.7771</ele>
        <time>2010-12-30T07:12:34Z</time>
      </trkpt>
      <trkpt lat="43.71065" lon="4.92617">
        <ele>145.296387</ele>
        <time>2010-12-30T07:12:48Z</time>
      </trkpt>
      <trkpt lat="43.71063" lon="4.92615">
        <ele>145.296387</ele>
        <time>2010-12-30T07:12:49Z</time>
      </trkpt>
      <trkpt lat="43.71065" lon="4.92612">
        <ele>145.296387</ele>
        <time>2010-12-30T07:12:51Z</time>
      </trkpt>
      <trkpt lat="43.71065" lon="4.92604">
        <ele>144.815796</ele>
        <time>2010-12-30T07:12:57Z</time>
      </trkpt>
      <trkpt lat="43.71063" lon="4.92597">
        <ele>144.815796</ele>
        <time>2010-12-30T07:13:01Z</time>
      </trkpt>
      <trkpt lat="43.71063" lon="4.92593">
        <ele>144.815796</ele>
        <time>2010-12-30T07:13:04Z</time>
      </trkpt>
      <trkpt lat="43.71063" lon="4.92587">
        <ele>144.335205</ele>
        <time>2010-12-30T07:13:08Z</time>
      </trkpt>
      <trkpt lat="43.71063" lon="4.92585">
        <ele>144.335205</ele>
        <time>2010-12-30T07:13:10Z</time>
      </trkpt>
      <trkpt lat="43.71063" lon="4.92574">
        <ele>143.373657</ele>
        <time>2010-12-30T07:13:16Z</time>
      </trkpt>
      <trkpt lat="43.71065" lon="4.92565">
        <ele>140.970459</ele>
        <time>2010-12-30T07:13:23Z</time>
      </trkpt>
      <trkpt lat="43.71067" lon="4.9255">
        <ele>139.528442</ele>
        <time>2010-12-30T07:13:33Z</time>
      </trkpt>
      <trkpt lat="43.71067" lon="4.92546">
        <ele>139.047852</ele>
        <time>2010-12-30T07:13:36Z</time>
      </trkpt>
      <trkpt lat="43.71069" lon="4.92542">
        <ele>137.605835</ele>
        <time>2010-12-30T07:13:40Z</time>
      </trkpt>
      <trkpt lat="43.71072" lon="4.92531">
        <ele>135.202515</ele>
        <time>2010-12-30T07:13:47Z</time>
      </trkpt>
      <trkpt lat="43.71076" lon="4.92527">
        <ele>133.279907</ele>
        <time>2010-12-30T07:13:52Z</time>
      </trkpt>
      <trkpt lat="43.71078" lon="4.9252">
        <ele>132.318604</ele>
        <time>2010-12-30T07:13:58Z</time>
      </trkpt>
      <trkpt lat="43.7108" lon="4.92509">
        <ele>133.760498</ele>
        <time>2010-12-30T07:14:06Z</time>
      </trkpt>
      <trkpt lat="43.71085" lon="4.92503">
        <ele>133.760498</ele>
        <time>2010-12-30T07:14:13Z</time>
      </trkpt>
      <trkpt lat="43.71085" lon="4.92497">
        <ele>133.279907</ele>
        <time>2010-12-30T07:14:17Z</time>
      </trkpt>
      <trkpt lat="43.71087" lon="4.92486">
        <ele>132.799316</ele>
        <time>2010-12-30T07:14:24Z</time>
      </trkpt>
      <trkpt lat="43.71089" lon="4.92473">
        <ele>132.799316</ele>
        <time>2010-12-30T07:14:33Z</time>
      </trkpt>
      <trkpt lat="43.71091" lon="4.92464">
        <ele>131.3573</ele>
        <time>2010-12-30T07:14:41Z</time>
      </trkpt>
      <trkpt lat="43.71093" lon="4.92447">
        <ele>128.954102</ele>
        <time>2010-12-30T07:14:54Z</time>
      </trkpt>
      <trkpt lat="43.71095" lon="4.92441">
        <ele>128.473389</ele>
        <time>2010-12-30T07:14:59Z</time>
      </trkpt>
      <trkpt lat="43.71097" lon="4.92426">
        <ele>129.915283</ele>
        <time>2010-12-30T07:15:13Z</time>
      </trkpt>
      <trkpt lat="43.711" lon="4.92413">
        <ele>132.799316</ele>
        <time>2010-12-30T07:15:25Z</time>
      </trkpt>
      <trkpt lat="43.71104" lon="4.92398">
        <ele>131.837891</ele>
        <time>2010-12-30T07:15:37Z</time>
      </trkpt>
      <trkpt lat="43.71104" lon="4.92387">
        <ele>131.837891</ele>
        <time>2010-12-30T07:15:45Z</time>
      </trkpt>
      <trkpt lat="43.71108" lon="4.92368">
        <ele>129.915283</ele>
        <time>2010-12-30T07:15:58Z</time>
      </trkpt>
      <trkpt lat="43.71108" lon="4.92368">
        <ele>129.434692</ele>
        <time>2010-12-30T07:15:59Z</time>
      </trkpt>
      <trkpt lat="43.71112" lon="4.92361">
        <ele>128.473389</ele>
        <time>2010-12-30T07:16:02Z</time>
      </trkpt>
      <trkpt lat="43.71119" lon="4.92342">
        <ele>126.550659</ele>
        <time>2010-12-30T07:16:13Z</time>
      </trkpt>
      <trkpt lat="43.71121" lon="4.92336">
        <ele>127.031372</ele>
        <time>2010-12-30T07:16:16Z</time>
      </trkpt>
      <trkpt lat="43.71125" lon="4.92327">
        <ele>126.069946</ele>
        <time>2010-12-30T07:16:21Z</time>
      </trkpt>
      <trkpt lat="43.7113" lon="4.92314">
        <ele>123.666748</ele>
        <time>2010-12-30T07:16:30Z</time>
      </trkpt>
      <trkpt lat="43.71132" lon="4.92308">
        <ele>123.186157</ele>
        <time>2010-12-30T07:16:35Z</time>
      </trkpt>
      <trkpt lat="43.71134" lon="4.92297">
        <ele>123.186157</ele>
        <time>2010-12-30T07:16:44Z</time>
      </trkpt>
      <trkpt lat="43.71134" lon="4.92293">
        <ele>123.186157</ele>
        <time>2010-12-30T07:16:46Z</time>
      </trkpt>
      <trkpt lat="43.71132" lon="4.92286">
        <ele>123.186157</ele>
        <time>2010-12-30T07:16:51Z</time>
      </trkpt>
      <trkpt lat="43.71134" lon="4.92284">
        <ele>123.186157</ele>
        <time>2010-12-30T07:16:54Z</time>
      </trkpt>
      <trkpt lat="43.71136" lon="4.92267">
        <ele>121.744141</ele>
        <time>2010-12-30T07:17:06Z</time>
      </trkpt>
      <trkpt lat="43.7114" lon="4.92258">
        <ele>121.744141</ele>
        <time>2010-12-30T07:17:12Z</time>
      </trkpt>
      <trkpt lat="43.7114" lon="4.92256">
        <ele>121.744141</ele>
        <time>2010-12-30T07:17:14Z</time>
      </trkpt>
      <trkpt lat="43.71149" lon="4.92239">
        <ele>122.705444</ele>
        <time>2010-12-30T07:17:27Z</time>
      </trkpt>
      <trkpt lat="43.71149" lon="4.92235">
        <ele>122.224731</ele>
        <time>2010-12-30T07:17:31Z</time>
      </trkpt>
      <trkpt lat="43.71149" lon="4.92224">
        <ele>122.705444</ele>
        <time>2010-12-30T07:17:41Z</time>
      </trkpt>
      <trkpt lat="43.71149" lon="4.92213">
        <ele>122.705444</ele>
        <time>2010-12-30T07:17:52Z</time>
      </trkpt>
      <trkpt lat="43.71149" lon="4.92213">
        <ele>122.705444</ele>
        <time>2010-12-30T07:17:53Z</time>
      </trkpt>
      <trkpt lat="43.71149" lon="4.92207">
        <ele>121.744141</ele>
        <time>2010-12-30T07:17:58Z</time>
      </trkpt>
      <trkpt lat="43.71145" lon="4.92188">
        <ele>121.26355</ele>
        <time>2010-12-30T07:18:11Z</time>
      </trkpt>
      <trkpt lat="43.7114" lon="4.92164">
        <ele>120.302124</ele>
        <time>2010-12-30T07:18:27Z</time>
      </trkpt>
      <trkpt lat="43.7114" lon="4.92155">
        <ele>119.34082</ele>
        <time>2010-12-30T07:18:31Z</time>
      </trkpt>
      <trkpt lat="43.71142" lon="4.92138">
        <ele>118.379395</ele>
        <time>2010-12-30T07:18:41Z</time>
      </trkpt>
      <trkpt lat="43.71147" lon="4.92123">
        <ele>118.379395</ele>
        <time>2010-12-30T07:18:52Z</time>
      </trkpt>
      <trkpt lat="43.71149" lon="4.92117">
        <ele>118.379395</ele>
        <time>2010-12-30T07:18:57Z</time>
      </trkpt>
      <trkpt lat="43.71149" lon="4.92108">
        <ele>117.898804</ele>
        <time>2010-12-30T07:19:03Z</time>
      </trkpt>
      <trkpt lat="43.71151" lon="4.921">
        <ele>116.9375</ele>
        <time>2010-12-30T07:19:09Z</time>
      </trkpt>
      <trkpt lat="43.71151" lon="4.92089">
        <ele>116.456787</ele>
        <time>2010-12-30T07:19:15Z</time>
      </trkpt>
      <trkpt lat="43.71155" lon="4.9207">
        <ele>115.495605</ele>
        <time>2010-12-30T07:19:26Z</time>
      </trkpt>
      <trkpt lat="43.71162" lon="4.92057">
        <ele>115.495605</ele>
        <time>2010-12-30T07:19:36Z</time>
      </trkpt>
      <trkpt lat="43.71166" lon="4.92039">
        <ele>115.014893</ele>
        <time>2010-12-30T07:19:48Z</time>
      </trkpt>
      <trkpt lat="43.7117" lon="4.92031">
        <ele>114.53418</ele>
        <time>2010-12-30T07:19:56Z</time>
      </trkpt>
      <trkpt lat="43.71172" lon="4.92024">
        <ele>114.53418</ele>
        <time>2010-12-30T07:20:00Z</time>
      </trkpt>
      <trkpt lat="43.71181" lon="4.92001">
        <ele>114.53418</ele>
        <time>2010-12-30T07:20:16Z</time>
      </trkpt>
      <trkpt lat="43.71183" lon="4.91992">
        <ele>114.53418</ele>
        <time>2010-12-30T07:20:21Z</time>
      </trkpt>
      <trkpt lat="43.71183" lon="4.91984">
        <ele>114.53418</ele>
        <time>2010-12-30T07:20:26Z</time>
      </trkpt>
      <trkpt lat="43.71183" lon="4.91982">
        <ele>114.053589</ele>
        <time>2010-12-30T07:20:28Z</time>
      </trkpt>
      <trkpt lat="43.71183" lon="4.9196">
        <ele>113.092285</ele>
        <time>2010-12-30T07:20:42Z</time>
      </trkpt>
      <trkpt lat="43.71181" lon="4.91947">
        <ele>115.014893</ele>
        <time>2010-12-30T07:20:52Z</time>
      </trkpt>
      <trkpt lat="43.71183" lon="4.91945">
        <ele>115.495605</ele>
        <time>2010-12-30T07:20:53Z</time>
      </trkpt>
      <trkpt lat="43.71185" lon="4.91939">
        <ele>115.495605</ele>
        <time>2010-12-30T07:20:59Z</time>
      </trkpt>
      <trkpt lat="43.71192" lon="4.91919">
        <ele>116.9375</ele>
        <time>2010-12-30T07:21:12Z</time>
      </trkpt>
      <trkpt lat="43.71198" lon="4.91909">
        <ele>116.9375</ele>
        <time>2010-12-30T07:21:21Z</time>
      </trkpt>
      <trkpt lat="43.71205" lon="4.91887">
        <ele>115.014893</ele>
        <time>2010-12-30T07:21:35Z</time>
      </trkpt>
      <trkpt lat="43.71207" lon="4.91879">
        <ele>114.53418</ele>
        <time>2010-12-30T07:21:41Z</time>
      </trkpt>
      <trkpt lat="43.71211" lon="4.91859">
        <ele>113.092285</ele>
        <time>2010-12-30T07:21:53Z</time>
      </trkpt>
      <trkpt lat="43.71215" lon="4.9184">
        <ele>111.169556</ele>
        <time>2010-12-30T07:22:05Z</time>
      </trkpt>
      <trkpt lat="43.71218" lon="4.91825">
        <ele>110.208252</ele>
        <time>2010-12-30T07:22:16Z</time>
      </trkpt>
      <trkpt lat="43.71218" lon="4.91814">
        <ele>111.169556</ele>
        <time>2010-12-30T07:22:23Z</time>
      </trkpt>
      <trkpt lat="43.71218" lon="4.9181">
        <ele>111.650269</ele>
        <time>2010-12-30T07:22:25Z</time>
      </trkpt>
      <trkpt lat="43.71218" lon="4.91808">
        <ele>112.130981</ele>
        <time>2010-12-30T07:22:28Z</time>
      </trkpt>
      <trkpt lat="43.7122" lon="4.91799">
        <ele>112.611572</ele>
        <time>2010-12-30T07:22:33Z</time>
      </trkpt>
      <trkpt lat="43.7122" lon="4.91797">
        <ele>113.092285</ele>
        <time>2010-12-30T07:22:36Z</time>
      </trkpt>
      <trkpt lat="43.7122" lon="4.91786">
        <ele>112.611572</ele>
        <time>2010-12-30T07:22:42Z</time>
      </trkpt>
      <trkpt lat="43.7122" lon="4.91782">
        <ele>112.611572</ele>
        <time>2010-12-30T07:22:44Z</time>
      </trkpt>
      <trkpt lat="43.7122" lon="4.91773">
        <ele>112.611572</ele>
        <time>2010-12-30T07:22:49Z</time>
      </trkpt>
      <trkpt lat="43.7122" lon="4.91754">
        <ele>112.611572</ele>
        <time>2010-12-30T07:23:00Z</time>
      </trkpt>
      <trkpt lat="43.71222" lon="4.91746">
        <ele>110.688843</ele>
        <time>2010-12-30T07:23:06Z</time>
      </trkpt>
      <trkpt lat="43.71224" lon="4.91737">
        <ele>110.688843</ele>
        <time>2010-12-30T07:23:12Z</time>
      </trkpt>
      <trkpt lat="43.71224" lon="4.91733">
        <ele>110.688843</ele>
        <time>2010-12-30T07:23:15Z</time>
      </trkpt>
      <trkpt lat="43.71228" lon="4.9172">
        <ele>109.727661</ele>
        <time>2010-12-30T07:23:25Z</time>
      </trkpt>
      <trkpt lat="43.71228" lon="4.91713">
        <ele>108.766235</ele>
        <time>2010-12-30T07:23:29Z</time>
      </trkpt>
      <trkpt lat="43.7123" lon="4.917">
        <ele>107.324341</ele>
        <time>2010-12-30T07:23:38Z</time>
      </trkpt>
      <trkpt lat="43.71235" lon="4.91681">
        <ele>105.882446</ele>
        <time>2010-12-30T07:23:50Z</time>
      </trkpt>
      <trkpt lat="43.71237" lon="4.91673">
        <ele>103.959717</ele>
        <time>2010-12-30T07:23:57Z</time>
      </trkpt>
      <trkpt lat="43.71239" lon="4.91655">
        <ele>102.037109</ele>
        <time>2010-12-30T07:24:08Z</time>
      </trkpt>
      <trkpt lat="43.71241" lon="4.91645">
        <ele>101.075684</ele>
        <time>2010-12-30T07:24:16Z</time>
      </trkpt>
      <trkpt lat="43.71243" lon="4.9164">
        <ele>100.595093</ele>
        <time>2010-12-30T07:24:19Z</time>
      </trkpt>
      <trkpt lat="43.71252" lon="4.91617">
        <ele>100.114502</ele>
        <time>2010-12-30T07:24:34Z</time>
      </trkpt>
      <trkpt lat="43.71254" lon="4.9161">
        <ele>100.595093</ele>
        <time>2010-12-30T07:24:38Z</time>
      </trkpt>
      <trkpt lat="43.71258" lon="4.91595">
        <ele>100.595093</ele>
        <time>2010-12-30T07:24:48Z</time>
      </trkpt>
      <trkpt lat="43.7126" lon="4.91589">
        <ele>99.633789</ele>
        <time>2010-12-30T07:24:53Z</time>
      </trkpt>
      <trkpt lat="43.71265" lon="4.9158">
        <ele>99.633789</ele>
        <time>2010-12-30T07:24:59Z</time>
      </trkpt>
      <trkpt lat="43.71263" lon="4.91561">
        <ele>101.075684</ele>
        <time>2010-12-30T07:25:13Z</time>
      </trkpt>
      <trkpt lat="43.71263" lon="4.91546">
        <ele>102.037109</ele>
        <time>2010-12-30T07:25:22Z</time>
      </trkpt>
      <trkpt lat="43.71263" lon="4.91542">
        <ele>102.5177</ele>
        <time>2010-12-30T07:25:26Z</time>
      </trkpt>
      <trkpt lat="43.7126" lon="4.91537">
        <ele>103.479004</ele>
        <time>2010-12-30T07:25:29Z</time>
      </trkpt>
      <trkpt lat="43.7126" lon="4.9152">
        <ele>103.479004</ele>
        <time>2010-12-30T07:25:38Z</time>
      </trkpt>
      <trkpt lat="43.7126" lon="4.91509">
        <ele>102.5177</ele>
        <time>2010-12-30T07:25:45Z</time>
      </trkpt>
      <trkpt lat="43.7126" lon="4.91501">
        <ele>102.5177</ele>
        <time>2010-12-30T07:25:50Z</time>
      </trkpt>
      <trkpt lat="43.7126" lon="4.91499">
        <ele>102.037109</ele>
        <time>2010-12-30T07:25:52Z</time>
      </trkpt>
      <trkpt lat="43.71265" lon="4.91486">
        <ele>101.075684</ele>
        <time>2010-12-30T07:26:01Z</time>
      </trkpt>
      <trkpt lat="43.71265" lon="4.91477">
        <ele>100.595093</ele>
        <time>2010-12-30T07:26:16Z</time>
      </trkpt>
      <trkpt lat="43.71269" lon="4.91473">
        <ele>100.595093</ele>
        <time>2010-12-30T07:26:27Z</time>
      </trkpt>
      <trkpt lat="43.71284" lon="4.9146">
        <ele>99.153076</ele>
        <time>2010-12-30T07:26:40Z</time>
      </trkpt>
      <trkpt lat="43.71297" lon="4.91449">
        <ele>100.114502</ele>
        <time>2010-12-30T07:26:54Z</time>
      </trkpt>
      <trkpt lat="43.71303" lon="4.91445">
        <ele>99.633789</ele>
        <time>2010-12-30T07:27:00Z</time>
      </trkpt>
      <trkpt lat="43.7131" lon="4.91441">
        <ele>100.114502</ele>
        <time>2010-12-30T07:27:07Z</time>
      </trkpt>
      <trkpt lat="43.71314" lon="4.91437">
        <ele>100.595093</ele>
        <time>2010-12-30T07:27:11Z</time>
      </trkpt>
      <trkpt lat="43.71314" lon="4.91428">
        <ele>101.075684</ele>
        <time>2010-12-30T07:27:16Z</time>
      </trkpt>
      <trkpt lat="43.71316" lon="4.91426">
        <ele>101.075684</ele>
        <time>2010-12-30T07:27:18Z</time>
      </trkpt>
      <trkpt lat="43.71316" lon="4.91417">
        <ele>100.595093</ele>
        <time>2010-12-30T07:27:23Z</time>
      </trkpt>
      <trkpt lat="43.71316" lon="4.91406">
        <ele>101.556396</ele>
        <time>2010-12-30T07:27:30Z</time>
      </trkpt>
      <trkpt lat="43.71314" lon="4.91394">
        <ele>102.998291</ele>
        <time>2010-12-30T07:27:41Z</time>
      </trkpt>
      <trkpt lat="43.71316" lon="4.91389">
        <ele>102.998291</ele>
        <time>2010-12-30T07:27:44Z</time>
      </trkpt>
      <trkpt lat="43.71314" lon="4.91383">
        <ele>102.998291</ele>
        <time>2010-12-30T07:27:47Z</time>
      </trkpt>
      <trkpt lat="43.71314" lon="4.91374">
        <ele>103.479004</ele>
        <time>2010-12-30T07:27:53Z</time>
      </trkpt>
      <trkpt lat="43.71316" lon="4.91368">
        <ele>103.479004</ele>
        <time>2010-12-30T07:27:57Z</time>
      </trkpt>
      <trkpt lat="43.71316" lon="4.91355">
        <ele>103.959717</ele>
        <time>2010-12-30T07:28:05Z</time>
      </trkpt>
      <trkpt lat="43.71316" lon="4.91351">
        <ele>104.44043</ele>
        <time>2010-12-30T07:28:07Z</time>
      </trkpt>
      <trkpt lat="43.71318" lon="4.91342">
        <ele>105.401733</ele>
        <time>2010-12-30T07:28:14Z</time>
      </trkpt>
      <trkpt lat="43.71321" lon="4.91336">
        <ele>105.882446</ele>
        <time>2010-12-30T07:28:20Z</time>
      </trkpt>
      <trkpt lat="43.71323" lon="4.91321">
        <ele>106.363037</ele>
        <time>2010-12-30T07:28:31Z</time>
      </trkpt>
      <trkpt lat="43.71325" lon="4.91308">
        <ele>106.363037</ele>
        <time>2010-12-30T07:28:40Z</time>
      </trkpt>
      <trkpt lat="43.71327" lon="4.91299">
        <ele>106.843628</ele>
        <time>2010-12-30T07:28:46Z</time>
      </trkpt>
      <trkpt lat="43.71331" lon="4.91284">
        <ele>108.285645</ele>
        <time>2010-12-30T07:28:56Z</time>
      </trkpt>
      <trkpt lat="43.71331" lon="4.91282">
        <ele>108.285645</ele>
        <time>2010-12-30T07:28:58Z</time>
      </trkpt>
      <trkpt lat="43.71333" lon="4.91273">
        <ele>108.285645</ele>
        <time>2010-12-30T07:29:04Z</time>
      </trkpt>
      <trkpt lat="43.71333" lon="4.91271">
        <ele>108.766235</ele>
        <time>2010-12-30T07:29:06Z</time>
      </trkpt>
      <trkpt lat="43.71336" lon="4.91269">
        <ele>109.246948</ele>
        <time>2010-12-30T07:29:08Z</time>
      </trkpt>
      <trkpt lat="43.71338" lon="4.91261">
        <ele>110.208252</ele>
        <time>2010-12-30T07:29:15Z</time>
      </trkpt>
      <trkpt lat="43.71344" lon="4.91241">
        <ele>111.650269</ele>
        <time>2010-12-30T07:29:30Z</time>
      </trkpt>
      <trkpt lat="43.71346" lon="4.91235">
        <ele>112.130981</ele>
        <time>2010-12-30T07:29:34Z</time>
      </trkpt>
      <trkpt lat="43.71346" lon="4.91233">
        <ele>112.611572</ele>
        <time>2010-12-30T07:29:36Z</time>
      </trkpt>
      <trkpt lat="43.71351" lon="4.91216">
        <ele>114.053589</ele>
        <time>2010-12-30T07:29:48Z</time>
      </trkpt>
      <trkpt lat="43.71353" lon="4.91207">
        <ele>114.053589</ele>
        <time>2010-12-30T07:29:54Z</time>
      </trkpt>
      <trkpt lat="43.71353" lon="4.91198">
        <ele>114.053589</ele>
        <time>2010-12-30T07:30:00Z</time>
      </trkpt>
      <trkpt lat="43.71357" lon="4.91181">
        <ele>115.495605</ele>
        <time>2010-12-30T07:30:13Z</time>
      </trkpt>
      <trkpt lat="43.71359" lon="4.91173">
        <ele>115.976196</ele>
        <time>2010-12-30T07:30:20Z</time>
      </trkpt>
      <trkpt lat="43.71359" lon="4.91164">
        <ele>115.976196</ele>
        <time>2010-12-30T07:30:26Z</time>
      </trkpt>
      <trkpt lat="43.71359" lon="4.91143">
        <ele>118.379395</ele>
        <time>2010-12-30T07:30:40Z</time>
      </trkpt>
      <trkpt lat="43.71359" lon="4.91143">
        <ele>118.860107</ele>
        <time>2010-12-30T07:30:41Z</time>
      </trkpt>
      <trkpt lat="43.71359" lon="4.91138">
        <ele>119.821411</ele>
        <time>2010-12-30T07:30:44Z</time>
      </trkpt>
      <trkpt lat="43.71359" lon="4.91134">
        <ele>120.302124</ele>
        <time>2010-12-30T07:30:47Z</time>
      </trkpt>
      <trkpt lat="43.71361" lon="4.91119">
        <ele>122.224731</ele>
        <time>2010-12-30T07:30:58Z</time>
      </trkpt>
      <trkpt lat="43.71361" lon="4.91115">
        <ele>121.744141</ele>
        <time>2010-12-30T07:31:01Z</time>
      </trkpt>
      <trkpt lat="43.71366" lon="4.91093">
        <ele>121.744141</ele>
        <time>2010-12-30T07:31:15Z</time>
      </trkpt>
      <trkpt lat="43.7137" lon="4.9108">
        <ele>122.224731</ele>
        <time>2010-12-30T07:31:27Z</time>
      </trkpt>
      <trkpt lat="43.7137" lon="4.91078">
        <ele>122.224731</ele>
        <time>2010-12-30T07:31:28Z</time>
      </trkpt>
      <trkpt lat="43.71374" lon="4.91061">
        <ele>122.224731</ele>
        <time>2010-12-30T07:31:39Z</time>
      </trkpt>
      <trkpt lat="43.71378" lon="4.91052">
        <ele>123.186157</ele>
        <time>2010-12-30T07:31:46Z</time>
      </trkpt>
      <trkpt lat="43.71381" lon="4.91044">
        <ele>123.666748</ele>
        <time>2010-12-30T07:31:53Z</time>
      </trkpt>
      <trkpt lat="43.71385" lon="4.91033">
        <ele>124.628052</ele>
        <time>2010-12-30T07:32:01Z</time>
      </trkpt>
      <trkpt lat="43.71391" lon="4.91012">
        <ele>123.186157</ele>
        <time>2010-12-30T07:32:14Z</time>
      </trkpt>
      <trkpt lat="43.71396" lon="4.9099">
        <ele>124.628052</ele>
        <time>2010-12-30T07:32:27Z</time>
      </trkpt>
      <trkpt lat="43.71404" lon="4.90975">
        <ele>126.069946</ele>
        <time>2010-12-30T07:32:41Z</time>
      </trkpt>
      <trkpt lat="43.71413" lon="4.90962">
        <ele>126.550659</ele>
        <time>2010-12-30T07:32:53Z</time>
      </trkpt>
      <trkpt lat="43.71417" lon="4.90941">
        <ele>127.511963</ele>
        <time>2010-12-30T07:33:07Z</time>
      </trkpt>
      <trkpt lat="43.71419" lon="4.90922">
        <ele>128.473389</ele>
        <time>2010-12-30T07:33:19Z</time>
      </trkpt>
      <trkpt lat="43.71421" lon="4.90917">
        <ele>128.954102</ele>
        <time>2010-12-30T07:33:23Z</time>
      </trkpt>
      <trkpt lat="43.71421" lon="4.90913">
        <ele>129.434692</ele>
        <time>2010-12-30T07:33:25Z</time>
      </trkpt>
      <trkpt lat="43.71426" lon="4.90909">
        <ele>129.434692</ele>
        <time>2010-12-30T07:33:30Z</time>
      </trkpt>
      <trkpt lat="43.7143" lon="4.90889">
        <ele>130.395996</ele>
        <time>2010-12-30T07:33:44Z</time>
      </trkpt>
      <trkpt lat="43.71432" lon="4.9087">
        <ele>134.241211</ele>
        <time>2010-12-30T07:33:58Z</time>
      </trkpt>
      <trkpt lat="43.71434" lon="4.90849">
        <ele>136.16394</ele>
        <time>2010-12-30T07:34:11Z</time>
      </trkpt>
      <trkpt lat="43.71436" lon="4.90834">
        <ele>137.605835</ele>
        <time>2010-12-30T07:34:21Z</time>
      </trkpt>
      <trkpt lat="43.71439" lon="4.90821">
        <ele>140.489868</ele>
        <time>2010-12-30T07:34:32Z</time>
      </trkpt>
      <trkpt lat="43.71445" lon="4.90801">
        <ele>140.009155</ele>
        <time>2010-12-30T07:34:45Z</time>
      </trkpt>
      <trkpt lat="43.71449" lon="4.90786">
        <ele>140.009155</ele>
        <time>2010-12-30T07:34:54Z</time>
      </trkpt>
      <trkpt lat="43.71454" lon="4.90778">
        <ele>140.009155</ele>
        <time>2010-12-30T07:35:00Z</time>
      </trkpt>
      <trkpt lat="43.71458" lon="4.90756">
        <ele>138.086548</ele>
        <time>2010-12-30T07:35:14Z</time>
      </trkpt>
      <trkpt lat="43.7146" lon="4.9075">
        <ele>138.086548</ele>
        <time>2010-12-30T07:35:19Z</time>
      </trkpt>
      <trkpt lat="43.71462" lon="4.90746">
        <ele>137.605835</ele>
        <time>2010-12-30T07:35:22Z</time>
      </trkpt>
      <trkpt lat="43.71464" lon="4.90731">
        <ele>137.605835</ele>
        <time>2010-12-30T07:35:33Z</time>
      </trkpt>
      <trkpt lat="43.71464" lon="4.90726">
        <ele>137.605835</ele>
        <time>2010-12-30T07:35:36Z</time>
      </trkpt>
      <trkpt lat="43.71466" lon="4.90705">
        <ele>135.202515</ele>
        <time>2010-12-30T07:35:49Z</time>
      </trkpt>
      <trkpt lat="43.71469" lon="4.90686">
        <ele>135.202515</ele>
        <time>2010-12-30T07:36:04Z</time>
      </trkpt>
      <trkpt lat="43.71475" lon="4.90683">
        <ele>128.473389</ele>
        <time>2010-12-30T07:36:18Z</time>
      </trkpt>
      <trkpt lat="43.71475" lon="4.90681">
        <ele>125.589355</ele>
        <time>2010-12-30T07:36:32Z</time>
      </trkpt>
      <trkpt lat="43.71473" lon="4.90681">
        <ele>125.108765</ele>
        <time>2010-12-30T07:36:45Z</time>
      </trkpt>
      <trkpt lat="43.71477" lon="4.90681">
        <ele>127.992554</ele>
        <time>2010-12-30T07:37:06Z</time>
      </trkpt>
      <trkpt lat="43.71475" lon="4.90681">
        <ele>125.108765</ele>
        <time>2010-12-30T07:37:28Z</time>
      </trkpt>
      <trkpt lat="43.71475" lon="4.90677">
        <ele>126.069946</ele>
        <time>2010-12-30T07:37:38Z</time>
      </trkpt>
      <trkpt lat="43.71473" lon="4.90664">
        <ele>126.069946</ele>
        <time>2010-12-30T07:37:47Z</time>
      </trkpt>
      <trkpt lat="43.71475" lon="4.90643">
        <ele>129.434692</ele>
        <time>2010-12-30T07:38:01Z</time>
      </trkpt>
      <trkpt lat="43.71473" lon="4.90623">
        <ele>132.318604</ele>
        <time>2010-12-30T07:38:14Z</time>
      </trkpt>
      <trkpt lat="43.71475" lon="4.90606">
        <ele>131.3573</ele>
        <time>2010-12-30T07:38:24Z</time>
      </trkpt>
      <trkpt lat="43.71477" lon="4.90591">
        <ele>128.473389</ele>
        <time>2010-12-30T07:38:32Z</time>
      </trkpt>
      <trkpt lat="43.71481" lon="4.90565">
        <ele>123.666748</ele>
        <time>2010-12-30T07:38:49Z</time>
      </trkpt>
      <trkpt lat="43.71481" lon="4.90561">
        <ele>123.186157</ele>
        <time>2010-12-30T07:38:52Z</time>
      </trkpt>
      <trkpt lat="43.71481" lon="4.9055">
        <ele>122.705444</ele>
        <time>2010-12-30T07:38:58Z</time>
      </trkpt>
      <trkpt lat="43.71484" lon="4.90525">
        <ele>120.782837</ele>
        <time>2010-12-30T07:39:12Z</time>
      </trkpt>
      <trkpt lat="43.71484" lon="4.90505">
        <ele>120.302124</ele>
        <time>2010-12-30T07:39:25Z</time>
      </trkpt>
      <trkpt lat="43.71488" lon="4.9048">
        <ele>118.379395</ele>
        <time>2010-12-30T07:39:41Z</time>
      </trkpt>
      <trkpt lat="43.7149" lon="4.90456">
        <ele>117.898804</ele>
        <time>2010-12-30T07:39:56Z</time>
      </trkpt>
      <trkpt lat="43.71494" lon="4.90434">
        <ele>117.898804</ele>
        <time>2010-12-30T07:40:09Z</time>
      </trkpt>
      <trkpt lat="43.71496" lon="4.90413">
        <ele>117.418213</ele>
        <time>2010-12-30T07:40:23Z</time>
      </trkpt>
      <trkpt lat="43.71501" lon="4.90387">
        <ele>116.9375</ele>
        <time>2010-12-30T07:40:39Z</time>
      </trkpt>
      <trkpt lat="43.71507" lon="4.90362">
        <ele>115.495605</ele>
        <time>2010-12-30T07:40:56Z</time>
      </trkpt>
      <trkpt lat="43.71512" lon="4.90346">
        <ele>113.092285</ele>
        <time>2010-12-30T07:41:06Z</time>
      </trkpt>
      <trkpt lat="43.71512" lon="4.90342">
        <ele>113.092285</ele>
        <time>2010-12-30T07:41:09Z</time>
      </trkpt>
      <trkpt lat="43.71516" lon="4.90325">
        <ele>114.053589</ele>
        <time>2010-12-30T07:41:20Z</time>
      </trkpt>
      <trkpt lat="43.71518" lon="4.90306">
        <ele>114.053589</ele>
        <time>2010-12-30T07:41:32Z</time>
      </trkpt>
      <trkpt lat="43.71522" lon="4.90282">
        <ele>111.169556</ele>
        <time>2010-12-30T07:41:47Z</time>
      </trkpt>
      <trkpt lat="43.71524" lon="4.90254">
        <ele>110.688843</ele>
        <time>2010-12-30T07:42:02Z</time>
      </trkpt>
      <trkpt lat="43.71524" lon="4.90241">
        <ele>109.727661</ele>
        <time>2010-12-30T07:42:11Z</time>
      </trkpt>
      <trkpt lat="43.71522" lon="4.90224">
        <ele>108.766235</ele>
        <time>2010-12-30T07:42:22Z</time>
      </trkpt>
      <trkpt lat="43.7152" lon="4.90209">
        <ele>109.246948</ele>
        <time>2010-12-30T07:42:32Z</time>
      </trkpt>
      <trkpt lat="43.71522" lon="4.90181">
        <ele>108.285645</ele>
        <time>2010-12-30T07:42:46Z</time>
      </trkpt>
      <trkpt lat="43.71527" lon="4.90162">
        <ele>106.363037</ele>
        <time>2010-12-30T07:42:58Z</time>
      </trkpt>
      <trkpt lat="43.71527" lon="4.90143">
        <ele>105.882446</ele>
        <time>2010-12-30T07:43:12Z</time>
      </trkpt>
      <trkpt lat="43.71527" lon="4.90138">
        <ele>105.882446</ele>
        <time>2010-12-30T07:43:14Z</time>
      </trkpt>
      <trkpt lat="43.71527" lon="4.90113">
        <ele>106.363037</ele>
        <time>2010-12-30T07:43:29Z</time>
      </trkpt>
      <trkpt lat="43.71524" lon="4.90091">
        <ele>105.882446</ele>
        <time>2010-12-30T07:43:42Z</time>
      </trkpt>
      <trkpt lat="43.71522" lon="4.90087">
        <ele>104.921021</ele>
        <time>2010-12-30T07:43:46Z</time>
      </trkpt>
      <trkpt lat="43.7152" lon="4.90068">
        <ele>104.921021</ele>
        <time>2010-12-30T07:43:59Z</time>
      </trkpt>
      <trkpt lat="43.7152" lon="4.90044">
        <ele>106.843628</ele>
        <time>2010-12-30T07:44:12Z</time>
      </trkpt>
      <trkpt lat="43.7152" lon="4.90042">
        <ele>106.843628</ele>
        <time>2010-12-30T07:44:13Z</time>
      </trkpt>
      <trkpt lat="43.71518" lon="4.90033">
        <ele>106.363037</ele>
        <time>2010-12-30T07:44:18Z</time>
      </trkpt>
      <trkpt lat="43.71522" lon="4.90007">
        <ele>103.479004</ele>
        <time>2010-12-30T07:44:33Z</time>
      </trkpt>
      <trkpt lat="43.7152" lon="4.90007">
        <ele>103.479004</ele>
        <time>2010-12-30T07:44:34Z</time>
      </trkpt>
      <trkpt lat="43.71522" lon="4.8999">
        <ele>101.556396</ele>
        <time>2010-12-30T07:44:46Z</time>
      </trkpt>
      <trkpt lat="43.71522" lon="4.89971">
        <ele>101.075684</ele>
        <time>2010-12-30T07:44:56Z</time>
      </trkpt>
      <trkpt lat="43.71527" lon="4.89947">
        <ele>99.633789</ele>
        <time>2010-12-30T07:45:09Z</time>
      </trkpt>
      <trkpt lat="43.71527" lon="4.89943">
        <ele>99.153076</ele>
        <time>2010-12-30T07:45:12Z</time>
      </trkpt>
      <trkpt lat="43.71529" lon="4.89932">
        <ele>98.191895</ele>
        <time>2010-12-30T07:45:18Z</time>
      </trkpt>
      <trkpt lat="43.71539" lon="4.89913">
        <ele>95.307739</ele>
        <time>2010-12-30T07:45:32Z</time>
      </trkpt>
      <trkpt lat="43.71546" lon="4.89892">
        <ele>97.230469</ele>
        <time>2010-12-30T07:45:46Z</time>
      </trkpt>
      <trkpt lat="43.7155" lon="4.89866">
        <ele>96.749878</ele>
        <time>2010-12-30T07:46:02Z</time>
      </trkpt>
      <trkpt lat="43.7155" lon="4.89849">
        <ele>98.191895</ele>
        <time>2010-12-30T07:46:13Z</time>
      </trkpt>
      <trkpt lat="43.71559" lon="4.89829">
        <ele>97.230469</ele>
        <time>2010-12-30T07:46:25Z</time>
      </trkpt>
      <trkpt lat="43.71561" lon="4.89823">
        <ele>96.749878</ele>
        <time>2010-12-30T07:46:30Z</time>
      </trkpt>
      <trkpt lat="43.71565" lon="4.89806">
        <ele>95.307739</ele>
        <time>2010-12-30T07:46:39Z</time>
      </trkpt>
      <trkpt lat="43.71569" lon="4.89784">
        <ele>91.943237</ele>
        <time>2010-12-30T07:46:53Z</time>
      </trkpt>
      <trkpt lat="43.71572" lon="4.89782">
        <ele>91.462524</ele>
        <time>2010-12-30T07:46:55Z</time>
      </trkpt>
      <trkpt lat="43.71576" lon="4.89763">
        <ele>89.539917</ele>
        <time>2010-12-30T07:47:07Z</time>
      </trkpt>
      <trkpt lat="43.71576" lon="4.89761">
        <ele>89.539917</ele>
        <time>2010-12-30T07:47:08Z</time>
      </trkpt>
      <trkpt lat="43.71578" lon="4.89741">
        <ele>87.617188</ele>
        <time>2010-12-30T07:47:22Z</time>
      </trkpt>
      <trkpt lat="43.71576" lon="4.89735">
        <ele>86.656006</ele>
        <time>2010-12-30T07:47:33Z</time>
      </trkpt>
      <trkpt lat="43.71574" lon="4.89737">
        <ele>86.656006</ele>
        <time>2010-12-30T07:47:38Z</time>
      </trkpt>
      <trkpt lat="43.71565" lon="4.89735">
        <ele>86.656006</ele>
        <time>2010-12-30T07:47:48Z</time>
      </trkpt>
      <trkpt lat="43.71567" lon="4.89731">
        <ele>86.175293</ele>
        <time>2010-12-30T07:47:52Z</time>
      </trkpt>
      <trkpt lat="43.71576" lon="4.89731">
        <ele>85.213989</ele>
        <time>2010-12-30T07:48:00Z</time>
      </trkpt>
      <trkpt lat="43.71578" lon="4.89729">
        <ele>84.733398</ele>
        <time>2010-12-30T07:48:02Z</time>
      </trkpt>
      <trkpt lat="43.71582" lon="4.89726">
        <ele>84.252686</ele>
        <time>2010-12-30T07:48:07Z</time>
      </trkpt>
      <trkpt lat="43.71584" lon="4.89718">
        <ele>83.291382</ele>
        <time>2010-12-30T07:48:13Z</time>
      </trkpt>
      <trkpt lat="43.71593" lon="4.89698">
        <ele>80.888184</ele>
        <time>2010-12-30T07:48:28Z</time>
      </trkpt>
      <trkpt lat="43.71597" lon="4.89692">
        <ele>80.888184</ele>
        <time>2010-12-30T07:48:33Z</time>
      </trkpt>
      <trkpt lat="43.71599" lon="4.89683">
        <ele>82.330078</ele>
        <time>2010-12-30T07:48:40Z</time>
      </trkpt>
      <trkpt lat="43.71604" lon="4.89673">
        <ele>82.330078</ele>
        <time>2010-12-30T07:48:47Z</time>
      </trkpt>
      <trkpt lat="43.71604" lon="4.89666">
        <ele>82.330078</ele>
        <time>2010-12-30T07:48:52Z</time>
      </trkpt>
      <trkpt lat="43.71604" lon="4.8966">
        <ele>83.291382</ele>
        <time>2010-12-30T07:48:57Z</time>
      </trkpt>
      <trkpt lat="43.71602" lon="4.89645">
        <ele>85.213989</ele>
        <time>2010-12-30T07:49:09Z</time>
      </trkpt>
      <trkpt lat="43.71591" lon="4.89634">
        <ele>85.69458</ele>
        <time>2010-12-30T07:49:21Z</time>
      </trkpt>
      <trkpt lat="43.71578" lon="4.89628">
        <ele>90.02063</ele>
        <time>2010-12-30T07:49:34Z</time>
      </trkpt>
      <trkpt lat="43.71567" lon="4.89626">
        <ele>93.385132</ele>
        <time>2010-12-30T07:49:43Z</time>
      </trkpt>
      <trkpt lat="43.71559" lon="4.89623">
        <ele>96.269287</ele>
        <time>2010-12-30T07:49:55Z</time>
      </trkpt>
      <trkpt lat="43.71552" lon="4.89621">
        <ele>98.672485</ele>
        <time>2010-12-30T07:50:04Z</time>
      </trkpt>
      <trkpt lat="43.71548" lon="4.89619">
        <ele>99.633789</ele>
        <time>2010-12-30T07:50:09Z</time>
      </trkpt>
      <trkpt lat="43.71535" lon="4.89617">
        <ele>98.672485</ele>
        <time>2010-12-30T07:50:19Z</time>
      </trkpt>
      <trkpt lat="43.71527" lon="4.8961">
        <ele>100.595093</ele>
        <time>2010-12-30T07:50:29Z</time>
      </trkpt>
      <trkpt lat="43.71524" lon="4.8961">
        <ele>101.075684</ele>
        <time>2010-12-30T07:50:30Z</time>
      </trkpt>
      <trkpt lat="43.71522" lon="4.89615">
        <ele>100.114502</ele>
        <time>2010-12-30T07:50:41Z</time>
      </trkpt>
      <trkpt lat="43.71529" lon="4.89604">
        <ele>98.672485</ele>
        <time>2010-12-30T07:50:53Z</time>
      </trkpt>
      <trkpt lat="43.71529" lon="4.896">
        <ele>98.672485</ele>
        <time>2010-12-30T07:50:57Z</time>
      </trkpt>
      <trkpt lat="43.71529" lon="4.89595">
        <ele>98.191895</ele>
        <time>2010-12-30T07:50:59Z</time>
      </trkpt>
      <trkpt lat="43.71527" lon="4.89578">
        <ele>98.191895</ele>
        <time>2010-12-30T07:51:11Z</time>
      </trkpt>
      <trkpt lat="43.71524" lon="4.89561">
        <ele>99.633789</ele>
        <time>2010-12-30T07:51:23Z</time>
      </trkpt>
      <trkpt lat="43.71522" lon="4.89544">
        <ele>100.595093</ele>
        <time>2010-12-30T07:51:36Z</time>
      </trkpt>
      <trkpt lat="43.71524" lon="4.89535">
        <ele>98.191895</ele>
        <time>2010-12-30T07:51:51Z</time>
      </trkpt>
      <trkpt lat="43.7152" lon="4.89518">
        <ele>97.230469</ele>
        <time>2010-12-30T07:52:02Z</time>
      </trkpt>
      <trkpt lat="43.71516" lon="4.89514">
        <ele>94.827148</ele>
        <time>2010-12-30T07:52:08Z</time>
      </trkpt>
      <trkpt lat="43.71507" lon="4.89505">
        <ele>94.346558</ele>
        <time>2010-12-30T07:52:17Z</time>
      </trkpt>
      <trkpt lat="43.71501" lon="4.89499">
        <ele>93.865845</ele>
        <time>2010-12-30T07:52:25Z</time>
      </trkpt>
      <trkpt lat="43.71494" lon="4.89488">
        <ele>94.827148</ele>
        <time>2010-12-30T07:52:33Z</time>
      </trkpt>
      <trkpt lat="43.71494" lon="4.89477">
        <ele>96.269287</ele>
        <time>2010-12-30T07:52:40Z</time>
      </trkpt>
      <trkpt lat="43.71496" lon="4.89465">
        <ele>98.191895</ele>
        <time>2010-12-30T07:52:47Z</time>
      </trkpt>
      <trkpt lat="43.71499" lon="4.89456">
        <ele>98.672485</ele>
        <time>2010-12-30T07:52:52Z</time>
      </trkpt>
      <trkpt lat="43.71501" lon="4.89445">
        <ele>99.153076</ele>
        <time>2010-12-30T07:52:59Z</time>
      </trkpt>
      <trkpt lat="43.71499" lon="4.89437">
        <ele>99.633789</ele>
        <time>2010-12-30T07:53:05Z</time>
      </trkpt>
      <trkpt lat="43.71503" lon="4.89415">
        <ele>97.230469</ele>
        <time>2010-12-30T07:53:19Z</time>
      </trkpt>
      <trkpt lat="43.71507" lon="4.89394">
        <ele>96.749878</ele>
        <time>2010-12-30T07:53:32Z</time>
      </trkpt>
      <trkpt lat="43.71509" lon="4.8937">
        <ele>97.711182</ele>
        <time>2010-12-30T07:53:46Z</time>
      </trkpt>
      <trkpt lat="43.71509" lon="4.89351">
        <ele>97.711182</ele>
        <time>2010-12-30T07:53:58Z</time>
      </trkpt>
      <trkpt lat="43.71509" lon="4.89347">
        <ele>97.711182</ele>
        <time>2010-12-30T07:54:01Z</time>
      </trkpt>
      <trkpt lat="43.71516" lon="4.89327">
        <ele>94.346558</ele>
        <time>2010-12-30T07:54:14Z</time>
      </trkpt>
      <trkpt lat="43.71518" lon="4.89321">
        <ele>93.865845</ele>
        <time>2010-12-30T07:54:18Z</time>
      </trkpt>
      <trkpt lat="43.71522" lon="4.89304">
        <ele>93.865845</ele>
        <time>2010-12-30T07:54:30Z</time>
      </trkpt>
      <trkpt lat="43.71524" lon="4.89282">
        <ele>95.307739</ele>
        <time>2010-12-30T07:54:43Z</time>
      </trkpt>
      <trkpt lat="43.71524" lon="4.89269">
        <ele>95.307739</ele>
        <time>2010-12-30T07:54:51Z</time>
      </trkpt>
      <trkpt lat="43.71529" lon="4.8925">
        <ele>94.346558</ele>
        <time>2010-12-30T07:55:04Z</time>
      </trkpt>
      <trkpt lat="43.71529" lon="4.89246">
        <ele>93.865845</ele>
        <time>2010-12-30T07:55:06Z</time>
      </trkpt>
      <trkpt lat="43.71531" lon="4.89237">
        <ele>92.904541</ele>
        <time>2010-12-30T07:55:12Z</time>
      </trkpt>
      <trkpt lat="43.71531" lon="4.89233">
        <ele>92.42395</ele>
        <time>2010-12-30T07:55:15Z</time>
      </trkpt>
      <trkpt lat="43.71533" lon="4.89214">
        <ele>92.42395</ele>
        <time>2010-12-30T07:55:29Z</time>
      </trkpt>
      <trkpt lat="43.71533" lon="4.89211">
        <ele>92.904541</ele>
        <time>2010-12-30T07:55:30Z</time>
      </trkpt>
      <trkpt lat="43.71531" lon="4.8919">
        <ele>92.42395</ele>
        <time>2010-12-30T07:55:43Z</time>
      </trkpt>
      <trkpt lat="43.71531" lon="4.89188">
        <ele>92.42395</ele>
        <time>2010-12-30T07:55:45Z</time>
      </trkpt>
      <trkpt lat="43.71531" lon="4.89173">
        <ele>92.904541</ele>
        <time>2010-12-30T07:55:55Z</time>
      </trkpt>
      <trkpt lat="43.71533" lon="4.89153">
        <ele>93.865845</ele>
        <time>2010-12-30T07:56:08Z</time>
      </trkpt>
      <trkpt lat="43.71533" lon="4.89151">
        <ele>94.346558</ele>
        <time>2010-12-30T07:56:10Z</time>
      </trkpt>
      <trkpt lat="43.71533" lon="4.89143">
        <ele>95.788452</ele>
        <time>2010-12-30T07:56:15Z</time>
      </trkpt>
      <trkpt lat="43.71533" lon="4.8913">
        <ele>95.307739</ele>
        <time>2010-12-30T07:56:23Z</time>
      </trkpt>
      <trkpt lat="43.71531" lon="4.89104">
        <ele>94.346558</ele>
        <time>2010-12-30T07:56:37Z</time>
      </trkpt>
      <trkpt lat="43.71533" lon="4.891">
        <ele>94.346558</ele>
        <time>2010-12-30T07:56:42Z</time>
      </trkpt>
      <trkpt lat="43.71531" lon="4.89083">
        <ele>96.269287</ele>
        <time>2010-12-30T07:56:53Z</time>
      </trkpt>
      <trkpt lat="43.71527" lon="4.89072">
        <ele>96.749878</ele>
        <time>2010-12-30T07:57:02Z</time>
      </trkpt>
      <trkpt lat="43.71527" lon="4.89065">
        <ele>95.788452</ele>
        <time>2010-12-30T07:57:06Z</time>
      </trkpt>
      <trkpt lat="43.71527" lon="4.89061">
        <ele>95.307739</ele>
        <time>2010-12-30T07:57:08Z</time>
      </trkpt>
      <trkpt lat="43.71524" lon="4.8904">
        <ele>94.346558</ele>
        <time>2010-12-30T07:57:21Z</time>
      </trkpt>
      <trkpt lat="43.7152" lon="4.89018">
        <ele>95.788452</ele>
        <time>2010-12-30T07:57:35Z</time>
      </trkpt>
      <trkpt lat="43.7152" lon="4.89008">
        <ele>96.749878</ele>
        <time>2010-12-30T07:57:43Z</time>
      </trkpt>
      <trkpt lat="43.71522" lon="4.88986">
        <ele>97.230469</ele>
        <time>2010-12-30T07:57:56Z</time>
      </trkpt>
      <trkpt lat="43.71524" lon="4.88971">
        <ele>97.230469</ele>
        <time>2010-12-30T07:58:04Z</time>
      </trkpt>
      <trkpt lat="43.71524" lon="4.8896">
        <ele>98.672485</ele>
        <time>2010-12-30T07:58:11Z</time>
      </trkpt>
      <trkpt lat="43.71529" lon="4.88941">
        <ele>99.153076</ele>
        <time>2010-12-30T07:58:25Z</time>
      </trkpt>
      <trkpt lat="43.71529" lon="4.88928">
        <ele>99.153076</ele>
        <time>2010-12-30T07:58:35Z</time>
      </trkpt>
      <trkpt lat="43.71531" lon="4.88922">
        <ele>99.153076</ele>
        <time>2010-12-30T07:58:40Z</time>
      </trkpt>
      <trkpt lat="43.71524" lon="4.889">
        <ele>98.672485</ele>
        <time>2010-12-30T07:58:54Z</time>
      </trkpt>
      <trkpt lat="43.71522" lon="4.88898">
        <ele>98.672485</ele>
        <time>2010-12-30T07:58:56Z</time>
      </trkpt>
      <trkpt lat="43.71518" lon="4.88877">
        <ele>99.633789</ele>
        <time>2010-12-30T07:59:09Z</time>
      </trkpt>
      <trkpt lat="43.71518" lon="4.88864">
        <ele>98.672485</ele>
        <time>2010-12-30T07:59:17Z</time>
      </trkpt>
      <trkpt lat="43.7152" lon="4.88857">
        <ele>98.672485</ele>
        <time>2010-12-30T07:59:21Z</time>
      </trkpt>
      <trkpt lat="43.71518" lon="4.88853">
        <ele>98.672485</ele>
        <time>2010-12-30T07:59:24Z</time>
      </trkpt>
      <trkpt lat="43.71518" lon="4.88834">
        <ele>99.153076</ele>
        <time>2010-12-30T07:59:37Z</time>
      </trkpt>
      <trkpt lat="43.71516" lon="4.88829">
        <ele>98.672485</ele>
        <time>2010-12-30T07:59:40Z</time>
      </trkpt>
      <trkpt lat="43.71512" lon="4.88808">
        <ele>97.711182</ele>
        <time>2010-12-30T07:59:53Z</time>
      </trkpt>
      <trkpt lat="43.71509" lon="4.88791">
        <ele>95.788452</ele>
        <time>2010-12-30T08:00:01Z</time>
      </trkpt>
      <trkpt lat="43.71509" lon="4.88787">
        <ele>94.827148</ele>
        <time>2010-12-30T08:00:04Z</time>
      </trkpt>
      <trkpt lat="43.71509" lon="4.88767">
        <ele>94.346558</ele>
        <time>2010-12-30T08:00:16Z</time>
      </trkpt>
      <trkpt lat="43.71509" lon="4.88763">
        <ele>93.865845</ele>
        <time>2010-12-30T08:00:19Z</time>
      </trkpt>
      <trkpt lat="43.71509" lon="4.88756">
        <ele>92.904541</ele>
        <time>2010-12-30T08:00:24Z</time>
      </trkpt>
      <trkpt lat="43.71509" lon="4.88741">
        <ele>91.943237</ele>
        <time>2010-12-30T08:00:32Z</time>
      </trkpt>
      <trkpt lat="43.71509" lon="4.88731">
        <ele>90.981934</ele>
        <time>2010-12-30T08:00:38Z</time>
      </trkpt>
      <trkpt lat="43.71509" lon="4.88711">
        <ele>91.943237</ele>
        <time>2010-12-30T08:00:50Z</time>
      </trkpt>
      <trkpt lat="43.71509" lon="4.88701">
        <ele>91.462524</ele>
        <time>2010-12-30T08:00:56Z</time>
      </trkpt>
      <trkpt lat="43.71507" lon="4.8869">
        <ele>91.462524</ele>
        <time>2010-12-30T08:01:03Z</time>
      </trkpt>
      <trkpt lat="43.71509" lon="4.88666">
        <ele>89.539917</ele>
        <time>2010-12-30T08:01:18Z</time>
      </trkpt>
      <trkpt lat="43.71518" lon="4.88638">
        <ele>88.578735</ele>
        <time>2010-12-30T08:01:34Z</time>
      </trkpt>
      <trkpt lat="43.71518" lon="4.88634">
        <ele>89.059326</ele>
        <time>2010-12-30T08:01:36Z</time>
      </trkpt>
      <trkpt lat="43.71518" lon="4.88626">
        <ele>89.059326</ele>
        <time>2010-12-30T08:01:41Z</time>
      </trkpt>
      <trkpt lat="43.71518" lon="4.88608">
        <ele>90.02063</ele>
        <time>2010-12-30T08:01:52Z</time>
      </trkpt>
      <trkpt lat="43.7152" lon="4.88608">
        <ele>90.02063</ele>
        <time>2010-12-30T08:01:53Z</time>
      </trkpt>
      <trkpt lat="43.71522" lon="4.88587">
        <ele>91.943237</ele>
        <time>2010-12-30T08:02:06Z</time>
      </trkpt>
      <trkpt lat="43.71529" lon="4.88568">
        <ele>92.904541</ele>
        <time>2010-12-30T08:02:20Z</time>
      </trkpt>
      <trkpt lat="43.71531" lon="4.88555">
        <ele>92.42395</ele>
        <time>2010-12-30T08:02:29Z</time>
      </trkpt>
      <trkpt lat="43.71529" lon="4.88538">
        <ele>95.307739</ele>
        <time>2010-12-30T08:02:42Z</time>
      </trkpt>
      <trkpt lat="43.71527" lon="4.88533">
        <ele>95.307739</ele>
        <time>2010-12-30T08:02:46Z</time>
      </trkpt>
      <trkpt lat="43.7152" lon="4.88531">
        <ele>95.788452</ele>
        <time>2010-12-30T08:02:56Z</time>
      </trkpt>
      <trkpt lat="43.71514" lon="4.88525">
        <ele>94.827148</ele>
        <time>2010-12-30T08:03:03Z</time>
      </trkpt>
      <trkpt lat="43.71507" lon="4.88514">
        <ele>90.981934</ele>
        <time>2010-12-30T08:03:13Z</time>
      </trkpt>
      <trkpt lat="43.71503" lon="4.8851">
        <ele>89.539917</ele>
        <time>2010-12-30T08:03:19Z</time>
      </trkpt>
      <trkpt lat="43.7149" lon="4.88497">
        <ele>90.02063</ele>
        <time>2010-12-30T08:03:32Z</time>
      </trkpt>
      <trkpt lat="43.71488" lon="4.8849">
        <ele>89.539917</ele>
        <time>2010-12-30T08:03:36Z</time>
      </trkpt>
      <trkpt lat="43.71486" lon="4.88482">
        <ele>88.578735</ele>
        <time>2010-12-30T08:03:41Z</time>
      </trkpt>
      <trkpt lat="43.71481" lon="4.8846">
        <ele>86.175293</ele>
        <time>2010-12-30T08:03:55Z</time>
      </trkpt>
      <trkpt lat="43.71481" lon="4.88458">
        <ele>85.69458</ele>
        <time>2010-12-30T08:03:57Z</time>
      </trkpt>
      <trkpt lat="43.71473" lon="4.8845">
        <ele>85.69458</ele>
        <time>2010-12-30T08:04:06Z</time>
      </trkpt>
      <trkpt lat="43.71469" lon="4.88441">
        <ele>85.69458</ele>
        <time>2010-12-30T08:04:12Z</time>
      </trkpt>
      <trkpt lat="43.71466" lon="4.88435">
        <ele>86.175293</ele>
        <time>2010-12-30T08:04:16Z</time>
      </trkpt>
      <trkpt lat="43.71464" lon="4.88428">
        <ele>85.69458</ele>
        <time>2010-12-30T08:04:20Z</time>
      </trkpt>
      <trkpt lat="43.71462" lon="4.88417">
        <ele>83.771973</ele>
        <time>2010-12-30T08:04:27Z</time>
      </trkpt>
      <trkpt lat="43.71458" lon="4.88407">
        <ele>82.330078</ele>
        <time>2010-12-30T08:04:33Z</time>
      </trkpt>
      <trkpt lat="43.71456" lon="4.88398">
        <ele>80.407471</ele>
        <time>2010-12-30T08:04:40Z</time>
      </trkpt>
      <trkpt lat="43.71447" lon="4.88385">
        <ele>81.368774</ele>
        <time>2010-12-30T08:04:51Z</time>
      </trkpt>
      <trkpt lat="43.71447" lon="4.88383">
        <ele>81.368774</ele>
        <time>2010-12-30T08:04:53Z</time>
      </trkpt>
      <trkpt lat="43.71443" lon="4.88372">
        <ele>80.888184</ele>
        <time>2010-12-30T08:05:00Z</time>
      </trkpt>
      <trkpt lat="43.71439" lon="4.8837">
        <ele>81.368774</ele>
        <time>2010-12-30T08:05:03Z</time>
      </trkpt>
      <trkpt lat="43.71439" lon="4.88355">
        <ele>81.368774</ele>
        <time>2010-12-30T08:05:11Z</time>
      </trkpt>
      <trkpt lat="43.71441" lon="4.88338">
        <ele>80.888184</ele>
        <time>2010-12-30T08:05:21Z</time>
      </trkpt>
      <trkpt lat="43.71441" lon="4.88336">
        <ele>80.888184</ele>
        <time>2010-12-30T08:05:23Z</time>
      </trkpt>
      <trkpt lat="43.71441" lon="4.88332">
        <ele>80.888184</ele>
        <time>2010-12-30T08:05:26Z</time>
      </trkpt>
      <trkpt lat="43.71445" lon="4.8831">
        <ele>78.484741</ele>
        <time>2010-12-30T08:05:39Z</time>
      </trkpt>
      <trkpt lat="43.71445" lon="4.88308">
        <ele>78.484741</ele>
        <time>2010-12-30T08:05:41Z</time>
      </trkpt>
      <trkpt lat="43.71445" lon="4.88295">
        <ele>77.523438</ele>
        <time>2010-12-30T08:05:48Z</time>
      </trkpt>
      <trkpt lat="43.71449" lon="4.88272">
        <ele>76.562134</ele>
        <time>2010-12-30T08:06:03Z</time>
      </trkpt>
      <trkpt lat="43.71454" lon="4.88257">
        <ele>76.081421</ele>
        <time>2010-12-30T08:06:13Z</time>
      </trkpt>
      <trkpt lat="43.71454" lon="4.88254">
        <ele>76.081421</ele>
        <time>2010-12-30T08:06:15Z</time>
      </trkpt>
      <trkpt lat="43.71454" lon="4.88244">
        <ele>76.081421</ele>
        <time>2010-12-30T08:06:22Z</time>
      </trkpt>
      <trkpt lat="43.71451" lon="4.88235">
        <ele>74.158813</ele>
        <time>2010-12-30T08:06:28Z</time>
      </trkpt>
      <trkpt lat="43.71451" lon="4.88207">
        <ele>71.755493</ele>
        <time>2010-12-30T08:06:42Z</time>
      </trkpt>
      <trkpt lat="43.71449" lon="4.88201">
        <ele>72.236206</ele>
        <time>2010-12-30T08:06:48Z</time>
      </trkpt>
      <trkpt lat="43.71445" lon="4.88196">
        <ele>72.236206</ele>
        <time>2010-12-30T08:06:53Z</time>
      </trkpt>
      <trkpt lat="43.71445" lon="4.88196">
        <ele>72.716919</ele>
        <time>2010-12-30T08:07:07Z</time>
      </trkpt>
      <trkpt lat="43.71445" lon="4.88194">
        <ele>72.236206</ele>
        <time>2010-12-30T08:07:36Z</time>
      </trkpt>
      <trkpt lat="43.71443" lon="4.88192">
        <ele>71.755493</ele>
        <time>2010-12-30T08:07:38Z</time>
      </trkpt>
      <trkpt lat="43.71443" lon="4.88181">
        <ele>71.274902</ele>
        <time>2010-12-30T08:07:45Z</time>
      </trkpt>
      <trkpt lat="43.71449" lon="4.88166">
        <ele>70.313477</ele>
        <time>2010-12-30T08:07:54Z</time>
      </trkpt>
      <trkpt lat="43.71454" lon="4.88156">
        <ele>68.871582</ele>
        <time>2010-12-30T08:08:02Z</time>
      </trkpt>
      <trkpt lat="43.71456" lon="4.88154">
        <ele>68.390869</ele>
        <time>2010-12-30T08:08:04Z</time>
      </trkpt>
      <trkpt lat="43.7146" lon="4.88145">
        <ele>67.910278</ele>
        <time>2010-12-30T08:08:11Z</time>
      </trkpt>
      <trkpt lat="43.7146" lon="4.88143">
        <ele>67.910278</ele>
        <time>2010-12-30T08:08:13Z</time>
      </trkpt>
      <trkpt lat="43.71464" lon="4.88138">
        <ele>67.429688</ele>
        <time>2010-12-30T08:08:18Z</time>
      </trkpt>
      <trkpt lat="43.71471" lon="4.88128">
        <ele>67.429688</ele>
        <time>2010-12-30T08:08:28Z</time>
      </trkpt>
      <trkpt lat="43.71471" lon="4.88126">
        <ele>67.910278</ele>
        <time>2010-12-30T08:08:29Z</time>
      </trkpt>
      <trkpt lat="43.71477" lon="4.88117">
        <ele>69.832886</ele>
        <time>2010-12-30T08:08:39Z</time>
      </trkpt>
      <trkpt lat="43.71479" lon="4.88108">
        <ele>74.639526</ele>
        <time>2010-12-30T08:08:49Z</time>
      </trkpt>
      <trkpt lat="43.71481" lon="4.88102">
        <ele>78.004028</ele>
        <time>2010-12-30T08:08:54Z</time>
      </trkpt>
      <trkpt lat="43.71486" lon="4.88085">
        <ele>81.849365</ele>
        <time>2010-12-30T08:09:04Z</time>
      </trkpt>
      <trkpt lat="43.7149" lon="4.88076">
        <ele>86.175293</ele>
        <time>2010-12-30T08:09:11Z</time>
      </trkpt>
      <trkpt lat="43.71494" lon="4.88057">
        <ele>91.943237</ele>
        <time>2010-12-30T08:09:26Z</time>
      </trkpt>
      <trkpt lat="43.71507" lon="4.88033">
        <ele>90.02063</ele>
        <time>2010-12-30T08:09:39Z</time>
      </trkpt>
      <trkpt lat="43.71509" lon="4.88027">
        <ele>90.02063</ele>
        <time>2010-12-30T08:09:44Z</time>
      </trkpt>
      <trkpt lat="43.71507" lon="4.88025">
        <ele>90.02063</ele>
        <time>2010-12-30T08:09:46Z</time>
      </trkpt>
      <trkpt lat="43.71518" lon="4.88016">
        <ele>89.539917</ele>
        <time>2010-12-30T08:09:57Z</time>
      </trkpt>
      <trkpt lat="43.71522" lon="4.88003">
        <ele>90.501343</ele>
        <time>2010-12-30T08:10:10Z</time>
      </trkpt>
      <trkpt lat="43.71524" lon="4.88001">
        <ele>90.981934</ele>
        <time>2010-12-30T08:10:12Z</time>
      </trkpt>
      <trkpt lat="43.71527" lon="4.87988">
        <ele>91.943237</ele>
        <time>2010-12-30T08:10:24Z</time>
      </trkpt>
      <trkpt lat="43.71533" lon="4.87975">
        <ele>94.346558</ele>
        <time>2010-12-30T08:10:35Z</time>
      </trkpt>
      <trkpt lat="43.71537" lon="4.87963">
        <ele>95.788452</ele>
        <time>2010-12-30T08:10:45Z</time>
      </trkpt>
      <trkpt lat="43.7155" lon="4.87937">
        <ele>98.191895</ele>
        <time>2010-12-30T08:11:07Z</time>
      </trkpt>
      <trkpt lat="43.71557" lon="4.87926">
        <ele>100.114502</ele>
        <time>2010-12-30T08:11:16Z</time>
      </trkpt>
      <trkpt lat="43.71569" lon="4.87905">
        <ele>99.153076</ele>
        <time>2010-12-30T08:11:27Z</time>
      </trkpt>
      <trkpt lat="43.71576" lon="4.87892">
        <ele>98.191895</ele>
        <time>2010-12-30T08:11:33Z</time>
      </trkpt>
      <trkpt lat="43.71574" lon="4.87885">
        <ele>95.788452</ele>
        <time>2010-12-30T08:11:36Z</time>
      </trkpt>
      <trkpt lat="43.7158" lon="4.87855">
        <ele>91.462524</ele>
        <time>2010-12-30T08:11:50Z</time>
      </trkpt>
      <trkpt lat="43.71587" lon="4.87832">
        <ele>88.098022</ele>
        <time>2010-12-30T08:12:02Z</time>
      </trkpt>
      <trkpt lat="43.71591" lon="4.87808">
        <ele>87.136597</ele>
        <time>2010-12-30T08:12:15Z</time>
      </trkpt>
      <trkpt lat="43.71593" lon="4.87797">
        <ele>86.175293</ele>
        <time>2010-12-30T08:12:23Z</time>
      </trkpt>
      <trkpt lat="43.71599" lon="4.87774">
        <ele>84.252686</ele>
        <time>2010-12-30T08:12:38Z</time>
      </trkpt>
      <trkpt lat="43.71604" lon="4.87757">
        <ele>84.252686</ele>
        <time>2010-12-30T08:12:49Z</time>
      </trkpt>
      <trkpt lat="43.71608" lon="4.87737">
        <ele>82.810791</ele>
        <time>2010-12-30T08:13:02Z</time>
      </trkpt>
      <trkpt lat="43.71612" lon="4.87718">
        <ele>81.849365</ele>
        <time>2010-12-30T08:13:14Z</time>
      </trkpt>
      <trkpt lat="43.71619" lon="4.87694">
        <ele>84.252686</ele>
        <time>2010-12-30T08:13:28Z</time>
      </trkpt>
      <trkpt lat="43.71623" lon="4.87675">
        <ele>83.771973</ele>
        <time>2010-12-30T08:13:41Z</time>
      </trkpt>
      <trkpt lat="43.71623" lon="4.87673">
        <ele>83.771973</ele>
        <time>2010-12-30T08:13:42Z</time>
      </trkpt>
      <trkpt lat="43.71625" lon="4.87651">
        <ele>84.252686</ele>
        <time>2010-12-30T08:13:56Z</time>
      </trkpt>
      <trkpt lat="43.71632" lon="4.8763">
        <ele>86.175293</ele>
        <time>2010-12-30T08:14:10Z</time>
      </trkpt>
      <trkpt lat="43.71634" lon="4.87615">
        <ele>88.578735</ele>
        <time>2010-12-30T08:14:20Z</time>
      </trkpt>
      <trkpt lat="43.71636" lon="4.876">
        <ele>90.981934</ele>
        <time>2010-12-30T08:14:32Z</time>
      </trkpt>
      <trkpt lat="43.71638" lon="4.87585">
        <ele>94.827148</ele>
        <time>2010-12-30T08:14:45Z</time>
      </trkpt>
      <trkpt lat="43.71642" lon="4.87574">
        <ele>95.788452</ele>
        <time>2010-12-30T08:14:52Z</time>
      </trkpt>
      <trkpt lat="43.71642" lon="4.8757">
        <ele>95.788452</ele>
        <time>2010-12-30T08:14:54Z</time>
      </trkpt>
      <trkpt lat="43.71642" lon="4.87566">
        <ele>95.788452</ele>
        <time>2010-12-30T08:14:56Z</time>
      </trkpt>
      <trkpt lat="43.71649" lon="4.8754">
        <ele>91.462524</ele>
        <time>2010-12-30T08:15:10Z</time>
      </trkpt>
      <trkpt lat="43.71653" lon="4.87518">
        <ele>89.539917</ele>
        <time>2010-12-30T08:15:24Z</time>
      </trkpt>
      <trkpt lat="43.71653" lon="4.87499">
        <ele>90.981934</ele>
        <time>2010-12-30T08:15:35Z</time>
      </trkpt>
      <trkpt lat="43.71653" lon="4.87497">
        <ele>90.501343</ele>
        <time>2010-12-30T08:15:37Z</time>
      </trkpt>
      <trkpt lat="43.71655" lon="4.87488">
        <ele>90.02063</ele>
        <time>2010-12-30T08:15:42Z</time>
      </trkpt>
      <trkpt lat="43.7166" lon="4.87471">
        <ele>90.02063</ele>
        <time>2010-12-30T08:15:52Z</time>
      </trkpt>
      <trkpt lat="43.71664" lon="4.87458">
        <ele>89.059326</ele>
        <time>2010-12-30T08:16:02Z</time>
      </trkpt>
      <trkpt lat="43.71668" lon="4.87443">
        <ele>87.617188</ele>
        <time>2010-12-30T08:16:12Z</time>
      </trkpt>
      <trkpt lat="43.71668" lon="4.87422">
        <ele>88.578735</ele>
        <time>2010-12-30T08:16:26Z</time>
      </trkpt>
      <trkpt lat="43.71668" lon="4.8742">
        <ele>88.578735</ele>
        <time>2010-12-30T08:16:28Z</time>
      </trkpt>
      <trkpt lat="43.71668" lon="4.87415">
        <ele>88.578735</ele>
        <time>2010-12-30T08:16:31Z</time>
      </trkpt>
      <trkpt lat="43.71666" lon="4.87396">
        <ele>89.059326</ele>
        <time>2010-12-30T08:16:45Z</time>
      </trkpt>
      <trkpt lat="43.71668" lon="4.87377">
        <ele>90.02063</ele>
        <time>2010-12-30T08:16:57Z</time>
      </trkpt>
      <trkpt lat="43.71668" lon="4.87368">
        <ele>90.02063</ele>
        <time>2010-12-30T08:17:02Z</time>
      </trkpt>
      <trkpt lat="43.7167" lon="4.87355">
        <ele>89.539917</ele>
        <time>2010-12-30T08:17:09Z</time>
      </trkpt>
      <trkpt lat="43.71668" lon="4.87336">
        <ele>90.981934</ele>
        <time>2010-12-30T08:17:22Z</time>
      </trkpt>
      <trkpt lat="43.7167" lon="4.8731">
        <ele>91.462524</ele>
        <time>2010-12-30T08:17:38Z</time>
      </trkpt>
      <trkpt lat="43.7167" lon="4.87304">
        <ele>91.462524</ele>
        <time>2010-12-30T08:17:41Z</time>
      </trkpt>
      <trkpt lat="43.71666" lon="4.87287">
        <ele>89.539917</ele>
        <time>2010-12-30T08:17:52Z</time>
      </trkpt>
      <trkpt lat="43.71664" lon="4.87272">
        <ele>89.059326</ele>
        <time>2010-12-30T08:18:00Z</time>
      </trkpt>
      <trkpt lat="43.71664" lon="4.8725">
        <ele>89.539917</ele>
        <time>2010-12-30T08:18:14Z</time>
      </trkpt>
      <trkpt lat="43.71664" lon="4.87231">
        <ele>91.943237</ele>
        <time>2010-12-30T08:18:27Z</time>
      </trkpt>
      <trkpt lat="43.71662" lon="4.87229">
        <ele>92.42395</ele>
        <time>2010-12-30T08:18:28Z</time>
      </trkpt>
      <trkpt lat="43.71662" lon="4.87224">
        <ele>91.943237</ele>
        <time>2010-12-30T08:18:31Z</time>
      </trkpt>
      <trkpt lat="43.71662" lon="4.87214">
        <ele>90.981934</ele>
        <time>2010-12-30T08:18:43Z</time>
      </trkpt>
      <trkpt lat="43.71662" lon="4.87196">
        <ele>91.462524</ele>
        <time>2010-12-30T08:18:55Z</time>
      </trkpt>
      <trkpt lat="43.71664" lon="4.87169">
        <ele>91.462524</ele>
        <time>2010-12-30T08:19:08Z</time>
      </trkpt>
      <trkpt lat="43.71666" lon="4.87158">
        <ele>90.02063</ele>
        <time>2010-12-30T08:19:16Z</time>
      </trkpt>
      <trkpt lat="43.7166" lon="4.87143">
        <ele>90.981934</ele>
        <time>2010-12-30T08:19:27Z</time>
      </trkpt>
      <trkpt lat="43.71653" lon="4.87139">
        <ele>91.943237</ele>
        <time>2010-12-30T08:19:31Z</time>
      </trkpt>
      <trkpt lat="43.71651" lon="4.87136">
        <ele>91.943237</ele>
        <time>2010-12-30T08:19:33Z</time>
      </trkpt>
      <trkpt lat="43.71647" lon="4.87134">
        <ele>92.42395</ele>
        <time>2010-12-30T08:19:37Z</time>
      </trkpt>
      <trkpt lat="43.71638" lon="4.87128">
        <ele>92.42395</ele>
        <time>2010-12-30T08:19:44Z</time>
      </trkpt>
      <trkpt lat="43.71627" lon="4.87124">
        <ele>91.462524</ele>
        <time>2010-12-30T08:19:56Z</time>
      </trkpt>
      <trkpt lat="43.71615" lon="4.87119">
        <ele>89.059326</ele>
        <time>2010-12-30T08:20:08Z</time>
      </trkpt>
      <trkpt lat="43.71604" lon="4.87117">
        <ele>89.539917</ele>
        <time>2010-12-30T08:20:18Z</time>
      </trkpt>
      <trkpt lat="43.71589" lon="4.87113">
        <ele>91.943237</ele>
        <time>2010-12-30T08:20:32Z</time>
      </trkpt>
      <trkpt lat="43.71578" lon="4.87111">
        <ele>92.904541</ele>
        <time>2010-12-30T08:20:43Z</time>
      </trkpt>
      <trkpt lat="43.71567" lon="4.87104">
        <ele>93.385132</ele>
        <time>2010-12-30T08:20:53Z</time>
      </trkpt>
      <trkpt lat="43.71565" lon="4.87104">
        <ele>93.385132</ele>
        <time>2010-12-30T08:20:54Z</time>
      </trkpt>
      <trkpt lat="43.71552" lon="4.87089">
        <ele>93.385132</ele>
        <time>2010-12-30T08:21:07Z</time>
      </trkpt>
      <trkpt lat="43.71546" lon="4.87078">
        <ele>92.904541</ele>
        <time>2010-12-30T08:21:17Z</time>
      </trkpt>
      <trkpt lat="43.71539" lon="4.87057">
        <ele>93.865845</ele>
        <time>2010-12-30T08:21:30Z</time>
      </trkpt>
      <trkpt lat="43.71535" lon="4.87036">
        <ele>96.269287</ele>
        <time>2010-12-30T08:21:47Z</time>
      </trkpt>
      <trkpt lat="43.71531" lon="4.87014">
        <ele>94.827148</ele>
        <time>2010-12-30T08:22:01Z</time>
      </trkpt>
      <trkpt lat="43.71531" lon="4.87012">
        <ele>94.827148</ele>
        <time>2010-12-30T08:22:02Z</time>
      </trkpt>
      <trkpt lat="43.71533" lon="4.87001">
        <ele>95.307739</ele>
        <time>2010-12-30T08:22:08Z</time>
      </trkpt>
      <trkpt lat="43.71533" lon="4.86993">
        <ele>96.749878</ele>
        <time>2010-12-30T08:22:15Z</time>
      </trkpt>
      <trkpt lat="43.71533" lon="4.86988">
        <ele>98.191895</ele>
        <time>2010-12-30T08:22:19Z</time>
      </trkpt>
      <trkpt lat="43.71527" lon="4.86967">
        <ele>98.672485</ele>
        <time>2010-12-30T08:22:32Z</time>
      </trkpt>
      <trkpt lat="43.7152" lon="4.8695">
        <ele>98.191895</ele>
        <time>2010-12-30T08:22:45Z</time>
      </trkpt>
      <trkpt lat="43.71518" lon="4.86935">
        <ele>96.269287</ele>
        <time>2010-12-30T08:22:56Z</time>
      </trkpt>
      <trkpt lat="43.71522" lon="4.8693">
        <ele>95.307739</ele>
        <time>2010-12-30T08:22:58Z</time>
      </trkpt>
      <trkpt lat="43.71527" lon="4.86922">
        <ele>93.385132</ele>
        <time>2010-12-30T08:23:08Z</time>
      </trkpt>
      <trkpt lat="43.71522" lon="4.86922">
        <ele>93.385132</ele>
        <time>2010-12-30T08:23:12Z</time>
      </trkpt>
      <trkpt lat="43.71518" lon="4.8692">
        <ele>93.385132</ele>
        <time>2010-12-30T08:23:19Z</time>
      </trkpt>
      <trkpt lat="43.71509" lon="4.86907">
        <ele>93.385132</ele>
        <time>2010-12-30T08:23:31Z</time>
      </trkpt>
      <trkpt lat="43.71499" lon="4.86894">
        <ele>91.943237</ele>
        <time>2010-12-30T08:23:42Z</time>
      </trkpt>
      <trkpt lat="43.71492" lon="4.86877">
        <ele>90.981934</ele>
        <time>2010-12-30T08:23:55Z</time>
      </trkpt>
      <trkpt lat="43.7149" lon="4.86872">
        <ele>91.462524</ele>
        <time>2010-12-30T08:23:59Z</time>
      </trkpt>
      <trkpt lat="43.71488" lon="4.86868">
        <ele>90.501343</ele>
        <time>2010-12-30T08:24:06Z</time>
      </trkpt>
      <trkpt lat="43.71484" lon="4.86857">
        <ele>89.059326</ele>
        <time>2010-12-30T08:24:14Z</time>
      </trkpt>
      <trkpt lat="43.71481" lon="4.86845">
        <ele>87.617188</ele>
        <time>2010-12-30T08:24:23Z</time>
      </trkpt>
      <trkpt lat="43.71481" lon="4.86836">
        <ele>87.136597</ele>
        <time>2010-12-30T08:24:30Z</time>
      </trkpt>
      <trkpt lat="43.71486" lon="4.86834">
        <ele>87.136597</ele>
        <time>2010-12-30T08:24:34Z</time>
      </trkpt>
      <trkpt lat="43.71486" lon="4.86817">
        <ele>79.446045</ele>
        <time>2010-12-30T08:24:52Z</time>
      </trkpt>
      <trkpt lat="43.71494" lon="4.86812">
        <ele>78.965454</ele>
        <time>2010-12-30T08:25:33Z</time>
      </trkpt>
      <trkpt lat="43.71501" lon="4.86802">
        <ele>76.081421</ele>
        <time>2010-12-30T08:25:45Z</time>
      </trkpt>
      <trkpt lat="43.71505" lon="4.86793">
        <ele>75.120239</ele>
        <time>2010-12-30T08:25:54Z</time>
      </trkpt>
      <trkpt lat="43.71514" lon="4.86776">
        <ele>74.158813</ele>
        <time>2010-12-30T08:26:07Z</time>
      </trkpt>
      <trkpt lat="43.71531" lon="4.86765">
        <ele>72.236206</ele>
        <time>2010-12-30T08:26:20Z</time>
      </trkpt>
      <trkpt lat="43.71544" lon="4.86748">
        <ele>70.794189</ele>
        <time>2010-12-30T08:26:34Z</time>
      </trkpt>
      <trkpt lat="43.71546" lon="4.86733">
        <ele>73.678223</ele>
        <time>2010-12-30T08:26:45Z</time>
      </trkpt>
      <trkpt lat="43.71544" lon="4.86722">
        <ele>77.042847</ele>
        <time>2010-12-30T08:26:51Z</time>
      </trkpt>
      <trkpt lat="43.71546" lon="4.86703">
        <ele>79.926636</ele>
        <time>2010-12-30T08:27:04Z</time>
      </trkpt>
      <trkpt lat="43.71548" lon="4.86697">
        <ele>79.926636</ele>
        <time>2010-12-30T08:27:08Z</time>
      </trkpt>
      <trkpt lat="43.71548" lon="4.8669">
        <ele>78.484741</ele>
        <time>2010-12-30T08:27:12Z</time>
      </trkpt>
      <trkpt lat="43.71552" lon="4.86673">
        <ele>76.562134</ele>
        <time>2010-12-30T08:27:24Z</time>
      </trkpt>
      <trkpt lat="43.71557" lon="4.86649">
        <ele>78.004028</ele>
        <time>2010-12-30T08:27:38Z</time>
      </trkpt>
      <trkpt lat="43.71563" lon="4.86634">
        <ele>75.60083</ele>
        <time>2010-12-30T08:27:47Z</time>
      </trkpt>
      <trkpt lat="43.71565" lon="4.86632">
        <ele>74.639526</ele>
        <time>2010-12-30T08:27:57Z</time>
      </trkpt>
      <trkpt lat="43.71567" lon="4.8663">
        <ele>73.197632</ele>
        <time>2010-12-30T08:28:58Z</time>
      </trkpt>
      <trkpt lat="43.71565" lon="4.8663">
        <ele>78.484741</ele>
        <time>2010-12-30T08:30:11Z</time>
      </trkpt>
      <trkpt lat="43.71565" lon="4.8663">
        <ele>77.523438</ele>
        <time>2010-12-30T08:30:35Z</time>
      </trkpt>
      <trkpt lat="43.71565" lon="4.86632">
        <ele>77.523438</ele>
        <time>2010-12-30T08:32:42Z</time>
      </trkpt>
      <trkpt lat="43.71565" lon="4.86636">
        <ele>78.484741</ele>
        <time>2010-12-30T08:33:04Z</time>
      </trkpt>
      <trkpt lat="43.71561" lon="4.86656">
        <ele>79.446045</ele>
        <time>2010-12-30T08:33:17Z</time>
      </trkpt>
      <trkpt lat="43.71557" lon="4.86673">
        <ele>80.888184</ele>
        <time>2010-12-30T08:33:30Z</time>
      </trkpt>
      <trkpt lat="43.71554" lon="4.86694">
        <ele>82.330078</ele>
        <time>2010-12-30T08:33:43Z</time>
      </trkpt>
      <trkpt lat="43.71552" lon="4.86712">
        <ele>84.252686</ele>
        <time>2010-12-30T08:33:54Z</time>
      </trkpt>
      <trkpt lat="43.71552" lon="4.86714">
        <ele>84.252686</ele>
        <time>2010-12-30T08:33:55Z</time>
      </trkpt>
      <trkpt lat="43.71554" lon="4.86729">
        <ele>81.368774</ele>
        <time>2010-12-30T08:34:03Z</time>
      </trkpt>
      <trkpt lat="43.71552" lon="4.86737">
        <ele>81.368774</ele>
        <time>2010-12-30T08:34:10Z</time>
      </trkpt>
      <trkpt lat="43.71548" lon="4.86744">
        <ele>81.849365</ele>
        <time>2010-12-30T08:34:14Z</time>
      </trkpt>
      <trkpt lat="43.71537" lon="4.86761">
        <ele>79.446045</ele>
        <time>2010-12-30T08:34:26Z</time>
      </trkpt>
      <trkpt lat="43.71535" lon="4.86765">
        <ele>79.446045</ele>
        <time>2010-12-30T08:34:29Z</time>
      </trkpt>
      <trkpt lat="43.71533" lon="4.86767">
        <ele>79.446045</ele>
        <time>2010-12-30T08:34:30Z</time>
      </trkpt>
      <trkpt lat="43.71527" lon="4.86776">
        <ele>79.446045</ele>
        <time>2010-12-30T08:34:38Z</time>
      </trkpt>
      <trkpt lat="43.71522" lon="4.86785">
        <ele>79.446045</ele>
        <time>2010-12-30T08:34:44Z</time>
      </trkpt>
      <trkpt lat="43.71516" lon="4.86789">
        <ele>79.446045</ele>
        <time>2010-12-30T08:34:49Z</time>
      </trkpt>
      <trkpt lat="43.71509" lon="4.86793">
        <ele>79.446045</ele>
        <time>2010-12-30T08:34:55Z</time>
      </trkpt>
      <trkpt lat="43.71501" lon="4.86804">
        <ele>80.407471</ele>
        <time>2010-12-30T08:35:04Z</time>
      </trkpt>
      <trkpt lat="43.71496" lon="4.8681">
        <ele>81.368774</ele>
        <time>2010-12-30T08:35:09Z</time>
      </trkpt>
      <trkpt lat="43.7149" lon="4.86821">
        <ele>81.849365</ele>
        <time>2010-12-30T08:35:18Z</time>
      </trkpt>
      <trkpt lat="43.71488" lon="4.86825">
        <ele>81.368774</ele>
        <time>2010-12-30T08:35:21Z</time>
      </trkpt>
      <trkpt lat="43.71486" lon="4.86836">
        <ele>81.368774</ele>
        <time>2010-12-30T08:35:29Z</time>
      </trkpt>
      <trkpt lat="43.71488" lon="4.86842">
        <ele>84.252686</ele>
        <time>2010-12-30T08:35:34Z</time>
      </trkpt>
      <trkpt lat="43.71494" lon="4.86855">
        <ele>89.539917</ele>
        <time>2010-12-30T08:35:44Z</time>
      </trkpt>
      <trkpt lat="43.71496" lon="4.8686">
        <ele>90.981934</ele>
        <time>2010-12-30T08:35:48Z</time>
      </trkpt>
      <trkpt lat="43.71501" lon="4.86866">
        <ele>91.943237</ele>
        <time>2010-12-30T08:35:53Z</time>
      </trkpt>
      <trkpt lat="43.71507" lon="4.86883">
        <ele>91.462524</ele>
        <time>2010-12-30T08:36:05Z</time>
      </trkpt>
      <trkpt lat="43.71512" lon="4.8689">
        <ele>92.42395</ele>
        <time>2010-12-30T08:36:11Z</time>
      </trkpt>
      <trkpt lat="43.71518" lon="4.86903">
        <ele>94.346558</ele>
        <time>2010-12-30T08:36:20Z</time>
      </trkpt>
      <trkpt lat="43.71518" lon="4.86903">
        <ele>94.346558</ele>
        <time>2010-12-30T08:36:21Z</time>
      </trkpt>
      <trkpt lat="43.71524" lon="4.86918">
        <ele>95.788452</ele>
        <time>2010-12-30T08:36:31Z</time>
      </trkpt>
      <trkpt lat="43.71529" lon="4.86928">
        <ele>95.307739</ele>
        <time>2010-12-30T08:36:39Z</time>
      </trkpt>
      <trkpt lat="43.71533" lon="4.86941">
        <ele>94.346558</ele>
        <time>2010-12-30T08:36:47Z</time>
      </trkpt>
      <trkpt lat="43.71535" lon="4.86958">
        <ele>93.865845</ele>
        <time>2010-12-30T08:36:58Z</time>
      </trkpt>
      <trkpt lat="43.71537" lon="4.86967">
        <ele>94.346558</ele>
        <time>2010-12-30T08:37:03Z</time>
      </trkpt>
      <trkpt lat="43.71542" lon="4.86993">
        <ele>96.749878</ele>
        <time>2010-12-30T08:37:18Z</time>
      </trkpt>
      <trkpt lat="43.71542" lon="4.86995">
        <ele>96.749878</ele>
        <time>2010-12-30T08:37:19Z</time>
      </trkpt>
      <trkpt lat="43.71544" lon="4.86997">
        <ele>97.230469</ele>
        <time>2010-12-30T08:37:21Z</time>
      </trkpt>
      <trkpt lat="43.71544" lon="4.87008">
        <ele>97.711182</ele>
        <time>2010-12-30T08:37:28Z</time>
      </trkpt>
      <trkpt lat="43.71546" lon="4.87027">
        <ele>98.672485</ele>
        <time>2010-12-30T08:37:39Z</time>
      </trkpt>
      <trkpt lat="43.71548" lon="4.87029">
        <ele>99.153076</ele>
        <time>2010-12-30T08:37:41Z</time>
      </trkpt>
      <trkpt lat="43.7155" lon="4.87046">
        <ele>101.075684</ele>
        <time>2010-12-30T08:37:52Z</time>
      </trkpt>
      <trkpt lat="43.7155" lon="4.87048">
        <ele>101.556396</ele>
        <time>2010-12-30T08:37:53Z</time>
      </trkpt>
      <trkpt lat="43.71557" lon="4.87068">
        <ele>102.5177</ele>
        <time>2010-12-30T08:38:06Z</time>
      </trkpt>
      <trkpt lat="43.71557" lon="4.87074">
        <ele>102.5177</ele>
        <time>2010-12-30T08:38:11Z</time>
      </trkpt>
      <trkpt lat="43.71557" lon="4.87076">
        <ele>102.037109</ele>
        <time>2010-12-30T08:38:13Z</time>
      </trkpt>
      <trkpt lat="43.71561" lon="4.87083">
        <ele>102.037109</ele>
        <time>2010-12-30T08:38:19Z</time>
      </trkpt>
      <trkpt lat="43.71567" lon="4.87091">
        <ele>102.5177</ele>
        <time>2010-12-30T08:38:26Z</time>
      </trkpt>
      <trkpt lat="43.71576" lon="4.87096">
        <ele>105.401733</ele>
        <time>2010-12-30T08:38:35Z</time>
      </trkpt>
      <trkpt lat="43.71576" lon="4.87098">
        <ele>105.882446</ele>
        <time>2010-12-30T08:38:36Z</time>
      </trkpt>
      <trkpt lat="43.71578" lon="4.87098">
        <ele>107.805054</ele>
        <time>2010-12-30T08:38:40Z</time>
      </trkpt>
      <trkpt lat="43.71582" lon="4.87098">
        <ele>108.766235</ele>
        <time>2010-12-30T08:38:43Z</time>
      </trkpt>
      <trkpt lat="43.71587" lon="4.871">
        <ele>107.805054</ele>
        <time>2010-12-30T08:38:48Z</time>
      </trkpt>
      <trkpt lat="43.71589" lon="4.87098">
        <ele>107.324341</ele>
        <time>2010-12-30T08:38:51Z</time>
      </trkpt>
      <trkpt lat="43.71595" lon="4.871">
        <ele>105.882446</ele>
        <time>2010-12-30T08:38:55Z</time>
      </trkpt>
      <trkpt lat="43.71602" lon="4.87102">
        <ele>104.44043</ele>
        <time>2010-12-30T08:39:03Z</time>
      </trkpt>
      <trkpt lat="43.71615" lon="4.87106">
        <ele>104.44043</ele>
        <time>2010-12-30T08:39:14Z</time>
      </trkpt>
      <trkpt lat="43.71627" lon="4.87109">
        <ele>105.882446</ele>
        <time>2010-12-30T08:39:22Z</time>
      </trkpt>
      <trkpt lat="43.71638" lon="4.87111">
        <ele>105.882446</ele>
        <time>2010-12-30T08:39:28Z</time>
      </trkpt>
      <trkpt lat="43.71642" lon="4.87115">
        <ele>105.882446</ele>
        <time>2010-12-30T08:39:32Z</time>
      </trkpt>
      <trkpt lat="43.71651" lon="4.87121">
        <ele>102.037109</ele>
        <time>2010-12-30T08:39:43Z</time>
      </trkpt>
      <trkpt lat="43.71662" lon="4.87136">
        <ele>101.075684</ele>
        <time>2010-12-30T08:39:54Z</time>
      </trkpt>
      <trkpt lat="43.71666" lon="4.87154">
        <ele>102.5177</ele>
        <time>2010-12-30T08:40:05Z</time>
      </trkpt>
      <trkpt lat="43.71668" lon="4.8716">
        <ele>102.998291</ele>
        <time>2010-12-30T08:40:09Z</time>
      </trkpt>
      <trkpt lat="43.7167" lon="4.87177">
        <ele>102.037109</ele>
        <time>2010-12-30T08:40:18Z</time>
      </trkpt>
      <trkpt lat="43.71668" lon="4.8719">
        <ele>99.633789</ele>
        <time>2010-12-30T08:40:25Z</time>
      </trkpt>
      <trkpt lat="43.7167" lon="4.87199">
        <ele>97.230469</ele>
        <time>2010-12-30T08:40:30Z</time>
      </trkpt>
      <trkpt lat="43.7167" lon="4.87203">
        <ele>97.230469</ele>
        <time>2010-12-30T08:40:32Z</time>
      </trkpt>
      <trkpt lat="43.7167" lon="4.87207">
        <ele>96.749878</ele>
        <time>2010-12-30T08:40:35Z</time>
      </trkpt>
      <trkpt lat="43.71672" lon="4.87227">
        <ele>96.269287</ele>
        <time>2010-12-30T08:40:46Z</time>
      </trkpt>
      <trkpt lat="43.71672" lon="4.87229">
        <ele>96.269287</ele>
        <time>2010-12-30T08:40:47Z</time>
      </trkpt>
      <trkpt lat="43.71672" lon="4.87235">
        <ele>96.269287</ele>
        <time>2010-12-30T08:40:51Z</time>
      </trkpt>
      <trkpt lat="43.71675" lon="4.87239">
        <ele>96.749878</ele>
        <time>2010-12-30T08:40:54Z</time>
      </trkpt>
      <trkpt lat="43.71675" lon="4.87244">
        <ele>96.749878</ele>
        <time>2010-12-30T08:40:56Z</time>
      </trkpt>
      <trkpt lat="43.71675" lon="4.87246">
        <ele>97.230469</ele>
        <time>2010-12-30T08:40:58Z</time>
      </trkpt>
      <trkpt lat="43.71675" lon="4.87254">
        <ele>96.749878</ele>
        <time>2010-12-30T08:41:03Z</time>
      </trkpt>
      <trkpt lat="43.71675" lon="4.87267">
        <ele>96.749878</ele>
        <time>2010-12-30T08:41:11Z</time>
      </trkpt>
      <trkpt lat="43.71675" lon="4.87267">
        <ele>96.749878</ele>
        <time>2010-12-30T08:41:12Z</time>
      </trkpt>
      <trkpt lat="43.71675" lon="4.87278">
        <ele>97.230469</ele>
        <time>2010-12-30T08:41:18Z</time>
      </trkpt>
      <trkpt lat="43.71675" lon="4.87293">
        <ele>96.269287</ele>
        <time>2010-12-30T08:41:26Z</time>
      </trkpt>
      <trkpt lat="43.71675" lon="4.87295">
        <ele>95.788452</ele>
        <time>2010-12-30T08:41:28Z</time>
      </trkpt>
      <trkpt lat="43.71677" lon="4.87312">
        <ele>94.827148</ele>
        <time>2010-12-30T08:41:38Z</time>
      </trkpt>
      <trkpt lat="43.71677" lon="4.87327">
        <ele>95.307739</ele>
        <time>2010-12-30T08:41:47Z</time>
      </trkpt>
      <trkpt lat="43.71677" lon="4.87338">
        <ele>95.307739</ele>
        <time>2010-12-30T08:41:54Z</time>
      </trkpt>
      <trkpt lat="43.71677" lon="4.87366">
        <ele>94.827148</ele>
        <time>2010-12-30T08:42:09Z</time>
      </trkpt>
      <trkpt lat="43.71677" lon="4.87368">
        <ele>94.827148</ele>
        <time>2010-12-30T08:42:10Z</time>
      </trkpt>
      <trkpt lat="43.71677" lon="4.87385">
        <ele>96.269287</ele>
        <time>2010-12-30T08:42:20Z</time>
      </trkpt>
      <trkpt lat="43.71677" lon="4.87392">
        <ele>97.230469</ele>
        <time>2010-12-30T08:42:25Z</time>
      </trkpt>
      <trkpt lat="43.71677" lon="4.87394">
        <ele>97.711182</ele>
        <time>2010-12-30T08:42:27Z</time>
      </trkpt>
      <trkpt lat="43.71677" lon="4.87415">
        <ele>98.672485</ele>
        <time>2010-12-30T08:42:40Z</time>
      </trkpt>
      <trkpt lat="43.71677" lon="4.87433">
        <ele>98.191895</ele>
        <time>2010-12-30T08:42:49Z</time>
      </trkpt>
      <trkpt lat="43.71675" lon="4.87437">
        <ele>98.191895</ele>
        <time>2010-12-30T08:42:52Z</time>
      </trkpt>
      <trkpt lat="43.71672" lon="4.87456">
        <ele>98.672485</ele>
        <time>2010-12-30T08:43:03Z</time>
      </trkpt>
      <trkpt lat="43.7167" lon="4.8746">
        <ele>98.672485</ele>
        <time>2010-12-30T08:43:06Z</time>
      </trkpt>
      <trkpt lat="43.71666" lon="4.87469">
        <ele>99.153076</ele>
        <time>2010-12-30T08:43:11Z</time>
      </trkpt>
      <trkpt lat="43.71664" lon="4.87471">
        <ele>99.633789</ele>
        <time>2010-12-30T08:43:13Z</time>
      </trkpt>
      <trkpt lat="43.71664" lon="4.8749">
        <ele>94.827148</ele>
        <time>2010-12-30T08:43:25Z</time>
      </trkpt>
      <trkpt lat="43.71662" lon="4.87499">
        <ele>94.346558</ele>
        <time>2010-12-30T08:43:30Z</time>
      </trkpt>
      <trkpt lat="43.7166" lon="4.87514">
        <ele>95.307739</ele>
        <time>2010-12-30T08:43:39Z</time>
      </trkpt>
      <trkpt lat="43.7166" lon="4.87521">
        <ele>95.307739</ele>
        <time>2010-12-30T08:43:43Z</time>
      </trkpt>
      <trkpt lat="43.71657" lon="4.8754">
        <ele>95.788452</ele>
        <time>2010-12-30T08:43:54Z</time>
      </trkpt>
      <trkpt lat="43.71657" lon="4.87542">
        <ele>95.307739</ele>
        <time>2010-12-30T08:43:56Z</time>
      </trkpt>
      <trkpt lat="43.71657" lon="4.87553">
        <ele>93.865845</ele>
        <time>2010-12-30T08:44:03Z</time>
      </trkpt>
      <trkpt lat="43.71655" lon="4.87561">
        <ele>92.904541</ele>
        <time>2010-12-30T08:44:08Z</time>
      </trkpt>
      <trkpt lat="43.71655" lon="4.8757">
        <ele>91.943237</ele>
        <time>2010-12-30T08:44:13Z</time>
      </trkpt>
      <trkpt lat="43.71655" lon="4.87578">
        <ele>91.462524</ele>
        <time>2010-12-30T08:44:18Z</time>
      </trkpt>
      <trkpt lat="43.71655" lon="4.87596">
        <ele>91.943237</ele>
        <time>2010-12-30T08:44:29Z</time>
      </trkpt>
      <trkpt lat="43.71653" lon="4.876">
        <ele>91.943237</ele>
        <time>2010-12-30T08:44:32Z</time>
      </trkpt>
      <trkpt lat="43.71649" lon="4.87611">
        <ele>92.42395</ele>
        <time>2010-12-30T08:44:38Z</time>
      </trkpt>
      <trkpt lat="43.71642" lon="4.87632">
        <ele>91.462524</ele>
        <time>2010-12-30T08:44:50Z</time>
      </trkpt>
      <trkpt lat="43.7164" lon="4.87639">
        <ele>90.981934</ele>
        <time>2010-12-30T08:44:55Z</time>
      </trkpt>
      <trkpt lat="43.71638" lon="4.87645">
        <ele>90.981934</ele>
        <time>2010-12-30T08:44:58Z</time>
      </trkpt>
      <trkpt lat="43.71634" lon="4.87658">
        <ele>90.501343</ele>
        <time>2010-12-30T08:45:07Z</time>
      </trkpt>
      <trkpt lat="43.71632" lon="4.87666">
        <ele>90.981934</ele>
        <time>2010-12-30T08:45:12Z</time>
      </trkpt>
      <trkpt lat="43.71632" lon="4.87673">
        <ele>91.462524</ele>
        <time>2010-12-30T08:45:16Z</time>
      </trkpt>
      <trkpt lat="43.7163" lon="4.87679">
        <ele>90.981934</ele>
        <time>2010-12-30T08:45:20Z</time>
      </trkpt>
      <trkpt lat="43.7163" lon="4.87681">
        <ele>90.981934</ele>
        <time>2010-12-30T08:45:22Z</time>
      </trkpt>
      <trkpt lat="43.7163" lon="4.87688">
        <ele>91.462524</ele>
        <time>2010-12-30T08:45:25Z</time>
      </trkpt>
      <trkpt lat="43.71627" lon="4.87699">
        <ele>91.462524</ele>
        <time>2010-12-30T08:45:32Z</time>
      </trkpt>
      <trkpt lat="43.71625" lon="4.87709">
        <ele>90.981934</ele>
        <time>2010-12-30T08:45:38Z</time>
      </trkpt>
      <trkpt lat="43.71619" lon="4.87731">
        <ele>91.462524</ele>
        <time>2010-12-30T08:45:51Z</time>
      </trkpt>
      <trkpt lat="43.71617" lon="4.87737">
        <ele>91.943237</ele>
        <time>2010-12-30T08:45:55Z</time>
      </trkpt>
      <trkpt lat="43.71617" lon="4.87744">
        <ele>92.42395</ele>
        <time>2010-12-30T08:46:00Z</time>
      </trkpt>
      <trkpt lat="43.71615" lon="4.87748">
        <ele>92.42395</ele>
        <time>2010-12-30T08:46:03Z</time>
      </trkpt>
      <trkpt lat="43.71612" lon="4.87769">
        <ele>90.981934</ele>
        <time>2010-12-30T08:46:14Z</time>
      </trkpt>
      <trkpt lat="43.7161" lon="4.87776">
        <ele>89.539917</ele>
        <time>2010-12-30T08:46:18Z</time>
      </trkpt>
      <trkpt lat="43.7161" lon="4.8778">
        <ele>89.059326</ele>
        <time>2010-12-30T08:46:20Z</time>
      </trkpt>
      <trkpt lat="43.71608" lon="4.87789">
        <ele>88.578735</ele>
        <time>2010-12-30T08:46:26Z</time>
      </trkpt>
      <trkpt lat="43.71608" lon="4.87795">
        <ele>88.098022</ele>
        <time>2010-12-30T08:46:30Z</time>
      </trkpt>
      <trkpt lat="43.71606" lon="4.87799">
        <ele>88.098022</ele>
        <time>2010-12-30T08:46:32Z</time>
      </trkpt>
      <trkpt lat="43.71604" lon="4.87808">
        <ele>87.617188</ele>
        <time>2010-12-30T08:46:38Z</time>
      </trkpt>
      <trkpt lat="43.71604" lon="4.87812">
        <ele>87.136597</ele>
        <time>2010-12-30T08:46:40Z</time>
      </trkpt>
      <trkpt lat="43.71599" lon="4.87832">
        <ele>87.617188</ele>
        <time>2010-12-30T08:46:52Z</time>
      </trkpt>
      <trkpt lat="43.71599" lon="4.87838">
        <ele>87.617188</ele>
        <time>2010-12-30T08:46:56Z</time>
      </trkpt>
      <trkpt lat="43.71595" lon="4.8786">
        <ele>84.252686</ele>
        <time>2010-12-30T08:47:08Z</time>
      </trkpt>
      <trkpt lat="43.71595" lon="4.87862">
        <ele>83.771973</ele>
        <time>2010-12-30T08:47:09Z</time>
      </trkpt>
      <trkpt lat="43.71595" lon="4.87866">
        <ele>83.771973</ele>
        <time>2010-12-30T08:47:11Z</time>
      </trkpt>
      <trkpt lat="43.71593" lon="4.87872">
        <ele>83.291382</ele>
        <time>2010-12-30T08:47:16Z</time>
      </trkpt>
      <trkpt lat="43.71589" lon="4.87883">
        <ele>81.849365</ele>
        <time>2010-12-30T08:47:22Z</time>
      </trkpt>
      <trkpt lat="43.71589" lon="4.87896">
        <ele>80.407471</ele>
        <time>2010-12-30T08:47:31Z</time>
      </trkpt>
      <trkpt lat="43.71584" lon="4.87907">
        <ele>77.523438</ele>
        <time>2010-12-30T08:47:39Z</time>
      </trkpt>
      <trkpt lat="43.7158" lon="4.8792">
        <ele>76.081421</ele>
        <time>2010-12-30T08:47:46Z</time>
      </trkpt>
      <trkpt lat="43.71578" lon="4.87922">
        <ele>76.081421</ele>
        <time>2010-12-30T08:47:48Z</time>
      </trkpt>
      <trkpt lat="43.71578" lon="4.87926">
        <ele>75.60083</ele>
        <time>2010-12-30T08:47:50Z</time>
      </trkpt>
      <trkpt lat="43.71578" lon="4.87932">
        <ele>75.120239</ele>
        <time>2010-12-30T08:47:56Z</time>
      </trkpt>
      <trkpt lat="43.71572" lon="4.87945">
        <ele>77.042847</ele>
        <time>2010-12-30T08:48:03Z</time>
      </trkpt>
      <trkpt lat="43.71565" lon="4.87952">
        <ele>78.004028</ele>
        <time>2010-12-30T08:48:09Z</time>
      </trkpt>
      <trkpt lat="43.71563" lon="4.87958">
        <ele>78.965454</ele>
        <time>2010-12-30T08:48:13Z</time>
      </trkpt>
      <trkpt lat="43.71557" lon="4.87973">
        <ele>80.888184</ele>
        <time>2010-12-30T08:48:23Z</time>
      </trkpt>
      <trkpt lat="43.71552" lon="4.87978">
        <ele>81.368774</ele>
        <time>2010-12-30T08:48:26Z</time>
      </trkpt>
      <trkpt lat="43.71548" lon="4.87995">
        <ele>82.810791</ele>
        <time>2010-12-30T08:48:36Z</time>
      </trkpt>
      <trkpt lat="43.71546" lon="4.87999">
        <ele>82.810791</ele>
        <time>2010-12-30T08:48:38Z</time>
      </trkpt>
      <trkpt lat="43.71537" lon="4.88016">
        <ele>87.617188</ele>
        <time>2010-12-30T08:48:50Z</time>
      </trkpt>
      <trkpt lat="43.71535" lon="4.88018">
        <ele>88.098022</ele>
        <time>2010-12-30T08:48:51Z</time>
      </trkpt>
      <trkpt lat="43.71533" lon="4.8802">
        <ele>89.059326</ele>
        <time>2010-12-30T08:48:53Z</time>
      </trkpt>
      <trkpt lat="43.71524" lon="4.88023">
        <ele>87.136597</ele>
        <time>2010-12-30T08:49:01Z</time>
      </trkpt>
      <trkpt lat="43.71524" lon="4.88025">
        <ele>84.252686</ele>
        <time>2010-12-30T08:49:30Z</time>
      </trkpt>
      <trkpt lat="43.71524" lon="4.88029">
        <ele>84.733398</ele>
        <time>2010-12-30T08:49:35Z</time>
      </trkpt>
      <trkpt lat="43.71524" lon="4.88031">
        <ele>84.733398</ele>
        <time>2010-12-30T08:49:36Z</time>
      </trkpt>
      <trkpt lat="43.7152" lon="4.8804">
        <ele>85.213989</ele>
        <time>2010-12-30T08:49:43Z</time>
      </trkpt>
      <trkpt lat="43.71516" lon="4.88048">
        <ele>85.69458</ele>
        <time>2010-12-30T08:49:49Z</time>
      </trkpt>
      <trkpt lat="43.71516" lon="4.88053">
        <ele>87.136597</ele>
        <time>2010-12-30T08:49:53Z</time>
      </trkpt>
      <trkpt lat="43.71514" lon="4.88057">
        <ele>87.617188</ele>
        <time>2010-12-30T08:49:55Z</time>
      </trkpt>
      <trkpt lat="43.71507" lon="4.8807">
        <ele>90.981934</ele>
        <time>2010-12-30T08:50:05Z</time>
      </trkpt>
      <trkpt lat="43.71499" lon="4.88085">
        <ele>95.307739</ele>
        <time>2010-12-30T08:50:16Z</time>
      </trkpt>
      <trkpt lat="43.71496" lon="4.88098">
        <ele>100.595093</ele>
        <time>2010-12-30T08:50:24Z</time>
      </trkpt>
      <trkpt lat="43.71494" lon="4.88104">
        <ele>104.44043</ele>
        <time>2010-12-30T08:50:30Z</time>
      </trkpt>
      <trkpt lat="43.71492" lon="4.88108">
        <ele>105.401733</ele>
        <time>2010-12-30T08:50:33Z</time>
      </trkpt>
      <trkpt lat="43.71488" lon="4.88121">
        <ele>108.766235</ele>
        <time>2010-12-30T08:50:44Z</time>
      </trkpt>
      <trkpt lat="43.71486" lon="4.88123">
        <ele>109.246948</ele>
        <time>2010-12-30T08:50:45Z</time>
      </trkpt>
      <trkpt lat="43.71475" lon="4.88143">
        <ele>110.688843</ele>
        <time>2010-12-30T08:50:56Z</time>
      </trkpt>
      <trkpt lat="43.71466" lon="4.88162">
        <ele>111.650269</ele>
        <time>2010-12-30T08:51:09Z</time>
      </trkpt>
      <trkpt lat="43.7146" lon="4.88169">
        <ele>111.650269</ele>
        <time>2010-12-30T08:51:15Z</time>
      </trkpt>
      <trkpt lat="43.71458" lon="4.88175">
        <ele>111.650269</ele>
        <time>2010-12-30T08:51:20Z</time>
      </trkpt>
      <trkpt lat="43.71454" lon="4.88188">
        <ele>113.092285</ele>
        <time>2010-12-30T08:51:30Z</time>
      </trkpt>
      <trkpt lat="43.71454" lon="4.88188">
        <ele>113.092285</ele>
        <time>2010-12-30T08:51:33Z</time>
      </trkpt>
      <trkpt lat="43.71449" lon="4.88194">
        <ele>114.053589</ele>
        <time>2010-12-30T08:51:40Z</time>
      </trkpt>
      <trkpt lat="43.71432" lon="4.88201">
        <ele>111.169556</ele>
        <time>2010-12-30T08:51:48Z</time>
      </trkpt>
      <trkpt lat="43.71426" lon="4.88207">
        <ele>108.285645</ele>
        <time>2010-12-30T08:51:55Z</time>
      </trkpt>
      <trkpt lat="43.71415" lon="4.8822">
        <ele>101.556396</ele>
        <time>2010-12-30T08:52:09Z</time>
      </trkpt>
      <trkpt lat="43.714" lon="4.88229">
        <ele>95.788452</ele>
        <time>2010-12-30T08:52:22Z</time>
      </trkpt>
      <trkpt lat="43.71391" lon="4.88233">
        <ele>93.385132</ele>
        <time>2010-12-30T08:52:29Z</time>
      </trkpt>
      <trkpt lat="43.71383" lon="4.88241">
        <ele>90.981934</ele>
        <time>2010-12-30T08:52:37Z</time>
      </trkpt>
      <trkpt lat="43.71376" lon="4.88248">
        <ele>89.059326</ele>
        <time>2010-12-30T08:52:44Z</time>
      </trkpt>
      <trkpt lat="43.71372" lon="4.88254">
        <ele>88.098022</ele>
        <time>2010-12-30T08:52:49Z</time>
      </trkpt>
      <trkpt lat="43.71359" lon="4.88267">
        <ele>87.136597</ele>
        <time>2010-12-30T08:53:03Z</time>
      </trkpt>
      <trkpt lat="43.71355" lon="4.88269">
        <ele>87.617188</ele>
        <time>2010-12-30T08:53:05Z</time>
      </trkpt>
      <trkpt lat="43.7134" lon="4.88284">
        <ele>88.098022</ele>
        <time>2010-12-30T08:53:20Z</time>
      </trkpt>
      <trkpt lat="43.71338" lon="4.88287">
        <ele>87.617188</ele>
        <time>2010-12-30T08:53:22Z</time>
      </trkpt>
      <trkpt lat="43.71329" lon="4.88295">
        <ele>85.69458</ele>
        <time>2010-12-30T08:53:30Z</time>
      </trkpt>
      <trkpt lat="43.71327" lon="4.88295">
        <ele>85.69458</ele>
        <time>2010-12-30T08:53:32Z</time>
      </trkpt>
      <trkpt lat="43.71316" lon="4.8831">
        <ele>85.69458</ele>
        <time>2010-12-30T08:53:45Z</time>
      </trkpt>
      <trkpt lat="43.71301" lon="4.88325">
        <ele>84.733398</ele>
        <time>2010-12-30T08:53:59Z</time>
      </trkpt>
      <trkpt lat="43.71286" lon="4.8834">
        <ele>82.330078</ele>
        <time>2010-12-30T08:54:13Z</time>
      </trkpt>
      <trkpt lat="43.71282" lon="4.88344">
        <ele>82.810791</ele>
        <time>2010-12-30T08:54:17Z</time>
      </trkpt>
      <trkpt lat="43.71275" lon="4.88357">
        <ele>83.291382</ele>
        <time>2010-12-30T08:54:28Z</time>
      </trkpt>
      <trkpt lat="43.71275" lon="4.88362">
        <ele>83.291382</ele>
        <time>2010-12-30T08:54:31Z</time>
      </trkpt>
      <trkpt lat="43.71273" lon="4.88368">
        <ele>83.771973</ele>
        <time>2010-12-30T08:54:35Z</time>
      </trkpt>
      <trkpt lat="43.71265" lon="4.88383">
        <ele>84.252686</ele>
        <time>2010-12-30T08:54:46Z</time>
      </trkpt>
      <trkpt lat="43.71258" lon="4.88398">
        <ele>83.771973</ele>
        <time>2010-12-30T08:54:59Z</time>
      </trkpt>
      <trkpt lat="43.71254" lon="4.88422">
        <ele>85.213989</ele>
        <time>2010-12-30T08:55:13Z</time>
      </trkpt>
      <trkpt lat="43.71252" lon="4.8843">
        <ele>86.656006</ele>
        <time>2010-12-30T08:55:18Z</time>
      </trkpt>
      <trkpt lat="43.71252" lon="4.88447">
        <ele>85.69458</ele>
        <time>2010-12-30T08:55:28Z</time>
      </trkpt>
      <trkpt lat="43.7125" lon="4.8845">
        <ele>85.69458</ele>
        <time>2010-12-30T08:55:30Z</time>
      </trkpt>
      <trkpt lat="43.71248" lon="4.8846">
        <ele>86.656006</ele>
        <time>2010-12-30T08:55:35Z</time>
      </trkpt>
      <trkpt lat="43.71239" lon="4.8848">
        <ele>85.213989</ele>
        <time>2010-12-30T08:55:48Z</time>
      </trkpt>
      <trkpt lat="43.71235" lon="4.88499">
        <ele>86.175293</ele>
        <time>2010-12-30T08:55:59Z</time>
      </trkpt>
      <trkpt lat="43.71233" lon="4.88514">
        <ele>85.213989</ele>
        <time>2010-12-30T08:56:08Z</time>
      </trkpt>
      <trkpt lat="43.71228" lon="4.88527">
        <ele>85.213989</ele>
        <time>2010-12-30T08:56:16Z</time>
      </trkpt>
      <trkpt lat="43.71222" lon="4.88542">
        <ele>85.213989</ele>
        <time>2010-12-30T08:56:28Z</time>
      </trkpt>
      <trkpt lat="43.7122" lon="4.88546">
        <ele>85.213989</ele>
        <time>2010-12-30T08:56:31Z</time>
      </trkpt>
      <trkpt lat="43.7122" lon="4.88555">
        <ele>85.69458</ele>
        <time>2010-12-30T08:56:36Z</time>
      </trkpt>
      <trkpt lat="43.71211" lon="4.88572">
        <ele>86.175293</ele>
        <time>2010-12-30T08:56:45Z</time>
      </trkpt>
      <trkpt lat="43.71194" lon="4.88591">
        <ele>85.69458</ele>
        <time>2010-12-30T08:56:59Z</time>
      </trkpt>
      <trkpt lat="43.71183" lon="4.88598">
        <ele>87.136597</ele>
        <time>2010-12-30T08:57:07Z</time>
      </trkpt>
      <trkpt lat="43.7117" lon="4.88606">
        <ele>89.059326</ele>
        <time>2010-12-30T08:57:18Z</time>
      </trkpt>
      <trkpt lat="43.7116" lon="4.88613">
        <ele>90.02063</ele>
        <time>2010-12-30T08:57:26Z</time>
      </trkpt>
      <trkpt lat="43.71145" lon="4.88623">
        <ele>90.981934</ele>
        <time>2010-12-30T08:57:39Z</time>
      </trkpt>
      <trkpt lat="43.71132" lon="4.88634">
        <ele>90.501343</ele>
        <time>2010-12-30T08:57:54Z</time>
      </trkpt>
      <trkpt lat="43.71127" lon="4.88636">
        <ele>90.501343</ele>
        <time>2010-12-30T08:57:57Z</time>
      </trkpt>
      <trkpt lat="43.71125" lon="4.88641">
        <ele>89.539917</ele>
        <time>2010-12-30T08:58:02Z</time>
      </trkpt>
      <trkpt lat="43.71123" lon="4.88643">
        <ele>90.02063</ele>
        <time>2010-12-30T08:58:04Z</time>
      </trkpt>
      <trkpt lat="43.71115" lon="4.88647">
        <ele>90.981934</ele>
        <time>2010-12-30T08:58:11Z</time>
      </trkpt>
      <trkpt lat="43.71108" lon="4.88649">
        <ele>91.462524</ele>
        <time>2010-12-30T08:58:15Z</time>
      </trkpt>
      <trkpt lat="43.711" lon="4.88645">
        <ele>90.501343</ele>
        <time>2010-12-30T08:58:21Z</time>
      </trkpt>
      <trkpt lat="43.71082" lon="4.88636">
        <ele>89.539917</ele>
        <time>2010-12-30T08:58:34Z</time>
      </trkpt>
      <trkpt lat="43.7108" lon="4.88634">
        <ele>89.539917</ele>
        <time>2010-12-30T08:58:36Z</time>
      </trkpt>
      <trkpt lat="43.71072" lon="4.88632">
        <ele>91.462524</ele>
        <time>2010-12-30T08:58:42Z</time>
      </trkpt>
      <trkpt lat="43.71072" lon="4.88632">
        <ele>91.943237</ele>
        <time>2010-12-30T08:58:43Z</time>
      </trkpt>
      <trkpt lat="43.71063" lon="4.88626">
        <ele>95.788452</ele>
        <time>2010-12-30T08:58:53Z</time>
      </trkpt>
      <trkpt lat="43.71048" lon="4.88604">
        <ele>80.888184</ele>
        <time>2010-12-30T08:59:07Z</time>
      </trkpt>
      <trkpt lat="43.71044" lon="4.88602">
        <ele>78.004028</ele>
        <time>2010-12-30T08:59:10Z</time>
      </trkpt>
      <trkpt lat="43.71039" lon="4.88598">
        <ele>75.120239</ele>
        <time>2010-12-30T08:59:14Z</time>
      </trkpt>
      <trkpt lat="43.71024" lon="4.88587">
        <ele>72.236206</ele>
        <time>2010-12-30T08:59:27Z</time>
      </trkpt>
      <trkpt lat="43.71016" lon="4.88581">
        <ele>73.197632</ele>
        <time>2010-12-30T08:59:36Z</time>
      </trkpt>
      <trkpt lat="43.71014" lon="4.88578">
        <ele>73.197632</ele>
        <time>2010-12-30T08:59:38Z</time>
      </trkpt>
      <trkpt lat="43.71012" lon="4.88574">
        <ele>73.678223</ele>
        <time>2010-12-30T08:59:41Z</time>
      </trkpt>
      <trkpt lat="43.71007" lon="4.88574">
        <ele>73.678223</ele>
        <time>2010-12-30T08:59:46Z</time>
      </trkpt>
      <trkpt lat="43.71005" lon="4.88572">
        <ele>74.158813</ele>
        <time>2010-12-30T08:59:48Z</time>
      </trkpt>
      <trkpt lat="43.7099" lon="4.88559">
        <ele>74.158813</ele>
        <time>2010-12-30T09:00:00Z</time>
      </trkpt>
      <trkpt lat="43.70977" lon="4.88546">
        <ele>78.004028</ele>
        <time>2010-12-30T09:00:12Z</time>
      </trkpt>
      <trkpt lat="43.70973" lon="4.88544">
        <ele>78.484741</ele>
        <time>2010-12-30T09:00:16Z</time>
      </trkpt>
      <trkpt lat="43.70966" lon="4.88535">
        <ele>78.484741</ele>
        <time>2010-12-30T09:00:23Z</time>
      </trkpt>
      <trkpt lat="43.70958" lon="4.8852">
        <ele>75.120239</ele>
        <time>2010-12-30T09:00:33Z</time>
      </trkpt>
      <trkpt lat="43.70949" lon="4.88512">
        <ele>75.120239</ele>
        <time>2010-12-30T09:00:43Z</time>
      </trkpt>
      <trkpt lat="43.70939" lon="4.88501">
        <ele>77.523438</ele>
        <time>2010-12-30T09:00:54Z</time>
      </trkpt>
      <trkpt lat="43.70924" lon="4.8849">
        <ele>82.810791</ele>
        <time>2010-12-30T09:01:07Z</time>
      </trkpt>
      <trkpt lat="43.70915" lon="4.88484">
        <ele>84.733398</ele>
        <time>2010-12-30T09:01:15Z</time>
      </trkpt>
      <trkpt lat="43.70911" lon="4.8848">
        <ele>85.69458</ele>
        <time>2010-12-30T09:01:19Z</time>
      </trkpt>
      <trkpt lat="43.70898" lon="4.88456">
        <ele>73.678223</ele>
        <time>2010-12-30T09:01:34Z</time>
      </trkpt>
      <trkpt lat="43.70894" lon="4.88452">
        <ele>72.236206</ele>
        <time>2010-12-30T09:01:37Z</time>
      </trkpt>
      <trkpt lat="43.70883" lon="4.88445">
        <ele>68.871582</ele>
        <time>2010-12-30T09:01:48Z</time>
      </trkpt>
      <trkpt lat="43.70881" lon="4.88443">
        <ele>68.871582</ele>
        <time>2010-12-30T09:01:50Z</time>
      </trkpt>
      <trkpt lat="43.70872" lon="4.88435">
        <ele>69.352295</ele>
        <time>2010-12-30T09:02:01Z</time>
      </trkpt>
      <trkpt lat="43.70866" lon="4.88424">
        <ele>74.158813</ele>
        <time>2010-12-30T09:02:20Z</time>
      </trkpt>
      <trkpt lat="43.70855" lon="4.88413">
        <ele>80.407471</ele>
        <time>2010-12-30T09:02:31Z</time>
      </trkpt>
      <trkpt lat="43.70838" lon="4.884">
        <ele>85.213989</ele>
        <time>2010-12-30T09:02:41Z</time>
      </trkpt>
      <trkpt lat="43.70823" lon="4.88385">
        <ele>87.136597</ele>
        <time>2010-12-30T09:02:52Z</time>
      </trkpt>
      <trkpt lat="43.70821" lon="4.88381">
        <ele>87.136597</ele>
        <time>2010-12-30T09:02:55Z</time>
      </trkpt>
      <trkpt lat="43.70814" lon="4.8837">
        <ele>83.771973</ele>
        <time>2010-12-30T09:03:05Z</time>
      </trkpt>
      <trkpt lat="43.7081" lon="4.88366">
        <ele>82.330078</ele>
        <time>2010-12-30T09:03:09Z</time>
      </trkpt>
      <trkpt lat="43.70799" lon="4.88357">
        <ele>82.330078</ele>
        <time>2010-12-30T09:03:19Z</time>
      </trkpt>
      <trkpt lat="43.70791" lon="4.88344">
        <ele>84.252686</ele>
        <time>2010-12-30T09:03:31Z</time>
      </trkpt>
      <trkpt lat="43.70786" lon="4.88338">
        <ele>89.539917</ele>
        <time>2010-12-30T09:03:37Z</time>
      </trkpt>
      <trkpt lat="43.70778" lon="4.88319">
        <ele>97.230469</ele>
        <time>2010-12-30T09:03:49Z</time>
      </trkpt>
      <trkpt lat="43.70773" lon="4.88306">
        <ele>99.153076</ele>
        <time>2010-12-30T09:03:58Z</time>
      </trkpt>
      <trkpt lat="43.70773" lon="4.88302">
        <ele>99.633789</ele>
        <time>2010-12-30T09:04:00Z</time>
      </trkpt>
      <trkpt lat="43.70771" lon="4.88282">
        <ele>96.749878</ele>
        <time>2010-12-30T09:04:12Z</time>
      </trkpt>
      <trkpt lat="43.70771" lon="4.88259">
        <ele>93.385132</ele>
        <time>2010-12-30T09:04:23Z</time>
      </trkpt>
      <trkpt lat="43.70769" lon="4.88233">
        <ele>88.578735</ele>
        <time>2010-12-30T09:04:34Z</time>
      </trkpt>
      <trkpt lat="43.70771" lon="4.88231">
        <ele>87.617188</ele>
        <time>2010-12-30T09:04:36Z</time>
      </trkpt>
      <trkpt lat="43.70771" lon="4.88216">
        <ele>81.368774</ele>
        <time>2010-12-30T09:04:46Z</time>
      </trkpt>
      <trkpt lat="43.70771" lon="4.88209">
        <ele>78.965454</ele>
        <time>2010-12-30T09:04:49Z</time>
      </trkpt>
      <trkpt lat="43.70771" lon="4.88188">
        <ele>69.352295</ele>
        <time>2010-12-30T09:05:01Z</time>
      </trkpt>
      <trkpt lat="43.70773" lon="4.88162">
        <ele>67.910278</ele>
        <time>2010-12-30T09:05:14Z</time>
      </trkpt>
      <trkpt lat="43.70771" lon="4.88149">
        <ele>69.832886</ele>
        <time>2010-12-30T09:05:21Z</time>
      </trkpt>
      <trkpt lat="43.70771" lon="4.88134">
        <ele>70.313477</ele>
        <time>2010-12-30T09:05:32Z</time>
      </trkpt>
      <trkpt lat="43.70769" lon="4.88113">
        <ele>64.545654</ele>
        <time>2010-12-30T09:05:45Z</time>
      </trkpt>
      <trkpt lat="43.70769" lon="4.88108">
        <ele>63.584351</ele>
        <time>2010-12-30T09:05:48Z</time>
      </trkpt>
      <trkpt lat="43.70769" lon="4.88091">
        <ele>64.065063</ele>
        <time>2010-12-30T09:05:56Z</time>
      </trkpt>
      <trkpt lat="43.70769" lon="4.88072">
        <ele>66.468262</ele>
        <time>2010-12-30T09:06:07Z</time>
      </trkpt>
      <trkpt lat="43.70767" lon="4.88055">
        <ele>68.390869</ele>
        <time>2010-12-30T09:06:18Z</time>
      </trkpt>
      <trkpt lat="43.70769" lon="4.88033">
        <ele>65.987671</ele>
        <time>2010-12-30T09:06:31Z</time>
      </trkpt>
      <trkpt lat="43.70769" lon="4.88012">
        <ele>63.584351</ele>
        <time>2010-12-30T09:06:42Z</time>
      </trkpt>
      <trkpt lat="43.70771" lon="4.87986">
        <ele>63.103638</ele>
        <time>2010-12-30T09:06:55Z</time>
      </trkpt>
      <trkpt lat="43.70771" lon="4.87967">
        <ele>63.103638</ele>
        <time>2010-12-30T09:07:07Z</time>
      </trkpt>
      <trkpt lat="43.70771" lon="4.87956">
        <ele>62.622925</ele>
        <time>2010-12-30T09:07:12Z</time>
      </trkpt>
      <trkpt lat="43.70773" lon="4.87948">
        <ele>61.661743</ele>
        <time>2010-12-30T09:07:17Z</time>
      </trkpt>
      <trkpt lat="43.70773" lon="4.87941">
        <ele>61.661743</ele>
        <time>2010-12-30T09:07:20Z</time>
      </trkpt>
      <trkpt lat="43.70776" lon="4.87922">
        <ele>61.661743</ele>
        <time>2010-12-30T09:07:31Z</time>
      </trkpt>
      <trkpt lat="43.70778" lon="4.87905">
        <ele>61.18103</ele>
        <time>2010-12-30T09:07:43Z</time>
      </trkpt>
      <trkpt lat="43.70778" lon="4.8789">
        <ele>61.18103</ele>
        <time>2010-12-30T09:07:54Z</time>
      </trkpt>
      <trkpt lat="43.70778" lon="4.87877">
        <ele>62.622925</ele>
        <time>2010-12-30T09:08:03Z</time>
      </trkpt>
      <trkpt lat="43.70778" lon="4.87868">
        <ele>65.50708</ele>
        <time>2010-12-30T09:08:09Z</time>
      </trkpt>
      <trkpt lat="43.70776" lon="4.87855">
        <ele>71.274902</ele>
        <time>2010-12-30T09:08:17Z</time>
      </trkpt>
      <trkpt lat="43.70773" lon="4.87845">
        <ele>76.562134</ele>
        <time>2010-12-30T09:08:25Z</time>
      </trkpt>
      <trkpt lat="43.70771" lon="4.87838">
        <ele>78.965454</ele>
        <time>2010-12-30T09:08:30Z</time>
      </trkpt>
      <trkpt lat="43.70769" lon="4.87821">
        <ele>84.252686</ele>
        <time>2010-12-30T09:08:40Z</time>
      </trkpt>
      <trkpt lat="43.70769" lon="4.87806">
        <ele>87.617188</ele>
        <time>2010-12-30T09:08:48Z</time>
      </trkpt>
      <trkpt lat="43.70767" lon="4.8778">
        <ele>89.539917</ele>
        <time>2010-12-30T09:09:02Z</time>
      </trkpt>
      <trkpt lat="43.70767" lon="4.87765">
        <ele>87.617188</ele>
        <time>2010-12-30T09:09:11Z</time>
      </trkpt>
      <trkpt lat="43.70765" lon="4.87757">
        <ele>87.136597</ele>
        <time>2010-12-30T09:09:17Z</time>
      </trkpt>
      <trkpt lat="43.70767" lon="4.87744">
        <ele>85.213989</ele>
        <time>2010-12-30T09:09:25Z</time>
      </trkpt>
      <trkpt lat="43.70765" lon="4.87729">
        <ele>83.771973</ele>
        <time>2010-12-30T09:09:34Z</time>
      </trkpt>
      <trkpt lat="43.70763" lon="4.87716">
        <ele>84.252686</ele>
        <time>2010-12-30T09:09:41Z</time>
      </trkpt>
      <trkpt lat="43.70765" lon="4.87707">
        <ele>80.888184</ele>
        <time>2010-12-30T09:09:47Z</time>
      </trkpt>
      <trkpt lat="43.70765" lon="4.87686">
        <ele>78.004028</ele>
        <time>2010-12-30T09:09:57Z</time>
      </trkpt>
      <trkpt lat="43.70765" lon="4.87677">
        <ele>77.523438</ele>
        <time>2010-12-30T09:10:02Z</time>
      </trkpt>
      <trkpt lat="43.70763" lon="4.87658">
        <ele>77.042847</ele>
        <time>2010-12-30T09:10:14Z</time>
      </trkpt>
      <trkpt lat="43.7076" lon="4.87643">
        <ele>76.562134</ele>
        <time>2010-12-30T09:10:22Z</time>
      </trkpt>
      <trkpt lat="43.70758" lon="4.87632">
        <ele>77.523438</ele>
        <time>2010-12-30T09:10:28Z</time>
      </trkpt>
      <trkpt lat="43.70758" lon="4.87626">
        <ele>78.004028</ele>
        <time>2010-12-30T09:10:31Z</time>
      </trkpt>
      <trkpt lat="43.70756" lon="4.87617">
        <ele>78.004028</ele>
        <time>2010-12-30T09:10:37Z</time>
      </trkpt>
      <trkpt lat="43.70754" lon="4.87602">
        <ele>78.004028</ele>
        <time>2010-12-30T09:10:48Z</time>
      </trkpt>
      <trkpt lat="43.70754" lon="4.87589">
        <ele>79.446045</ele>
        <time>2010-12-30T09:10:56Z</time>
      </trkpt>
      <trkpt lat="43.70756" lon="4.87585">
        <ele>79.926636</ele>
        <time>2010-12-30T09:10:58Z</time>
      </trkpt>
      <trkpt lat="43.70756" lon="4.87559">
        <ele>80.407471</ele>
        <time>2010-12-30T09:11:10Z</time>
      </trkpt>
      <trkpt lat="43.70754" lon="4.8754">
        <ele>79.446045</ele>
        <time>2010-12-30T09:11:20Z</time>
      </trkpt>
      <trkpt lat="43.70754" lon="4.87533">
        <ele>79.446045</ele>
        <time>2010-12-30T09:11:23Z</time>
      </trkpt>
      <trkpt lat="43.7075" lon="4.87525">
        <ele>80.888184</ele>
        <time>2010-12-30T09:11:29Z</time>
      </trkpt>
      <trkpt lat="43.7075" lon="4.87523">
        <ele>80.888184</ele>
        <time>2010-12-30T09:11:31Z</time>
      </trkpt>
      <trkpt lat="43.70752" lon="4.87516">
        <ele>81.368774</ele>
        <time>2010-12-30T09:11:36Z</time>
      </trkpt>
      <trkpt lat="43.70752" lon="4.87503">
        <ele>83.291382</ele>
        <time>2010-12-30T09:11:44Z</time>
      </trkpt>
      <trkpt lat="43.70752" lon="4.87486">
        <ele>85.69458</ele>
        <time>2010-12-30T09:11:54Z</time>
      </trkpt>
      <trkpt lat="43.70754" lon="4.87465">
        <ele>85.69458</ele>
        <time>2010-12-30T09:12:04Z</time>
      </trkpt>
      <trkpt lat="43.70756" lon="4.87465">
        <ele>85.69458</ele>
        <time>2010-12-30T09:12:05Z</time>
      </trkpt>
      <trkpt lat="43.70758" lon="4.87454">
        <ele>86.175293</ele>
        <time>2010-12-30T09:12:11Z</time>
      </trkpt>
      <trkpt lat="43.7076" lon="4.87428">
        <ele>86.656006</ele>
        <time>2010-12-30T09:12:24Z</time>
      </trkpt>
      <trkpt lat="43.70763" lon="4.87422">
        <ele>89.059326</ele>
        <time>2010-12-30T09:12:29Z</time>
      </trkpt>
      <trkpt lat="43.70765" lon="4.87418">
        <ele>89.059326</ele>
        <time>2010-12-30T09:12:31Z</time>
      </trkpt>
      <trkpt lat="43.70769" lon="4.87411">
        <ele>89.539917</ele>
        <time>2010-12-30T09:12:35Z</time>
      </trkpt>
      <trkpt lat="43.70773" lon="4.87407">
        <ele>91.943237</ele>
        <time>2010-12-30T09:12:41Z</time>
      </trkpt>
      <trkpt lat="43.70776" lon="4.87398">
        <ele>92.904541</ele>
        <time>2010-12-30T09:12:46Z</time>
      </trkpt>
      <trkpt lat="43.70778" lon="4.87387">
        <ele>92.904541</ele>
        <time>2010-12-30T09:12:52Z</time>
      </trkpt>
      <trkpt lat="43.70778" lon="4.87379">
        <ele>95.788452</ele>
        <time>2010-12-30T09:12:58Z</time>
      </trkpt>
      <trkpt lat="43.7078" lon="4.87372">
        <ele>96.749878</ele>
        <time>2010-12-30T09:13:02Z</time>
      </trkpt>
      <trkpt lat="43.70782" lon="4.87366">
        <ele>95.307739</ele>
        <time>2010-12-30T09:13:07Z</time>
      </trkpt>
      <trkpt lat="43.70784" lon="4.87364">
        <ele>96.269287</ele>
        <time>2010-12-30T09:13:10Z</time>
      </trkpt>
      <trkpt lat="43.70782" lon="4.87357">
        <ele>96.749878</ele>
        <time>2010-12-30T09:13:14Z</time>
      </trkpt>
      <trkpt lat="43.70784" lon="4.87353">
        <ele>97.230469</ele>
        <time>2010-12-30T09:13:16Z</time>
      </trkpt>
      <trkpt lat="43.70786" lon="4.8734">
        <ele>100.595093</ele>
        <time>2010-12-30T09:13:25Z</time>
      </trkpt>
      <trkpt lat="43.70788" lon="4.87336">
        <ele>100.595093</ele>
        <time>2010-12-30T09:13:27Z</time>
      </trkpt>
      <trkpt lat="43.70788" lon="4.87332">
        <ele>103.959717</ele>
        <time>2010-12-30T09:13:32Z</time>
      </trkpt>
      <trkpt lat="43.70786" lon="4.87319">
        <ele>107.805054</ele>
        <time>2010-12-30T09:13:41Z</time>
      </trkpt>
      <trkpt lat="43.70788" lon="4.87302">
        <ele>109.246948</ele>
        <time>2010-12-30T09:13:53Z</time>
      </trkpt>
      <trkpt lat="43.70788" lon="4.87302">
        <ele>107.805054</ele>
        <time>2010-12-30T09:13:54Z</time>
      </trkpt>
      <trkpt lat="43.70791" lon="4.87295">
        <ele>107.324341</ele>
        <time>2010-12-30T09:13:57Z</time>
      </trkpt>
      <trkpt lat="43.70795" lon="4.8728">
        <ele>105.882446</ele>
        <time>2010-12-30T09:14:05Z</time>
      </trkpt>
      <trkpt lat="43.70801" lon="4.87259">
        <ele>100.595093</ele>
        <time>2010-12-30T09:14:16Z</time>
      </trkpt>
      <trkpt lat="43.70803" lon="4.87248">
        <ele>99.153076</ele>
        <time>2010-12-30T09:14:23Z</time>
      </trkpt>
      <trkpt lat="43.70806" lon="4.87239">
        <ele>99.153076</ele>
        <time>2010-12-30T09:14:28Z</time>
      </trkpt>
      <trkpt lat="43.7081" lon="4.87218">
        <ele>97.230469</ele>
        <time>2010-12-30T09:14:39Z</time>
      </trkpt>
      <trkpt lat="43.70812" lon="4.87212">
        <ele>94.827148</ele>
        <time>2010-12-30T09:14:43Z</time>
      </trkpt>
      <trkpt lat="43.70816" lon="4.87199">
        <ele>90.501343</ele>
        <time>2010-12-30T09:14:52Z</time>
      </trkpt>
      <trkpt lat="43.70818" lon="4.87177">
        <ele>88.098022</ele>
        <time>2010-12-30T09:15:02Z</time>
      </trkpt>
      <trkpt lat="43.70821" lon="4.87169">
        <ele>88.098022</ele>
        <time>2010-12-30T09:15:08Z</time>
      </trkpt>
      <trkpt lat="43.70821" lon="4.87164">
        <ele>86.175293</ele>
        <time>2010-12-30T09:15:12Z</time>
      </trkpt>
      <trkpt lat="43.70823" lon="4.87149">
        <ele>83.771973</ele>
        <time>2010-12-30T09:15:22Z</time>
      </trkpt>
      <trkpt lat="43.70823" lon="4.87147">
        <ele>83.291382</ele>
        <time>2010-12-30T09:15:24Z</time>
      </trkpt>
      <trkpt lat="43.70825" lon="4.87141">
        <ele>81.849365</ele>
        <time>2010-12-30T09:15:28Z</time>
      </trkpt>
      <trkpt lat="43.70827" lon="4.8713">
        <ele>82.810791</ele>
        <time>2010-12-30T09:15:34Z</time>
      </trkpt>
      <trkpt lat="43.70827" lon="4.87126">
        <ele>84.733398</ele>
        <time>2010-12-30T09:15:38Z</time>
      </trkpt>
      <trkpt lat="43.70829" lon="4.87119">
        <ele>87.617188</ele>
        <time>2010-12-30T09:15:44Z</time>
      </trkpt>
      <trkpt lat="43.70829" lon="4.87111">
        <ele>88.098022</ele>
        <time>2010-12-30T09:15:49Z</time>
      </trkpt>
      <trkpt lat="43.70831" lon="4.87106">
        <ele>88.578735</ele>
        <time>2010-12-30T09:15:52Z</time>
      </trkpt>
      <trkpt lat="43.70833" lon="4.87087">
        <ele>88.578735</ele>
        <time>2010-12-30T09:16:05Z</time>
      </trkpt>
      <trkpt lat="43.70836" lon="4.87072">
        <ele>90.501343</ele>
        <time>2010-12-30T09:16:13Z</time>
      </trkpt>
      <trkpt lat="43.7084" lon="4.87059">
        <ele>93.385132</ele>
        <time>2010-12-30T09:16:22Z</time>
      </trkpt>
      <trkpt lat="43.70838" lon="4.87036">
        <ele>94.346558</ele>
        <time>2010-12-30T09:16:34Z</time>
      </trkpt>
      <trkpt lat="43.70838" lon="4.87031">
        <ele>93.865845</ele>
        <time>2010-12-30T09:16:37Z</time>
      </trkpt>
      <trkpt lat="43.70836" lon="4.87008">
        <ele>91.462524</ele>
        <time>2010-12-30T09:16:50Z</time>
      </trkpt>
      <trkpt lat="43.70836" lon="4.87006">
        <ele>91.462524</ele>
        <time>2010-12-30T09:16:51Z</time>
      </trkpt>
      <trkpt lat="43.70836" lon="4.87001">
        <ele>91.462524</ele>
        <time>2010-12-30T09:16:54Z</time>
      </trkpt>
      <trkpt lat="43.70836" lon="4.86993">
        <ele>91.462524</ele>
        <time>2010-12-30T09:16:58Z</time>
      </trkpt>
      <trkpt lat="43.70836" lon="4.8698">
        <ele>93.385132</ele>
        <time>2010-12-30T09:17:06Z</time>
      </trkpt>
      <trkpt lat="43.70836" lon="4.8696">
        <ele>93.385132</ele>
        <time>2010-12-30T09:17:17Z</time>
      </trkpt>
      <trkpt lat="43.70836" lon="4.86937">
        <ele>90.02063</ele>
        <time>2010-12-30T09:17:29Z</time>
      </trkpt>
      <trkpt lat="43.70833" lon="4.86926">
        <ele>87.617188</ele>
        <time>2010-12-30T09:17:34Z</time>
      </trkpt>
      <trkpt lat="43.70831" lon="4.86909">
        <ele>86.175293</ele>
        <time>2010-12-30T09:17:44Z</time>
      </trkpt>
      <trkpt lat="43.70833" lon="4.86896">
        <ele>86.175293</ele>
        <time>2010-12-30T09:17:51Z</time>
      </trkpt>
      <trkpt lat="43.70831" lon="4.86881">
        <ele>85.213989</ele>
        <time>2010-12-30T09:18:00Z</time>
      </trkpt>
      <trkpt lat="43.70831" lon="4.86855">
        <ele>81.849365</ele>
        <time>2010-12-30T09:18:13Z</time>
      </trkpt>
      <trkpt lat="43.70829" lon="4.86834">
        <ele>78.004028</ele>
        <time>2010-12-30T09:18:25Z</time>
      </trkpt>
      <trkpt lat="43.70827" lon="4.86819">
        <ele>77.523438</ele>
        <time>2010-12-30T09:18:35Z</time>
      </trkpt>
      <trkpt lat="43.70825" lon="4.868">
        <ele>77.042847</ele>
        <time>2010-12-30T09:18:46Z</time>
      </trkpt>
      <trkpt lat="43.70825" lon="4.86782">
        <ele>78.004028</ele>
        <time>2010-12-30T09:18:57Z</time>
      </trkpt>
      <trkpt lat="43.70823" lon="4.86761">
        <ele>76.562134</ele>
        <time>2010-12-30T09:19:09Z</time>
      </trkpt>
      <trkpt lat="43.70818" lon="4.86742">
        <ele>74.639526</ele>
        <time>2010-12-30T09:19:20Z</time>
      </trkpt>
      <trkpt lat="43.70814" lon="4.86724">
        <ele>76.562134</ele>
        <time>2010-12-30T09:19:32Z</time>
      </trkpt>
      <trkpt lat="43.70812" lon="4.86707">
        <ele>75.60083</ele>
        <time>2010-12-30T09:19:42Z</time>
      </trkpt>
      <trkpt lat="43.7081" lon="4.86686">
        <ele>73.678223</ele>
        <time>2010-12-30T09:19:54Z</time>
      </trkpt>
      <trkpt lat="43.70808" lon="4.86671">
        <ele>70.794189</ele>
        <time>2010-12-30T09:20:04Z</time>
      </trkpt>
      <trkpt lat="43.70806" lon="4.86651">
        <ele>66.468262</ele>
        <time>2010-12-30T09:20:17Z</time>
      </trkpt>
      <trkpt lat="43.70803" lon="4.86641">
        <ele>65.987671</ele>
        <time>2010-12-30T09:20:23Z</time>
      </trkpt>
      <trkpt lat="43.70803" lon="4.86632">
        <ele>67.429688</ele>
        <time>2010-12-30T09:20:29Z</time>
      </trkpt>
      <trkpt lat="43.70803" lon="4.86621">
        <ele>67.910278</ele>
        <time>2010-12-30T09:20:34Z</time>
      </trkpt>
      <trkpt lat="43.70803" lon="4.86619">
        <ele>68.390869</ele>
        <time>2010-12-30T09:20:35Z</time>
      </trkpt>
      <trkpt lat="43.70801" lon="4.86602">
        <ele>67.910278</ele>
        <time>2010-12-30T09:20:46Z</time>
      </trkpt>
      <trkpt lat="43.70799" lon="4.86596">
        <ele>68.871582</ele>
        <time>2010-12-30T09:20:51Z</time>
      </trkpt>
      <trkpt lat="43.70799" lon="4.86591">
        <ele>69.352295</ele>
        <time>2010-12-30T09:20:54Z</time>
      </trkpt>
      <trkpt lat="43.70799" lon="4.86583">
        <ele>69.352295</ele>
        <time>2010-12-30T09:20:58Z</time>
      </trkpt>
      <trkpt lat="43.70801" lon="4.86563">
        <ele>70.794189</ele>
        <time>2010-12-30T09:21:09Z</time>
      </trkpt>
      <trkpt lat="43.70801" lon="4.86551">
        <ele>70.794189</ele>
        <time>2010-12-30T09:21:17Z</time>
      </trkpt>
      <trkpt lat="43.70803" lon="4.8654">
        <ele>70.313477</ele>
        <time>2010-12-30T09:21:22Z</time>
      </trkpt>
      <trkpt lat="43.70803" lon="4.86523">
        <ele>70.794189</ele>
        <time>2010-12-30T09:21:32Z</time>
      </trkpt>
      <trkpt lat="43.70803" lon="4.86508">
        <ele>73.197632</ele>
        <time>2010-12-30T09:21:42Z</time>
      </trkpt>
      <trkpt lat="43.70803" lon="4.86495">
        <ele>73.197632</ele>
        <time>2010-12-30T09:21:49Z</time>
      </trkpt>
      <trkpt lat="43.70803" lon="4.86476">
        <ele>72.236206</ele>
        <time>2010-12-30T09:22:01Z</time>
      </trkpt>
      <trkpt lat="43.70803" lon="4.86452">
        <ele>73.197632</ele>
        <time>2010-12-30T09:22:14Z</time>
      </trkpt>
      <trkpt lat="43.70806" lon="4.86439">
        <ele>75.120239</ele>
        <time>2010-12-30T09:22:23Z</time>
      </trkpt>
      <trkpt lat="43.70808" lon="4.86422">
        <ele>77.042847</ele>
        <time>2010-12-30T09:22:33Z</time>
      </trkpt>
      <trkpt lat="43.70808" lon="4.864">
        <ele>78.484741</ele>
        <time>2010-12-30T09:22:45Z</time>
      </trkpt>
      <trkpt lat="43.7081" lon="4.86396">
        <ele>78.484741</ele>
        <time>2010-12-30T09:22:48Z</time>
      </trkpt>
      <trkpt lat="43.7081" lon="4.86379">
        <ele>77.523438</ele>
        <time>2010-12-30T09:22:58Z</time>
      </trkpt>
      <trkpt lat="43.70812" lon="4.8636">
        <ele>75.60083</ele>
        <time>2010-12-30T09:23:09Z</time>
      </trkpt>
      <trkpt lat="43.70814" lon="4.86345">
        <ele>74.639526</ele>
        <time>2010-12-30T09:23:18Z</time>
      </trkpt>
      <trkpt lat="43.70814" lon="4.86325">
        <ele>73.678223</ele>
        <time>2010-12-30T09:23:30Z</time>
      </trkpt>
      <trkpt lat="43.70816" lon="4.86308">
        <ele>74.158813</ele>
        <time>2010-12-30T09:23:42Z</time>
      </trkpt>
      <trkpt lat="43.70818" lon="4.86291">
        <ele>76.081421</ele>
        <time>2010-12-30T09:23:53Z</time>
      </trkpt>
      <trkpt lat="43.70821" lon="4.86272">
        <ele>78.965454</ele>
        <time>2010-12-30T09:24:03Z</time>
      </trkpt>
      <trkpt lat="43.70823" lon="4.8627">
        <ele>78.965454</ele>
        <time>2010-12-30T09:24:04Z</time>
      </trkpt>
      <trkpt lat="43.70825" lon="4.86261">
        <ele>78.484741</ele>
        <time>2010-12-30T09:24:09Z</time>
      </trkpt>
      <trkpt lat="43.70825" lon="4.86255">
        <ele>77.523438</ele>
        <time>2010-12-30T09:24:13Z</time>
      </trkpt>
      <trkpt lat="43.70825" lon="4.8625">
        <ele>77.523438</ele>
        <time>2010-12-30T09:24:15Z</time>
      </trkpt>
      <trkpt lat="43.70825" lon="4.86246">
        <ele>77.042847</ele>
        <time>2010-12-30T09:24:17Z</time>
      </trkpt>
      <trkpt lat="43.70825" lon="4.86244">
        <ele>77.042847</ele>
        <time>2010-12-30T09:24:19Z</time>
      </trkpt>
      <trkpt lat="43.70825" lon="4.8622">
        <ele>76.081421</ele>
        <time>2010-12-30T09:24:33Z</time>
      </trkpt>
      <trkpt lat="43.70825" lon="4.86218">
        <ele>76.081421</ele>
        <time>2010-12-30T09:24:34Z</time>
      </trkpt>
      <trkpt lat="43.70827" lon="4.86203">
        <ele>75.60083</ele>
        <time>2010-12-30T09:24:42Z</time>
      </trkpt>
      <trkpt lat="43.70829" lon="4.86201">
        <ele>75.120239</ele>
        <time>2010-12-30T09:24:44Z</time>
      </trkpt>
      <trkpt lat="43.70833" lon="4.8619">
        <ele>75.60083</ele>
        <time>2010-12-30T09:24:51Z</time>
      </trkpt>
      <trkpt lat="43.70838" lon="4.86173">
        <ele>76.562134</ele>
        <time>2010-12-30T09:25:02Z</time>
      </trkpt>
      <trkpt lat="43.70844" lon="4.86152">
        <ele>75.60083</ele>
        <time>2010-12-30T09:25:15Z</time>
      </trkpt>
      <trkpt lat="43.70846" lon="4.86136">
        <ele>77.523438</ele>
        <time>2010-12-30T09:25:26Z</time>
      </trkpt>
      <trkpt lat="43.70848" lon="4.86132">
        <ele>77.042847</ele>
        <time>2010-12-30T09:25:29Z</time>
      </trkpt>
      <trkpt lat="43.70853" lon="4.86113">
        <ele>77.042847</ele>
        <time>2010-12-30T09:25:41Z</time>
      </trkpt>
      <trkpt lat="43.70855" lon="4.86102">
        <ele>77.042847</ele>
        <time>2010-12-30T09:25:47Z</time>
      </trkpt>
      <trkpt lat="43.70861" lon="4.86083">
        <ele>73.197632</ele>
        <time>2010-12-30T09:25:59Z</time>
      </trkpt>
      <trkpt lat="43.70866" lon="4.8607">
        <ele>73.678223</ele>
        <time>2010-12-30T09:26:09Z</time>
      </trkpt>
      <trkpt lat="43.70872" lon="4.86053">
        <ele>75.120239</ele>
        <time>2010-12-30T09:26:25Z</time>
      </trkpt>
      <trkpt lat="43.70874" lon="4.86044">
        <ele>76.081421</ele>
        <time>2010-12-30T09:26:30Z</time>
      </trkpt>
      <trkpt lat="43.70879" lon="4.86031">
        <ele>75.60083</ele>
        <time>2010-12-30T09:26:38Z</time>
      </trkpt>
      <trkpt lat="43.70889" lon="4.8601">
        <ele>71.274902</ele>
        <time>2010-12-30T09:26:51Z</time>
      </trkpt>
      <trkpt lat="43.70896" lon="4.85984">
        <ele>70.794189</ele>
        <time>2010-12-30T09:27:07Z</time>
      </trkpt>
      <trkpt lat="43.70898" lon="4.85976">
        <ele>70.794189</ele>
        <time>2010-12-30T09:27:13Z</time>
      </trkpt>
      <trkpt lat="43.709" lon="4.85967">
        <ele>71.274902</ele>
        <time>2010-12-30T09:27:18Z</time>
      </trkpt>
      <trkpt lat="43.70902" lon="4.85952">
        <ele>70.794189</ele>
        <time>2010-12-30T09:27:27Z</time>
      </trkpt>
      <trkpt lat="43.70917" lon="4.85928">
        <ele>68.390869</ele>
        <time>2010-12-30T09:27:43Z</time>
      </trkpt>
      <trkpt lat="43.70932" lon="4.85922">
        <ele>67.910278</ele>
        <time>2010-12-30T09:27:56Z</time>
      </trkpt>
      <trkpt lat="43.70947" lon="4.85924">
        <ele>68.390869</ele>
        <time>2010-12-30T09:28:10Z</time>
      </trkpt>
      <trkpt lat="43.70956" lon="4.85926">
        <ele>68.390869</ele>
        <time>2010-12-30T09:28:20Z</time>
      </trkpt>
      <trkpt lat="43.70973" lon="4.8593">
        <ele>70.313477</ele>
        <time>2010-12-30T09:28:35Z</time>
      </trkpt>
      <trkpt lat="43.70979" lon="4.85937">
        <ele>73.197632</ele>
        <time>2010-12-30T09:28:44Z</time>
      </trkpt>
      <trkpt lat="43.70992" lon="4.85943">
        <ele>76.562134</ele>
        <time>2010-12-30T09:28:55Z</time>
      </trkpt>
      <trkpt lat="43.71005" lon="4.85948">
        <ele>75.120239</ele>
        <time>2010-12-30T09:29:07Z</time>
      </trkpt>
      <trkpt lat="43.7102" lon="4.85958">
        <ele>77.523438</ele>
        <time>2010-12-30T09:29:21Z</time>
      </trkpt>
      <trkpt lat="43.71029" lon="4.85963">
        <ele>76.562134</ele>
        <time>2010-12-30T09:29:28Z</time>
      </trkpt>
      <trkpt lat="43.71039" lon="4.85973">
        <ele>78.484741</ele>
        <time>2010-12-30T09:29:42Z</time>
      </trkpt>
      <trkpt lat="43.71039" lon="4.85973">
        <ele>78.965454</ele>
        <time>2010-12-30T09:29:45Z</time>
      </trkpt>
      <trkpt lat="43.71042" lon="4.85986">
        <ele>78.484741</ele>
        <time>2010-12-30T09:29:56Z</time>
      </trkpt>
      <trkpt lat="43.71054" lon="4.85988">
        <ele>80.888184</ele>
        <time>2010-12-30T09:30:06Z</time>
      </trkpt>
      <trkpt lat="43.71069" lon="4.85995">
        <ele>78.965454</ele>
        <time>2010-12-30T09:30:18Z</time>
      </trkpt>
      <trkpt lat="43.71082" lon="4.85999">
        <ele>79.926636</ele>
        <time>2010-12-30T09:30:28Z</time>
      </trkpt>
      <trkpt lat="43.71093" lon="4.86001">
        <ele>80.888184</ele>
        <time>2010-12-30T09:30:38Z</time>
      </trkpt>
      <trkpt lat="43.71104" lon="4.86006">
        <ele>83.291382</ele>
        <time>2010-12-30T09:30:49Z</time>
      </trkpt>
      <trkpt lat="43.71127" lon="4.86025">
        <ele>77.523438</ele>
        <time>2010-12-30T09:31:02Z</time>
      </trkpt>
      <trkpt lat="43.71138" lon="4.86025">
        <ele>76.562134</ele>
        <time>2010-12-30T09:31:11Z</time>
      </trkpt>
      <trkpt lat="43.71151" lon="4.86027">
        <ele>76.562134</ele>
        <time>2010-12-30T09:31:24Z</time>
      </trkpt>
      <trkpt lat="43.71162" lon="4.86027">
        <ele>76.081421</ele>
        <time>2010-12-30T09:31:33Z</time>
      </trkpt>
      <trkpt lat="43.7117" lon="4.86029">
        <ele>74.639526</ele>
        <time>2010-12-30T09:31:42Z</time>
      </trkpt>
      <trkpt lat="43.71183" lon="4.86033">
        <ele>75.120239</ele>
        <time>2010-12-30T09:31:52Z</time>
      </trkpt>
      <trkpt lat="43.71196" lon="4.86038">
        <ele>76.562134</ele>
        <time>2010-12-30T09:32:03Z</time>
      </trkpt>
      <trkpt lat="43.712" lon="4.86038">
        <ele>77.042847</ele>
        <time>2010-12-30T09:32:05Z</time>
      </trkpt>
      <trkpt lat="43.71207" lon="4.8604">
        <ele>78.004028</ele>
        <time>2010-12-30T09:32:13Z</time>
      </trkpt>
      <trkpt lat="43.71211" lon="4.8604">
        <ele>78.965454</ele>
        <time>2010-12-30T09:32:17Z</time>
      </trkpt>
      <trkpt lat="43.7122" lon="4.86044">
        <ele>80.407471</ele>
        <time>2010-12-30T09:32:25Z</time>
      </trkpt>
      <trkpt lat="43.71233" lon="4.86046">
        <ele>81.368774</ele>
        <time>2010-12-30T09:32:35Z</time>
      </trkpt>
      <trkpt lat="43.71248" lon="4.86051">
        <ele>81.849365</ele>
        <time>2010-12-30T09:32:49Z</time>
      </trkpt>
      <trkpt lat="43.7126" lon="4.86066">
        <ele>84.733398</ele>
        <time>2010-12-30T09:33:03Z</time>
      </trkpt>
      <trkpt lat="43.71265" lon="4.86076">
        <ele>83.291382</ele>
        <time>2010-12-30T09:33:08Z</time>
      </trkpt>
      <trkpt lat="43.71275" lon="4.86104">
        <ele>79.926636</ele>
        <time>2010-12-30T09:33:22Z</time>
      </trkpt>
      <trkpt lat="43.71282" lon="4.86121">
        <ele>78.484741</ele>
        <time>2010-12-30T09:33:34Z</time>
      </trkpt>
      <trkpt lat="43.7129" lon="4.86141">
        <ele>78.004028</ele>
        <time>2010-12-30T09:33:46Z</time>
      </trkpt>
      <trkpt lat="43.71299" lon="4.86158">
        <ele>76.562134</ele>
        <time>2010-12-30T09:33:57Z</time>
      </trkpt>
      <trkpt lat="43.71308" lon="4.86177">
        <ele>76.081421</ele>
        <time>2010-12-30T09:34:09Z</time>
      </trkpt>
      <trkpt lat="43.7131" lon="4.86184">
        <ele>75.60083</ele>
        <time>2010-12-30T09:34:12Z</time>
      </trkpt>
      <trkpt lat="43.71318" lon="4.86205">
        <ele>76.081421</ele>
        <time>2010-12-30T09:34:25Z</time>
      </trkpt>
      <trkpt lat="43.71325" lon="4.86222">
        <ele>76.562134</ele>
        <time>2010-12-30T09:34:38Z</time>
      </trkpt>
      <trkpt lat="43.71331" lon="4.86239">
        <ele>79.446045</ele>
        <time>2010-12-30T09:34:51Z</time>
      </trkpt>
      <trkpt lat="43.7134" lon="4.86259">
        <ele>83.771973</ele>
        <time>2010-12-30T09:35:04Z</time>
      </trkpt>
      <trkpt lat="43.71344" lon="4.86272">
        <ele>84.252686</ele>
        <time>2010-12-30T09:35:13Z</time>
      </trkpt>
      <trkpt lat="43.71346" lon="4.86276">
        <ele>83.771973</ele>
        <time>2010-12-30T09:35:17Z</time>
      </trkpt>
      <trkpt lat="43.71353" lon="4.86295">
        <ele>82.810791</ele>
        <time>2010-12-30T09:35:29Z</time>
      </trkpt>
      <trkpt lat="43.71363" lon="4.86317">
        <ele>84.252686</ele>
        <time>2010-12-30T09:35:44Z</time>
      </trkpt>
      <trkpt lat="43.71372" lon="4.86325">
        <ele>84.252686</ele>
        <time>2010-12-30T09:35:54Z</time>
      </trkpt>
      <trkpt lat="43.71378" lon="4.86327">
        <ele>85.69458</ele>
        <time>2010-12-30T09:36:00Z</time>
      </trkpt>
      <trkpt lat="43.71383" lon="4.86332">
        <ele>88.578735</ele>
        <time>2010-12-30T09:36:07Z</time>
      </trkpt>
      <trkpt lat="43.71393" lon="4.86347">
        <ele>90.02063</ele>
        <time>2010-12-30T09:36:18Z</time>
      </trkpt>
      <trkpt lat="43.714" lon="4.8636">
        <ele>91.462524</ele>
        <time>2010-12-30T09:36:29Z</time>
      </trkpt>
      <trkpt lat="43.71413" lon="4.86383">
        <ele>92.904541</ele>
        <time>2010-12-30T09:36:44Z</time>
      </trkpt>
      <trkpt lat="43.71419" lon="4.864">
        <ele>91.943237</ele>
        <time>2010-12-30T09:36:55Z</time>
      </trkpt>
      <trkpt lat="43.71428" lon="4.8642">
        <ele>91.462524</ele>
        <time>2010-12-30T09:37:09Z</time>
      </trkpt>
      <trkpt lat="43.71432" lon="4.86435">
        <ele>91.462524</ele>
        <time>2010-12-30T09:37:20Z</time>
      </trkpt>
      <trkpt lat="43.71441" lon="4.86454">
        <ele>93.385132</ele>
        <time>2010-12-30T09:37:32Z</time>
      </trkpt>
      <trkpt lat="43.71445" lon="4.86465">
        <ele>94.346558</ele>
        <time>2010-12-30T09:37:42Z</time>
      </trkpt>
      <trkpt lat="43.71449" lon="4.86476">
        <ele>93.385132</ele>
        <time>2010-12-30T09:37:52Z</time>
      </trkpt>
      <trkpt lat="43.71458" lon="4.86493">
        <ele>91.943237</ele>
        <time>2010-12-30T09:38:05Z</time>
      </trkpt>
      <trkpt lat="43.71471" lon="4.86512">
        <ele>93.865845</ele>
        <time>2010-12-30T09:38:19Z</time>
      </trkpt>
      <trkpt lat="43.71477" lon="4.86521">
        <ele>90.981934</ele>
        <time>2010-12-30T09:38:27Z</time>
      </trkpt>
      <trkpt lat="43.71484" lon="4.86527">
        <ele>87.136597</ele>
        <time>2010-12-30T09:38:35Z</time>
      </trkpt>
      <trkpt lat="43.71488" lon="4.86531">
        <ele>86.656006</ele>
        <time>2010-12-30T09:38:42Z</time>
      </trkpt>
      <trkpt lat="43.71494" lon="4.86533">
        <ele>86.175293</ele>
        <time>2010-12-30T09:38:48Z</time>
      </trkpt>
      <trkpt lat="43.71503" lon="4.86544">
        <ele>86.175293</ele>
        <time>2010-12-30T09:38:56Z</time>
      </trkpt>
      <trkpt lat="43.71512" lon="4.86551">
        <ele>86.175293</ele>
        <time>2010-12-30T09:39:04Z</time>
      </trkpt>
      <trkpt lat="43.71518" lon="4.86557">
        <ele>85.69458</ele>
        <time>2010-12-30T09:39:09Z</time>
      </trkpt>
      <trkpt lat="43.71529" lon="4.86563">
        <ele>84.733398</ele>
        <time>2010-12-30T09:39:17Z</time>
      </trkpt>
      <trkpt lat="43.71537" lon="4.86572">
        <ele>84.252686</ele>
        <time>2010-12-30T09:39:25Z</time>
      </trkpt>
      <trkpt lat="43.71552" lon="4.86594">
        <ele>83.291382</ele>
        <time>2010-12-30T09:39:40Z</time>
      </trkpt>
      <trkpt lat="43.71559" lon="4.86604">
        <ele>83.771973</ele>
        <time>2010-12-30T09:39:48Z</time>
      </trkpt>
      <trkpt lat="43.71567" lon="4.86613">
        <ele>87.136597</ele>
        <time>2010-12-30T09:39:58Z</time>
      </trkpt>
      <trkpt lat="43.71569" lon="4.86615">
        <ele>88.098022</ele>
        <time>2010-12-30T09:40:01Z</time>
      </trkpt>
      <trkpt lat="43.71582" lon="4.86621">
        <ele>88.098022</ele>
        <time>2010-12-30T09:40:15Z</time>
      </trkpt>
      <trkpt lat="43.71595" lon="4.86643">
        <ele>84.733398</ele>
        <time>2010-12-30T09:40:27Z</time>
      </trkpt>
      <trkpt lat="43.71597" lon="4.86645">
        <ele>85.213989</ele>
        <time>2010-12-30T09:40:28Z</time>
      </trkpt>
      <trkpt lat="43.71602" lon="4.86664">
        <ele>87.617188</ele>
        <time>2010-12-30T09:40:40Z</time>
      </trkpt>
      <trkpt lat="43.71608" lon="4.86675">
        <ele>90.501343</ele>
        <time>2010-12-30T09:40:50Z</time>
      </trkpt>
      <trkpt lat="43.71612" lon="4.86679">
        <ele>90.501343</ele>
        <time>2010-12-30T09:40:58Z</time>
      </trkpt>
      <trkpt lat="43.71612" lon="4.86679">
        <ele>89.539917</ele>
        <time>2010-12-30T09:41:02Z</time>
      </trkpt>
      <trkpt lat="43.71617" lon="4.86677">
        <ele>90.02063</ele>
        <time>2010-12-30T09:41:08Z</time>
      </trkpt>
      <trkpt lat="43.71625" lon="4.86666">
        <ele>91.462524</ele>
        <time>2010-12-30T09:41:21Z</time>
      </trkpt>
      <trkpt lat="43.7163" lon="4.86662">
        <ele>91.943237</ele>
        <time>2010-12-30T09:41:26Z</time>
      </trkpt>
      <trkpt lat="43.71642" lon="4.86658">
        <ele>91.943237</ele>
        <time>2010-12-30T09:41:38Z</time>
      </trkpt>
      <trkpt lat="43.71649" lon="4.86656">
        <ele>91.943237</ele>
        <time>2010-12-30T09:41:44Z</time>
      </trkpt>
      <trkpt lat="43.7166" lon="4.8666">
        <ele>92.904541</ele>
        <time>2010-12-30T09:41:52Z</time>
      </trkpt>
      <trkpt lat="43.71664" lon="4.86649">
        <ele>93.385132</ele>
        <time>2010-12-30T09:42:04Z</time>
      </trkpt>
      <trkpt lat="43.71672" lon="4.86632">
        <ele>94.827148</ele>
        <time>2010-12-30T09:42:17Z</time>
      </trkpt>
      <trkpt lat="43.71687" lon="4.86619">
        <ele>94.346558</ele>
        <time>2010-12-30T09:42:32Z</time>
      </trkpt>
      <trkpt lat="43.71698" lon="4.86611">
        <ele>95.307739</ele>
        <time>2010-12-30T09:42:42Z</time>
      </trkpt>
      <trkpt lat="43.71705" lon="4.86604">
        <ele>94.827148</ele>
        <time>2010-12-30T09:42:51Z</time>
      </trkpt>
      <trkpt lat="43.71705" lon="4.86602">
        <ele>95.307739</ele>
        <time>2010-12-30T09:42:53Z</time>
      </trkpt>
      <trkpt lat="43.71711" lon="4.86594">
        <ele>97.230469</ele>
        <time>2010-12-30T09:43:00Z</time>
      </trkpt>
      <trkpt lat="43.71715" lon="4.86583">
        <ele>98.191895</ele>
        <time>2010-12-30T09:43:09Z</time>
      </trkpt>
      <trkpt lat="43.7172" lon="4.86574">
        <ele>99.633789</ele>
        <time>2010-12-30T09:43:15Z</time>
      </trkpt>
      <trkpt lat="43.71722" lon="4.86566">
        <ele>99.633789</ele>
        <time>2010-12-30T09:43:21Z</time>
      </trkpt>
      <trkpt lat="43.71726" lon="4.86555">
        <ele>101.556396</ele>
        <time>2010-12-30T09:43:29Z</time>
      </trkpt>
      <trkpt lat="43.71728" lon="4.86548">
        <ele>102.037109</ele>
        <time>2010-12-30T09:43:34Z</time>
      </trkpt>
      <trkpt lat="43.71737" lon="4.86529">
        <ele>103.479004</ele>
        <time>2010-12-30T09:43:46Z</time>
      </trkpt>
      <trkpt lat="43.71739" lon="4.86523">
        <ele>104.44043</ele>
        <time>2010-12-30T09:43:51Z</time>
      </trkpt>
      <trkpt lat="43.71745" lon="4.86508">
        <ele>103.959717</ele>
        <time>2010-12-30T09:44:04Z</time>
      </trkpt>
      <trkpt lat="43.7175" lon="4.86499">
        <ele>103.479004</ele>
        <time>2010-12-30T09:44:15Z</time>
      </trkpt>
      <trkpt lat="43.71756" lon="4.86482">
        <ele>102.5177</ele>
        <time>2010-12-30T09:44:25Z</time>
      </trkpt>
      <trkpt lat="43.7176" lon="4.86473">
        <ele>102.5177</ele>
        <time>2010-12-30T09:44:30Z</time>
      </trkpt>
      <trkpt lat="43.71765" lon="4.86465">
        <ele>104.44043</ele>
        <time>2010-12-30T09:44:37Z</time>
      </trkpt>
      <trkpt lat="43.71769" lon="4.86454">
        <ele>105.401733</ele>
        <time>2010-12-30T09:44:44Z</time>
      </trkpt>
      <trkpt lat="43.71771" lon="4.8645">
        <ele>105.882446</ele>
        <time>2010-12-30T09:44:47Z</time>
      </trkpt>
      <trkpt lat="43.71773" lon="4.86441">
        <ele>106.843628</ele>
        <time>2010-12-30T09:44:53Z</time>
      </trkpt>
      <trkpt lat="43.71775" lon="4.86433">
        <ele>108.285645</ele>
        <time>2010-12-30T09:45:00Z</time>
      </trkpt>
      <trkpt lat="43.7178" lon="4.86422">
        <ele>108.766235</ele>
        <time>2010-12-30T09:45:05Z</time>
      </trkpt>
      <trkpt lat="43.71784" lon="4.86409">
        <ele>110.688843</ele>
        <time>2010-12-30T09:45:16Z</time>
      </trkpt>
      <trkpt lat="43.71786" lon="4.864">
        <ele>112.130981</ele>
        <time>2010-12-30T09:45:23Z</time>
      </trkpt>
      <trkpt lat="43.71788" lon="4.86385">
        <ele>115.976196</ele>
        <time>2010-12-30T09:45:34Z</time>
      </trkpt>
      <trkpt lat="43.71788" lon="4.86368">
        <ele>118.379395</ele>
        <time>2010-12-30T09:45:46Z</time>
      </trkpt>
      <trkpt lat="43.71786" lon="4.86349">
        <ele>119.821411</ele>
        <time>2010-12-30T09:45:58Z</time>
      </trkpt>
      <trkpt lat="43.71786" lon="4.86336">
        <ele>122.224731</ele>
        <time>2010-12-30T09:46:07Z</time>
      </trkpt>
      <trkpt lat="43.71786" lon="4.86334">
        <ele>122.224731</ele>
        <time>2010-12-30T09:46:08Z</time>
      </trkpt>
      <trkpt lat="43.7179" lon="4.86317">
        <ele>122.224731</ele>
        <time>2010-12-30T09:46:19Z</time>
      </trkpt>
      <trkpt lat="43.71795" lon="4.86289">
        <ele>119.821411</ele>
        <time>2010-12-30T09:46:31Z</time>
      </trkpt>
      <trkpt lat="43.71799" lon="4.8627">
        <ele>120.782837</ele>
        <time>2010-12-30T09:46:44Z</time>
      </trkpt>
      <trkpt lat="43.71803" lon="4.86261">
        <ele>122.224731</ele>
        <time>2010-12-30T09:46:53Z</time>
      </trkpt>
      <trkpt lat="43.71812" lon="4.86246">
        <ele>125.108765</ele>
        <time>2010-12-30T09:47:06Z</time>
      </trkpt>
      <trkpt lat="43.71816" lon="4.86231">
        <ele>127.031372</ele>
        <time>2010-12-30T09:47:15Z</time>
      </trkpt>
      <trkpt lat="43.71818" lon="4.86218">
        <ele>129.434692</ele>
        <time>2010-12-30T09:47:24Z</time>
      </trkpt>
      <trkpt lat="43.71825" lon="4.86203">
        <ele>127.031372</ele>
        <time>2010-12-30T09:47:34Z</time>
      </trkpt>
      <trkpt lat="43.71833" lon="4.86188">
        <ele>125.589355</ele>
        <time>2010-12-30T09:47:44Z</time>
      </trkpt>
      <trkpt lat="43.71848" lon="4.86169">
        <ele>124.147339</ele>
        <time>2010-12-30T09:47:57Z</time>
      </trkpt>
      <trkpt lat="43.71855" lon="4.86162">
        <ele>122.705444</ele>
        <time>2010-12-30T09:48:02Z</time>
      </trkpt>
      <trkpt lat="43.71868" lon="4.86154">
        <ele>118.860107</ele>
        <time>2010-12-30T09:48:09Z</time>
      </trkpt>
      <trkpt lat="43.71887" lon="4.86149">
        <ele>116.456787</ele>
        <time>2010-12-30T09:48:24Z</time>
      </trkpt>
      <trkpt lat="43.719" lon="4.86143">
        <ele>114.53418</ele>
        <time>2010-12-30T09:48:34Z</time>
      </trkpt>
      <trkpt lat="43.71915" lon="4.86143">
        <ele>112.611572</ele>
        <time>2010-12-30T09:48:45Z</time>
      </trkpt>
      <trkpt lat="43.71926" lon="4.86141">
        <ele>112.611572</ele>
        <time>2010-12-30T09:48:54Z</time>
      </trkpt>
      <trkpt lat="43.71945" lon="4.86139">
        <ele>111.650269</ele>
        <time>2010-12-30T09:49:08Z</time>
      </trkpt>
      <trkpt lat="43.71962" lon="4.86136">
        <ele>110.688843</ele>
        <time>2010-12-30T09:49:22Z</time>
      </trkpt>
      <trkpt lat="43.71975" lon="4.8613">
        <ele>111.650269</ele>
        <time>2010-12-30T09:49:35Z</time>
      </trkpt>
      <trkpt lat="43.71981" lon="4.86128">
        <ele>112.611572</ele>
        <time>2010-12-30T09:49:41Z</time>
      </trkpt>
      <trkpt lat="43.71992" lon="4.86124">
        <ele>114.53418</ele>
        <time>2010-12-30T09:49:51Z</time>
      </trkpt>
      <trkpt lat="43.71999" lon="4.86121">
        <ele>115.495605</ele>
        <time>2010-12-30T09:49:56Z</time>
      </trkpt>
      <trkpt lat="43.72009" lon="4.86117">
        <ele>118.379395</ele>
        <time>2010-12-30T09:50:08Z</time>
      </trkpt>
      <trkpt lat="43.72011" lon="4.86117">
        <ele>118.379395</ele>
        <time>2010-12-30T09:50:10Z</time>
      </trkpt>
      <trkpt lat="43.72014" lon="4.86117">
        <ele>117.898804</ele>
        <time>2010-12-30T09:50:12Z</time>
      </trkpt>
      <trkpt lat="43.72029" lon="4.86115">
        <ele>118.860107</ele>
        <time>2010-12-30T09:50:23Z</time>
      </trkpt>
      <trkpt lat="43.72044" lon="4.86109">
        <ele>119.821411</ele>
        <time>2010-12-30T09:50:36Z</time>
      </trkpt>
      <trkpt lat="43.72048" lon="4.86106">
        <ele>120.782837</ele>
        <time>2010-12-30T09:50:41Z</time>
      </trkpt>
      <trkpt lat="43.72057" lon="4.86106">
        <ele>121.744141</ele>
        <time>2010-12-30T09:50:47Z</time>
      </trkpt>
      <trkpt lat="43.72067" lon="4.86111">
        <ele>124.628052</ele>
        <time>2010-12-30T09:50:58Z</time>
      </trkpt>
      <trkpt lat="43.72076" lon="4.86119">
        <ele>125.589355</ele>
        <time>2010-12-30T09:51:10Z</time>
      </trkpt>
      <trkpt lat="43.72078" lon="4.86121">
        <ele>125.108765</ele>
        <time>2010-12-30T09:51:12Z</time>
      </trkpt>
      <trkpt lat="43.72093" lon="4.86136">
        <ele>123.186157</ele>
        <time>2010-12-30T09:51:25Z</time>
      </trkpt>
      <trkpt lat="43.72099" lon="4.86143">
        <ele>121.744141</ele>
        <time>2010-12-30T09:51:32Z</time>
      </trkpt>
      <trkpt lat="43.72106" lon="4.86147">
        <ele>119.821411</ele>
        <time>2010-12-30T09:51:36Z</time>
      </trkpt>
      <trkpt lat="43.72114" lon="4.86152">
        <ele>119.34082</ele>
        <time>2010-12-30T09:51:44Z</time>
      </trkpt>
      <trkpt lat="43.72123" lon="4.86149">
        <ele>119.821411</ele>
        <time>2010-12-30T09:51:53Z</time>
      </trkpt>
      <trkpt lat="43.72125" lon="4.86147">
        <ele>119.34082</ele>
        <time>2010-12-30T09:51:54Z</time>
      </trkpt>
      <trkpt lat="43.72125" lon="4.86139">
        <ele>118.860107</ele>
        <time>2010-12-30T09:52:00Z</time>
      </trkpt>
      <trkpt lat="43.72127" lon="4.86119">
        <ele>118.860107</ele>
        <time>2010-12-30T09:52:12Z</time>
      </trkpt>
      <trkpt lat="43.72127" lon="4.86104">
        <ele>120.782837</ele>
        <time>2010-12-30T09:52:22Z</time>
      </trkpt>
      <trkpt lat="43.72129" lon="4.86085">
        <ele>122.705444</ele>
        <time>2010-12-30T09:52:35Z</time>
      </trkpt>
      <trkpt lat="43.72132" lon="4.86072">
        <ele>122.705444</ele>
        <time>2010-12-30T09:52:44Z</time>
      </trkpt>
      <trkpt lat="43.72132" lon="4.86068">
        <ele>123.186157</ele>
        <time>2010-12-30T09:52:47Z</time>
      </trkpt>
      <trkpt lat="43.72132" lon="4.86053">
        <ele>125.108765</ele>
        <time>2010-12-30T09:52:58Z</time>
      </trkpt>
      <trkpt lat="43.72134" lon="4.86042">
        <ele>125.108765</ele>
        <time>2010-12-30T09:53:03Z</time>
      </trkpt>
      <trkpt lat="43.72134" lon="4.8604">
        <ele>125.108765</ele>
        <time>2010-12-30T09:53:05Z</time>
      </trkpt>
      <trkpt lat="43.72136" lon="4.86025">
        <ele>124.628052</ele>
        <time>2010-12-30T09:53:13Z</time>
      </trkpt>
      <trkpt lat="43.72136" lon="4.86012">
        <ele>125.589355</ele>
        <time>2010-12-30T09:53:20Z</time>
      </trkpt>
      <trkpt lat="43.72136" lon="4.86001">
        <ele>126.069946</ele>
        <time>2010-12-30T09:53:32Z</time>
      </trkpt>
      <trkpt lat="43.72138" lon="4.85997">
        <ele>125.108765</ele>
        <time>2010-12-30T09:53:46Z</time>
      </trkpt>
      <trkpt lat="43.72136" lon="4.85993">
        <ele>124.628052</ele>
        <time>2010-12-30T09:54:06Z</time>
      </trkpt>
      <trkpt lat="43.72136" lon="4.85993">
        <ele>124.628052</ele>
        <time>2010-12-30T09:55:04Z</time>
      </trkpt>
      <trkpt lat="43.72136" lon="4.85993">
        <ele>124.628052</ele>
        <time>2010-12-30T09:55:40Z</time>
      </trkpt>
      <trkpt lat="43.72136" lon="4.85991">
        <ele>124.628052</ele>
        <time>2010-12-30T09:55:42Z</time>
      </trkpt>
      <trkpt lat="43.72138" lon="4.85971">
        <ele>127.031372</ele>
        <time>2010-12-30T09:55:54Z</time>
      </trkpt>
      <trkpt lat="43.72138" lon="4.85969">
        <ele>128.473389</ele>
        <time>2010-12-30T09:56:12Z</time>
      </trkpt>
      <trkpt lat="43.72138" lon="4.85963">
        <ele>129.434692</ele>
        <time>2010-12-30T09:56:19Z</time>
      </trkpt>
      <trkpt lat="43.72138" lon="4.85946">
        <ele>130.395996</ele>
        <time>2010-12-30T09:56:30Z</time>
      </trkpt>
      <trkpt lat="43.7214" lon="4.85943">
        <ele>130.395996</ele>
        <time>2010-12-30T09:56:31Z</time>
      </trkpt>
      <trkpt lat="43.7214" lon="4.85935">
        <ele>131.3573</ele>
        <time>2010-12-30T09:56:37Z</time>
      </trkpt>
      <trkpt lat="43.7214" lon="4.85922">
        <ele>132.318604</ele>
        <time>2010-12-30T09:56:43Z</time>
      </trkpt>
      <trkpt lat="43.7214" lon="4.85905">
        <ele>132.799316</ele>
        <time>2010-12-30T09:56:54Z</time>
      </trkpt>
      <trkpt lat="43.72142" lon="4.85883">
        <ele>132.318604</ele>
        <time>2010-12-30T09:57:06Z</time>
      </trkpt>
      <trkpt lat="43.72142" lon="4.85862">
        <ele>132.799316</ele>
        <time>2010-12-30T09:57:17Z</time>
      </trkpt>
      <trkpt lat="43.72142" lon="4.85858">
        <ele>132.799316</ele>
        <time>2010-12-30T09:57:21Z</time>
      </trkpt>
      <trkpt lat="43.72142" lon="4.85838">
        <ele>133.279907</ele>
        <time>2010-12-30T09:57:31Z</time>
      </trkpt>
      <trkpt lat="43.72142" lon="4.85821">
        <ele>133.279907</ele>
        <time>2010-12-30T09:57:41Z</time>
      </trkpt>
      <trkpt lat="43.72145" lon="4.85802">
        <ele>132.318604</ele>
        <time>2010-12-30T09:57:51Z</time>
      </trkpt>
      <trkpt lat="43.72145" lon="4.85782">
        <ele>132.799316</ele>
        <time>2010-12-30T09:58:02Z</time>
      </trkpt>
      <trkpt lat="43.72145" lon="4.85759">
        <ele>133.760498</ele>
        <time>2010-12-30T09:58:14Z</time>
      </trkpt>
      <trkpt lat="43.72145" lon="4.85748">
        <ele>133.279907</ele>
        <time>2010-12-30T09:58:23Z</time>
      </trkpt>
      <trkpt lat="43.72145" lon="4.85748">
        <ele>131.837891</ele>
        <time>2010-12-30T09:58:59Z</time>
      </trkpt>
      <trkpt lat="43.72145" lon="4.85746">
        <ele>131.837891</ele>
        <time>2010-12-30T09:59:03Z</time>
      </trkpt>
      <trkpt lat="43.72147" lon="4.85727">
        <ele>132.799316</ele>
        <time>2010-12-30T09:59:14Z</time>
      </trkpt>
      <trkpt lat="43.72153" lon="4.85709">
        <ele>131.3573</ele>
        <time>2010-12-30T09:59:25Z</time>
      </trkpt>
      <trkpt lat="43.72162" lon="4.85692">
        <ele>130.876709</ele>
        <time>2010-12-30T09:59:37Z</time>
      </trkpt>
      <trkpt lat="43.72168" lon="4.85686">
        <ele>130.876709</ele>
        <time>2010-12-30T09:59:43Z</time>
      </trkpt>
      <trkpt lat="43.72172" lon="4.85679">
        <ele>129.915283</ele>
        <time>2010-12-30T09:59:48Z</time>
      </trkpt>
      <trkpt lat="43.72177" lon="4.85677">
        <ele>128.954102</ele>
        <time>2010-12-30T09:59:51Z</time>
      </trkpt>
      <trkpt lat="43.72183" lon="4.85667">
        <ele>127.992554</ele>
        <time>2010-12-30T09:59:59Z</time>
      </trkpt>
      <trkpt lat="43.7219" lon="4.85645">
        <ele>127.511963</ele>
        <time>2010-12-30T10:00:13Z</time>
      </trkpt>
      <trkpt lat="43.72192" lon="4.85622">
        <ele>127.511963</ele>
        <time>2010-12-30T10:00:28Z</time>
      </trkpt>
      <trkpt lat="43.72194" lon="4.85602">
        <ele>127.992554</ele>
        <time>2010-12-30T10:00:40Z</time>
      </trkpt>
      <trkpt lat="43.72194" lon="4.85598">
        <ele>127.992554</ele>
        <time>2010-12-30T10:00:43Z</time>
      </trkpt>
      <trkpt lat="43.72198" lon="4.85581">
        <ele>127.031372</ele>
        <time>2010-12-30T10:00:54Z</time>
      </trkpt>
      <trkpt lat="43.72205" lon="4.85564">
        <ele>127.031372</ele>
        <time>2010-12-30T10:01:03Z</time>
      </trkpt>
      <trkpt lat="43.72217" lon="4.85546">
        <ele>125.589355</ele>
        <time>2010-12-30T10:01:17Z</time>
      </trkpt>
      <trkpt lat="43.7222" lon="4.85546">
        <ele>125.589355</ele>
        <time>2010-12-30T10:01:18Z</time>
      </trkpt>
      <trkpt lat="43.7222" lon="4.85534">
        <ele>124.628052</ele>
        <time>2010-12-30T10:01:27Z</time>
      </trkpt>
      <trkpt lat="43.7222" lon="4.85531">
        <ele>124.147339</ele>
        <time>2010-12-30T10:01:29Z</time>
      </trkpt>
      <trkpt lat="43.72213" lon="4.85521">
        <ele>121.744141</ele>
        <time>2010-12-30T10:01:37Z</time>
      </trkpt>
      <trkpt lat="43.72202" lon="4.85508">
        <ele>118.860107</ele>
        <time>2010-12-30T10:01:49Z</time>
      </trkpt>
      <trkpt lat="43.72196" lon="4.85501">
        <ele>118.379395</ele>
        <time>2010-12-30T10:01:55Z</time>
      </trkpt>
      <trkpt lat="43.72192" lon="4.85491">
        <ele>116.9375</ele>
        <time>2010-12-30T10:02:02Z</time>
      </trkpt>
      <trkpt lat="43.72187" lon="4.85486">
        <ele>116.456787</ele>
        <time>2010-12-30T10:02:06Z</time>
      </trkpt>
      <trkpt lat="43.72187" lon="4.85473">
        <ele>115.976196</ele>
        <time>2010-12-30T10:02:15Z</time>
      </trkpt>
      <trkpt lat="43.7219" lon="4.85461">
        <ele>116.9375</ele>
        <time>2010-12-30T10:02:23Z</time>
      </trkpt>
      <trkpt lat="43.72192" lon="4.85456">
        <ele>116.9375</ele>
        <time>2010-12-30T10:02:25Z</time>
      </trkpt>
      <trkpt lat="43.72194" lon="4.8545">
        <ele>117.418213</ele>
        <time>2010-12-30T10:02:31Z</time>
      </trkpt>
      <trkpt lat="43.72192" lon="4.85448">
        <ele>116.456787</ele>
        <time>2010-12-30T10:02:33Z</time>
      </trkpt>
      <trkpt lat="43.72185" lon="4.85435">
        <ele>111.650269</ele>
        <time>2010-12-30T10:02:42Z</time>
      </trkpt>
      <trkpt lat="43.72183" lon="4.85433">
        <ele>111.650269</ele>
        <time>2010-12-30T10:02:45Z</time>
      </trkpt>
      <trkpt lat="43.72181" lon="4.85435">
        <ele>111.169556</ele>
        <time>2010-12-30T10:02:47Z</time>
      </trkpt>
      <trkpt lat="43.72183" lon="4.85435">
        <ele>111.650269</ele>
        <time>2010-12-30T10:03:07Z</time>
      </trkpt>
      <trkpt lat="43.72181" lon="4.85443">
        <ele>110.208252</ele>
        <time>2010-12-30T10:03:12Z</time>
      </trkpt>
      <trkpt lat="43.72177" lon="4.85463">
        <ele>105.882446</ele>
        <time>2010-12-30T10:03:26Z</time>
      </trkpt>
      <trkpt lat="43.72172" lon="4.85473">
        <ele>105.401733</ele>
        <time>2010-12-30T10:03:33Z</time>
      </trkpt>
      <trkpt lat="43.7216" lon="4.8548">
        <ele>107.805054</ele>
        <time>2010-12-30T10:03:44Z</time>
      </trkpt>
      <trkpt lat="43.7216" lon="4.8548">
        <ele>108.285645</ele>
        <time>2010-12-30T10:03:45Z</time>
      </trkpt>
      <trkpt lat="43.72157" lon="4.8548">
        <ele>108.285645</ele>
        <time>2010-12-30T10:03:46Z</time>
      </trkpt>
      <trkpt lat="43.72155" lon="4.85473">
        <ele>108.766235</ele>
        <time>2010-12-30T10:03:50Z</time>
      </trkpt>
      <trkpt lat="43.72153" lon="4.85469">
        <ele>108.285645</ele>
        <time>2010-12-30T10:03:54Z</time>
      </trkpt>
      <trkpt lat="43.72151" lon="4.85452">
        <ele>106.363037</ele>
        <time>2010-12-30T10:04:03Z</time>
      </trkpt>
      <trkpt lat="43.72149" lon="4.85439">
        <ele>106.363037</ele>
        <time>2010-12-30T10:04:11Z</time>
      </trkpt>
      <trkpt lat="43.72142" lon="4.85424">
        <ele>105.401733</ele>
        <time>2010-12-30T10:04:21Z</time>
      </trkpt>
      <trkpt lat="43.72142" lon="4.85424">
        <ele>105.401733</ele>
        <time>2010-12-30T10:04:22Z</time>
      </trkpt>
      <trkpt lat="43.72136" lon="4.85411">
        <ele>105.882446</ele>
        <time>2010-12-30T10:04:32Z</time>
      </trkpt>
      <trkpt lat="43.72134" lon="4.854">
        <ele>104.44043</ele>
        <time>2010-12-30T10:04:38Z</time>
      </trkpt>
      <trkpt lat="43.72127" lon="4.85381">
        <ele>104.44043</ele>
        <time>2010-12-30T10:04:49Z</time>
      </trkpt>
      <trkpt lat="43.72125" lon="4.85366">
        <ele>103.479004</ele>
        <time>2010-12-30T10:04:58Z</time>
      </trkpt>
      <trkpt lat="43.72117" lon="4.85349">
        <ele>102.5177</ele>
        <time>2010-12-30T10:05:09Z</time>
      </trkpt>
      <trkpt lat="43.72117" lon="4.85347">
        <ele>102.037109</ele>
        <time>2010-12-30T10:05:11Z</time>
      </trkpt>
      <trkpt lat="43.7211" lon="4.8533">
        <ele>101.556396</ele>
        <time>2010-12-30T10:05:22Z</time>
      </trkpt>
      <trkpt lat="43.72108" lon="4.85319">
        <ele>100.595093</ele>
        <time>2010-12-30T10:05:29Z</time>
      </trkpt>
      <trkpt lat="43.72108" lon="4.85313">
        <ele>100.595093</ele>
        <time>2010-12-30T10:05:33Z</time>
      </trkpt>
      <trkpt lat="43.72104" lon="4.85306">
        <ele>100.595093</ele>
        <time>2010-12-30T10:05:38Z</time>
      </trkpt>
      <trkpt lat="43.72102" lon="4.85295">
        <ele>99.633789</ele>
        <time>2010-12-30T10:05:45Z</time>
      </trkpt>
      <trkpt lat="43.72095" lon="4.85278">
        <ele>98.191895</ele>
        <time>2010-12-30T10:05:55Z</time>
      </trkpt>
      <trkpt lat="43.72089" lon="4.85259">
        <ele>97.711182</ele>
        <time>2010-12-30T10:06:07Z</time>
      </trkpt>
      <trkpt lat="43.72089" lon="4.85257">
        <ele>97.711182</ele>
        <time>2010-12-30T10:06:09Z</time>
      </trkpt>
      <trkpt lat="43.72087" lon="4.8525">
        <ele>97.230469</ele>
        <time>2010-12-30T10:06:14Z</time>
      </trkpt>
      <trkpt lat="43.72082" lon="4.85235">
        <ele>97.711182</ele>
        <time>2010-12-30T10:06:24Z</time>
      </trkpt>
      <trkpt lat="43.72078" lon="4.85214">
        <ele>96.269287</ele>
        <time>2010-12-30T10:06:36Z</time>
      </trkpt>
      <trkpt lat="43.72078" lon="4.85212">
        <ele>95.788452</ele>
        <time>2010-12-30T10:06:38Z</time>
      </trkpt>
      <trkpt lat="43.72069" lon="4.85197">
        <ele>95.788452</ele>
        <time>2010-12-30T10:06:49Z</time>
      </trkpt>
      <trkpt lat="43.72061" lon="4.85182">
        <ele>91.943237</ele>
        <time>2010-12-30T10:07:00Z</time>
      </trkpt>
      <trkpt lat="43.72054" lon="4.85169">
        <ele>89.539917</ele>
        <time>2010-12-30T10:07:09Z</time>
      </trkpt>
      <trkpt lat="43.7205" lon="4.85162">
        <ele>89.059326</ele>
        <time>2010-12-30T10:07:15Z</time>
      </trkpt>
      <trkpt lat="43.72042" lon="4.85154">
        <ele>87.617188</ele>
        <time>2010-12-30T10:07:24Z</time>
      </trkpt>
      <trkpt lat="43.72031" lon="4.85137">
        <ele>87.136597</ele>
        <time>2010-12-30T10:07:37Z</time>
      </trkpt>
      <trkpt lat="43.72026" lon="4.85119">
        <ele>85.69458</ele>
        <time>2010-12-30T10:07:48Z</time>
      </trkpt>
      <trkpt lat="43.72024" lon="4.85098">
        <ele>84.733398</ele>
        <time>2010-12-30T10:08:01Z</time>
      </trkpt>
      <trkpt lat="43.72024" lon="4.85081">
        <ele>82.330078</ele>
        <time>2010-12-30T10:08:12Z</time>
      </trkpt>
      <trkpt lat="43.72026" lon="4.85059">
        <ele>80.888184</ele>
        <time>2010-12-30T10:08:25Z</time>
      </trkpt>
      <trkpt lat="43.72029" lon="4.8504">
        <ele>81.368774</ele>
        <time>2010-12-30T10:08:36Z</time>
      </trkpt>
      <trkpt lat="43.72029" lon="4.85021">
        <ele>81.849365</ele>
        <time>2010-12-30T10:08:47Z</time>
      </trkpt>
      <trkpt lat="43.72029" lon="4.85019">
        <ele>81.849365</ele>
        <time>2010-12-30T10:08:49Z</time>
      </trkpt>
      <trkpt lat="43.72031" lon="4.85016">
        <ele>82.330078</ele>
        <time>2010-12-30T10:08:53Z</time>
      </trkpt>
      <trkpt lat="43.72037" lon="4.85008">
        <ele>83.291382</ele>
        <time>2010-12-30T10:09:05Z</time>
      </trkpt>
      <trkpt lat="43.72042" lon="4.85006">
        <ele>82.810791</ele>
        <time>2010-12-30T10:09:21Z</time>
      </trkpt>
      <trkpt lat="43.72044" lon="4.8501">
        <ele>83.291382</ele>
        <time>2010-12-30T10:09:32Z</time>
      </trkpt>
      <trkpt lat="43.72046" lon="4.85012">
        <ele>81.849365</ele>
        <time>2010-12-30T10:10:11Z</time>
      </trkpt>
      <trkpt lat="43.72046" lon="4.85012">
        <ele>81.368774</ele>
        <time>2010-12-30T10:10:24Z</time>
      </trkpt>
      <trkpt lat="43.72046" lon="4.85012">
        <ele>81.849365</ele>
        <time>2010-12-30T10:10:37Z</time>
      </trkpt>
      <trkpt lat="43.72046" lon="4.85014">
        <ele>81.368774</ele>
        <time>2010-12-30T10:10:47Z</time>
      </trkpt>
      <trkpt lat="43.72044" lon="4.85014">
        <ele>82.330078</ele>
        <time>2010-12-30T10:11:37Z</time>
      </trkpt>
      <trkpt lat="43.72044" lon="4.85012">
        <ele>82.330078</ele>
        <time>2010-12-30T10:11:47Z</time>
      </trkpt>
      <trkpt lat="43.7202" lon="4.84991">
        <ele>63.584351</ele>
        <time>2010-12-30T10:22:03Z</time>
      </trkpt>
      <trkpt lat="43.72048" lon="4.85016">
        <ele>87.136597</ele>
        <time>2010-12-30T10:22:54Z</time>
      </trkpt>
      <trkpt lat="43.72044" lon="4.85014">
        <ele>86.175293</ele>
        <time>2010-12-30T10:23:18Z</time>
      </trkpt>
      <trkpt lat="43.72042" lon="4.85012">
        <ele>84.733398</ele>
        <time>2010-12-30T10:23:44Z</time>
      </trkpt>
      <trkpt lat="43.72046" lon="4.85004">
        <ele>81.368774</ele>
        <time>2010-12-30T10:24:19Z</time>
      </trkpt>
      <trkpt lat="43.72057" lon="4.84999">
        <ele>85.213989</ele>
        <time>2010-12-30T10:24:33Z</time>
      </trkpt>
      <trkpt lat="43.72061" lon="4.84997">
        <ele>87.617188</ele>
        <time>2010-12-30T10:24:41Z</time>
      </trkpt>
      <trkpt lat="43.72072" lon="4.84997">
        <ele>90.501343</ele>
        <time>2010-12-30T10:24:51Z</time>
      </trkpt>
      <trkpt lat="43.72078" lon="4.85004">
        <ele>92.42395</ele>
        <time>2010-12-30T10:25:03Z</time>
      </trkpt>
      <trkpt lat="43.7208" lon="4.85023">
        <ele>90.981934</ele>
        <time>2010-12-30T10:25:16Z</time>
      </trkpt>
      <trkpt lat="43.7208" lon="4.85036">
        <ele>90.501343</ele>
        <time>2010-12-30T10:25:26Z</time>
      </trkpt>
      <trkpt lat="43.72087" lon="4.85051">
        <ele>93.385132</ele>
        <time>2010-12-30T10:25:39Z</time>
      </trkpt>
      <trkpt lat="43.72091" lon="4.85066">
        <ele>93.385132</ele>
        <time>2010-12-30T10:25:52Z</time>
      </trkpt>
      <trkpt lat="43.72095" lon="4.85085">
        <ele>94.827148</ele>
        <time>2010-12-30T10:26:08Z</time>
      </trkpt>
      <trkpt lat="43.72099" lon="4.851">
        <ele>97.230469</ele>
        <time>2010-12-30T10:26:23Z</time>
      </trkpt>
      <trkpt lat="43.72108" lon="4.85115">
        <ele>96.749878</ele>
        <time>2010-12-30T10:26:39Z</time>
      </trkpt>
      <trkpt lat="43.72119" lon="4.85124">
        <ele>99.633789</ele>
        <time>2010-12-30T10:26:53Z</time>
      </trkpt>
      <trkpt lat="43.72127" lon="4.85124">
        <ele>100.595093</ele>
        <time>2010-12-30T10:27:05Z</time>
      </trkpt>
      <trkpt lat="43.72132" lon="4.85122">
        <ele>101.075684</ele>
        <time>2010-12-30T10:27:09Z</time>
      </trkpt>
      <trkpt lat="43.72138" lon="4.85122">
        <ele>102.5177</ele>
        <time>2010-12-30T10:27:18Z</time>
      </trkpt>
      <trkpt lat="43.7214" lon="4.85122">
        <ele>103.479004</ele>
        <time>2010-12-30T10:27:21Z</time>
      </trkpt>
      <trkpt lat="43.72151" lon="4.85132">
        <ele>104.921021</ele>
        <time>2010-12-30T10:27:34Z</time>
      </trkpt>
      <trkpt lat="43.7216" lon="4.85137">
        <ele>107.324341</ele>
        <time>2010-12-30T10:27:46Z</time>
      </trkpt>
      <trkpt lat="43.7217" lon="4.85137">
        <ele>109.246948</ele>
        <time>2010-12-30T10:27:57Z</time>
      </trkpt>
      <trkpt lat="43.72181" lon="4.85141">
        <ele>110.688843</ele>
        <time>2010-12-30T10:28:10Z</time>
      </trkpt>
      <trkpt lat="43.7219" lon="4.85143">
        <ele>113.092285</ele>
        <time>2010-12-30T10:28:21Z</time>
      </trkpt>
      <trkpt lat="43.72192" lon="4.85143">
        <ele>113.572998</ele>
        <time>2010-12-30T10:28:23Z</time>
      </trkpt>
      <trkpt lat="43.72202" lon="4.85143">
        <ele>115.014893</ele>
        <time>2010-12-30T10:28:35Z</time>
      </trkpt>
      <trkpt lat="43.72209" lon="4.85143">
        <ele>115.014893</ele>
        <time>2010-12-30T10:28:40Z</time>
      </trkpt>
      <trkpt lat="43.72211" lon="4.85145">
        <ele>115.495605</ele>
        <time>2010-12-30T10:28:43Z</time>
      </trkpt>
      <trkpt lat="43.72213" lon="4.85145">
        <ele>115.495605</ele>
        <time>2010-12-30T10:28:46Z</time>
      </trkpt>
      <trkpt lat="43.72217" lon="4.85145">
        <ele>115.976196</ele>
        <time>2010-12-30T10:28:50Z</time>
      </trkpt>
      <trkpt lat="43.72222" lon="4.85145">
        <ele>116.456787</ele>
        <time>2010-12-30T10:28:55Z</time>
      </trkpt>
      <trkpt lat="43.72228" lon="4.85147">
        <ele>118.379395</ele>
        <time>2010-12-30T10:29:01Z</time>
      </trkpt>
      <trkpt lat="43.72241" lon="4.85145">
        <ele>121.26355</ele>
        <time>2010-12-30T10:29:14Z</time>
      </trkpt>
      <trkpt lat="43.72254" lon="4.85143">
        <ele>123.666748</ele>
        <time>2010-12-30T10:29:27Z</time>
      </trkpt>
      <trkpt lat="43.72267" lon="4.85141">
        <ele>124.628052</ele>
        <time>2010-12-30T10:29:39Z</time>
      </trkpt>
      <trkpt lat="43.72269" lon="4.85141">
        <ele>124.628052</ele>
        <time>2010-12-30T10:29:42Z</time>
      </trkpt>
      <trkpt lat="43.7228" lon="4.85141">
        <ele>124.628052</ele>
        <time>2010-12-30T10:29:53Z</time>
      </trkpt>
      <trkpt lat="43.72293" lon="4.85141">
        <ele>123.666748</ele>
        <time>2010-12-30T10:30:04Z</time>
      </trkpt>
      <trkpt lat="43.72301" lon="4.85143">
        <ele>123.666748</ele>
        <time>2010-12-30T10:30:10Z</time>
      </trkpt>
      <trkpt lat="43.72303" lon="4.85143">
        <ele>123.666748</ele>
        <time>2010-12-30T10:30:12Z</time>
      </trkpt>
      <trkpt lat="43.72314" lon="4.85143">
        <ele>123.666748</ele>
        <time>2010-12-30T10:30:23Z</time>
      </trkpt>
      <trkpt lat="43.72331" lon="4.85143">
        <ele>121.744141</ele>
        <time>2010-12-30T10:30:37Z</time>
      </trkpt>
      <trkpt lat="43.72333" lon="4.85143">
        <ele>122.224731</ele>
        <time>2010-12-30T10:30:39Z</time>
      </trkpt>
      <trkpt lat="43.72344" lon="4.85143">
        <ele>125.108765</ele>
        <time>2010-12-30T10:30:51Z</time>
      </trkpt>
      <trkpt lat="43.72348" lon="4.85141">
        <ele>120.782837</ele>
        <time>2010-12-30T10:31:10Z</time>
      </trkpt>
      <trkpt lat="43.72353" lon="4.85141">
        <ele>120.302124</ele>
        <time>2010-12-30T10:31:24Z</time>
      </trkpt>
      <trkpt lat="43.72363" lon="4.85141">
        <ele>121.744141</ele>
        <time>2010-12-30T10:31:35Z</time>
      </trkpt>
      <trkpt lat="43.72366" lon="4.85141">
        <ele>121.744141</ele>
        <time>2010-12-30T10:31:36Z</time>
      </trkpt>
      <trkpt lat="43.72376" lon="4.85139">
        <ele>124.147339</ele>
        <time>2010-12-30T10:31:48Z</time>
      </trkpt>
      <trkpt lat="43.72381" lon="4.85139">
        <ele>124.628052</ele>
        <time>2010-12-30T10:31:53Z</time>
      </trkpt>
      <trkpt lat="43.72391" lon="4.85137">
        <ele>128.473389</ele>
        <time>2010-12-30T10:32:04Z</time>
      </trkpt>
      <trkpt lat="43.72393" lon="4.85139">
        <ele>129.434692</ele>
        <time>2010-12-30T10:32:07Z</time>
      </trkpt>
      <trkpt lat="43.72396" lon="4.85139">
        <ele>130.876709</ele>
        <time>2010-12-30T10:32:10Z</time>
      </trkpt>
      <trkpt lat="43.72404" lon="4.85134">
        <ele>133.760498</ele>
        <time>2010-12-30T10:32:19Z</time>
      </trkpt>
      <trkpt lat="43.72413" lon="4.85137">
        <ele>136.16394</ele>
        <time>2010-12-30T10:32:29Z</time>
      </trkpt>
      <trkpt lat="43.72423" lon="4.85139">
        <ele>136.16394</ele>
        <time>2010-12-30T10:32:41Z</time>
      </trkpt>
      <trkpt lat="43.72432" lon="4.85139">
        <ele>136.644653</ele>
        <time>2010-12-30T10:32:53Z</time>
      </trkpt>
      <trkpt lat="43.72434" lon="4.85143">
        <ele>134.241211</ele>
        <time>2010-12-30T10:32:55Z</time>
      </trkpt>
      <trkpt lat="43.72438" lon="4.85152">
        <ele>130.395996</ele>
        <time>2010-12-30T10:33:14Z</time>
      </trkpt>
      <trkpt lat="43.72438" lon="4.85152">
        <ele>124.628052</ele>
        <time>2010-12-30T10:34:05Z</time>
      </trkpt>
      <trkpt lat="43.72436" lon="4.85152">
        <ele>122.705444</ele>
        <time>2010-12-30T10:34:14Z</time>
      </trkpt>
      <trkpt lat="43.72436" lon="4.85152">
        <ele>122.705444</ele>
        <time>2010-12-30T10:34:17Z</time>
      </trkpt>
      <trkpt lat="43.72445" lon="4.85149">
        <ele>122.705444</ele>
        <time>2010-12-30T10:34:26Z</time>
      </trkpt>
      <trkpt lat="43.72458" lon="4.85149">
        <ele>123.186157</ele>
        <time>2010-12-30T10:34:36Z</time>
      </trkpt>
      <trkpt lat="43.72471" lon="4.85149">
        <ele>124.147339</ele>
        <time>2010-12-30T10:34:48Z</time>
      </trkpt>
      <trkpt lat="43.72484" lon="4.85149">
        <ele>126.550659</ele>
        <time>2010-12-30T10:35:01Z</time>
      </trkpt>
      <trkpt lat="43.72494" lon="4.85149">
        <ele>127.992554</ele>
        <time>2010-12-30T10:35:10Z</time>
      </trkpt>
      <trkpt lat="43.72505" lon="4.85147">
        <ele>131.3573</ele>
        <time>2010-12-30T10:35:22Z</time>
      </trkpt>
      <trkpt lat="43.72507" lon="4.85147">
        <ele>131.837891</ele>
        <time>2010-12-30T10:35:25Z</time>
      </trkpt>
      <trkpt lat="43.72509" lon="4.85147">
        <ele>132.318604</ele>
        <time>2010-12-30T10:35:27Z</time>
      </trkpt>
      <trkpt lat="43.72522" lon="4.85147">
        <ele>134.721924</ele>
        <time>2010-12-30T10:35:39Z</time>
      </trkpt>
      <trkpt lat="43.72535" lon="4.85149">
        <ele>136.16394</ele>
        <time>2010-12-30T10:35:52Z</time>
      </trkpt>
      <trkpt lat="43.72546" lon="4.85154">
        <ele>137.605835</ele>
        <time>2010-12-30T10:36:01Z</time>
      </trkpt>
      <trkpt lat="43.7255" lon="4.85156">
        <ele>139.528442</ele>
        <time>2010-12-30T10:36:07Z</time>
      </trkpt>
      <trkpt lat="43.72554" lon="4.85156">
        <ele>140.489868</ele>
        <time>2010-12-30T10:36:11Z</time>
      </trkpt>
      <trkpt lat="43.72561" lon="4.85158">
        <ele>142.893066</ele>
        <time>2010-12-30T10:36:18Z</time>
      </trkpt>
      <trkpt lat="43.72576" lon="4.85158">
        <ele>148.18042</ele>
        <time>2010-12-30T10:36:32Z</time>
      </trkpt>
      <trkpt lat="43.72589" lon="4.8516">
        <ele>149.622314</ele>
        <time>2010-12-30T10:36:45Z</time>
      </trkpt>
      <trkpt lat="43.72593" lon="4.85162">
        <ele>150.103027</ele>
        <time>2010-12-30T10:36:48Z</time>
      </trkpt>
      <trkpt lat="43.72602" lon="4.85164">
        <ele>152.506348</ele>
        <time>2010-12-30T10:36:57Z</time>
      </trkpt>
      <trkpt lat="43.72606" lon="4.85167">
        <ele>153.948364</ele>
        <time>2010-12-30T10:37:02Z</time>
      </trkpt>
      <trkpt lat="43.72617" lon="4.85171">
        <ele>155.390259</ele>
        <time>2010-12-30T10:37:11Z</time>
      </trkpt>
      <trkpt lat="43.72627" lon="4.85173">
        <ele>154.909546</ele>
        <time>2010-12-30T10:37:22Z</time>
      </trkpt>
      <trkpt lat="43.72636" lon="4.85173">
        <ele>154.428955</ele>
        <time>2010-12-30T10:37:30Z</time>
      </trkpt>
      <trkpt lat="43.7264" lon="4.85173">
        <ele>154.428955</ele>
        <time>2010-12-30T10:37:34Z</time>
      </trkpt>
      <trkpt lat="43.72653" lon="4.85171">
        <ele>150.103027</ele>
        <time>2010-12-30T10:37:48Z</time>
      </trkpt>
      <trkpt lat="43.72662" lon="4.85167">
        <ele>149.622314</ele>
        <time>2010-12-30T10:37:57Z</time>
      </trkpt>
      <trkpt lat="43.72672" lon="4.85162">
        <ele>151.064209</ele>
        <time>2010-12-30T10:38:09Z</time>
      </trkpt>
      <trkpt lat="43.72681" lon="4.8516">
        <ele>152.506348</ele>
        <time>2010-12-30T10:38:18Z</time>
      </trkpt>
      <trkpt lat="43.72685" lon="4.8516">
        <ele>152.986938</ele>
        <time>2010-12-30T10:38:22Z</time>
      </trkpt>
      <trkpt lat="43.72687" lon="4.8516">
        <ele>153.467651</ele>
        <time>2010-12-30T10:38:26Z</time>
      </trkpt>
      <trkpt lat="43.72694" lon="4.8516">
        <ele>154.428955</ele>
        <time>2010-12-30T10:38:32Z</time>
      </trkpt>
      <trkpt lat="43.72698" lon="4.85162">
        <ele>155.390259</ele>
        <time>2010-12-30T10:38:38Z</time>
      </trkpt>
      <trkpt lat="43.72711" lon="4.8516">
        <ele>155.390259</ele>
        <time>2010-12-30T10:38:51Z</time>
      </trkpt>
      <trkpt lat="43.72724" lon="4.85164">
        <ele>152.506348</ele>
        <time>2010-12-30T10:39:04Z</time>
      </trkpt>
      <trkpt lat="43.72737" lon="4.85169">
        <ele>152.986938</ele>
        <time>2010-12-30T10:39:17Z</time>
      </trkpt>
      <trkpt lat="43.72747" lon="4.85173">
        <ele>153.948364</ele>
        <time>2010-12-30T10:39:30Z</time>
      </trkpt>
      <trkpt lat="43.7276" lon="4.85175">
        <ele>156.351563</ele>
        <time>2010-12-30T10:39:44Z</time>
      </trkpt>
      <trkpt lat="43.72773" lon="4.85175">
        <ele>155.870972</ele>
        <time>2010-12-30T10:39:57Z</time>
      </trkpt>
      <trkpt lat="43.72784" lon="4.85177">
        <ele>157.312866</ele>
        <time>2010-12-30T10:40:11Z</time>
      </trkpt>
      <trkpt lat="43.72793" lon="4.85179">
        <ele>158.754761</ele>
        <time>2010-12-30T10:40:22Z</time>
      </trkpt>
      <trkpt lat="43.72801" lon="4.85186">
        <ele>162.119507</ele>
        <time>2010-12-30T10:40:35Z</time>
      </trkpt>
      <trkpt lat="43.72803" lon="4.85194">
        <ele>162.600098</ele>
        <time>2010-12-30T10:40:42Z</time>
      </trkpt>
      <trkpt lat="43.72801" lon="4.85201">
        <ele>162.119507</ele>
        <time>2010-12-30T10:40:48Z</time>
      </trkpt>
      <trkpt lat="43.72795" lon="4.85214">
        <ele>159.716187</ele>
        <time>2010-12-30T10:41:00Z</time>
      </trkpt>
      <trkpt lat="43.72784" lon="4.85222">
        <ele>158.754761</ele>
        <time>2010-12-30T10:41:13Z</time>
      </trkpt>
      <trkpt lat="43.7278" lon="4.85227">
        <ele>158.27417</ele>
        <time>2010-12-30T10:41:18Z</time>
      </trkpt>
      <trkpt lat="43.72769" lon="4.85237">
        <ele>157.793579</ele>
        <time>2010-12-30T10:41:32Z</time>
      </trkpt>
      <trkpt lat="43.72765" lon="4.85244">
        <ele>157.793579</ele>
        <time>2010-12-30T10:41:38Z</time>
      </trkpt>
      <trkpt lat="43.72754" lon="4.85255">
        <ele>158.27417</ele>
        <time>2010-12-30T10:41:52Z</time>
      </trkpt>
      <trkpt lat="43.72743" lon="4.85263">
        <ele>159.235474</ele>
        <time>2010-12-30T10:42:05Z</time>
      </trkpt>
      <trkpt lat="43.7273" lon="4.8527">
        <ele>159.235474</ele>
        <time>2010-12-30T10:42:18Z</time>
      </trkpt>
      <trkpt lat="43.7273" lon="4.85272">
        <ele>159.716187</ele>
        <time>2010-12-30T10:42:19Z</time>
      </trkpt>
      <trkpt lat="43.72722" lon="4.85287">
        <ele>160.196899</ele>
        <time>2010-12-30T10:42:33Z</time>
      </trkpt>
      <trkpt lat="43.72722" lon="4.85295">
        <ele>160.67749</ele>
        <time>2010-12-30T10:42:41Z</time>
      </trkpt>
      <trkpt lat="43.72735" lon="4.85302">
        <ele>161.638916</ele>
        <time>2010-12-30T10:42:55Z</time>
      </trkpt>
      <trkpt lat="43.72737" lon="4.85302">
        <ele>162.119507</ele>
        <time>2010-12-30T10:42:58Z</time>
      </trkpt>
      <trkpt lat="43.72743" lon="4.85295">
        <ele>165.484131</ele>
        <time>2010-12-30T10:43:09Z</time>
      </trkpt>
      <trkpt lat="43.72745" lon="4.85291">
        <ele>167.887329</ele>
        <time>2010-12-30T10:43:21Z</time>
      </trkpt>
      <trkpt lat="43.72747" lon="4.85293">
        <ele>169.329468</ele>
        <time>2010-12-30T10:43:28Z</time>
      </trkpt>
      <trkpt lat="43.7275" lon="4.85297">
        <ele>169.329468</ele>
        <time>2010-12-30T10:43:32Z</time>
      </trkpt>
      <trkpt lat="43.72754" lon="4.85297">
        <ele>168.368042</ele>
        <time>2010-12-30T10:43:35Z</time>
      </trkpt>
      <trkpt lat="43.72769" lon="4.85295">
        <ele>169.329468</ele>
        <time>2010-12-30T10:43:50Z</time>
      </trkpt>
      <trkpt lat="43.72782" lon="4.85295">
        <ele>170.290649</ele>
        <time>2010-12-30T10:44:03Z</time>
      </trkpt>
      <trkpt lat="43.72786" lon="4.85295">
        <ele>170.771362</ele>
        <time>2010-12-30T10:44:07Z</time>
      </trkpt>
      <trkpt lat="43.72801" lon="4.85293">
        <ele>170.771362</ele>
        <time>2010-12-30T10:44:21Z</time>
      </trkpt>
      <trkpt lat="43.7281" lon="4.85293">
        <ele>171.732666</ele>
        <time>2010-12-30T10:44:29Z</time>
      </trkpt>
      <trkpt lat="43.72823" lon="4.85291">
        <ele>173.174683</ele>
        <time>2010-12-30T10:44:43Z</time>
      </trkpt>
      <trkpt lat="43.72835" lon="4.85295">
        <ele>174.135864</ele>
        <time>2010-12-30T10:44:56Z</time>
      </trkpt>
      <trkpt lat="43.72846" lon="4.85297">
        <ele>175.09729</ele>
        <time>2010-12-30T10:45:08Z</time>
      </trkpt>
      <trkpt lat="43.72861" lon="4.85297">
        <ele>176.058594</ele>
        <time>2010-12-30T10:45:22Z</time>
      </trkpt>
      <trkpt lat="43.72872" lon="4.85302">
        <ele>176.539307</ele>
        <time>2010-12-30T10:45:34Z</time>
      </trkpt>
      <trkpt lat="43.72878" lon="4.85304">
        <ele>176.539307</ele>
        <time>2010-12-30T10:45:40Z</time>
      </trkpt>
      <trkpt lat="43.72891" lon="4.85306">
        <ele>177.981201</ele>
        <time>2010-12-30T10:45:53Z</time>
      </trkpt>
      <trkpt lat="43.72906" lon="4.8531">
        <ele>178.461914</ele>
        <time>2010-12-30T10:46:07Z</time>
      </trkpt>
      <trkpt lat="43.72919" lon="4.85315">
        <ele>177.981201</ele>
        <time>2010-12-30T10:46:20Z</time>
      </trkpt>
      <trkpt lat="43.72926" lon="4.85317">
        <ele>178.461914</ele>
        <time>2010-12-30T10:46:26Z</time>
      </trkpt>
      <trkpt lat="43.72926" lon="4.85319">
        <ele>178.461914</ele>
        <time>2010-12-30T10:46:28Z</time>
      </trkpt>
      <trkpt lat="43.72941" lon="4.85323">
        <ele>179.423218</ele>
        <time>2010-12-30T10:46:41Z</time>
      </trkpt>
      <trkpt lat="43.72949" lon="4.85328">
        <ele>180.865234</ele>
        <time>2010-12-30T10:46:53Z</time>
      </trkpt>
      <trkpt lat="43.72953" lon="4.8533">
        <ele>181.826416</ele>
        <time>2010-12-30T10:46:58Z</time>
      </trkpt>
      <trkpt lat="43.72966" lon="4.85334">
        <ele>182.307129</ele>
        <time>2010-12-30T10:47:11Z</time>
      </trkpt>
      <trkpt lat="43.72979" lon="4.85338">
        <ele>184.229858</ele>
        <time>2010-12-30T10:47:25Z</time>
      </trkpt>
      <trkpt lat="43.7299" lon="4.85343">
        <ele>186.152466</ele>
        <time>2010-12-30T10:47:37Z</time>
      </trkpt>
      <trkpt lat="43.73001" lon="4.85347">
        <ele>188.075073</ele>
        <time>2010-12-30T10:47:50Z</time>
      </trkpt>
      <trkpt lat="43.73011" lon="4.85351">
        <ele>189.997681</ele>
        <time>2010-12-30T10:48:03Z</time>
      </trkpt>
      <trkpt lat="43.73022" lon="4.85355">
        <ele>192.401123</ele>
        <time>2010-12-30T10:48:17Z</time>
      </trkpt>
      <trkpt lat="43.73033" lon="4.8536">
        <ele>193.362305</ele>
        <time>2010-12-30T10:48:31Z</time>
      </trkpt>
      <trkpt lat="43.73048" lon="4.85366">
        <ele>194.804321</ele>
        <time>2010-12-30T10:48:45Z</time>
      </trkpt>
      <trkpt lat="43.73052" lon="4.85368">
        <ele>195.765625</ele>
        <time>2010-12-30T10:48:51Z</time>
      </trkpt>
      <trkpt lat="43.73061" lon="4.85375">
        <ele>199.61084</ele>
        <time>2010-12-30T10:49:04Z</time>
      </trkpt>
      <trkpt lat="43.73067" lon="4.85388">
        <ele>201.052856</ele>
        <time>2010-12-30T10:49:16Z</time>
      </trkpt>
      <trkpt lat="43.73071" lon="4.85392">
        <ele>201.052856</ele>
        <time>2010-12-30T10:49:23Z</time>
      </trkpt>
      <trkpt lat="43.73074" lon="4.85394">
        <ele>201.052856</ele>
        <time>2010-12-30T10:49:25Z</time>
      </trkpt>
      <trkpt lat="43.73076" lon="4.85396">
        <ele>201.052856</ele>
        <time>2010-12-30T10:49:27Z</time>
      </trkpt>
      <trkpt lat="43.73087" lon="4.854">
        <ele>200.572266</ele>
        <time>2010-12-30T10:49:38Z</time>
      </trkpt>
      <trkpt lat="43.73099" lon="4.85403">
        <ele>201.052856</ele>
        <time>2010-12-30T10:49:51Z</time>
      </trkpt>
      <trkpt lat="43.73108" lon="4.85403">
        <ele>201.533569</ele>
        <time>2010-12-30T10:50:01Z</time>
      </trkpt>
      <trkpt lat="43.7311" lon="4.85403">
        <ele>201.533569</ele>
        <time>2010-12-30T10:50:03Z</time>
      </trkpt>
      <trkpt lat="43.73121" lon="4.85407">
        <ele>201.533569</ele>
        <time>2010-12-30T10:50:16Z</time>
      </trkpt>
      <trkpt lat="43.73123" lon="4.85409">
        <ele>201.533569</ele>
        <time>2010-12-30T10:50:19Z</time>
      </trkpt>
      <trkpt lat="43.73129" lon="4.85418">
        <ele>203.456177</ele>
        <time>2010-12-30T10:50:31Z</time>
      </trkpt>
      <trkpt lat="43.7314" lon="4.85424">
        <ele>208.262817</ele>
        <time>2010-12-30T10:50:46Z</time>
      </trkpt>
      <trkpt lat="43.73153" lon="4.85424">
        <ele>210.185425</ele>
        <time>2010-12-30T10:51:00Z</time>
      </trkpt>
      <trkpt lat="43.73164" lon="4.85422">
        <ele>210.666016</ele>
        <time>2010-12-30T10:51:15Z</time>
      </trkpt>
      <trkpt lat="43.7317" lon="4.8542">
        <ele>212.588623</ele>
        <time>2010-12-30T10:51:28Z</time>
      </trkpt>
      <trkpt lat="43.73179" lon="4.85418">
        <ele>212.588623</ele>
        <time>2010-12-30T10:51:58Z</time>
      </trkpt>
      <trkpt lat="43.73185" lon="4.85416">
        <ele>212.588623</ele>
        <time>2010-12-30T10:52:04Z</time>
      </trkpt>
      <trkpt lat="43.73196" lon="4.85411">
        <ele>213.550049</ele>
        <time>2010-12-30T10:52:15Z</time>
      </trkpt>
      <trkpt lat="43.73215" lon="4.854">
        <ele>213.069336</ele>
        <time>2010-12-30T10:52:30Z</time>
      </trkpt>
      <trkpt lat="43.73222" lon="4.85398">
        <ele>213.550049</ele>
        <time>2010-12-30T10:52:37Z</time>
      </trkpt>
      <trkpt lat="43.73232" lon="4.85394">
        <ele>213.550049</ele>
        <time>2010-12-30T10:52:49Z</time>
      </trkpt>
      <trkpt lat="43.73237" lon="4.85394">
        <ele>213.550049</ele>
        <time>2010-12-30T10:52:55Z</time>
      </trkpt>
      <trkpt lat="43.73243" lon="4.85394">
        <ele>213.550049</ele>
        <time>2010-12-30T10:53:01Z</time>
      </trkpt>
      <trkpt lat="43.73256" lon="4.85388">
        <ele>214.03064</ele>
        <time>2010-12-30T10:53:14Z</time>
      </trkpt>
      <trkpt lat="43.7326" lon="4.85388">
        <ele>214.51123</ele>
        <time>2010-12-30T10:53:17Z</time>
      </trkpt>
      <trkpt lat="43.73269" lon="4.8539">
        <ele>217.395386</ele>
        <time>2010-12-30T10:53:29Z</time>
      </trkpt>
      <trkpt lat="43.73273" lon="4.85403">
        <ele>217.395386</ele>
        <time>2010-12-30T10:53:40Z</time>
      </trkpt>
      <trkpt lat="43.73275" lon="4.85418">
        <ele>220.759888</ele>
        <time>2010-12-30T10:53:52Z</time>
      </trkpt>
      <trkpt lat="43.73282" lon="4.85428">
        <ele>223.643799</ele>
        <time>2010-12-30T10:54:05Z</time>
      </trkpt>
      <trkpt lat="43.7329" lon="4.85428">
        <ele>224.605225</ele>
        <time>2010-12-30T10:54:13Z</time>
      </trkpt>
      <trkpt lat="43.73305" lon="4.85431">
        <ele>225.085938</ele>
        <time>2010-12-30T10:54:28Z</time>
      </trkpt>
      <trkpt lat="43.73314" lon="4.85437">
        <ele>226.047119</ele>
        <time>2010-12-30T10:54:40Z</time>
      </trkpt>
      <trkpt lat="43.73325" lon="4.85443">
        <ele>227.489136</ele>
        <time>2010-12-30T10:54:53Z</time>
      </trkpt>
      <trkpt lat="43.73335" lon="4.85448">
        <ele>228.450439</ele>
        <time>2010-12-30T10:55:05Z</time>
      </trkpt>
      <trkpt lat="43.73346" lon="4.85456">
        <ele>228.931152</ele>
        <time>2010-12-30T10:55:18Z</time>
      </trkpt>
      <trkpt lat="43.73355" lon="4.85465">
        <ele>230.373047</ele>
        <time>2010-12-30T10:55:31Z</time>
      </trkpt>
      <trkpt lat="43.73363" lon="4.85469">
        <ele>231.814941</ele>
        <time>2010-12-30T10:55:42Z</time>
      </trkpt>
      <trkpt lat="43.73378" lon="4.85467">
        <ele>232.776489</ele>
        <time>2010-12-30T10:55:55Z</time>
      </trkpt>
      <trkpt lat="43.73387" lon="4.85467">
        <ele>233.25708</ele>
        <time>2010-12-30T10:56:07Z</time>
      </trkpt>
      <trkpt lat="43.73445" lon="4.85418">
        <ele>255.36731</ele>
        <time>2010-12-30T11:00:12Z</time>
      </trkpt>
      <trkpt lat="43.73453" lon="4.85435">
        <ele>235.179688</ele>
        <time>2010-12-30T11:00:28Z</time>
      </trkpt>
      <trkpt lat="43.73453" lon="4.85435">
        <ele>235.660278</ele>
        <time>2010-12-30T11:00:36Z</time>
      </trkpt>
      <trkpt lat="43.73458" lon="4.85424">
        <ele>237.102295</ele>
        <time>2010-12-30T11:00:42Z</time>
      </trkpt>
      <trkpt lat="43.7346" lon="4.8542">
        <ele>238.063599</ele>
        <time>2010-12-30T11:00:47Z</time>
      </trkpt>
      <trkpt lat="43.73466" lon="4.85411">
        <ele>239.505493</ele>
        <time>2010-12-30T11:00:55Z</time>
      </trkpt>
      <trkpt lat="43.73483" lon="4.85407">
        <ele>239.986206</ele>
        <time>2010-12-30T11:01:10Z</time>
      </trkpt>
      <trkpt lat="43.73496" lon="4.85416">
        <ele>242.389648</ele>
        <time>2010-12-30T11:01:23Z</time>
      </trkpt>
      <trkpt lat="43.73505" lon="4.85418">
        <ele>244.312256</ele>
        <time>2010-12-30T11:01:34Z</time>
      </trkpt>
      <trkpt lat="43.73514" lon="4.85418">
        <ele>245.273438</ele>
        <time>2010-12-30T11:01:42Z</time>
      </trkpt>
      <trkpt lat="43.73526" lon="4.85405">
        <ele>247.676758</ele>
        <time>2010-12-30T11:01:56Z</time>
      </trkpt>
      <trkpt lat="43.73533" lon="4.85394">
        <ele>249.599487</ele>
        <time>2010-12-30T11:02:05Z</time>
      </trkpt>
      <trkpt lat="43.73544" lon="4.85377">
        <ele>250.0802</ele>
        <time>2010-12-30T11:02:18Z</time>
      </trkpt>
      <trkpt lat="43.73548" lon="4.85366">
        <ele>251.522095</ele>
        <time>2010-12-30T11:02:25Z</time>
      </trkpt>
      <trkpt lat="43.7355" lon="4.85364">
        <ele>251.522095</ele>
        <time>2010-12-30T11:02:28Z</time>
      </trkpt>
      <trkpt lat="43.73554" lon="4.85355">
        <ele>251.522095</ele>
        <time>2010-12-30T11:02:35Z</time>
      </trkpt>
      <trkpt lat="43.73556" lon="4.85355">
        <ele>251.522095</ele>
        <time>2010-12-30T11:02:37Z</time>
      </trkpt>
      <trkpt lat="43.73569" lon="4.85353">
        <ele>251.522095</ele>
        <time>2010-12-30T11:02:49Z</time>
      </trkpt>
      <trkpt lat="43.73586" lon="4.85353">
        <ele>252.002808</ele>
        <time>2010-12-30T11:03:03Z</time>
      </trkpt>
      <trkpt lat="43.73601" lon="4.85349">
        <ele>253.925415</ele>
        <time>2010-12-30T11:03:15Z</time>
      </trkpt>
      <trkpt lat="43.73612" lon="4.85347">
        <ele>253.925415</ele>
        <time>2010-12-30T11:03:27Z</time>
      </trkpt>
      <trkpt lat="43.73623" lon="4.8533">
        <ele>256.328735</ele>
        <time>2010-12-30T11:03:41Z</time>
      </trkpt>
      <trkpt lat="43.73629" lon="4.85313">
        <ele>255.36731</ele>
        <time>2010-12-30T11:03:54Z</time>
      </trkpt>
      <trkpt lat="43.73632" lon="4.85295">
        <ele>254.886597</ele>
        <time>2010-12-30T11:04:06Z</time>
      </trkpt>
      <trkpt lat="43.73629" lon="4.85293">
        <ele>253.444702</ele>
        <time>2010-12-30T11:04:33Z</time>
      </trkpt>
      <trkpt lat="43.73629" lon="4.85293">
        <ele>253.444702</ele>
        <time>2010-12-30T11:04:42Z</time>
      </trkpt>
      <trkpt lat="43.73632" lon="4.85293">
        <ele>253.925415</ele>
        <time>2010-12-30T11:04:44Z</time>
      </trkpt>
      <trkpt lat="43.73636" lon="4.85291">
        <ele>253.925415</ele>
        <time>2010-12-30T11:04:48Z</time>
      </trkpt>
      <trkpt lat="43.73651" lon="4.85297">
        <ele>255.848022</ele>
        <time>2010-12-30T11:05:03Z</time>
      </trkpt>
      <trkpt lat="43.73657" lon="4.85302">
        <ele>255.848022</ele>
        <time>2010-12-30T11:05:09Z</time>
      </trkpt>
      <trkpt lat="43.73659" lon="4.85304">
        <ele>255.848022</ele>
        <time>2010-12-30T11:05:11Z</time>
      </trkpt>
      <trkpt lat="43.73664" lon="4.85306">
        <ele>256.328735</ele>
        <time>2010-12-30T11:05:14Z</time>
      </trkpt>
      <trkpt lat="43.7367" lon="4.85308">
        <ele>256.328735</ele>
        <time>2010-12-30T11:05:21Z</time>
      </trkpt>
      <trkpt lat="43.73685" lon="4.85308">
        <ele>254.406006</ele>
        <time>2010-12-30T11:05:35Z</time>
      </trkpt>
      <trkpt lat="43.737" lon="4.85302">
        <ele>254.406006</ele>
        <time>2010-12-30T11:05:48Z</time>
      </trkpt>
      <trkpt lat="43.73709" lon="4.85293">
        <ele>256.328735</ele>
        <time>2010-12-30T11:05:57Z</time>
      </trkpt>
      <trkpt lat="43.73711" lon="4.85291">
        <ele>256.809326</ele>
        <time>2010-12-30T11:06:00Z</time>
      </trkpt>
      <trkpt lat="43.73717" lon="4.85285">
        <ele>257.290039</ele>
        <time>2010-12-30T11:06:11Z</time>
      </trkpt>
      <trkpt lat="43.7372" lon="4.85282">
        <ele>257.770752</ele>
        <time>2010-12-30T11:06:13Z</time>
      </trkpt>
      <trkpt lat="43.73722" lon="4.8528">
        <ele>257.770752</ele>
        <time>2010-12-30T11:06:15Z</time>
      </trkpt>
      <trkpt lat="43.7373" lon="4.85272">
        <ele>258.731934</ele>
        <time>2010-12-30T11:06:26Z</time>
      </trkpt>
      <trkpt lat="43.73735" lon="4.8527">
        <ele>259.212646</ele>
        <time>2010-12-30T11:06:28Z</time>
      </trkpt>
      <trkpt lat="43.73735" lon="4.85267">
        <ele>260.17395</ele>
        <time>2010-12-30T11:06:30Z</time>
      </trkpt>
      <trkpt lat="43.73737" lon="4.85267">
        <ele>260.654541</ele>
        <time>2010-12-30T11:06:32Z</time>
      </trkpt>
      <trkpt lat="43.73739" lon="4.85265">
        <ele>261.135254</ele>
        <time>2010-12-30T11:06:34Z</time>
      </trkpt>
      <trkpt lat="43.73741" lon="4.85263">
        <ele>261.615967</ele>
        <time>2010-12-30T11:06:36Z</time>
      </trkpt>
      <trkpt lat="43.73752" lon="4.85255">
        <ele>264.019287</ele>
        <time>2010-12-30T11:06:50Z</time>
      </trkpt>
      <trkpt lat="43.73756" lon="4.85252">
        <ele>265.461304</ele>
        <time>2010-12-30T11:06:56Z</time>
      </trkpt>
      <trkpt lat="43.73758" lon="4.85252">
        <ele>266.422485</ele>
        <time>2010-12-30T11:06:58Z</time>
      </trkpt>
      <trkpt lat="43.73765" lon="4.85248">
        <ele>266.903198</ele>
        <time>2010-12-30T11:07:06Z</time>
      </trkpt>
      <trkpt lat="43.73777" lon="4.85242">
        <ele>268.825806</ele>
        <time>2010-12-30T11:07:19Z</time>
      </trkpt>
      <trkpt lat="43.73792" lon="4.85233">
        <ele>268.345093</ele>
        <time>2010-12-30T11:07:35Z</time>
      </trkpt>
      <trkpt lat="43.73795" lon="4.85231">
        <ele>269.306519</ele>
        <time>2010-12-30T11:07:41Z</time>
      </trkpt>
      <trkpt lat="43.73805" lon="4.85231">
        <ele>269.306519</ele>
        <time>2010-12-30T11:07:51Z</time>
      </trkpt>
      <trkpt lat="43.73818" lon="4.85233">
        <ele>269.787109</ele>
        <time>2010-12-30T11:08:04Z</time>
      </trkpt>
      <trkpt lat="43.73831" lon="4.85237">
        <ele>268.345093</ele>
        <time>2010-12-30T11:08:17Z</time>
      </trkpt>
      <trkpt lat="43.73842" lon="4.85244">
        <ele>266.422485</ele>
        <time>2010-12-30T11:08:30Z</time>
      </trkpt>
      <trkpt lat="43.73857" lon="4.85248">
        <ele>265.941895</ele>
        <time>2010-12-30T11:08:42Z</time>
      </trkpt>
      <trkpt lat="43.73868" lon="4.85252">
        <ele>266.422485</ele>
        <time>2010-12-30T11:08:54Z</time>
      </trkpt>
      <trkpt lat="43.73878" lon="4.85261">
        <ele>266.422485</ele>
        <time>2010-12-30T11:09:07Z</time>
      </trkpt>
      <trkpt lat="43.73891" lon="4.85267">
        <ele>267.864502</ele>
        <time>2010-12-30T11:09:20Z</time>
      </trkpt>
      <trkpt lat="43.73904" lon="4.85267">
        <ele>269.787109</ele>
        <time>2010-12-30T11:09:36Z</time>
      </trkpt>
      <trkpt lat="43.73917" lon="4.8527">
        <ele>268.345093</ele>
        <time>2010-12-30T11:09:50Z</time>
      </trkpt>
      <trkpt lat="43.7393" lon="4.85272">
        <ele>270.2677</ele>
        <time>2010-12-30T11:10:03Z</time>
      </trkpt>
      <trkpt lat="43.73941" lon="4.85276">
        <ele>272.19043</ele>
        <time>2010-12-30T11:10:15Z</time>
      </trkpt>
      <trkpt lat="43.73945" lon="4.85278">
        <ele>271.229126</ele>
        <time>2010-12-30T11:10:19Z</time>
      </trkpt>
      <trkpt lat="43.73958" lon="4.85282">
        <ele>268.825806</ele>
        <time>2010-12-30T11:10:30Z</time>
      </trkpt>
      <trkpt lat="43.73962" lon="4.85285">
        <ele>268.345093</ele>
        <time>2010-12-30T11:10:46Z</time>
      </trkpt>
      <trkpt lat="43.73973" lon="4.85282">
        <ele>269.787109</ele>
        <time>2010-12-30T11:10:55Z</time>
      </trkpt>
      <trkpt lat="43.73986" lon="4.8528">
        <ele>272.19043</ele>
        <time>2010-12-30T11:11:08Z</time>
      </trkpt>
      <trkpt lat="43.73998" lon="4.85278">
        <ele>274.59375</ele>
        <time>2010-12-30T11:11:21Z</time>
      </trkpt>
      <trkpt lat="43.74011" lon="4.85278">
        <ele>275.555054</ele>
        <time>2010-12-30T11:11:33Z</time>
      </trkpt>
      <trkpt lat="43.74024" lon="4.85276">
        <ele>276.516357</ele>
        <time>2010-12-30T11:11:48Z</time>
      </trkpt>
      <trkpt lat="43.74039" lon="4.85276">
        <ele>277.477661</ele>
        <time>2010-12-30T11:12:03Z</time>
      </trkpt>
      <trkpt lat="43.74046" lon="4.85274">
        <ele>277.958252</ele>
        <time>2010-12-30T11:12:11Z</time>
      </trkpt>
      <trkpt lat="43.7405" lon="4.85274">
        <ele>277.958252</ele>
        <time>2010-12-30T11:12:16Z</time>
      </trkpt>
      <trkpt lat="43.74061" lon="4.85272">
        <ele>277.958252</ele>
        <time>2010-12-30T11:12:26Z</time>
      </trkpt>
      <trkpt lat="43.74069" lon="4.8527">
        <ele>276.99707</ele>
        <time>2010-12-30T11:12:35Z</time>
      </trkpt>
      <trkpt lat="43.74071" lon="4.8527">
        <ele>276.99707</ele>
        <time>2010-12-30T11:12:37Z</time>
      </trkpt>
      <trkpt lat="43.74074" lon="4.8527">
        <ele>276.99707</ele>
        <time>2010-12-30T11:12:39Z</time>
      </trkpt>
      <trkpt lat="43.74089" lon="4.85265">
        <ele>278.438965</ele>
        <time>2010-12-30T11:12:54Z</time>
      </trkpt>
      <trkpt lat="43.74091" lon="4.85265">
        <ele>278.438965</ele>
        <time>2010-12-30T11:12:56Z</time>
      </trkpt>
      <trkpt lat="43.74106" lon="4.85259">
        <ele>278.919678</ele>
        <time>2010-12-30T11:13:11Z</time>
      </trkpt>
      <trkpt lat="43.74116" lon="4.85257">
        <ele>280.361694</ele>
        <time>2010-12-30T11:13:24Z</time>
      </trkpt>
      <trkpt lat="43.74125" lon="4.85257">
        <ele>279.880859</ele>
        <time>2010-12-30T11:13:32Z</time>
      </trkpt>
      <trkpt lat="43.74138" lon="4.85255">
        <ele>279.880859</ele>
        <time>2010-12-30T11:13:43Z</time>
      </trkpt>
      <trkpt lat="43.74147" lon="4.85257">
        <ele>282.284302</ele>
        <time>2010-12-30T11:13:57Z</time>
      </trkpt>
      <trkpt lat="43.74157" lon="4.85265">
        <ele>285.168213</ele>
        <time>2010-12-30T11:14:12Z</time>
      </trkpt>
      <trkpt lat="43.74157" lon="4.85265">
        <ele>285.648804</ele>
        <time>2010-12-30T11:14:13Z</time>
      </trkpt>
      <trkpt lat="43.74166" lon="4.85274">
        <ele>287.09082</ele>
        <time>2010-12-30T11:14:25Z</time>
      </trkpt>
      <trkpt lat="43.74174" lon="4.85282">
        <ele>288.532959</ele>
        <time>2010-12-30T11:14:37Z</time>
      </trkpt>
      <trkpt lat="43.74183" lon="4.85297">
        <ele>288.052246</ele>
        <time>2010-12-30T11:14:50Z</time>
      </trkpt>
      <trkpt lat="43.74192" lon="4.85313">
        <ele>288.532959</ele>
        <time>2010-12-30T11:15:03Z</time>
      </trkpt>
      <trkpt lat="43.74194" lon="4.85315">
        <ele>288.532959</ele>
        <time>2010-12-30T11:15:06Z</time>
      </trkpt>
      <trkpt lat="43.742" lon="4.8533">
        <ele>289.01355</ele>
        <time>2010-12-30T11:15:20Z</time>
      </trkpt>
      <trkpt lat="43.74202" lon="4.85332">
        <ele>289.494141</ele>
        <time>2010-12-30T11:15:24Z</time>
      </trkpt>
      <trkpt lat="43.74207" lon="4.85343">
        <ele>290.455566</ele>
        <time>2010-12-30T11:15:34Z</time>
      </trkpt>
      <trkpt lat="43.74215" lon="4.85353">
        <ele>293.339355</ele>
        <time>2010-12-30T11:15:46Z</time>
      </trkpt>
      <trkpt lat="43.74222" lon="4.8536">
        <ele>295.261963</ele>
        <time>2010-12-30T11:15:59Z</time>
      </trkpt>
      <trkpt lat="43.74224" lon="4.8536">
        <ele>295.742676</ele>
        <time>2010-12-30T11:16:02Z</time>
      </trkpt>
      <trkpt lat="43.74228" lon="4.8536">
        <ele>296.704102</ele>
        <time>2010-12-30T11:16:07Z</time>
      </trkpt>
      <trkpt lat="43.74241" lon="4.85355">
        <ele>299.588013</ele>
        <time>2010-12-30T11:16:20Z</time>
      </trkpt>
      <trkpt lat="43.74243" lon="4.85353">
        <ele>300.068726</ele>
        <time>2010-12-30T11:16:23Z</time>
      </trkpt>
      <trkpt lat="43.74247" lon="4.85355">
        <ele>300.068726</ele>
        <time>2010-12-30T11:16:27Z</time>
      </trkpt>
      <trkpt lat="43.74258" lon="4.85362">
        <ele>301.029907</ele>
        <time>2010-12-30T11:16:40Z</time>
      </trkpt>
      <trkpt lat="43.74265" lon="4.85368">
        <ele>301.029907</ele>
        <time>2010-12-30T11:16:49Z</time>
      </trkpt>
      <trkpt lat="43.74273" lon="4.85377">
        <ele>302.952515</ele>
        <time>2010-12-30T11:17:00Z</time>
      </trkpt>
      <trkpt lat="43.74275" lon="4.85379">
        <ele>303.433228</ele>
        <time>2010-12-30T11:17:02Z</time>
      </trkpt>
      <trkpt lat="43.74277" lon="4.85381">
        <ele>303.91394</ele>
        <time>2010-12-30T11:17:04Z</time>
      </trkpt>
      <trkpt lat="43.74286" lon="4.85385">
        <ele>306.317261</ele>
        <time>2010-12-30T11:17:15Z</time>
      </trkpt>
      <trkpt lat="43.74295" lon="4.85388">
        <ele>305.83667</ele>
        <time>2010-12-30T11:17:24Z</time>
      </trkpt>
      <trkpt lat="43.74297" lon="4.85388">
        <ele>305.83667</ele>
        <time>2010-12-30T11:17:26Z</time>
      </trkpt>
      <trkpt lat="43.74303" lon="4.85385">
        <ele>305.83667</ele>
        <time>2010-12-30T11:17:33Z</time>
      </trkpt>
      <trkpt lat="43.74312" lon="4.85379">
        <ele>306.317261</ele>
        <time>2010-12-30T11:17:45Z</time>
      </trkpt>
      <trkpt lat="43.74318" lon="4.85375">
        <ele>307.759277</ele>
        <time>2010-12-30T11:17:53Z</time>
      </trkpt>
      <trkpt lat="43.7432" lon="4.85373">
        <ele>308.239868</ele>
        <time>2010-12-30T11:17:56Z</time>
      </trkpt>
      <trkpt lat="43.74325" lon="4.85368">
        <ele>308.239868</ele>
        <time>2010-12-30T11:18:01Z</time>
      </trkpt>
      <trkpt lat="43.74335" lon="4.85366">
        <ele>309.201172</ele>
        <time>2010-12-30T11:18:13Z</time>
      </trkpt>
      <trkpt lat="43.74344" lon="4.85364">
        <ele>307.759277</ele>
        <time>2010-12-30T11:18:19Z</time>
      </trkpt>
      <trkpt lat="43.7435" lon="4.8536">
        <ele>307.278564</ele>
        <time>2010-12-30T11:18:26Z</time>
      </trkpt>
      <trkpt lat="43.74357" lon="4.85347">
        <ele>307.278564</ele>
        <time>2010-12-30T11:18:39Z</time>
      </trkpt>
      <trkpt lat="43.74359" lon="4.85338">
        <ele>305.83667</ele>
        <time>2010-12-30T11:18:48Z</time>
      </trkpt>
      <trkpt lat="43.74359" lon="4.85319">
        <ele>305.83667</ele>
        <time>2010-12-30T11:19:01Z</time>
      </trkpt>
      <trkpt lat="43.74361" lon="4.85302">
        <ele>306.797852</ele>
        <time>2010-12-30T11:19:14Z</time>
      </trkpt>
      <trkpt lat="43.74363" lon="4.85289">
        <ele>308.239868</ele>
        <time>2010-12-30T11:19:25Z</time>
      </trkpt>
      <trkpt lat="43.74363" lon="4.85282">
        <ele>308.239868</ele>
        <time>2010-12-30T11:19:30Z</time>
      </trkpt>
      <trkpt lat="43.74365" lon="4.85274">
        <ele>307.278564</ele>
        <time>2010-12-30T11:19:35Z</time>
      </trkpt>
      <trkpt lat="43.7437" lon="4.85267">
        <ele>307.278564</ele>
        <time>2010-12-30T11:19:40Z</time>
      </trkpt>
      <trkpt lat="43.74385" lon="4.85267">
        <ele>308.239868</ele>
        <time>2010-12-30T11:19:53Z</time>
      </trkpt>
      <trkpt lat="43.74389" lon="4.85272">
        <ele>307.759277</ele>
        <time>2010-12-30T11:19:58Z</time>
      </trkpt>
      <trkpt lat="43.74393" lon="4.85278">
        <ele>308.239868</ele>
        <time>2010-12-30T11:20:04Z</time>
      </trkpt>
      <trkpt lat="43.74402" lon="4.85282">
        <ele>308.720459</ele>
        <time>2010-12-30T11:20:14Z</time>
      </trkpt>
      <trkpt lat="43.74406" lon="4.85285">
        <ele>308.720459</ele>
        <time>2010-12-30T11:20:18Z</time>
      </trkpt>
      <trkpt lat="43.74417" lon="4.85272">
        <ele>311.604492</ele>
        <time>2010-12-30T11:20:32Z</time>
      </trkpt>
      <trkpt lat="43.74421" lon="4.85267">
        <ele>312.565796</ele>
        <time>2010-12-30T11:20:37Z</time>
      </trkpt>
      <trkpt lat="43.74425" lon="4.85252">
        <ele>311.604492</ele>
        <time>2010-12-30T11:20:49Z</time>
      </trkpt>
      <trkpt lat="43.74423" lon="4.8524">
        <ele>309.681885</ele>
        <time>2010-12-30T11:20:58Z</time>
      </trkpt>
      <trkpt lat="43.74423" lon="4.85231">
        <ele>310.162476</ele>
        <time>2010-12-30T11:21:03Z</time>
      </trkpt>
      <trkpt lat="43.74423" lon="4.85225">
        <ele>309.681885</ele>
        <time>2010-12-30T11:21:07Z</time>
      </trkpt>
      <trkpt lat="43.74423" lon="4.85216">
        <ele>309.681885</ele>
        <time>2010-12-30T11:21:13Z</time>
      </trkpt>
      <trkpt lat="43.74428" lon="4.85203">
        <ele>311.123779</ele>
        <time>2010-12-30T11:21:23Z</time>
      </trkpt>
      <trkpt lat="43.7444" lon="4.85184">
        <ele>312.085205</ele>
        <time>2010-12-30T11:21:39Z</time>
      </trkpt>
      <trkpt lat="43.74449" lon="4.85179">
        <ele>311.604492</ele>
        <time>2010-12-30T11:21:46Z</time>
      </trkpt>
      <trkpt lat="43.74462" lon="4.85173">
        <ele>313.046509</ele>
        <time>2010-12-30T11:21:59Z</time>
      </trkpt>
      <trkpt lat="43.74475" lon="4.85177">
        <ele>313.527222</ele>
        <time>2010-12-30T11:22:13Z</time>
      </trkpt>
      <trkpt lat="43.74488" lon="4.85173">
        <ele>314.969116</ele>
        <time>2010-12-30T11:22:28Z</time>
      </trkpt>
      <trkpt lat="43.74503" lon="4.85158">
        <ele>315.449829</ele>
        <time>2010-12-30T11:22:43Z</time>
      </trkpt>
      <trkpt lat="43.74505" lon="4.85156">
        <ele>315.449829</ele>
        <time>2010-12-30T11:22:46Z</time>
      </trkpt>
      <trkpt lat="43.74516" lon="4.85149">
        <ele>316.891724</ele>
        <time>2010-12-30T11:22:59Z</time>
      </trkpt>
      <trkpt lat="43.74524" lon="4.85145">
        <ele>319.295044</ele>
        <time>2010-12-30T11:23:11Z</time>
      </trkpt>
      <trkpt lat="43.74526" lon="4.85147">
        <ele>319.295044</ele>
        <time>2010-12-30T11:23:13Z</time>
      </trkpt>
      <trkpt lat="43.74541" lon="4.85152">
        <ele>318.333618</ele>
        <time>2010-12-30T11:23:26Z</time>
      </trkpt>
      <trkpt lat="43.7455" lon="4.85158">
        <ele>316.891724</ele>
        <time>2010-12-30T11:23:35Z</time>
      </trkpt>
      <trkpt lat="43.74561" lon="4.85158">
        <ele>317.372437</ele>
        <time>2010-12-30T11:23:47Z</time>
      </trkpt>
      <trkpt lat="43.74571" lon="4.85145">
        <ele>320.256348</ele>
        <time>2010-12-30T11:24:01Z</time>
      </trkpt>
      <trkpt lat="43.74578" lon="4.85141">
        <ele>321.217773</ele>
        <time>2010-12-30T11:24:06Z</time>
      </trkpt>
      <trkpt lat="43.74591" lon="4.85139">
        <ele>321.217773</ele>
        <time>2010-12-30T11:24:18Z</time>
      </trkpt>
      <trkpt lat="43.74604" lon="4.85141">
        <ele>321.217773</ele>
        <time>2010-12-30T11:24:32Z</time>
      </trkpt>
      <trkpt lat="43.74616" lon="4.85145">
        <ele>319.775635</ele>
        <time>2010-12-30T11:24:46Z</time>
      </trkpt>
      <trkpt lat="43.74623" lon="4.85149">
        <ele>319.775635</ele>
        <time>2010-12-30T11:24:52Z</time>
      </trkpt>
      <trkpt lat="43.74627" lon="4.85152">
        <ele>319.295044</ele>
        <time>2010-12-30T11:24:56Z</time>
      </trkpt>
      <trkpt lat="43.74638" lon="4.8516">
        <ele>319.295044</ele>
        <time>2010-12-30T11:25:08Z</time>
      </trkpt>
      <trkpt lat="43.74653" lon="4.85169">
        <ele>319.295044</ele>
        <time>2010-12-30T11:25:21Z</time>
      </trkpt>
      <trkpt lat="43.74668" lon="4.85177">
        <ele>318.333618</ele>
        <time>2010-12-30T11:25:35Z</time>
      </trkpt>
      <trkpt lat="43.74672" lon="4.85179">
        <ele>318.814331</ele>
        <time>2010-12-30T11:25:40Z</time>
      </trkpt>
      <trkpt lat="43.74674" lon="4.85182">
        <ele>318.814331</ele>
        <time>2010-12-30T11:25:42Z</time>
      </trkpt>
      <trkpt lat="43.74685" lon="4.85188">
        <ele>318.333618</ele>
        <time>2010-12-30T11:25:55Z</time>
      </trkpt>
      <trkpt lat="43.74692" lon="4.85188">
        <ele>318.814331</ele>
        <time>2010-12-30T11:26:02Z</time>
      </trkpt>
      <trkpt lat="43.74694" lon="4.85182">
        <ele>322.178955</ele>
        <time>2010-12-30T11:26:08Z</time>
      </trkpt>
      <trkpt lat="43.74696" lon="4.85179">
        <ele>322.659668</ele>
        <time>2010-12-30T11:26:11Z</time>
      </trkpt>
      <trkpt lat="43.74698" lon="4.85173">
        <ele>323.140381</ele>
        <time>2010-12-30T11:26:23Z</time>
      </trkpt>
      <trkpt lat="43.74698" lon="4.85169">
        <ele>321.698364</ele>
        <time>2010-12-30T11:26:39Z</time>
      </trkpt>
      <trkpt lat="43.74698" lon="4.85171">
        <ele>320.256348</ele>
        <time>2010-12-30T11:27:00Z</time>
      </trkpt>
      <trkpt lat="43.74698" lon="4.85171">
        <ele>320.256348</ele>
        <time>2010-12-30T11:27:30Z</time>
      </trkpt>
      <trkpt lat="43.74709" lon="4.85188">
        <ele>319.295044</ele>
        <time>2010-12-30T11:27:44Z</time>
      </trkpt>
      <trkpt lat="43.74709" lon="4.8519">
        <ele>318.814331</ele>
        <time>2010-12-30T11:27:46Z</time>
      </trkpt>
      <trkpt lat="43.74711" lon="4.85197">
        <ele>318.814331</ele>
        <time>2010-12-30T11:27:50Z</time>
      </trkpt>
      <trkpt lat="43.74722" lon="4.85207">
        <ele>319.295044</ele>
        <time>2010-12-30T11:28:03Z</time>
      </trkpt>
      <trkpt lat="43.74728" lon="4.85218">
        <ele>320.256348</ele>
        <time>2010-12-30T11:28:13Z</time>
      </trkpt>
      <trkpt lat="43.74732" lon="4.85225">
        <ele>320.256348</ele>
        <time>2010-12-30T11:28:18Z</time>
      </trkpt>
      <trkpt lat="43.74732" lon="4.85227">
        <ele>319.775635</ele>
        <time>2010-12-30T11:28:20Z</time>
      </trkpt>
      <trkpt lat="43.74737" lon="4.85233">
        <ele>319.295044</ele>
        <time>2010-12-30T11:28:25Z</time>
      </trkpt>
      <trkpt lat="43.74741" lon="4.85246">
        <ele>319.775635</ele>
        <time>2010-12-30T11:28:36Z</time>
      </trkpt>
      <trkpt lat="43.74749" lon="4.85259">
        <ele>319.775635</ele>
        <time>2010-12-30T11:28:46Z</time>
      </trkpt>
      <trkpt lat="43.74758" lon="4.85267">
        <ele>319.775635</ele>
        <time>2010-12-30T11:28:58Z</time>
      </trkpt>
      <trkpt lat="43.74773" lon="4.85272">
        <ele>320.737061</ele>
        <time>2010-12-30T11:29:10Z</time>
      </trkpt>
      <trkpt lat="43.74782" lon="4.85276">
        <ele>321.217773</ele>
        <time>2010-12-30T11:29:19Z</time>
      </trkpt>
      <trkpt lat="43.74792" lon="4.85285">
        <ele>321.217773</ele>
        <time>2010-12-30T11:29:31Z</time>
      </trkpt>
      <trkpt lat="43.74805" lon="4.85293">
        <ele>324.101563</ele>
        <time>2010-12-30T11:29:45Z</time>
      </trkpt>
      <trkpt lat="43.7482" lon="4.853">
        <ele>324.101563</ele>
        <time>2010-12-30T11:29:58Z</time>
      </trkpt>
      <trkpt lat="43.74825" lon="4.85302">
        <ele>324.101563</ele>
        <time>2010-12-30T11:30:03Z</time>
      </trkpt>
      <trkpt lat="43.74837" lon="4.85308">
        <ele>324.582275</ele>
        <time>2010-12-30T11:30:15Z</time>
      </trkpt>
      <trkpt lat="43.7485" lon="4.8531">
        <ele>324.582275</ele>
        <time>2010-12-30T11:30:26Z</time>
      </trkpt>
      <trkpt lat="43.74867" lon="4.85315">
        <ele>326.02417</ele>
        <time>2010-12-30T11:30:41Z</time>
      </trkpt>
      <trkpt lat="43.7487" lon="4.85315">
        <ele>326.02417</ele>
        <time>2010-12-30T11:30:43Z</time>
      </trkpt>
      <trkpt lat="43.74883" lon="4.85325">
        <ele>321.698364</ele>
        <time>2010-12-30T11:30:54Z</time>
      </trkpt>
      <trkpt lat="43.74887" lon="4.85338">
        <ele>319.775635</ele>
        <time>2010-12-30T11:31:02Z</time>
      </trkpt>
      <trkpt lat="43.74889" lon="4.85351">
        <ele>320.737061</ele>
        <time>2010-12-30T11:31:13Z</time>
      </trkpt>
      <trkpt lat="43.74889" lon="4.85364">
        <ele>324.101563</ele>
        <time>2010-12-30T11:31:28Z</time>
      </trkpt>
      <trkpt lat="43.74889" lon="4.85379">
        <ele>326.02417</ele>
        <time>2010-12-30T11:31:41Z</time>
      </trkpt>
      <trkpt lat="43.74893" lon="4.85392">
        <ele>328.427612</ele>
        <time>2010-12-30T11:31:52Z</time>
      </trkpt>
      <trkpt lat="43.74895" lon="4.85409">
        <ele>330.830933</ele>
        <time>2010-12-30T11:32:06Z</time>
      </trkpt>
      <trkpt lat="43.74898" lon="4.85426">
        <ele>330.830933</ele>
        <time>2010-12-30T11:32:20Z</time>
      </trkpt>
      <trkpt lat="43.74904" lon="4.85448">
        <ele>329.869507</ele>
        <time>2010-12-30T11:32:34Z</time>
      </trkpt>
      <trkpt lat="43.74906" lon="4.85467">
        <ele>330.35022</ele>
        <time>2010-12-30T11:32:49Z</time>
      </trkpt>
      <trkpt lat="43.74913" lon="4.85486">
        <ele>330.35022</ele>
        <time>2010-12-30T11:33:03Z</time>
      </trkpt>
      <trkpt lat="43.74917" lon="4.85493">
        <ele>329.388916</ele>
        <time>2010-12-30T11:33:09Z</time>
      </trkpt>
      <trkpt lat="43.74921" lon="4.85493">
        <ele>327.946777</ele>
        <time>2010-12-30T11:33:15Z</time>
      </trkpt>
      <trkpt lat="43.74932" lon="4.8548">
        <ele>331.311523</ele>
        <time>2010-12-30T11:33:28Z</time>
      </trkpt>
      <trkpt lat="43.74945" lon="4.85471">
        <ele>331.311523</ele>
        <time>2010-12-30T11:33:39Z</time>
      </trkpt>
      <trkpt lat="43.74958" lon="4.85476">
        <ele>327.946777</ele>
        <time>2010-12-30T11:33:52Z</time>
      </trkpt>
      <trkpt lat="43.74964" lon="4.8548">
        <ele>326.985596</ele>
        <time>2010-12-30T11:33:58Z</time>
      </trkpt>
      <trkpt lat="43.74981" lon="4.85493">
        <ele>327.946777</ele>
        <time>2010-12-30T11:34:16Z</time>
      </trkpt>
      <trkpt lat="43.74988" lon="4.85506">
        <ele>330.35022</ele>
        <time>2010-12-30T11:34:28Z</time>
      </trkpt>
      <trkpt lat="43.74994" lon="4.85525">
        <ele>331.311523</ele>
        <time>2010-12-30T11:34:43Z</time>
      </trkpt>
      <trkpt lat="43.74994" lon="4.85534">
        <ele>332.272827</ele>
        <time>2010-12-30T11:34:55Z</time>
      </trkpt>
      <trkpt lat="43.74996" lon="4.85531">
        <ele>333.234131</ele>
        <time>2010-12-30T11:35:07Z</time>
      </trkpt>
      <trkpt lat="43.74998" lon="4.85529">
        <ele>332.75354</ele>
        <time>2010-12-30T11:35:10Z</time>
      </trkpt>
      <trkpt lat="43.75003" lon="4.85544">
        <ele>331.311523</ele>
        <time>2010-12-30T11:35:19Z</time>
      </trkpt>
      <trkpt lat="43.75005" lon="4.85568">
        <ele>329.869507</ele>
        <time>2010-12-30T11:35:34Z</time>
      </trkpt>
      <trkpt lat="43.75009" lon="4.85596">
        <ele>329.388916</ele>
        <time>2010-12-30T11:35:51Z</time>
      </trkpt>
      <trkpt lat="43.75011" lon="4.85613">
        <ele>328.908325</ele>
        <time>2010-12-30T11:36:02Z</time>
      </trkpt>
      <trkpt lat="43.75013" lon="4.85619">
        <ele>328.908325</ele>
        <time>2010-12-30T11:36:06Z</time>
      </trkpt>
      <trkpt lat="43.75018" lon="4.85641">
        <ele>327.946777</ele>
        <time>2010-12-30T11:36:21Z</time>
      </trkpt>
      <trkpt lat="43.75024" lon="4.85656">
        <ele>326.985596</ele>
        <time>2010-12-30T11:36:34Z</time>
      </trkpt>
      <trkpt lat="43.75028" lon="4.85669">
        <ele>325.543579</ele>
        <time>2010-12-30T11:36:44Z</time>
      </trkpt>
      <trkpt lat="43.75031" lon="4.85671">
        <ele>325.062988</ele>
        <time>2010-12-30T11:36:47Z</time>
      </trkpt>
      <trkpt lat="43.75033" lon="4.85675">
        <ele>325.062988</ele>
        <time>2010-12-30T11:36:50Z</time>
      </trkpt>
      <trkpt lat="43.75039" lon="4.85684">
        <ele>325.543579</ele>
        <time>2010-12-30T11:36:58Z</time>
      </trkpt>
      <trkpt lat="43.75046" lon="4.85703">
        <ele>325.062988</ele>
        <time>2010-12-30T11:37:12Z</time>
      </trkpt>
      <trkpt lat="43.75052" lon="4.85722">
        <ele>325.543579</ele>
        <time>2010-12-30T11:37:27Z</time>
      </trkpt>
      <trkpt lat="43.75052" lon="4.85724">
        <ele>325.543579</ele>
        <time>2010-12-30T11:37:29Z</time>
      </trkpt>
      <trkpt lat="43.75056" lon="4.85729">
        <ele>324.582275</ele>
        <time>2010-12-30T11:37:34Z</time>
      </trkpt>
      <trkpt lat="43.75067" lon="4.85735">
        <ele>324.101563</ele>
        <time>2010-12-30T11:37:48Z</time>
      </trkpt>
      <trkpt lat="43.75078" lon="4.8574">
        <ele>324.101563</ele>
        <time>2010-12-30T11:38:03Z</time>
      </trkpt>
      <trkpt lat="43.75091" lon="4.85757">
        <ele>321.217773</ele>
        <time>2010-12-30T11:38:18Z</time>
      </trkpt>
      <trkpt lat="43.75104" lon="4.85776">
        <ele>320.256348</ele>
        <time>2010-12-30T11:38:33Z</time>
      </trkpt>
      <trkpt lat="43.75112" lon="4.85789">
        <ele>320.737061</ele>
        <time>2010-12-30T11:38:46Z</time>
      </trkpt>
      <trkpt lat="43.75123" lon="4.85806">
        <ele>319.295044</ele>
        <time>2010-12-30T11:39:00Z</time>
      </trkpt>
      <trkpt lat="43.75136" lon="4.85827">
        <ele>318.814331</ele>
        <time>2010-12-30T11:39:18Z</time>
      </trkpt>
      <trkpt lat="43.75142" lon="4.85834">
        <ele>318.814331</ele>
        <time>2010-12-30T11:39:25Z</time>
      </trkpt>
      <trkpt lat="43.75151" lon="4.85849">
        <ele>316.891724</ele>
        <time>2010-12-30T11:39:37Z</time>
      </trkpt>
      <trkpt lat="43.75157" lon="4.85858">
        <ele>316.411011</ele>
        <time>2010-12-30T11:39:45Z</time>
      </trkpt>
      <trkpt lat="43.7517" lon="4.8587">
        <ele>317.372437</ele>
        <time>2010-12-30T11:40:00Z</time>
      </trkpt>
      <trkpt lat="43.75183" lon="4.85881">
        <ele>319.775635</ele>
        <time>2010-12-30T11:40:16Z</time>
      </trkpt>
      <trkpt lat="43.75196" lon="4.85898">
        <ele>321.698364</ele>
        <time>2010-12-30T11:40:34Z</time>
      </trkpt>
      <trkpt lat="43.75204" lon="4.85918">
        <ele>322.659668</ele>
        <time>2010-12-30T11:40:50Z</time>
      </trkpt>
      <trkpt lat="43.75207" lon="4.85924">
        <ele>322.178955</ele>
        <time>2010-12-30T11:40:55Z</time>
      </trkpt>
      <trkpt lat="43.75219" lon="4.85939">
        <ele>322.178955</ele>
        <time>2010-12-30T11:41:10Z</time>
      </trkpt>
      <trkpt lat="43.75232" lon="4.85952">
        <ele>322.178955</ele>
        <time>2010-12-30T11:41:25Z</time>
      </trkpt>
      <trkpt lat="43.75245" lon="4.85965">
        <ele>323.140381</ele>
        <time>2010-12-30T11:41:40Z</time>
      </trkpt>
      <trkpt lat="43.75256" lon="4.85982">
        <ele>323.140381</ele>
        <time>2010-12-30T11:41:54Z</time>
      </trkpt>
      <trkpt lat="43.75267" lon="4.86001">
        <ele>323.140381</ele>
        <time>2010-12-30T11:42:11Z</time>
      </trkpt>
      <trkpt lat="43.75277" lon="4.86021">
        <ele>323.140381</ele>
        <time>2010-12-30T11:42:28Z</time>
      </trkpt>
      <trkpt lat="43.75288" lon="4.8604">
        <ele>323.140381</ele>
        <time>2010-12-30T11:42:46Z</time>
      </trkpt>
      <trkpt lat="43.75301" lon="4.86051">
        <ele>325.543579</ele>
        <time>2010-12-30T11:43:01Z</time>
      </trkpt>
      <trkpt lat="43.75303" lon="4.86053">
        <ele>326.02417</ele>
        <time>2010-12-30T11:43:02Z</time>
      </trkpt>
      <trkpt lat="43.75318" lon="4.86061">
        <ele>329.388916</ele>
        <time>2010-12-30T11:43:20Z</time>
      </trkpt>
      <trkpt lat="43.75331" lon="4.86068">
        <ele>332.272827</ele>
        <time>2010-12-30T11:43:35Z</time>
      </trkpt>
      <trkpt lat="43.75333" lon="4.86072">
        <ele>331.792114</ele>
        <time>2010-12-30T11:43:39Z</time>
      </trkpt>
      <trkpt lat="43.75333" lon="4.86096">
        <ele>331.792114</ele>
        <time>2010-12-30T11:43:54Z</time>
      </trkpt>
      <trkpt lat="43.75329" lon="4.86102">
        <ele>332.272827</ele>
        <time>2010-12-30T11:44:00Z</time>
      </trkpt>
      <trkpt lat="43.75329" lon="4.86113">
        <ele>332.75354</ele>
        <time>2010-12-30T11:44:08Z</time>
      </trkpt>
      <trkpt lat="43.75327" lon="4.86117">
        <ele>333.234131</ele>
        <time>2010-12-30T11:44:10Z</time>
      </trkpt>
      <trkpt lat="43.75329" lon="4.86132">
        <ele>334.195435</ele>
        <time>2010-12-30T11:44:21Z</time>
      </trkpt>
      <trkpt lat="43.75331" lon="4.86139">
        <ele>334.676147</ele>
        <time>2010-12-30T11:44:26Z</time>
      </trkpt>
      <trkpt lat="43.75333" lon="4.86143">
        <ele>334.195435</ele>
        <time>2010-12-30T11:44:31Z</time>
      </trkpt>
      <trkpt lat="43.75342" lon="4.86145">
        <ele>334.676147</ele>
        <time>2010-12-30T11:44:41Z</time>
      </trkpt>
      <trkpt lat="43.75352" lon="4.86141">
        <ele>335.637329</ele>
        <time>2010-12-30T11:44:52Z</time>
      </trkpt>
      <trkpt lat="43.75359" lon="4.86139">
        <ele>335.637329</ele>
        <time>2010-12-30T11:44:58Z</time>
      </trkpt>
      <trkpt lat="43.75363" lon="4.86139">
        <ele>335.637329</ele>
        <time>2010-12-30T11:45:03Z</time>
      </trkpt>
      <trkpt lat="43.75378" lon="4.86136">
        <ele>336.118164</ele>
        <time>2010-12-30T11:45:18Z</time>
      </trkpt>
      <trkpt lat="43.75382" lon="4.86141">
        <ele>336.598877</ele>
        <time>2010-12-30T11:45:22Z</time>
      </trkpt>
      <trkpt lat="43.75389" lon="4.86167">
        <ele>335.637329</ele>
        <time>2010-12-30T11:45:37Z</time>
      </trkpt>
      <trkpt lat="43.75393" lon="4.86173">
        <ele>334.676147</ele>
        <time>2010-12-30T11:45:44Z</time>
      </trkpt>
      <trkpt lat="43.7541" lon="4.86175">
        <ele>335.156738</ele>
        <time>2010-12-30T11:45:59Z</time>
      </trkpt>
      <trkpt lat="43.75417" lon="4.86173">
        <ele>335.156738</ele>
        <time>2010-12-30T11:46:04Z</time>
      </trkpt>
      <trkpt lat="43.75423" lon="4.86173">
        <ele>334.676147</ele>
        <time>2010-12-30T11:46:10Z</time>
      </trkpt>
      <trkpt lat="43.75438" lon="4.86182">
        <ele>332.272827</ele>
        <time>2010-12-30T11:46:24Z</time>
      </trkpt>
      <trkpt lat="43.75443" lon="4.86186">
        <ele>330.35022</ele>
        <time>2010-12-30T11:46:29Z</time>
      </trkpt>
      <trkpt lat="43.75451" lon="4.8619">
        <ele>328.908325</ele>
        <time>2010-12-30T11:46:36Z</time>
      </trkpt>
      <trkpt lat="43.7546" lon="4.86188">
        <ele>327.946777</ele>
        <time>2010-12-30T11:46:45Z</time>
      </trkpt>
      <trkpt lat="43.75473" lon="4.86175">
        <ele>327.466187</ele>
        <time>2010-12-30T11:47:01Z</time>
      </trkpt>
      <trkpt lat="43.75479" lon="4.86167">
        <ele>326.985596</ele>
        <time>2010-12-30T11:47:10Z</time>
      </trkpt>
      <trkpt lat="43.75483" lon="4.86167">
        <ele>326.504883</ele>
        <time>2010-12-30T11:47:13Z</time>
      </trkpt>
      <trkpt lat="43.7549" lon="4.86167">
        <ele>326.02417</ele>
        <time>2010-12-30T11:47:18Z</time>
      </trkpt>
      <trkpt lat="43.75496" lon="4.86171">
        <ele>325.062988</ele>
        <time>2010-12-30T11:47:26Z</time>
      </trkpt>
      <trkpt lat="43.755" lon="4.86175">
        <ele>325.062988</ele>
        <time>2010-12-30T11:47:29Z</time>
      </trkpt>
      <trkpt lat="43.75511" lon="4.86184">
        <ele>323.140381</ele>
        <time>2010-12-30T11:47:42Z</time>
      </trkpt>
      <trkpt lat="43.75524" lon="4.86179">
        <ele>322.178955</ele>
        <time>2010-12-30T11:47:53Z</time>
      </trkpt>
      <trkpt lat="43.75528" lon="4.86179">
        <ele>322.178955</ele>
        <time>2010-12-30T11:47:56Z</time>
      </trkpt>
      <trkpt lat="43.75528" lon="4.86179">
        <ele>322.659668</ele>
        <time>2010-12-30T11:47:58Z</time>
      </trkpt>
      <trkpt lat="43.75539" lon="4.86179">
        <ele>324.101563</ele>
        <time>2010-12-30T11:48:08Z</time>
      </trkpt>
      <trkpt lat="43.75543" lon="4.86184">
        <ele>324.582275</ele>
        <time>2010-12-30T11:48:12Z</time>
      </trkpt>
      <trkpt lat="43.75543" lon="4.86188">
        <ele>325.062988</ele>
        <time>2010-12-30T11:48:16Z</time>
      </trkpt>
      <trkpt lat="43.75552" lon="4.86197">
        <ele>326.02417</ele>
        <time>2010-12-30T11:48:26Z</time>
      </trkpt>
      <trkpt lat="43.75554" lon="4.86201">
        <ele>325.543579</ele>
        <time>2010-12-30T11:48:29Z</time>
      </trkpt>
      <trkpt lat="43.75563" lon="4.86218">
        <ele>323.620972</ele>
        <time>2010-12-30T11:48:44Z</time>
      </trkpt>
      <trkpt lat="43.75569" lon="4.86233">
        <ele>322.659668</ele>
        <time>2010-12-30T11:48:56Z</time>
      </trkpt>
      <trkpt lat="43.75573" lon="4.86242">
        <ele>322.178955</ele>
        <time>2010-12-30T11:49:03Z</time>
      </trkpt>
      <trkpt lat="43.75576" lon="4.86246">
        <ele>322.178955</ele>
        <time>2010-12-30T11:49:06Z</time>
      </trkpt>
      <trkpt lat="43.75584" lon="4.86261">
        <ele>319.775635</ele>
        <time>2010-12-30T11:49:18Z</time>
      </trkpt>
      <trkpt lat="43.75584" lon="4.86261">
        <ele>319.775635</ele>
        <time>2010-12-30T11:49:19Z</time>
      </trkpt>
      <trkpt lat="43.75591" lon="4.8628">
        <ele>317.853027</ele>
        <time>2010-12-30T11:49:33Z</time>
      </trkpt>
      <trkpt lat="43.75591" lon="4.86293">
        <ele>316.411011</ele>
        <time>2010-12-30T11:49:45Z</time>
      </trkpt>
      <trkpt lat="43.75595" lon="4.86297">
        <ele>315.449829</ele>
        <time>2010-12-30T11:50:05Z</time>
      </trkpt>
      <trkpt lat="43.75595" lon="4.863">
        <ele>314.007813</ele>
        <time>2010-12-30T11:50:24Z</time>
      </trkpt>
      <trkpt lat="43.75595" lon="4.86302">
        <ele>312.565796</ele>
        <time>2010-12-30T11:51:25Z</time>
      </trkpt>
      <trkpt lat="43.75595" lon="4.863">
        <ele>310.643066</ele>
        <time>2010-12-30T11:52:16Z</time>
      </trkpt>
      <trkpt lat="43.75593" lon="4.863">
        <ele>310.643066</ele>
        <time>2010-12-30T11:52:24Z</time>
      </trkpt>
      <trkpt lat="43.75601" lon="4.86261">
        <ele>311.604492</ele>
        <time>2010-12-30T12:19:31Z</time>
      </trkpt>
      <trkpt lat="43.75595" lon="4.86293">
        <ele>318.333618</ele>
        <time>2010-12-30T12:19:47Z</time>
      </trkpt>
      <trkpt lat="43.75595" lon="4.86297">
        <ele>308.720459</ele>
        <time>2010-12-30T12:20:26Z</time>
      </trkpt>
      <trkpt lat="43.75599" lon="4.86295">
        <ele>308.720459</ele>
        <time>2010-12-30T12:20:29Z</time>
      </trkpt>
      <trkpt lat="43.75606" lon="4.863">
        <ele>308.720459</ele>
        <time>2010-12-30T12:20:41Z</time>
      </trkpt>
      <trkpt lat="43.75608" lon="4.86297">
        <ele>309.201172</ele>
        <time>2010-12-30T12:20:50Z</time>
      </trkpt>
      <trkpt lat="43.75608" lon="4.863">
        <ele>308.239868</ele>
        <time>2010-12-30T12:21:05Z</time>
      </trkpt>
      <trkpt lat="43.75608" lon="4.863">
        <ele>309.681885</ele>
        <time>2010-12-30T12:21:18Z</time>
      </trkpt>
      <trkpt lat="43.75608" lon="4.86302">
        <ele>310.162476</ele>
        <time>2010-12-30T12:21:19Z</time>
      </trkpt>
      <trkpt lat="43.75614" lon="4.86306">
        <ele>310.643066</ele>
        <time>2010-12-30T12:21:24Z</time>
      </trkpt>
      <trkpt lat="43.75621" lon="4.8631">
        <ele>309.681885</ele>
        <time>2010-12-30T12:21:30Z</time>
      </trkpt>
      <trkpt lat="43.75631" lon="4.8631">
        <ele>310.162476</ele>
        <time>2010-12-30T12:21:38Z</time>
      </trkpt>
      <trkpt lat="43.75638" lon="4.8631">
        <ele>309.201172</ele>
        <time>2010-12-30T12:21:43Z</time>
      </trkpt>
      <trkpt lat="43.75653" lon="4.86319">
        <ele>308.239868</ele>
        <time>2010-12-30T12:21:55Z</time>
      </trkpt>
      <trkpt lat="43.75666" lon="4.86325">
        <ele>308.720459</ele>
        <time>2010-12-30T12:22:06Z</time>
      </trkpt>
      <trkpt lat="43.75672" lon="4.86325">
        <ele>308.720459</ele>
        <time>2010-12-30T12:22:12Z</time>
      </trkpt>
      <trkpt lat="43.75683" lon="4.86327">
        <ele>310.162476</ele>
        <time>2010-12-30T12:22:20Z</time>
      </trkpt>
      <trkpt lat="43.75689" lon="4.8631">
        <ele>309.681885</ele>
        <time>2010-12-30T12:22:31Z</time>
      </trkpt>
      <trkpt lat="43.75691" lon="4.86293">
        <ele>306.317261</ele>
        <time>2010-12-30T12:22:40Z</time>
      </trkpt>
      <trkpt lat="43.75689" lon="4.86287">
        <ele>305.355957</ele>
        <time>2010-12-30T12:22:44Z</time>
      </trkpt>
      <trkpt lat="43.75687" lon="4.86261">
        <ele>301.991333</ele>
        <time>2010-12-30T12:22:58Z</time>
      </trkpt>
      <trkpt lat="43.75683" lon="4.86239">
        <ele>302.952515</ele>
        <time>2010-12-30T12:23:12Z</time>
      </trkpt>
      <trkpt lat="43.75685" lon="4.86239">
        <ele>302.952515</ele>
        <time>2010-12-30T12:23:13Z</time>
      </trkpt>
      <trkpt lat="43.75689" lon="4.86237">
        <ele>303.433228</ele>
        <time>2010-12-30T12:23:17Z</time>
      </trkpt>
      <trkpt lat="43.75696" lon="4.86244">
        <ele>303.433228</ele>
        <time>2010-12-30T12:23:22Z</time>
      </trkpt>
      <trkpt lat="43.75698" lon="4.86252">
        <ele>302.471924</ele>
        <time>2010-12-30T12:23:28Z</time>
      </trkpt>
      <trkpt lat="43.75704" lon="4.86263">
        <ele>300.549316</ele>
        <time>2010-12-30T12:23:37Z</time>
      </trkpt>
      <trkpt lat="43.75709" lon="4.86274">
        <ele>299.588013</ele>
        <time>2010-12-30T12:23:44Z</time>
      </trkpt>
      <trkpt lat="43.75713" lon="4.86285">
        <ele>300.549316</ele>
        <time>2010-12-30T12:23:50Z</time>
      </trkpt>
      <trkpt lat="43.75717" lon="4.86293">
        <ele>300.068726</ele>
        <time>2010-12-30T12:23:57Z</time>
      </trkpt>
      <trkpt lat="43.75717" lon="4.86297">
        <ele>299.588013</ele>
        <time>2010-12-30T12:23:59Z</time>
      </trkpt>
      <trkpt lat="43.75722" lon="4.86317">
        <ele>296.223511</ele>
        <time>2010-12-30T12:24:11Z</time>
      </trkpt>
      <trkpt lat="43.75719" lon="4.86336">
        <ele>296.704102</ele>
        <time>2010-12-30T12:24:22Z</time>
      </trkpt>
      <trkpt lat="43.75719" lon="4.86362">
        <ele>295.742676</ele>
        <time>2010-12-30T12:24:37Z</time>
      </trkpt>
      <trkpt lat="43.75719" lon="4.86368">
        <ele>295.742676</ele>
        <time>2010-12-30T12:24:41Z</time>
      </trkpt>
      <trkpt lat="43.75717" lon="4.86381">
        <ele>295.742676</ele>
        <time>2010-12-30T12:24:48Z</time>
      </trkpt>
      <trkpt lat="43.75713" lon="4.86388">
        <ele>296.223511</ele>
        <time>2010-12-30T12:24:53Z</time>
      </trkpt>
      <trkpt lat="43.75704" lon="4.86409">
        <ele>295.742676</ele>
        <time>2010-12-30T12:25:07Z</time>
      </trkpt>
      <trkpt lat="43.75702" lon="4.86411">
        <ele>296.223511</ele>
        <time>2010-12-30T12:25:09Z</time>
      </trkpt>
      <trkpt lat="43.75696" lon="4.86424">
        <ele>296.223511</ele>
        <time>2010-12-30T12:25:17Z</time>
      </trkpt>
      <trkpt lat="43.75691" lon="4.86435">
        <ele>295.261963</ele>
        <time>2010-12-30T12:25:24Z</time>
      </trkpt>
      <trkpt lat="43.75687" lon="4.86458">
        <ele>296.223511</ele>
        <time>2010-12-30T12:25:37Z</time>
      </trkpt>
      <trkpt lat="43.75689" lon="4.86467">
        <ele>294.781372</ele>
        <time>2010-12-30T12:25:42Z</time>
      </trkpt>
      <trkpt lat="43.757" lon="4.86482">
        <ele>294.300781</ele>
        <time>2010-12-30T12:25:54Z</time>
      </trkpt>
      <trkpt lat="43.75706" lon="4.86491">
        <ele>295.742676</ele>
        <time>2010-12-30T12:26:00Z</time>
      </trkpt>
      <trkpt lat="43.75717" lon="4.86506">
        <ele>294.300781</ele>
        <time>2010-12-30T12:26:12Z</time>
      </trkpt>
      <trkpt lat="43.75713" lon="4.86512">
        <ele>294.300781</ele>
        <time>2010-12-30T12:26:18Z</time>
      </trkpt>
      <trkpt lat="43.75702" lon="4.86514">
        <ele>295.742676</ele>
        <time>2010-12-30T12:26:29Z</time>
      </trkpt>
      <trkpt lat="43.75691" lon="4.86516">
        <ele>293.339355</ele>
        <time>2010-12-30T12:26:37Z</time>
      </trkpt>
      <trkpt lat="43.75679" lon="4.86531">
        <ele>293.339355</ele>
        <time>2010-12-30T12:26:50Z</time>
      </trkpt>
      <trkpt lat="43.75679" lon="4.86536">
        <ele>293.339355</ele>
        <time>2010-12-30T12:26:53Z</time>
      </trkpt>
      <trkpt lat="43.75676" lon="4.86546">
        <ele>293.339355</ele>
        <time>2010-12-30T12:26:59Z</time>
      </trkpt>
      <trkpt lat="43.75674" lon="4.86557">
        <ele>293.820068</ele>
        <time>2010-12-30T12:27:05Z</time>
      </trkpt>
      <trkpt lat="43.75672" lon="4.86561">
        <ele>294.300781</ele>
        <time>2010-12-30T12:27:09Z</time>
      </trkpt>
      <trkpt lat="43.7567" lon="4.8657">
        <ele>294.781372</ele>
        <time>2010-12-30T12:27:14Z</time>
      </trkpt>
      <trkpt lat="43.75664" lon="4.86581">
        <ele>294.781372</ele>
        <time>2010-12-30T12:27:21Z</time>
      </trkpt>
      <trkpt lat="43.75657" lon="4.86591">
        <ele>295.742676</ele>
        <time>2010-12-30T12:27:30Z</time>
      </trkpt>
      <trkpt lat="43.75655" lon="4.866">
        <ele>296.223511</ele>
        <time>2010-12-30T12:27:37Z</time>
      </trkpt>
      <trkpt lat="43.75657" lon="4.86615">
        <ele>297.665405</ele>
        <time>2010-12-30T12:27:46Z</time>
      </trkpt>
      <trkpt lat="43.75661" lon="4.8663">
        <ele>298.146118</ele>
        <time>2010-12-30T12:27:55Z</time>
      </trkpt>
      <trkpt lat="43.75664" lon="4.86643">
        <ele>297.184692</ele>
        <time>2010-12-30T12:28:03Z</time>
      </trkpt>
      <trkpt lat="43.75666" lon="4.86658">
        <ele>298.626709</ele>
        <time>2010-12-30T12:28:12Z</time>
      </trkpt>
      <trkpt lat="43.7567" lon="4.86675">
        <ele>297.665405</ele>
        <time>2010-12-30T12:28:23Z</time>
      </trkpt>
      <trkpt lat="43.75672" lon="4.8669">
        <ele>295.261963</ele>
        <time>2010-12-30T12:28:33Z</time>
      </trkpt>
      <trkpt lat="43.75676" lon="4.86712">
        <ele>293.820068</ele>
        <time>2010-12-30T12:28:46Z</time>
      </trkpt>
      <trkpt lat="43.75676" lon="4.86722">
        <ele>292.858765</ele>
        <time>2010-12-30T12:28:53Z</time>
      </trkpt>
      <trkpt lat="43.75679" lon="4.86737">
        <ele>291.897461</ele>
        <time>2010-12-30T12:29:02Z</time>
      </trkpt>
      <trkpt lat="43.75681" lon="4.86744">
        <ele>291.416748</ele>
        <time>2010-12-30T12:29:07Z</time>
      </trkpt>
      <trkpt lat="43.75685" lon="4.86763">
        <ele>289.974854</ele>
        <time>2010-12-30T12:29:19Z</time>
      </trkpt>
      <trkpt lat="43.75687" lon="4.86787">
        <ele>290.455566</ele>
        <time>2010-12-30T12:29:33Z</time>
      </trkpt>
      <trkpt lat="43.75687" lon="4.86791">
        <ele>289.974854</ele>
        <time>2010-12-30T12:29:35Z</time>
      </trkpt>
      <trkpt lat="43.75689" lon="4.86804">
        <ele>289.01355</ele>
        <time>2010-12-30T12:29:43Z</time>
      </trkpt>
      <trkpt lat="43.75691" lon="4.86819">
        <ele>287.09082</ele>
        <time>2010-12-30T12:29:53Z</time>
      </trkpt>
      <trkpt lat="43.75696" lon="4.86836">
        <ele>284.206909</ele>
        <time>2010-12-30T12:30:03Z</time>
      </trkpt>
      <trkpt lat="43.757" lon="4.8686">
        <ele>285.168213</ele>
        <time>2010-12-30T12:30:17Z</time>
      </trkpt>
      <trkpt lat="43.75702" lon="4.86877">
        <ele>285.168213</ele>
        <time>2010-12-30T12:30:29Z</time>
      </trkpt>
      <trkpt lat="43.75706" lon="4.86898">
        <ele>285.648804</ele>
        <time>2010-12-30T12:30:43Z</time>
      </trkpt>
      <trkpt lat="43.75709" lon="4.86907">
        <ele>285.168213</ele>
        <time>2010-12-30T12:30:48Z</time>
      </trkpt>
      <trkpt lat="43.75709" lon="4.86915">
        <ele>285.168213</ele>
        <time>2010-12-30T12:30:54Z</time>
      </trkpt>
      <trkpt lat="43.75709" lon="4.86922">
        <ele>285.648804</ele>
        <time>2010-12-30T12:30:58Z</time>
      </trkpt>
      <trkpt lat="43.75711" lon="4.86941">
        <ele>287.09082</ele>
        <time>2010-12-30T12:31:12Z</time>
      </trkpt>
      <trkpt lat="43.75709" lon="4.86952">
        <ele>289.01355</ele>
        <time>2010-12-30T12:31:19Z</time>
      </trkpt>
      <trkpt lat="43.75702" lon="4.86967">
        <ele>289.01355</ele>
        <time>2010-12-30T12:31:31Z</time>
      </trkpt>
      <trkpt lat="43.75698" lon="4.86975">
        <ele>289.01355</ele>
        <time>2010-12-30T12:31:37Z</time>
      </trkpt>
      <trkpt lat="43.75694" lon="4.86982">
        <ele>288.532959</ele>
        <time>2010-12-30T12:31:43Z</time>
      </trkpt>
      <trkpt lat="43.75681" lon="4.86997">
        <ele>286.610229</ele>
        <time>2010-12-30T12:31:57Z</time>
      </trkpt>
      <trkpt lat="43.75672" lon="4.87014">
        <ele>284.206909</ele>
        <time>2010-12-30T12:32:11Z</time>
      </trkpt>
      <trkpt lat="43.75664" lon="4.87027">
        <ele>282.284302</ele>
        <time>2010-12-30T12:32:23Z</time>
      </trkpt>
      <trkpt lat="43.75651" lon="4.87042">
        <ele>279.400269</ele>
        <time>2010-12-30T12:32:38Z</time>
      </trkpt>
      <trkpt lat="43.7564" lon="4.87057">
        <ele>278.438965</ele>
        <time>2010-12-30T12:32:52Z</time>
      </trkpt>
      <trkpt lat="43.75629" lon="4.87074">
        <ele>277.477661</ele>
        <time>2010-12-30T12:33:05Z</time>
      </trkpt>
      <trkpt lat="43.75621" lon="4.87087">
        <ele>275.555054</ele>
        <time>2010-12-30T12:33:17Z</time>
      </trkpt>
      <trkpt lat="43.75608" lon="4.87104">
        <ele>274.113037</ele>
        <time>2010-12-30T12:33:32Z</time>
      </trkpt>
      <trkpt lat="43.75603" lon="4.87109">
        <ele>274.113037</ele>
        <time>2010-12-30T12:33:37Z</time>
      </trkpt>
      <trkpt lat="43.75593" lon="4.87126">
        <ele>272.671143</ele>
        <time>2010-12-30T12:33:51Z</time>
      </trkpt>
      <trkpt lat="43.75586" lon="4.87134">
        <ele>271.709717</ele>
        <time>2010-12-30T12:34:00Z</time>
      </trkpt>
      <trkpt lat="43.75573" lon="4.87147">
        <ele>272.19043</ele>
        <time>2010-12-30T12:34:12Z</time>
      </trkpt>
      <trkpt lat="43.75561" lon="4.87166">
        <ele>270.2677</ele>
        <time>2010-12-30T12:34:28Z</time>
      </trkpt>
      <trkpt lat="43.75552" lon="4.87181">
        <ele>269.306519</ele>
        <time>2010-12-30T12:34:41Z</time>
      </trkpt>
      <trkpt lat="43.7555" lon="4.87181">
        <ele>269.306519</ele>
        <time>2010-12-30T12:34:43Z</time>
      </trkpt>
      <trkpt lat="43.75546" lon="4.87192">
        <ele>267.864502</ele>
        <time>2010-12-30T12:34:51Z</time>
      </trkpt>
      <trkpt lat="43.75546" lon="4.87199">
        <ele>267.383911</ele>
        <time>2010-12-30T12:34:55Z</time>
      </trkpt>
      <trkpt lat="43.75543" lon="4.87222">
        <ele>267.383911</ele>
        <time>2010-12-30T12:35:09Z</time>
      </trkpt>
      <trkpt lat="43.75543" lon="4.87233">
        <ele>267.383911</ele>
        <time>2010-12-30T12:35:16Z</time>
      </trkpt>
      <trkpt lat="43.75548" lon="4.8725">
        <ele>268.345093</ele>
        <time>2010-12-30T12:35:26Z</time>
      </trkpt>
      <trkpt lat="43.7555" lon="4.87259">
        <ele>267.864502</ele>
        <time>2010-12-30T12:35:33Z</time>
      </trkpt>
      <trkpt lat="43.7555" lon="4.87261">
        <ele>267.864502</ele>
        <time>2010-12-30T12:35:35Z</time>
      </trkpt>
      <trkpt lat="43.75552" lon="4.87267">
        <ele>268.825806</ele>
        <time>2010-12-30T12:35:39Z</time>
      </trkpt>
      <trkpt lat="43.75554" lon="4.87282">
        <ele>267.383911</ele>
        <time>2010-12-30T12:35:50Z</time>
      </trkpt>
      <trkpt lat="43.75558" lon="4.87299">
        <ele>267.383911</ele>
        <time>2010-12-30T12:36:01Z</time>
      </trkpt>
      <trkpt lat="43.75561" lon="4.87319">
        <ele>266.422485</ele>
        <time>2010-12-30T12:36:13Z</time>
      </trkpt>
      <trkpt lat="43.75563" lon="4.87321">
        <ele>266.903198</ele>
        <time>2010-12-30T12:36:16Z</time>
      </trkpt>
      <trkpt lat="43.75567" lon="4.8734">
        <ele>265.941895</ele>
        <time>2010-12-30T12:36:29Z</time>
      </trkpt>
      <trkpt lat="43.75569" lon="4.8736">
        <ele>264.980591</ele>
        <time>2010-12-30T12:36:42Z</time>
      </trkpt>
      <trkpt lat="43.75569" lon="4.87362">
        <ele>265.461304</ele>
        <time>2010-12-30T12:36:43Z</time>
      </trkpt>
      <trkpt lat="43.75567" lon="4.87366">
        <ele>265.461304</ele>
        <time>2010-12-30T12:36:47Z</time>
      </trkpt>
      <trkpt lat="43.75567" lon="4.87372">
        <ele>265.941895</ele>
        <time>2010-12-30T12:36:51Z</time>
      </trkpt>
      <trkpt lat="43.75567" lon="4.87381">
        <ele>265.941895</ele>
        <time>2010-12-30T12:36:56Z</time>
      </trkpt>
      <trkpt lat="43.75569" lon="4.87398">
        <ele>265.941895</ele>
        <time>2010-12-30T12:37:07Z</time>
      </trkpt>
      <trkpt lat="43.75573" lon="4.87409">
        <ele>264.980591</ele>
        <time>2010-12-30T12:37:16Z</time>
      </trkpt>
      <trkpt lat="43.75573" lon="4.87411">
        <ele>264.980591</ele>
        <time>2010-12-30T12:37:18Z</time>
      </trkpt>
      <trkpt lat="43.75578" lon="4.87422">
        <ele>263.538574</ele>
        <time>2010-12-30T12:37:25Z</time>
      </trkpt>
      <trkpt lat="43.75588" lon="4.87439">
        <ele>262.096558</ele>
        <time>2010-12-30T12:37:39Z</time>
      </trkpt>
      <trkpt lat="43.75593" lon="4.87445">
        <ele>262.577148</ele>
        <time>2010-12-30T12:37:44Z</time>
      </trkpt>
      <trkpt lat="43.75597" lon="4.87448">
        <ele>263.057861</ele>
        <time>2010-12-30T12:37:48Z</time>
      </trkpt>
      <trkpt lat="43.75601" lon="4.8745">
        <ele>263.538574</ele>
        <time>2010-12-30T12:37:52Z</time>
      </trkpt>
      <trkpt lat="43.75612" lon="4.87456">
        <ele>263.538574</ele>
        <time>2010-12-30T12:38:02Z</time>
      </trkpt>
      <trkpt lat="43.75623" lon="4.87463">
        <ele>263.057861</ele>
        <time>2010-12-30T12:38:13Z</time>
      </trkpt>
      <trkpt lat="43.75625" lon="4.87465">
        <ele>262.577148</ele>
        <time>2010-12-30T12:38:14Z</time>
      </trkpt>
      <trkpt lat="43.75631" lon="4.87467">
        <ele>261.615967</ele>
        <time>2010-12-30T12:38:20Z</time>
      </trkpt>
      <trkpt lat="43.75638" lon="4.87469">
        <ele>261.135254</ele>
        <time>2010-12-30T12:38:25Z</time>
      </trkpt>
      <trkpt lat="43.75644" lon="4.87473">
        <ele>261.615967</ele>
        <time>2010-12-30T12:38:30Z</time>
      </trkpt>
      <trkpt lat="43.75653" lon="4.8748">
        <ele>262.577148</ele>
        <time>2010-12-30T12:38:39Z</time>
      </trkpt>
      <trkpt lat="43.75659" lon="4.87482">
        <ele>262.096558</ele>
        <time>2010-12-30T12:38:45Z</time>
      </trkpt>
      <trkpt lat="43.7567" lon="4.87484">
        <ele>261.615967</ele>
        <time>2010-12-30T12:38:55Z</time>
      </trkpt>
      <trkpt lat="43.75676" lon="4.87486">
        <ele>261.615967</ele>
        <time>2010-12-30T12:39:00Z</time>
      </trkpt>
      <trkpt lat="43.75687" lon="4.87488">
        <ele>262.096558</ele>
        <time>2010-12-30T12:39:09Z</time>
      </trkpt>
      <trkpt lat="43.75694" lon="4.87488">
        <ele>263.057861</ele>
        <time>2010-12-30T12:39:14Z</time>
      </trkpt>
      <trkpt lat="43.75696" lon="4.87488">
        <ele>263.057861</ele>
        <time>2010-12-30T12:39:17Z</time>
      </trkpt>
      <trkpt lat="43.75709" lon="4.87486">
        <ele>262.577148</ele>
        <time>2010-12-30T12:39:28Z</time>
      </trkpt>
      <trkpt lat="43.75715" lon="4.87484">
        <ele>263.057861</ele>
        <time>2010-12-30T12:39:33Z</time>
      </trkpt>
      <trkpt lat="43.75726" lon="4.8748">
        <ele>262.577148</ele>
        <time>2010-12-30T12:39:43Z</time>
      </trkpt>
      <trkpt lat="43.75728" lon="4.8748">
        <ele>262.577148</ele>
        <time>2010-12-30T12:39:45Z</time>
      </trkpt>
      <trkpt lat="43.75734" lon="4.87484">
        <ele>261.135254</ele>
        <time>2010-12-30T12:39:51Z</time>
      </trkpt>
      <trkpt lat="43.75737" lon="4.8749">
        <ele>259.693359</ele>
        <time>2010-12-30T12:39:57Z</time>
      </trkpt>
      <trkpt lat="43.75734" lon="4.87497">
        <ele>257.770752</ele>
        <time>2010-12-30T12:40:04Z</time>
      </trkpt>
      <trkpt lat="43.75732" lon="4.87503">
        <ele>257.770752</ele>
        <time>2010-12-30T12:40:08Z</time>
      </trkpt>
      <trkpt lat="43.75726" lon="4.87518">
        <ele>258.251343</ele>
        <time>2010-12-30T12:40:20Z</time>
      </trkpt>
      <trkpt lat="43.75722" lon="4.87525">
        <ele>258.251343</ele>
        <time>2010-12-30T12:40:26Z</time>
      </trkpt>
      <trkpt lat="43.75719" lon="4.87531">
        <ele>258.731934</ele>
        <time>2010-12-30T12:40:31Z</time>
      </trkpt>
      <trkpt lat="43.75713" lon="4.87551">
        <ele>257.290039</ele>
        <time>2010-12-30T12:40:45Z</time>
      </trkpt>
      <trkpt lat="43.75713" lon="4.87557">
        <ele>257.290039</ele>
        <time>2010-12-30T12:40:48Z</time>
      </trkpt>
      <trkpt lat="43.75711" lon="4.87563">
        <ele>257.770752</ele>
        <time>2010-12-30T12:40:53Z</time>
      </trkpt>
      <trkpt lat="43.75704" lon="4.87585">
        <ele>256.328735</ele>
        <time>2010-12-30T12:41:07Z</time>
      </trkpt>
      <trkpt lat="43.75702" lon="4.87591">
        <ele>255.36731</ele>
        <time>2010-12-30T12:41:12Z</time>
      </trkpt>
      <trkpt lat="43.757" lon="4.87598">
        <ele>254.886597</ele>
        <time>2010-12-30T12:41:16Z</time>
      </trkpt>
      <trkpt lat="43.75698" lon="4.876">
        <ele>253.925415</ele>
        <time>2010-12-30T12:41:18Z</time>
      </trkpt>
      <trkpt lat="43.75689" lon="4.87617">
        <ele>253.925415</ele>
        <time>2010-12-30T12:41:31Z</time>
      </trkpt>
      <trkpt lat="43.75689" lon="4.87617">
        <ele>253.925415</ele>
        <time>2010-12-30T12:41:32Z</time>
      </trkpt>
      <trkpt lat="43.75685" lon="4.87626">
        <ele>253.925415</ele>
        <time>2010-12-30T12:41:39Z</time>
      </trkpt>
      <trkpt lat="43.75683" lon="4.87628">
        <ele>253.925415</ele>
        <time>2010-12-30T12:41:41Z</time>
      </trkpt>
      <trkpt lat="43.75672" lon="4.87643">
        <ele>252.963989</ele>
        <time>2010-12-30T12:41:55Z</time>
      </trkpt>
      <trkpt lat="43.75666" lon="4.87658">
        <ele>250.560791</ele>
        <time>2010-12-30T12:42:06Z</time>
      </trkpt>
      <trkpt lat="43.75664" lon="4.87677">
        <ele>250.0802</ele>
        <time>2010-12-30T12:42:18Z</time>
      </trkpt>
      <trkpt lat="43.75668" lon="4.87694">
        <ele>249.599487</ele>
        <time>2010-12-30T12:42:30Z</time>
      </trkpt>
      <trkpt lat="43.75666" lon="4.87703">
        <ele>248.157593</ele>
        <time>2010-12-30T12:42:36Z</time>
      </trkpt>
      <trkpt lat="43.75664" lon="4.87707">
        <ele>249.118774</ele>
        <time>2010-12-30T12:42:41Z</time>
      </trkpt>
      <trkpt lat="43.75651" lon="4.87714">
        <ele>249.599487</ele>
        <time>2010-12-30T12:42:53Z</time>
      </trkpt>
      <trkpt lat="43.75636" lon="4.87718">
        <ele>250.0802</ele>
        <time>2010-12-30T12:43:06Z</time>
      </trkpt>
      <trkpt lat="43.75629" lon="4.8772">
        <ele>250.0802</ele>
        <time>2010-12-30T12:43:12Z</time>
      </trkpt>
      <trkpt lat="43.75616" lon="4.87726">
        <ele>249.118774</ele>
        <time>2010-12-30T12:43:25Z</time>
      </trkpt>
      <trkpt lat="43.7561" lon="4.87726">
        <ele>248.638184</ele>
        <time>2010-12-30T12:43:32Z</time>
      </trkpt>
      <trkpt lat="43.75595" lon="4.87724">
        <ele>249.118774</ele>
        <time>2010-12-30T12:43:45Z</time>
      </trkpt>
      <trkpt lat="43.75578" lon="4.87718">
        <ele>250.0802</ele>
        <time>2010-12-30T12:44:00Z</time>
      </trkpt>
      <trkpt lat="43.75561" lon="4.87718">
        <ele>249.599487</ele>
        <time>2010-12-30T12:44:15Z</time>
      </trkpt>
      <trkpt lat="43.75552" lon="4.87735">
        <ele>248.638184</ele>
        <time>2010-12-30T12:44:29Z</time>
      </trkpt>
      <trkpt lat="43.75546" lon="4.87754">
        <ele>250.0802</ele>
        <time>2010-12-30T12:44:43Z</time>
      </trkpt>
      <trkpt lat="43.75543" lon="4.87772">
        <ele>250.0802</ele>
        <time>2010-12-30T12:44:54Z</time>
      </trkpt>
      <trkpt lat="43.75541" lon="4.87774">
        <ele>250.0802</ele>
        <time>2010-12-30T12:44:56Z</time>
      </trkpt>
      <trkpt lat="43.75539" lon="4.87791">
        <ele>252.002808</ele>
        <time>2010-12-30T12:45:07Z</time>
      </trkpt>
      <trkpt lat="43.75537" lon="4.87806">
        <ele>254.406006</ele>
        <time>2010-12-30T12:45:17Z</time>
      </trkpt>
      <trkpt lat="43.75537" lon="4.87827">
        <ele>256.328735</ele>
        <time>2010-12-30T12:45:30Z</time>
      </trkpt>
      <trkpt lat="43.75541" lon="4.87847">
        <ele>254.886597</ele>
        <time>2010-12-30T12:45:43Z</time>
      </trkpt>
      <trkpt lat="43.75541" lon="4.87857">
        <ele>254.886597</ele>
        <time>2010-12-30T12:45:49Z</time>
      </trkpt>
      <trkpt lat="43.75543" lon="4.87872">
        <ele>253.925415</ele>
        <time>2010-12-30T12:45:58Z</time>
      </trkpt>
      <trkpt lat="43.75543" lon="4.87877">
        <ele>254.406006</ele>
        <time>2010-12-30T12:46:02Z</time>
      </trkpt>
      <trkpt lat="43.75546" lon="4.87881">
        <ele>254.406006</ele>
        <time>2010-12-30T12:46:04Z</time>
      </trkpt>
      <trkpt lat="43.75546" lon="4.879">
        <ele>256.809326</ele>
        <time>2010-12-30T12:46:18Z</time>
      </trkpt>
      <trkpt lat="43.75546" lon="4.87902">
        <ele>256.809326</ele>
        <time>2010-12-30T12:46:19Z</time>
      </trkpt>
      <trkpt lat="43.75541" lon="4.87905">
        <ele>256.328735</ele>
        <time>2010-12-30T12:46:24Z</time>
      </trkpt>
      <trkpt lat="43.75539" lon="4.87907">
        <ele>255.36731</ele>
        <time>2010-12-30T12:46:28Z</time>
      </trkpt>
      <trkpt lat="43.75533" lon="4.87905">
        <ele>254.886597</ele>
        <time>2010-12-30T12:46:36Z</time>
      </trkpt>
      <trkpt lat="43.75533" lon="4.87902">
        <ele>254.886597</ele>
        <time>2010-12-30T12:46:38Z</time>
      </trkpt>
      <trkpt lat="43.75528" lon="4.87887">
        <ele>254.406006</ele>
        <time>2010-12-30T12:46:50Z</time>
      </trkpt>
      <trkpt lat="43.75522" lon="4.8787">
        <ele>254.886597</ele>
        <time>2010-12-30T12:47:02Z</time>
      </trkpt>
      <trkpt lat="43.7552" lon="4.87866">
        <ele>255.36731</ele>
        <time>2010-12-30T12:47:06Z</time>
      </trkpt>
      <trkpt lat="43.75518" lon="4.8786">
        <ele>255.36731</ele>
        <time>2010-12-30T12:47:12Z</time>
      </trkpt>
      <trkpt lat="43.75516" lon="4.87855">
        <ele>255.848022</ele>
        <time>2010-12-30T12:47:14Z</time>
      </trkpt>
      <trkpt lat="43.75511" lon="4.87842">
        <ele>256.328735</ele>
        <time>2010-12-30T12:47:26Z</time>
      </trkpt>
      <trkpt lat="43.75507" lon="4.87834">
        <ele>256.328735</ele>
        <time>2010-12-30T12:47:33Z</time>
      </trkpt>
      <trkpt lat="43.75498" lon="4.87814">
        <ele>258.731934</ele>
        <time>2010-12-30T12:47:48Z</time>
      </trkpt>
      <trkpt lat="43.75494" lon="4.87797">
        <ele>260.654541</ele>
        <time>2010-12-30T12:48:02Z</time>
      </trkpt>
      <trkpt lat="43.7549" lon="4.87789">
        <ele>261.615967</ele>
        <time>2010-12-30T12:48:10Z</time>
      </trkpt>
      <trkpt lat="43.75481" lon="4.87774">
        <ele>263.057861</ele>
        <time>2010-12-30T12:48:24Z</time>
      </trkpt>
      <trkpt lat="43.75468" lon="4.87767">
        <ele>264.499878</ele>
        <time>2010-12-30T12:48:37Z</time>
      </trkpt>
      <trkpt lat="43.75462" lon="4.87776">
        <ele>264.499878</ele>
        <time>2010-12-30T12:48:46Z</time>
      </trkpt>
      <trkpt lat="43.75458" lon="4.87789">
        <ele>264.499878</ele>
        <time>2010-12-30T12:48:56Z</time>
      </trkpt>
      <trkpt lat="43.75453" lon="4.87802">
        <ele>266.422485</ele>
        <time>2010-12-30T12:49:06Z</time>
      </trkpt>
      <trkpt lat="43.75453" lon="4.87804">
        <ele>266.422485</ele>
        <time>2010-12-30T12:49:08Z</time>
      </trkpt>
      <trkpt lat="43.75451" lon="4.87823">
        <ele>268.345093</ele>
        <time>2010-12-30T12:49:20Z</time>
      </trkpt>
      <trkpt lat="43.75451" lon="4.87834">
        <ele>267.864502</ele>
        <time>2010-12-30T12:49:27Z</time>
      </trkpt>
      <trkpt lat="43.75451" lon="4.87847">
        <ele>269.787109</ele>
        <time>2010-12-30T12:49:36Z</time>
      </trkpt>
      <trkpt lat="43.75451" lon="4.87851">
        <ele>270.2677</ele>
        <time>2010-12-30T12:49:38Z</time>
      </trkpt>
      <trkpt lat="43.75451" lon="4.87853">
        <ele>270.2677</ele>
        <time>2010-12-30T12:49:40Z</time>
      </trkpt>
      <trkpt lat="43.75451" lon="4.87855">
        <ele>270.748413</ele>
        <time>2010-12-30T12:49:42Z</time>
      </trkpt>
      <trkpt lat="43.75453" lon="4.87872">
        <ele>269.306519</ele>
        <time>2010-12-30T12:49:53Z</time>
      </trkpt>
      <trkpt lat="43.75455" lon="4.87887">
        <ele>267.864502</ele>
        <time>2010-12-30T12:50:03Z</time>
      </trkpt>
      <trkpt lat="43.75455" lon="4.87892">
        <ele>267.383911</ele>
        <time>2010-12-30T12:50:06Z</time>
      </trkpt>
      <trkpt lat="43.75455" lon="4.87896">
        <ele>267.383911</ele>
        <time>2010-12-30T12:50:08Z</time>
      </trkpt>
      <trkpt lat="43.75455" lon="4.879">
        <ele>266.903198</ele>
        <time>2010-12-30T12:50:11Z</time>
      </trkpt>
      <trkpt lat="43.75455" lon="4.87907">
        <ele>266.903198</ele>
        <time>2010-12-30T12:50:16Z</time>
      </trkpt>
      <trkpt lat="43.75449" lon="4.87915">
        <ele>265.941895</ele>
        <time>2010-12-30T12:50:24Z</time>
      </trkpt>
      <trkpt lat="43.75443" lon="4.87924">
        <ele>267.383911</ele>
        <time>2010-12-30T12:50:35Z</time>
      </trkpt>
      <trkpt lat="43.75438" lon="4.87941">
        <ele>268.825806</ele>
        <time>2010-12-30T12:50:47Z</time>
      </trkpt>
      <trkpt lat="43.75438" lon="4.87943">
        <ele>268.825806</ele>
        <time>2010-12-30T12:50:49Z</time>
      </trkpt>
      <trkpt lat="43.75438" lon="4.87952">
        <ele>268.345093</ele>
        <time>2010-12-30T12:50:54Z</time>
      </trkpt>
      <trkpt lat="43.75436" lon="4.8796">
        <ele>268.825806</ele>
        <time>2010-12-30T12:51:00Z</time>
      </trkpt>
      <trkpt lat="43.75432" lon="4.87982">
        <ele>269.306519</ele>
        <time>2010-12-30T12:51:15Z</time>
      </trkpt>
      <trkpt lat="43.75432" lon="4.87984">
        <ele>269.306519</ele>
        <time>2010-12-30T12:51:17Z</time>
      </trkpt>
      <trkpt lat="43.75432" lon="4.87988">
        <ele>269.787109</ele>
        <time>2010-12-30T12:51:20Z</time>
      </trkpt>
      <trkpt lat="43.7543" lon="4.87997">
        <ele>270.748413</ele>
        <time>2010-12-30T12:51:27Z</time>
      </trkpt>
      <trkpt lat="43.7543" lon="4.88001">
        <ele>270.748413</ele>
        <time>2010-12-30T12:51:29Z</time>
      </trkpt>
      <trkpt lat="43.75425" lon="4.88014">
        <ele>270.748413</ele>
        <time>2010-12-30T12:51:41Z</time>
      </trkpt>
      <trkpt lat="43.75417" lon="4.8802">
        <ele>269.787109</ele>
        <time>2010-12-30T12:51:53Z</time>
      </trkpt>
      <trkpt lat="43.75415" lon="4.8802">
        <ele>269.787109</ele>
        <time>2010-12-30T12:51:55Z</time>
      </trkpt>
      <trkpt lat="43.75408" lon="4.88023">
        <ele>271.709717</ele>
        <time>2010-12-30T12:52:01Z</time>
      </trkpt>
      <trkpt lat="43.75406" lon="4.88023">
        <ele>271.709717</ele>
        <time>2010-12-30T12:52:04Z</time>
      </trkpt>
      <trkpt lat="43.75395" lon="4.88031">
        <ele>272.19043</ele>
        <time>2010-12-30T12:52:16Z</time>
      </trkpt>
      <trkpt lat="43.75389" lon="4.88042">
        <ele>272.671143</ele>
        <time>2010-12-30T12:52:26Z</time>
      </trkpt>
      <trkpt lat="43.75385" lon="4.88057">
        <ele>274.113037</ele>
        <time>2010-12-30T12:52:38Z</time>
      </trkpt>
      <trkpt lat="43.75385" lon="4.88059">
        <ele>274.59375</ele>
        <time>2010-12-30T12:52:40Z</time>
      </trkpt>
      <trkpt lat="43.75385" lon="4.88066">
        <ele>274.59375</ele>
        <time>2010-12-30T12:52:44Z</time>
      </trkpt>
      <trkpt lat="43.75385" lon="4.88085">
        <ele>275.555054</ele>
        <time>2010-12-30T12:52:57Z</time>
      </trkpt>
      <trkpt lat="43.7538" lon="4.88102">
        <ele>278.438965</ele>
        <time>2010-12-30T12:53:10Z</time>
      </trkpt>
      <trkpt lat="43.75378" lon="4.88102">
        <ele>278.919678</ele>
        <time>2010-12-30T12:53:13Z</time>
      </trkpt>
      <trkpt lat="43.75376" lon="4.88104">
        <ele>279.880859</ele>
        <time>2010-12-30T12:53:16Z</time>
      </trkpt>
      <trkpt lat="43.75374" lon="4.88104">
        <ele>280.842407</ele>
        <time>2010-12-30T12:53:19Z</time>
      </trkpt>
      <trkpt lat="43.7537" lon="4.88102">
        <ele>280.842407</ele>
        <time>2010-12-30T12:53:23Z</time>
      </trkpt>
      <trkpt lat="43.75367" lon="4.88096">
        <ele>280.361694</ele>
        <time>2010-12-30T12:53:28Z</time>
      </trkpt>
      <trkpt lat="43.75365" lon="4.88093">
        <ele>279.880859</ele>
        <time>2010-12-30T12:53:30Z</time>
      </trkpt>
      <trkpt lat="43.75365" lon="4.88089">
        <ele>280.361694</ele>
        <time>2010-12-30T12:53:34Z</time>
      </trkpt>
      <trkpt lat="43.75361" lon="4.88078">
        <ele>280.361694</ele>
        <time>2010-12-30T12:53:40Z</time>
      </trkpt>
      <trkpt lat="43.75359" lon="4.8807">
        <ele>280.842407</ele>
        <time>2010-12-30T12:53:47Z</time>
      </trkpt>
      <trkpt lat="43.75357" lon="4.88068">
        <ele>280.361694</ele>
        <time>2010-12-30T12:53:50Z</time>
      </trkpt>
      <trkpt lat="43.75355" lon="4.88059">
        <ele>280.361694</ele>
        <time>2010-12-30T12:53:56Z</time>
      </trkpt>
      <trkpt lat="43.75352" lon="4.88051">
        <ele>280.842407</ele>
        <time>2010-12-30T12:54:02Z</time>
      </trkpt>
      <trkpt lat="43.75348" lon="4.88035">
        <ele>281.322998</ele>
        <time>2010-12-30T12:54:12Z</time>
      </trkpt>
      <trkpt lat="43.75346" lon="4.88031">
        <ele>281.803589</ele>
        <time>2010-12-30T12:54:15Z</time>
      </trkpt>
      <trkpt lat="43.75346" lon="4.88029">
        <ele>281.803589</ele>
        <time>2010-12-30T12:54:18Z</time>
      </trkpt>
      <trkpt lat="43.75344" lon="4.88014">
        <ele>283.245605</ele>
        <time>2010-12-30T12:54:29Z</time>
      </trkpt>
      <trkpt lat="43.75342" lon="4.87997">
        <ele>284.687622</ele>
        <time>2010-12-30T12:54:43Z</time>
      </trkpt>
      <trkpt lat="43.7534" lon="4.8799">
        <ele>285.168213</ele>
        <time>2010-12-30T12:54:48Z</time>
      </trkpt>
      <trkpt lat="43.75329" lon="4.87978">
        <ele>285.648804</ele>
        <time>2010-12-30T12:55:00Z</time>
      </trkpt>
      <trkpt lat="43.75329" lon="4.87978">
        <ele>285.168213</ele>
        <time>2010-12-30T12:55:02Z</time>
      </trkpt>
      <trkpt lat="43.75327" lon="4.87975">
        <ele>285.168213</ele>
        <time>2010-12-30T12:55:04Z</time>
      </trkpt>
      <trkpt lat="43.75322" lon="4.87978">
        <ele>284.206909</ele>
        <time>2010-12-30T12:55:08Z</time>
      </trkpt>
      <trkpt lat="43.7531" lon="4.87975">
        <ele>283.245605</ele>
        <time>2010-12-30T12:55:20Z</time>
      </trkpt>
      <trkpt lat="43.75301" lon="4.87975">
        <ele>283.245605</ele>
        <time>2010-12-30T12:55:27Z</time>
      </trkpt>
      <trkpt lat="43.75288" lon="4.87975">
        <ele>281.803589</ele>
        <time>2010-12-30T12:55:39Z</time>
      </trkpt>
      <trkpt lat="43.75284" lon="4.87973">
        <ele>280.361694</ele>
        <time>2010-12-30T12:55:45Z</time>
      </trkpt>
      <trkpt lat="43.75275" lon="4.8796">
        <ele>276.516357</ele>
        <time>2010-12-30T12:55:58Z</time>
      </trkpt>
      <trkpt lat="43.75267" lon="4.8796">
        <ele>275.555054</ele>
        <time>2010-12-30T12:56:09Z</time>
      </trkpt>
      <trkpt lat="43.75267" lon="4.8796">
        <ele>275.074463</ele>
        <time>2010-12-30T12:56:11Z</time>
      </trkpt>
      <trkpt lat="43.75256" lon="4.87965">
        <ele>275.074463</ele>
        <time>2010-12-30T12:56:22Z</time>
      </trkpt>
      <trkpt lat="43.75245" lon="4.87978">
        <ele>273.632446</ele>
        <time>2010-12-30T12:56:35Z</time>
      </trkpt>
      <trkpt lat="43.75239" lon="4.87986">
        <ele>273.632446</ele>
        <time>2010-12-30T12:56:41Z</time>
      </trkpt>
      <trkpt lat="43.75234" lon="4.8799">
        <ele>274.113037</ele>
        <time>2010-12-30T12:56:47Z</time>
      </trkpt>
      <trkpt lat="43.75226" lon="4.88003">
        <ele>274.113037</ele>
        <time>2010-12-30T12:56:58Z</time>
      </trkpt>
      <trkpt lat="43.75226" lon="4.88014">
        <ele>273.632446</ele>
        <time>2010-12-30T12:57:05Z</time>
      </trkpt>
      <trkpt lat="43.75226" lon="4.88031">
        <ele>275.555054</ele>
        <time>2010-12-30T12:57:18Z</time>
      </trkpt>
      <trkpt lat="43.75226" lon="4.88033">
        <ele>275.074463</ele>
        <time>2010-12-30T12:57:20Z</time>
      </trkpt>
      <trkpt lat="43.75224" lon="4.88051">
        <ele>276.99707</ele>
        <time>2010-12-30T12:57:32Z</time>
      </trkpt>
      <trkpt lat="43.75222" lon="4.88057">
        <ele>277.958252</ele>
        <time>2010-12-30T12:57:40Z</time>
      </trkpt>
      <trkpt lat="43.75215" lon="4.88061">
        <ele>281.322998</ele>
        <time>2010-12-30T12:57:51Z</time>
      </trkpt>
      <trkpt lat="43.75211" lon="4.88061">
        <ele>281.803589</ele>
        <time>2010-12-30T12:57:54Z</time>
      </trkpt>
      <trkpt lat="43.75207" lon="4.88066">
        <ele>282.765015</ele>
        <time>2010-12-30T12:58:00Z</time>
      </trkpt>
      <trkpt lat="43.75194" lon="4.88063">
        <ele>282.284302</ele>
        <time>2010-12-30T12:58:14Z</time>
      </trkpt>
      <trkpt lat="43.75189" lon="4.88057">
        <ele>281.803589</ele>
        <time>2010-12-30T12:58:21Z</time>
      </trkpt>
      <trkpt lat="43.75181" lon="4.88051">
        <ele>281.322998</ele>
        <time>2010-12-30T12:58:30Z</time>
      </trkpt>
      <trkpt lat="43.75172" lon="4.8804">
        <ele>282.284302</ele>
        <time>2010-12-30T12:58:42Z</time>
      </trkpt>
      <trkpt lat="43.75164" lon="4.88033">
        <ele>281.803589</ele>
        <time>2010-12-30T12:58:51Z</time>
      </trkpt>
      <trkpt lat="43.75151" lon="4.88025">
        <ele>281.803589</ele>
        <time>2010-12-30T12:59:03Z</time>
      </trkpt>
      <trkpt lat="43.7514" lon="4.88016">
        <ele>280.361694</ele>
        <time>2010-12-30T12:59:14Z</time>
      </trkpt>
      <trkpt lat="43.75129" lon="4.8801">
        <ele>281.322998</ele>
        <time>2010-12-30T12:59:26Z</time>
      </trkpt>
      <trkpt lat="43.75125" lon="4.88008">
        <ele>281.322998</ele>
        <time>2010-12-30T12:59:31Z</time>
      </trkpt>
      <trkpt lat="43.75116" lon="4.88008">
        <ele>280.842407</ele>
        <time>2010-12-30T12:59:37Z</time>
      </trkpt>
      <trkpt lat="43.75104" lon="4.88016">
        <ele>280.361694</ele>
        <time>2010-12-30T12:59:49Z</time>
      </trkpt>
      <trkpt lat="43.75099" lon="4.88018">
        <ele>280.361694</ele>
        <time>2010-12-30T12:59:53Z</time>
      </trkpt>
      <trkpt lat="43.75084" lon="4.88025">
        <ele>278.919678</ele>
        <time>2010-12-30T13:00:04Z</time>
      </trkpt>
      <trkpt lat="43.75071" lon="4.88033">
        <ele>278.919678</ele>
        <time>2010-12-30T13:00:18Z</time>
      </trkpt>
      <trkpt lat="43.75054" lon="4.8804">
        <ele>279.880859</ele>
        <time>2010-12-30T13:00:33Z</time>
      </trkpt>
      <trkpt lat="43.75046" lon="4.88053">
        <ele>278.919678</ele>
        <time>2010-12-30T13:00:45Z</time>
      </trkpt>
      <trkpt lat="43.75046" lon="4.88057">
        <ele>277.958252</ele>
        <time>2010-12-30T13:00:49Z</time>
      </trkpt>
      <trkpt lat="43.75046" lon="4.88068">
        <ele>276.99707</ele>
        <time>2010-12-30T13:00:56Z</time>
      </trkpt>
      <trkpt lat="43.75052" lon="4.88083">
        <ele>277.477661</ele>
        <time>2010-12-30T13:01:07Z</time>
      </trkpt>
      <trkpt lat="43.75063" lon="4.88096">
        <ele>277.958252</ele>
        <time>2010-12-30T13:01:18Z</time>
      </trkpt>
      <trkpt lat="43.75076" lon="4.88113">
        <ele>279.400269</ele>
        <time>2010-12-30T13:01:34Z</time>
      </trkpt>
      <trkpt lat="43.7508" lon="4.88119">
        <ele>279.400269</ele>
        <time>2010-12-30T13:01:44Z</time>
      </trkpt>
      <trkpt lat="43.75086" lon="4.88123">
        <ele>278.919678</ele>
        <time>2010-12-30T13:01:54Z</time>
      </trkpt>
      <trkpt lat="43.75091" lon="4.8813">
        <ele>278.438965</ele>
        <time>2010-12-30T13:01:59Z</time>
      </trkpt>
      <trkpt lat="43.75093" lon="4.88132">
        <ele>277.958252</ele>
        <time>2010-12-30T13:02:04Z</time>
      </trkpt>
      <trkpt lat="43.75095" lon="4.88132">
        <ele>277.958252</ele>
        <time>2010-12-30T13:02:06Z</time>
      </trkpt>
      <trkpt lat="43.75108" lon="4.88145">
        <ele>277.958252</ele>
        <time>2010-12-30T13:02:21Z</time>
      </trkpt>
      <trkpt lat="43.75114" lon="4.88149">
        <ele>277.958252</ele>
        <time>2010-12-30T13:02:33Z</time>
      </trkpt>
      <trkpt lat="43.75127" lon="4.88151">
        <ele>278.438965</ele>
        <time>2010-12-30T13:02:51Z</time>
      </trkpt>
      <trkpt lat="43.75142" lon="4.88156">
        <ele>279.880859</ele>
        <time>2010-12-30T13:03:05Z</time>
      </trkpt>
      <trkpt lat="43.75149" lon="4.88158">
        <ele>280.842407</ele>
        <time>2010-12-30T13:03:12Z</time>
      </trkpt>
      <trkpt lat="43.75157" lon="4.88162">
        <ele>280.361694</ele>
        <time>2010-12-30T13:03:20Z</time>
      </trkpt>
      <trkpt lat="43.75159" lon="4.88171">
        <ele>279.400269</ele>
        <time>2010-12-30T13:03:27Z</time>
      </trkpt>
      <trkpt lat="43.75157" lon="4.88177">
        <ele>279.880859</ele>
        <time>2010-12-30T13:03:32Z</time>
      </trkpt>
      <trkpt lat="43.75153" lon="4.88179">
        <ele>279.880859</ele>
        <time>2010-12-30T13:03:38Z</time>
      </trkpt>
      <trkpt lat="43.7514" lon="4.88186">
        <ele>278.919678</ele>
        <time>2010-12-30T13:03:51Z</time>
      </trkpt>
      <trkpt lat="43.75134" lon="4.88188">
        <ele>277.477661</ele>
        <time>2010-12-30T13:04:16Z</time>
      </trkpt>
      <trkpt lat="43.75119" lon="4.8819">
        <ele>275.555054</ele>
        <time>2010-12-30T13:04:30Z</time>
      </trkpt>
      <trkpt lat="43.75116" lon="4.8819">
        <ele>275.555054</ele>
        <time>2010-12-30T13:04:31Z</time>
      </trkpt>
      <trkpt lat="43.75112" lon="4.88192">
        <ele>275.074463</ele>
        <time>2010-12-30T13:04:36Z</time>
      </trkpt>
      <trkpt lat="43.75101" lon="4.88199">
        <ele>274.113037</ele>
        <time>2010-12-30T13:04:47Z</time>
      </trkpt>
      <trkpt lat="43.75091" lon="4.88205">
        <ele>274.113037</ele>
        <time>2010-12-30T13:04:57Z</time>
      </trkpt>
      <trkpt lat="43.75084" lon="4.88218">
        <ele>274.113037</ele>
        <time>2010-12-30T13:05:07Z</time>
      </trkpt>
      <trkpt lat="43.75071" lon="4.88226">
        <ele>273.632446</ele>
        <time>2010-12-30T13:05:20Z</time>
      </trkpt>
      <trkpt lat="43.75063" lon="4.88218">
        <ele>272.671143</ele>
        <time>2010-12-30T13:05:31Z</time>
      </trkpt>
      <trkpt lat="43.75061" lon="4.88216">
        <ele>272.671143</ele>
        <time>2010-12-30T13:05:35Z</time>
      </trkpt>
      <trkpt lat="43.75046" lon="4.88205">
        <ele>273.632446</ele>
        <time>2010-12-30T13:05:49Z</time>
      </trkpt>
      <trkpt lat="43.75031" lon="4.88201">
        <ele>273.151855</ele>
        <time>2010-12-30T13:06:02Z</time>
      </trkpt>
      <trkpt lat="43.75026" lon="4.88201">
        <ele>273.151855</ele>
        <time>2010-12-30T13:06:06Z</time>
      </trkpt>
      <trkpt lat="43.75022" lon="4.88201">
        <ele>272.671143</ele>
        <time>2010-12-30T13:06:10Z</time>
      </trkpt>
      <trkpt lat="43.75018" lon="4.88201">
        <ele>272.671143</ele>
        <time>2010-12-30T13:06:14Z</time>
      </trkpt>
      <trkpt lat="43.75013" lon="4.88201">
        <ele>272.19043</ele>
        <time>2010-12-30T13:06:18Z</time>
      </trkpt>
      <trkpt lat="43.75013" lon="4.88203">
        <ele>272.19043</ele>
        <time>2010-12-30T13:06:20Z</time>
      </trkpt>
      <trkpt lat="43.75003" lon="4.88203">
        <ele>271.709717</ele>
        <time>2010-12-30T13:06:27Z</time>
      </trkpt>
      <trkpt lat="43.74988" lon="4.88209">
        <ele>271.229126</ele>
        <time>2010-12-30T13:06:40Z</time>
      </trkpt>
      <trkpt lat="43.74979" lon="4.88214">
        <ele>270.2677</ele>
        <time>2010-12-30T13:06:49Z</time>
      </trkpt>
      <trkpt lat="43.74975" lon="4.88218">
        <ele>270.2677</ele>
        <time>2010-12-30T13:06:54Z</time>
      </trkpt>
      <trkpt lat="43.74968" lon="4.88224">
        <ele>268.825806</ele>
        <time>2010-12-30T13:07:01Z</time>
      </trkpt>
      <trkpt lat="43.74958" lon="4.88237">
        <ele>267.864502</ele>
        <time>2010-12-30T13:07:13Z</time>
      </trkpt>
      <trkpt lat="43.74953" lon="4.88241">
        <ele>266.903198</ele>
        <time>2010-12-30T13:07:19Z</time>
      </trkpt>
      <trkpt lat="43.74951" lon="4.88248">
        <ele>265.941895</ele>
        <time>2010-12-30T13:07:23Z</time>
      </trkpt>
      <trkpt lat="43.74949" lon="4.88261">
        <ele>265.461304</ele>
        <time>2010-12-30T13:07:31Z</time>
      </trkpt>
      <trkpt lat="43.74943" lon="4.88269">
        <ele>264.499878</ele>
        <time>2010-12-30T13:07:38Z</time>
      </trkpt>
      <trkpt lat="43.74943" lon="4.88274">
        <ele>264.019287</ele>
        <time>2010-12-30T13:07:41Z</time>
      </trkpt>
      <trkpt lat="43.7494" lon="4.88278">
        <ele>263.538574</ele>
        <time>2010-12-30T13:07:44Z</time>
      </trkpt>
      <trkpt lat="43.74936" lon="4.88295">
        <ele>264.499878</ele>
        <time>2010-12-30T13:07:54Z</time>
      </trkpt>
      <trkpt lat="43.74936" lon="4.88297">
        <ele>264.019287</ele>
        <time>2010-12-30T13:07:56Z</time>
      </trkpt>
      <trkpt lat="43.74934" lon="4.88302">
        <ele>264.019287</ele>
        <time>2010-12-30T13:08:00Z</time>
      </trkpt>
      <trkpt lat="43.7493" lon="4.8831">
        <ele>264.019287</ele>
        <time>2010-12-30T13:08:06Z</time>
      </trkpt>
      <trkpt lat="43.74921" lon="4.88323">
        <ele>262.096558</ele>
        <time>2010-12-30T13:08:17Z</time>
      </trkpt>
      <trkpt lat="43.74913" lon="4.88336">
        <ele>260.654541</ele>
        <time>2010-12-30T13:08:29Z</time>
      </trkpt>
      <trkpt lat="43.74913" lon="4.88336">
        <ele>260.654541</ele>
        <time>2010-12-30T13:08:30Z</time>
      </trkpt>
      <trkpt lat="43.74908" lon="4.8834">
        <ele>259.212646</ele>
        <time>2010-12-30T13:08:35Z</time>
      </trkpt>
      <trkpt lat="43.74904" lon="4.88353">
        <ele>257.290039</ele>
        <time>2010-12-30T13:08:44Z</time>
      </trkpt>
      <trkpt lat="43.74908" lon="4.8837">
        <ele>256.328735</ele>
        <time>2010-12-30T13:08:55Z</time>
      </trkpt>
      <trkpt lat="43.74915" lon="4.88387">
        <ele>256.328735</ele>
        <time>2010-12-30T13:09:06Z</time>
      </trkpt>
      <trkpt lat="43.74915" lon="4.88387">
        <ele>256.328735</ele>
        <time>2010-12-30T13:09:07Z</time>
      </trkpt>
      <trkpt lat="43.74923" lon="4.88398">
        <ele>255.36731</ele>
        <time>2010-12-30T13:09:17Z</time>
      </trkpt>
      <trkpt lat="43.74928" lon="4.88411">
        <ele>255.848022</ele>
        <time>2010-12-30T13:09:28Z</time>
      </trkpt>
      <trkpt lat="43.7493" lon="4.88417">
        <ele>256.328735</ele>
        <time>2010-12-30T13:09:33Z</time>
      </trkpt>
      <trkpt lat="43.7493" lon="4.88422">
        <ele>256.809326</ele>
        <time>2010-12-30T13:09:37Z</time>
      </trkpt>
      <trkpt lat="43.74928" lon="4.88432">
        <ele>256.328735</ele>
        <time>2010-12-30T13:09:46Z</time>
      </trkpt>
      <trkpt lat="43.74928" lon="4.88439">
        <ele>256.328735</ele>
        <time>2010-12-30T13:09:50Z</time>
      </trkpt>
      <trkpt lat="43.7493" lon="4.88447">
        <ele>255.848022</ele>
        <time>2010-12-30T13:09:54Z</time>
      </trkpt>
      <trkpt lat="43.74925" lon="4.88471">
        <ele>252.483398</ele>
        <time>2010-12-30T13:10:10Z</time>
      </trkpt>
      <trkpt lat="43.74925" lon="4.88473">
        <ele>252.002808</ele>
        <time>2010-12-30T13:10:12Z</time>
      </trkpt>
      <trkpt lat="43.74925" lon="4.88486">
        <ele>251.041382</ele>
        <time>2010-12-30T13:10:19Z</time>
      </trkpt>
      <trkpt lat="43.74925" lon="4.8849">
        <ele>251.041382</ele>
        <time>2010-12-30T13:10:23Z</time>
      </trkpt>
      <trkpt lat="43.74923" lon="4.88501">
        <ele>250.560791</ele>
        <time>2010-12-30T13:10:30Z</time>
      </trkpt>
      <trkpt lat="43.7493" lon="4.8852">
        <ele>248.157593</ele>
        <time>2010-12-30T13:10:42Z</time>
      </trkpt>
      <trkpt lat="43.74938" lon="4.88535">
        <ele>248.638184</ele>
        <time>2010-12-30T13:10:55Z</time>
      </trkpt>
      <trkpt lat="43.7494" lon="4.88538">
        <ele>248.157593</ele>
        <time>2010-12-30T13:10:57Z</time>
      </trkpt>
      <trkpt lat="43.74949" lon="4.8855">
        <ele>248.638184</ele>
        <time>2010-12-30T13:11:09Z</time>
      </trkpt>
      <trkpt lat="43.74949" lon="4.88555">
        <ele>248.638184</ele>
        <time>2010-12-30T13:11:11Z</time>
      </trkpt>
      <trkpt lat="43.74951" lon="4.88557">
        <ele>249.118774</ele>
        <time>2010-12-30T13:11:13Z</time>
      </trkpt>
      <trkpt lat="43.74953" lon="4.88572">
        <ele>248.157593</ele>
        <time>2010-12-30T13:11:24Z</time>
      </trkpt>
      <trkpt lat="43.74953" lon="4.88576">
        <ele>248.157593</ele>
        <time>2010-12-30T13:11:27Z</time>
      </trkpt>
      <trkpt lat="43.74951" lon="4.88589">
        <ele>247.676758</ele>
        <time>2010-12-30T13:11:37Z</time>
      </trkpt>
      <trkpt lat="43.74947" lon="4.88596">
        <ele>248.157593</ele>
        <time>2010-12-30T13:11:43Z</time>
      </trkpt>
      <trkpt lat="43.74943" lon="4.88606">
        <ele>247.676758</ele>
        <time>2010-12-30T13:11:53Z</time>
      </trkpt>
      <trkpt lat="43.74943" lon="4.88606">
        <ele>247.676758</ele>
        <time>2010-12-30T13:11:54Z</time>
      </trkpt>
      <trkpt lat="43.7494" lon="4.88608">
        <ele>248.157593</ele>
        <time>2010-12-30T13:11:56Z</time>
      </trkpt>
      <trkpt lat="43.7494" lon="4.88611">
        <ele>248.157593</ele>
        <time>2010-12-30T13:11:58Z</time>
      </trkpt>
      <trkpt lat="43.74934" lon="4.88617">
        <ele>248.157593</ele>
        <time>2010-12-30T13:12:06Z</time>
      </trkpt>
      <trkpt lat="43.74932" lon="4.88619">
        <ele>247.676758</ele>
        <time>2010-12-30T13:12:08Z</time>
      </trkpt>
      <trkpt lat="43.74928" lon="4.88621">
        <ele>247.196045</ele>
        <time>2010-12-30T13:12:12Z</time>
      </trkpt>
      <trkpt lat="43.74928" lon="4.88623">
        <ele>247.196045</ele>
        <time>2010-12-30T13:12:14Z</time>
      </trkpt>
      <trkpt lat="43.74925" lon="4.88626">
        <ele>247.196045</ele>
        <time>2010-12-30T13:12:16Z</time>
      </trkpt>
      <trkpt lat="43.74923" lon="4.88628">
        <ele>247.196045</ele>
        <time>2010-12-30T13:12:18Z</time>
      </trkpt>
      <trkpt lat="43.74915" lon="4.88641">
        <ele>247.196045</ele>
        <time>2010-12-30T13:12:30Z</time>
      </trkpt>
      <trkpt lat="43.74913" lon="4.88647">
        <ele>247.676758</ele>
        <time>2010-12-30T13:12:35Z</time>
      </trkpt>
      <trkpt lat="43.74908" lon="4.88658">
        <ele>247.196045</ele>
        <time>2010-12-30T13:12:43Z</time>
      </trkpt>
      <trkpt lat="43.74906" lon="4.88662">
        <ele>247.196045</ele>
        <time>2010-12-30T13:12:46Z</time>
      </trkpt>
      <trkpt lat="43.74902" lon="4.88679">
        <ele>246.715454</ele>
        <time>2010-12-30T13:12:59Z</time>
      </trkpt>
      <trkpt lat="43.74902" lon="4.88701">
        <ele>248.157593</ele>
        <time>2010-12-30T13:13:13Z</time>
      </trkpt>
      <trkpt lat="43.74902" lon="4.88705">
        <ele>248.638184</ele>
        <time>2010-12-30T13:13:15Z</time>
      </trkpt>
      <trkpt lat="43.74904" lon="4.8872">
        <ele>248.638184</ele>
        <time>2010-12-30T13:13:25Z</time>
      </trkpt>
      <trkpt lat="43.74913" lon="4.88737">
        <ele>250.0802</ele>
        <time>2010-12-30T13:13:38Z</time>
      </trkpt>
      <trkpt lat="43.74915" lon="4.88741">
        <ele>250.0802</ele>
        <time>2010-12-30T13:13:42Z</time>
      </trkpt>
      <trkpt lat="43.74917" lon="4.88746">
        <ele>250.0802</ele>
        <time>2010-12-30T13:13:46Z</time>
      </trkpt>
      <trkpt lat="43.74921" lon="4.88763">
        <ele>250.560791</ele>
        <time>2010-12-30T13:13:58Z</time>
      </trkpt>
      <trkpt lat="43.74921" lon="4.88767">
        <ele>250.560791</ele>
        <time>2010-12-30T13:14:01Z</time>
      </trkpt>
      <trkpt lat="43.74921" lon="4.88771">
        <ele>249.599487</ele>
        <time>2010-12-30T13:14:04Z</time>
      </trkpt>
      <trkpt lat="43.74923" lon="4.88782">
        <ele>248.638184</ele>
        <time>2010-12-30T13:14:10Z</time>
      </trkpt>
      <trkpt lat="43.74928" lon="4.88799">
        <ele>245.273438</ele>
        <time>2010-12-30T13:14:22Z</time>
      </trkpt>
      <trkpt lat="43.7493" lon="4.8881">
        <ele>244.312256</ele>
        <time>2010-12-30T13:14:31Z</time>
      </trkpt>
      <trkpt lat="43.74932" lon="4.88814">
        <ele>245.273438</ele>
        <time>2010-12-30T13:14:34Z</time>
      </trkpt>
      <trkpt lat="43.74936" lon="4.88829">
        <ele>243.831543</ele>
        <time>2010-12-30T13:14:46Z</time>
      </trkpt>
      <trkpt lat="43.74938" lon="4.88836">
        <ele>243.35083</ele>
        <time>2010-12-30T13:14:50Z</time>
      </trkpt>
      <trkpt lat="43.7494" lon="4.88853">
        <ele>240.467041</ele>
        <time>2010-12-30T13:15:02Z</time>
      </trkpt>
      <trkpt lat="43.74943" lon="4.88857">
        <ele>240.467041</ele>
        <time>2010-12-30T13:15:06Z</time>
      </trkpt>
      <trkpt lat="43.74943" lon="4.88859">
        <ele>240.467041</ele>
        <time>2010-12-30T13:15:08Z</time>
      </trkpt>
      <trkpt lat="43.74945" lon="4.88868">
        <ele>239.505493</ele>
        <time>2010-12-30T13:15:14Z</time>
      </trkpt>
      <trkpt lat="43.74947" lon="4.88885">
        <ele>239.986206</ele>
        <time>2010-12-30T13:15:26Z</time>
      </trkpt>
      <trkpt lat="43.74947" lon="4.88885">
        <ele>239.986206</ele>
        <time>2010-12-30T13:15:27Z</time>
      </trkpt>
      <trkpt lat="43.74949" lon="4.88896">
        <ele>239.505493</ele>
        <time>2010-12-30T13:15:34Z</time>
      </trkpt>
      <trkpt lat="43.74949" lon="4.88905">
        <ele>239.505493</ele>
        <time>2010-12-30T13:15:40Z</time>
      </trkpt>
      <trkpt lat="43.74951" lon="4.88909">
        <ele>239.024902</ele>
        <time>2010-12-30T13:15:43Z</time>
      </trkpt>
      <trkpt lat="43.74951" lon="4.88922">
        <ele>235.179688</ele>
        <time>2010-12-30T13:15:53Z</time>
      </trkpt>
      <trkpt lat="43.74951" lon="4.88937">
        <ele>233.25708</ele>
        <time>2010-12-30T13:16:03Z</time>
      </trkpt>
      <trkpt lat="43.74953" lon="4.88939">
        <ele>232.295776</ele>
        <time>2010-12-30T13:16:05Z</time>
      </trkpt>
      <trkpt lat="43.74955" lon="4.8895">
        <ele>230.85376</ele>
        <time>2010-12-30T13:16:12Z</time>
      </trkpt>
      <trkpt lat="43.74955" lon="4.88965">
        <ele>229.892334</ele>
        <time>2010-12-30T13:16:21Z</time>
      </trkpt>
      <trkpt lat="43.7496" lon="4.88973">
        <ele>229.411743</ele>
        <time>2010-12-30T13:16:27Z</time>
      </trkpt>
      <trkpt lat="43.74962" lon="4.88977">
        <ele>228.450439</ele>
        <time>2010-12-30T13:16:32Z</time>
      </trkpt>
      <trkpt lat="43.74968" lon="4.88995">
        <ele>227.008545</ele>
        <time>2010-12-30T13:16:43Z</time>
      </trkpt>
      <trkpt lat="43.74973" lon="4.8901">
        <ele>226.047119</ele>
        <time>2010-12-30T13:16:53Z</time>
      </trkpt>
      <trkpt lat="43.74981" lon="4.89016">
        <ele>224.605225</ele>
        <time>2010-12-30T13:17:03Z</time>
      </trkpt>
      <trkpt lat="43.74988" lon="4.89025">
        <ele>223.163208</ele>
        <time>2010-12-30T13:17:10Z</time>
      </trkpt>
      <trkpt lat="43.74992" lon="4.89035">
        <ele>221.721191</ele>
        <time>2010-12-30T13:17:21Z</time>
      </trkpt>
      <trkpt lat="43.74994" lon="4.8904">
        <ele>221.240601</ele>
        <time>2010-12-30T13:17:24Z</time>
      </trkpt>
      <trkpt lat="43.74992" lon="4.89044">
        <ele>220.279175</ele>
        <time>2010-12-30T13:17:28Z</time>
      </trkpt>
      <trkpt lat="43.74988" lon="4.89046">
        <ele>219.798584</ele>
        <time>2010-12-30T13:17:33Z</time>
      </trkpt>
      <trkpt lat="43.74983" lon="4.8905">
        <ele>219.798584</ele>
        <time>2010-12-30T13:17:38Z</time>
      </trkpt>
      <trkpt lat="43.74981" lon="4.89057">
        <ele>219.798584</ele>
        <time>2010-12-30T13:17:50Z</time>
      </trkpt>
      <trkpt lat="43.7497" lon="4.89063">
        <ele>220.279175</ele>
        <time>2010-12-30T13:18:04Z</time>
      </trkpt>
      <trkpt lat="43.7496" lon="4.8907">
        <ele>221.721191</ele>
        <time>2010-12-30T13:18:15Z</time>
      </trkpt>
      <trkpt lat="43.74947" lon="4.89074">
        <ele>221.721191</ele>
        <time>2010-12-30T13:18:28Z</time>
      </trkpt>
      <trkpt lat="43.74945" lon="4.89074">
        <ele>221.240601</ele>
        <time>2010-12-30T13:18:31Z</time>
      </trkpt>
      <trkpt lat="43.74943" lon="4.89074">
        <ele>220.759888</ele>
        <time>2010-12-30T13:18:33Z</time>
      </trkpt>
      <trkpt lat="43.7493" lon="4.8907">
        <ele>220.759888</ele>
        <time>2010-12-30T13:18:45Z</time>
      </trkpt>
      <trkpt lat="43.7493" lon="4.8907">
        <ele>220.279175</ele>
        <time>2010-12-30T13:18:46Z</time>
      </trkpt>
      <trkpt lat="43.74919" lon="4.89063">
        <ele>219.317993</ele>
        <time>2010-12-30T13:18:56Z</time>
      </trkpt>
      <trkpt lat="43.74915" lon="4.89059">
        <ele>218.356567</ele>
        <time>2010-12-30T13:19:02Z</time>
      </trkpt>
      <trkpt lat="43.7491" lon="4.89055">
        <ele>217.875977</ele>
        <time>2010-12-30T13:19:06Z</time>
      </trkpt>
      <trkpt lat="43.74904" lon="4.89044">
        <ele>217.395386</ele>
        <time>2010-12-30T13:19:16Z</time>
      </trkpt>
      <trkpt lat="43.74889" lon="4.8904">
        <ele>218.356567</ele>
        <time>2010-12-30T13:19:28Z</time>
      </trkpt>
      <trkpt lat="43.74874" lon="4.89046">
        <ele>217.395386</ele>
        <time>2010-12-30T13:19:41Z</time>
      </trkpt>
      <trkpt lat="43.74867" lon="4.89048">
        <ele>215.953247</ele>
        <time>2010-12-30T13:19:48Z</time>
      </trkpt>
      <trkpt lat="43.74861" lon="4.89048">
        <ele>215.953247</ele>
        <time>2010-12-30T13:19:55Z</time>
      </trkpt>
      <trkpt lat="43.7485" lon="4.89046">
        <ele>217.395386</ele>
        <time>2010-12-30T13:20:06Z</time>
      </trkpt>
      <trkpt lat="43.74846" lon="4.89046">
        <ele>218.356567</ele>
        <time>2010-12-30T13:20:11Z</time>
      </trkpt>
      <trkpt lat="43.74837" lon="4.89042">
        <ele>219.798584</ele>
        <time>2010-12-30T13:20:20Z</time>
      </trkpt>
      <trkpt lat="43.74825" lon="4.89042">
        <ele>221.721191</ele>
        <time>2010-12-30T13:20:31Z</time>
      </trkpt>
      <trkpt lat="43.74807" lon="4.89055">
        <ele>219.798584</ele>
        <time>2010-12-30T13:20:46Z</time>
      </trkpt>
      <trkpt lat="43.74795" lon="4.89061">
        <ele>220.279175</ele>
        <time>2010-12-30T13:20:57Z</time>
      </trkpt>
      <trkpt lat="43.74782" lon="4.89072">
        <ele>220.279175</ele>
        <time>2010-12-30T13:21:11Z</time>
      </trkpt>
      <trkpt lat="43.74782" lon="4.89074">
        <ele>220.279175</ele>
        <time>2010-12-30T13:21:13Z</time>
      </trkpt>
      <trkpt lat="43.7478" lon="4.89076">
        <ele>220.279175</ele>
        <time>2010-12-30T13:21:15Z</time>
      </trkpt>
      <trkpt lat="43.7478" lon="4.89078">
        <ele>220.279175</ele>
        <time>2010-12-30T13:21:17Z</time>
      </trkpt>
      <trkpt lat="43.74777" lon="4.8908">
        <ele>220.759888</ele>
        <time>2010-12-30T13:21:19Z</time>
      </trkpt>
      <trkpt lat="43.74777" lon="4.89083">
        <ele>221.240601</ele>
        <time>2010-12-30T13:21:21Z</time>
      </trkpt>
      <trkpt lat="43.74771" lon="4.89093">
        <ele>221.721191</ele>
        <time>2010-12-30T13:21:31Z</time>
      </trkpt>
      <trkpt lat="43.74769" lon="4.89104">
        <ele>221.721191</ele>
        <time>2010-12-30T13:21:39Z</time>
      </trkpt>
      <trkpt lat="43.74762" lon="4.89119">
        <ele>222.682495</ele>
        <time>2010-12-30T13:21:49Z</time>
      </trkpt>
      <trkpt lat="43.74762" lon="4.89121">
        <ele>222.682495</ele>
        <time>2010-12-30T13:21:51Z</time>
      </trkpt>
      <trkpt lat="43.74762" lon="4.89126">
        <ele>223.163208</ele>
        <time>2010-12-30T13:21:53Z</time>
      </trkpt>
      <trkpt lat="43.7476" lon="4.89141">
        <ele>224.124512</ele>
        <time>2010-12-30T13:22:03Z</time>
      </trkpt>
      <trkpt lat="43.74758" lon="4.89147">
        <ele>223.163208</ele>
        <time>2010-12-30T13:22:08Z</time>
      </trkpt>
      <trkpt lat="43.7476" lon="4.89153">
        <ele>222.201782</ele>
        <time>2010-12-30T13:22:12Z</time>
      </trkpt>
      <trkpt lat="43.74762" lon="4.89164">
        <ele>222.682495</ele>
        <time>2010-12-30T13:22:23Z</time>
      </trkpt>
      <trkpt lat="43.74764" lon="4.89179">
        <ele>223.643799</ele>
        <time>2010-12-30T13:22:33Z</time>
      </trkpt>
      <trkpt lat="43.74764" lon="4.89181">
        <ele>224.124512</ele>
        <time>2010-12-30T13:22:34Z</time>
      </trkpt>
      <trkpt lat="43.74767" lon="4.89188">
        <ele>225.085938</ele>
        <time>2010-12-30T13:22:40Z</time>
      </trkpt>
      <trkpt lat="43.74773" lon="4.89207">
        <ele>225.566528</ele>
        <time>2010-12-30T13:22:53Z</time>
      </trkpt>
      <trkpt lat="43.74773" lon="4.89214">
        <ele>225.085938</ele>
        <time>2010-12-30T13:22:56Z</time>
      </trkpt>
      <trkpt lat="43.74775" lon="4.89224">
        <ele>223.643799</ele>
        <time>2010-12-30T13:23:05Z</time>
      </trkpt>
      <trkpt lat="43.74775" lon="4.89226">
        <ele>223.643799</ele>
        <time>2010-12-30T13:23:06Z</time>
      </trkpt>
      <trkpt lat="43.74775" lon="4.89233">
        <ele>224.124512</ele>
        <time>2010-12-30T13:23:11Z</time>
      </trkpt>
      <trkpt lat="43.74771" lon="4.89239">
        <ele>224.124512</ele>
        <time>2010-12-30T13:23:17Z</time>
      </trkpt>
      <trkpt lat="43.74764" lon="4.89252">
        <ele>224.124512</ele>
        <time>2010-12-30T13:23:30Z</time>
      </trkpt>
      <trkpt lat="43.74762" lon="4.89254">
        <ele>224.124512</ele>
        <time>2010-12-30T13:23:33Z</time>
      </trkpt>
      <trkpt lat="43.74756" lon="4.89259">
        <ele>223.643799</ele>
        <time>2010-12-30T13:23:42Z</time>
      </trkpt>
      <trkpt lat="43.74754" lon="4.89259">
        <ele>223.643799</ele>
        <time>2010-12-30T13:23:43Z</time>
      </trkpt>
      <trkpt lat="43.74749" lon="4.89256">
        <ele>223.643799</ele>
        <time>2010-12-30T13:23:48Z</time>
      </trkpt>
      <trkpt lat="43.74743" lon="4.8925">
        <ele>223.643799</ele>
        <time>2010-12-30T13:23:57Z</time>
      </trkpt>
      <trkpt lat="43.74737" lon="4.89248">
        <ele>224.124512</ele>
        <time>2010-12-30T13:24:02Z</time>
      </trkpt>
      <trkpt lat="43.74732" lon="4.89248">
        <ele>224.605225</ele>
        <time>2010-12-30T13:24:07Z</time>
      </trkpt>
      <trkpt lat="43.74722" lon="4.89261">
        <ele>224.124512</ele>
        <time>2010-12-30T13:24:18Z</time>
      </trkpt>
      <trkpt lat="43.74717" lon="4.89269">
        <ele>224.124512</ele>
        <time>2010-12-30T13:24:24Z</time>
      </trkpt>
      <trkpt lat="43.74704" lon="4.8928">
        <ele>225.085938</ele>
        <time>2010-12-30T13:24:37Z</time>
      </trkpt>
      <trkpt lat="43.74694" lon="4.89284">
        <ele>226.527832</ele>
        <time>2010-12-30T13:24:49Z</time>
      </trkpt>
      <trkpt lat="43.74692" lon="4.89286">
        <ele>227.008545</ele>
        <time>2010-12-30T13:24:52Z</time>
      </trkpt>
      <trkpt lat="43.74689" lon="4.89286">
        <ele>227.008545</ele>
        <time>2010-12-30T13:24:54Z</time>
      </trkpt>
      <trkpt lat="43.74677" lon="4.89293">
        <ele>227.008545</ele>
        <time>2010-12-30T13:25:07Z</time>
      </trkpt>
      <trkpt lat="43.74668" lon="4.89299">
        <ele>225.566528</ele>
        <time>2010-12-30T13:25:16Z</time>
      </trkpt>
      <trkpt lat="43.74666" lon="4.89301">
        <ele>225.566528</ele>
        <time>2010-12-30T13:25:18Z</time>
      </trkpt>
      <trkpt lat="43.74657" lon="4.89308">
        <ele>224.605225</ele>
        <time>2010-12-30T13:25:27Z</time>
      </trkpt>
      <trkpt lat="43.74655" lon="4.89312">
        <ele>224.605225</ele>
        <time>2010-12-30T13:25:29Z</time>
      </trkpt>
      <trkpt lat="43.74646" lon="4.89321">
        <ele>224.605225</ele>
        <time>2010-12-30T13:25:40Z</time>
      </trkpt>
      <trkpt lat="43.74644" lon="4.89323">
        <ele>225.085938</ele>
        <time>2010-12-30T13:25:42Z</time>
      </trkpt>
      <trkpt lat="43.74636" lon="4.89334">
        <ele>225.566528</ele>
        <time>2010-12-30T13:25:51Z</time>
      </trkpt>
      <trkpt lat="43.74636" lon="4.89336">
        <ele>226.047119</ele>
        <time>2010-12-30T13:25:53Z</time>
      </trkpt>
      <trkpt lat="43.74631" lon="4.89338">
        <ele>226.047119</ele>
        <time>2010-12-30T13:25:57Z</time>
      </trkpt>
      <trkpt lat="43.74627" lon="4.89344">
        <ele>225.566528</ele>
        <time>2010-12-30T13:26:04Z</time>
      </trkpt>
      <trkpt lat="43.74619" lon="4.89351">
        <ele>226.527832</ele>
        <time>2010-12-30T13:26:12Z</time>
      </trkpt>
      <trkpt lat="43.74614" lon="4.89353">
        <ele>226.527832</ele>
        <time>2010-12-30T13:26:16Z</time>
      </trkpt>
      <trkpt lat="43.74604" lon="4.89366">
        <ele>227.969727</ele>
        <time>2010-12-30T13:26:29Z</time>
      </trkpt>
      <trkpt lat="43.74599" lon="4.89374">
        <ele>227.969727</ele>
        <time>2010-12-30T13:26:36Z</time>
      </trkpt>
      <trkpt lat="43.74589" lon="4.89385">
        <ele>229.411743</ele>
        <time>2010-12-30T13:26:49Z</time>
      </trkpt>
      <trkpt lat="43.74584" lon="4.89387">
        <ele>229.411743</ele>
        <time>2010-12-30T13:26:52Z</time>
      </trkpt>
      <trkpt lat="43.7458" lon="4.89394">
        <ele>229.892334</ele>
        <time>2010-12-30T13:26:59Z</time>
      </trkpt>
      <trkpt lat="43.74576" lon="4.89396">
        <ele>229.892334</ele>
        <time>2010-12-30T13:27:02Z</time>
      </trkpt>
      <trkpt lat="43.74574" lon="4.89398">
        <ele>229.892334</ele>
        <time>2010-12-30T13:27:05Z</time>
      </trkpt>
      <trkpt lat="43.74567" lon="4.89411">
        <ele>227.969727</ele>
        <time>2010-12-30T13:27:14Z</time>
      </trkpt>
      <trkpt lat="43.74565" lon="4.89417">
        <ele>226.527832</ele>
        <time>2010-12-30T13:27:19Z</time>
      </trkpt>
      <trkpt lat="43.74563" lon="4.89424">
        <ele>225.566528</ele>
        <time>2010-12-30T13:27:23Z</time>
      </trkpt>
      <trkpt lat="43.74556" lon="4.89432">
        <ele>224.605225</ele>
        <time>2010-12-30T13:27:30Z</time>
      </trkpt>
      <trkpt lat="43.74552" lon="4.89439">
        <ele>224.124512</ele>
        <time>2010-12-30T13:27:35Z</time>
      </trkpt>
      <trkpt lat="43.74546" lon="4.8945">
        <ele>223.163208</ele>
        <time>2010-12-30T13:27:45Z</time>
      </trkpt>
      <trkpt lat="43.74543" lon="4.89458">
        <ele>222.682495</ele>
        <time>2010-12-30T13:27:51Z</time>
      </trkpt>
      <trkpt lat="43.74543" lon="4.89462">
        <ele>223.163208</ele>
        <time>2010-12-30T13:27:56Z</time>
      </trkpt>
      <trkpt lat="43.74541" lon="4.89471">
        <ele>222.201782</ele>
        <time>2010-12-30T13:28:01Z</time>
      </trkpt>
      <trkpt lat="43.74539" lon="4.89488">
        <ele>222.682495</ele>
        <time>2010-12-30T13:28:11Z</time>
      </trkpt>
      <trkpt lat="43.74535" lon="4.89503">
        <ele>223.643799</ele>
        <time>2010-12-30T13:28:21Z</time>
      </trkpt>
      <trkpt lat="43.74533" lon="4.89512">
        <ele>222.682495</ele>
        <time>2010-12-30T13:28:28Z</time>
      </trkpt>
      <trkpt lat="43.74533" lon="4.89516">
        <ele>223.163208</ele>
        <time>2010-12-30T13:28:31Z</time>
      </trkpt>
      <trkpt lat="43.74531" lon="4.89533">
        <ele>223.643799</ele>
        <time>2010-12-30T13:28:42Z</time>
      </trkpt>
      <trkpt lat="43.74528" lon="4.89542">
        <ele>224.605225</ele>
        <time>2010-12-30T13:28:47Z</time>
      </trkpt>
      <trkpt lat="43.74522" lon="4.89555">
        <ele>226.527832</ele>
        <time>2010-12-30T13:28:56Z</time>
      </trkpt>
      <trkpt lat="43.74522" lon="4.89561">
        <ele>226.527832</ele>
        <time>2010-12-30T13:29:01Z</time>
      </trkpt>
      <trkpt lat="43.7452" lon="4.89568">
        <ele>226.527832</ele>
        <time>2010-12-30T13:29:06Z</time>
      </trkpt>
      <trkpt lat="43.74518" lon="4.89576">
        <ele>226.527832</ele>
        <time>2010-12-30T13:29:12Z</time>
      </trkpt>
      <trkpt lat="43.74511" lon="4.89587">
        <ele>226.527832</ele>
        <time>2010-12-30T13:29:23Z</time>
      </trkpt>
      <trkpt lat="43.74509" lon="4.89589">
        <ele>226.047119</ele>
        <time>2010-12-30T13:29:26Z</time>
      </trkpt>
      <trkpt lat="43.74507" lon="4.89591">
        <ele>225.085938</ele>
        <time>2010-12-30T13:29:29Z</time>
      </trkpt>
      <trkpt lat="43.74503" lon="4.89598">
        <ele>224.605225</ele>
        <time>2010-12-30T13:29:35Z</time>
      </trkpt>
      <trkpt lat="43.74501" lon="4.89602">
        <ele>224.605225</ele>
        <time>2010-12-30T13:29:40Z</time>
      </trkpt>
      <trkpt lat="43.74498" lon="4.89604">
        <ele>224.605225</ele>
        <time>2010-12-30T13:29:42Z</time>
      </trkpt>
      <trkpt lat="43.74498" lon="4.89606">
        <ele>223.163208</ele>
        <time>2010-12-30T13:30:05Z</time>
      </trkpt>
      <trkpt lat="43.74501" lon="4.8961">
        <ele>219.798584</ele>
        <time>2010-12-30T13:30:24Z</time>
      </trkpt>
      <trkpt lat="43.74496" lon="4.8961">
        <ele>217.395386</ele>
        <time>2010-12-30T13:31:53Z</time>
      </trkpt>
      <trkpt lat="43.74488" lon="4.89613">
        <ele>218.356567</ele>
        <time>2010-12-30T13:32:03Z</time>
      </trkpt>
      <trkpt lat="43.74481" lon="4.89615">
        <ele>219.317993</ele>
        <time>2010-12-30T13:32:10Z</time>
      </trkpt>
      <trkpt lat="43.74473" lon="4.89632">
        <ele>222.682495</ele>
        <time>2010-12-30T13:32:24Z</time>
      </trkpt>
      <trkpt lat="43.74468" lon="4.89643">
        <ele>224.605225</ele>
        <time>2010-12-30T13:32:35Z</time>
      </trkpt>
      <trkpt lat="43.74466" lon="4.89651">
        <ele>225.085938</ele>
        <time>2010-12-30T13:32:41Z</time>
      </trkpt>
      <trkpt lat="43.74466" lon="4.89658">
        <ele>226.047119</ele>
        <time>2010-12-30T13:32:45Z</time>
      </trkpt>
      <trkpt lat="43.7446" lon="4.89673">
        <ele>227.489136</ele>
        <time>2010-12-30T13:32:57Z</time>
      </trkpt>
      <trkpt lat="43.7446" lon="4.89675">
        <ele>227.969727</ele>
        <time>2010-12-30T13:32:58Z</time>
      </trkpt>
      <trkpt lat="43.74458" lon="4.89677">
        <ele>227.969727</ele>
        <time>2010-12-30T13:33:00Z</time>
      </trkpt>
      <trkpt lat="43.74458" lon="4.89679">
        <ele>228.450439</ele>
        <time>2010-12-30T13:33:02Z</time>
      </trkpt>
      <trkpt lat="43.74453" lon="4.8969">
        <ele>227.969727</ele>
        <time>2010-12-30T13:33:09Z</time>
      </trkpt>
      <trkpt lat="43.74445" lon="4.89707">
        <ele>228.931152</ele>
        <time>2010-12-30T13:33:24Z</time>
      </trkpt>
      <trkpt lat="43.7444" lon="4.89713">
        <ele>228.450439</ele>
        <time>2010-12-30T13:33:30Z</time>
      </trkpt>
      <trkpt lat="43.74434" lon="4.89729">
        <ele>228.450439</ele>
        <time>2010-12-30T13:33:42Z</time>
      </trkpt>
      <trkpt lat="43.74432" lon="4.89731">
        <ele>228.931152</ele>
        <time>2010-12-30T13:33:45Z</time>
      </trkpt>
      <trkpt lat="43.7443" lon="4.89737">
        <ele>229.411743</ele>
        <time>2010-12-30T13:33:49Z</time>
      </trkpt>
      <trkpt lat="43.74428" lon="4.89744">
        <ele>229.892334</ele>
        <time>2010-12-30T13:33:55Z</time>
      </trkpt>
      <trkpt lat="43.74425" lon="4.8975">
        <ele>229.892334</ele>
        <time>2010-12-30T13:34:01Z</time>
      </trkpt>
      <trkpt lat="43.74421" lon="4.89763">
        <ele>230.85376</ele>
        <time>2010-12-30T13:34:11Z</time>
      </trkpt>
      <trkpt lat="43.74419" lon="4.89765">
        <ele>230.85376</ele>
        <time>2010-12-30T13:34:12Z</time>
      </trkpt>
      <trkpt lat="43.74419" lon="4.89774">
        <ele>232.295776</ele>
        <time>2010-12-30T13:34:19Z</time>
      </trkpt>
      <trkpt lat="43.74417" lon="4.89784">
        <ele>234.218384</ele>
        <time>2010-12-30T13:34:27Z</time>
      </trkpt>
      <trkpt lat="43.74413" lon="4.89799">
        <ele>236.140991</ele>
        <time>2010-12-30T13:34:38Z</time>
      </trkpt>
      <trkpt lat="43.74408" lon="4.8981">
        <ele>237.102295</ele>
        <time>2010-12-30T13:34:47Z</time>
      </trkpt>
      <trkpt lat="43.74408" lon="4.89812">
        <ele>237.102295</ele>
        <time>2010-12-30T13:34:49Z</time>
      </trkpt>
      <trkpt lat="43.74408" lon="4.89814">
        <ele>237.102295</ele>
        <time>2010-12-30T13:34:51Z</time>
      </trkpt>
      <trkpt lat="43.74408" lon="4.89829">
        <ele>238.544312</ele>
        <time>2010-12-30T13:35:01Z</time>
      </trkpt>
      <trkpt lat="43.74404" lon="4.89842">
        <ele>240.947632</ele>
        <time>2010-12-30T13:35:12Z</time>
      </trkpt>
      <trkpt lat="43.74402" lon="4.89855">
        <ele>242.870239</ele>
        <time>2010-12-30T13:35:21Z</time>
      </trkpt>
      <trkpt lat="43.74402" lon="4.89872">
        <ele>245.273438</ele>
        <time>2010-12-30T13:35:33Z</time>
      </trkpt>
      <trkpt lat="43.74404" lon="4.89877">
        <ele>245.273438</ele>
        <time>2010-12-30T13:35:35Z</time>
      </trkpt>
      <trkpt lat="43.74404" lon="4.89879">
        <ele>245.75415</ele>
        <time>2010-12-30T13:35:37Z</time>
      </trkpt>
      <trkpt lat="43.74404" lon="4.89889">
        <ele>247.676758</ele>
        <time>2010-12-30T13:35:48Z</time>
      </trkpt>
      <trkpt lat="43.74404" lon="4.89892">
        <ele>247.676758</ele>
        <time>2010-12-30T13:35:49Z</time>
      </trkpt>
      <trkpt lat="43.74406" lon="4.89902">
        <ele>248.157593</ele>
        <time>2010-12-30T13:35:58Z</time>
      </trkpt>
      <trkpt lat="43.74406" lon="4.89904">
        <ele>248.638184</ele>
        <time>2010-12-30T13:36:02Z</time>
      </trkpt>
      <trkpt lat="43.74406" lon="4.89909">
        <ele>249.118774</ele>
        <time>2010-12-30T13:36:04Z</time>
      </trkpt>
      <trkpt lat="43.74408" lon="4.89917">
        <ele>249.599487</ele>
        <time>2010-12-30T13:36:11Z</time>
      </trkpt>
      <trkpt lat="43.7441" lon="4.89932">
        <ele>252.002808</ele>
        <time>2010-12-30T13:36:21Z</time>
      </trkpt>
      <trkpt lat="43.7441" lon="4.89945">
        <ele>253.444702</ele>
        <time>2010-12-30T13:36:31Z</time>
      </trkpt>
      <trkpt lat="43.7441" lon="4.8996">
        <ele>253.444702</ele>
        <time>2010-12-30T13:36:40Z</time>
      </trkpt>
      <trkpt lat="43.7441" lon="4.89973">
        <ele>252.002808</ele>
        <time>2010-12-30T13:36:51Z</time>
      </trkpt>
      <trkpt lat="43.74413" lon="4.89986">
        <ele>251.522095</ele>
        <time>2010-12-30T13:37:01Z</time>
      </trkpt>
      <trkpt lat="43.74415" lon="4.89999">
        <ele>252.002808</ele>
        <time>2010-12-30T13:37:11Z</time>
      </trkpt>
      <trkpt lat="43.74415" lon="4.90014">
        <ele>251.522095</ele>
        <time>2010-12-30T13:37:21Z</time>
      </trkpt>
      <trkpt lat="43.74417" lon="4.90016">
        <ele>251.522095</ele>
        <time>2010-12-30T13:37:23Z</time>
      </trkpt>
      <trkpt lat="43.74417" lon="4.90031">
        <ele>251.041382</ele>
        <time>2010-12-30T13:37:32Z</time>
      </trkpt>
      <trkpt lat="43.74417" lon="4.90044">
        <ele>250.0802</ele>
        <time>2010-12-30T13:37:41Z</time>
      </trkpt>
      <trkpt lat="43.74428" lon="4.90057">
        <ele>247.676758</ele>
        <time>2010-12-30T13:37:52Z</time>
      </trkpt>
      <trkpt lat="43.74425" lon="4.90063">
        <ele>246.715454</ele>
        <time>2010-12-30T13:37:56Z</time>
      </trkpt>
      <trkpt lat="43.74421" lon="4.90078">
        <ele>245.273438</ele>
        <time>2010-12-30T13:38:05Z</time>
      </trkpt>
      <trkpt lat="43.74415" lon="4.90091">
        <ele>243.35083</ele>
        <time>2010-12-30T13:38:16Z</time>
      </trkpt>
      <trkpt lat="43.7441" lon="4.90113">
        <ele>242.389648</ele>
        <time>2010-12-30T13:38:28Z</time>
      </trkpt>
      <trkpt lat="43.74406" lon="4.90136">
        <ele>240.947632</ele>
        <time>2010-12-30T13:38:49Z</time>
      </trkpt>
      <trkpt lat="43.74402" lon="4.90162">
        <ele>237.102295</ele>
        <time>2010-12-30T13:39:02Z</time>
      </trkpt>
      <trkpt lat="43.74402" lon="4.90166">
        <ele>236.621704</ele>
        <time>2010-12-30T13:39:04Z</time>
      </trkpt>
      <trkpt lat="43.74398" lon="4.90179">
        <ele>234.218384</ele>
        <time>2010-12-30T13:39:13Z</time>
      </trkpt>
      <trkpt lat="43.74391" lon="4.9019">
        <ele>229.892334</ele>
        <time>2010-12-30T13:39:23Z</time>
      </trkpt>
      <trkpt lat="43.74389" lon="4.90196">
        <ele>228.450439</ele>
        <time>2010-12-30T13:39:27Z</time>
      </trkpt>
      <trkpt lat="43.74389" lon="4.90211">
        <ele>227.969727</ele>
        <time>2010-12-30T13:39:37Z</time>
      </trkpt>
      <trkpt lat="43.74389" lon="4.90213">
        <ele>227.969727</ele>
        <time>2010-12-30T13:39:38Z</time>
      </trkpt>
      <trkpt lat="43.74385" lon="4.90237">
        <ele>225.085938</ele>
        <time>2010-12-30T13:39:53Z</time>
      </trkpt>
      <trkpt lat="43.74376" lon="4.90261">
        <ele>220.759888</ele>
        <time>2010-12-30T13:40:05Z</time>
      </trkpt>
      <trkpt lat="43.74374" lon="4.90274">
        <ele>220.279175</ele>
        <time>2010-12-30T13:40:14Z</time>
      </trkpt>
      <trkpt lat="43.74374" lon="4.90293">
        <ele>219.317993</ele>
        <time>2010-12-30T13:40:28Z</time>
      </trkpt>
      <trkpt lat="43.74376" lon="4.90314">
        <ele>218.83728</ele>
        <time>2010-12-30T13:40:42Z</time>
      </trkpt>
      <trkpt lat="43.7438" lon="4.90327">
        <ele>217.395386</ele>
        <time>2010-12-30T13:40:54Z</time>
      </trkpt>
      <trkpt lat="43.74385" lon="4.90349">
        <ele>214.991943</ele>
        <time>2010-12-30T13:41:09Z</time>
      </trkpt>
      <trkpt lat="43.74389" lon="4.90359">
        <ele>213.550049</ele>
        <time>2010-12-30T13:41:18Z</time>
      </trkpt>
      <trkpt lat="43.74389" lon="4.90366">
        <ele>213.069336</ele>
        <time>2010-12-30T13:41:22Z</time>
      </trkpt>
      <trkpt lat="43.74387" lon="4.90385">
        <ele>213.069336</ele>
        <time>2010-12-30T13:41:35Z</time>
      </trkpt>
      <trkpt lat="43.74385" lon="4.904">
        <ele>214.03064</ele>
        <time>2010-12-30T13:41:47Z</time>
      </trkpt>
      <trkpt lat="43.7438" lon="4.90411">
        <ele>214.51123</ele>
        <time>2010-12-30T13:41:58Z</time>
      </trkpt>
      <trkpt lat="43.7438" lon="4.90419">
        <ele>214.991943</ele>
        <time>2010-12-30T13:42:06Z</time>
      </trkpt>
      <trkpt lat="43.74376" lon="4.90428">
        <ele>214.991943</ele>
        <time>2010-12-30T13:42:12Z</time>
      </trkpt>
      <trkpt lat="43.74374" lon="4.90449">
        <ele>213.069336</ele>
        <time>2010-12-30T13:42:22Z</time>
      </trkpt>
      <trkpt lat="43.74374" lon="4.90454">
        <ele>212.588623</ele>
        <time>2010-12-30T13:42:24Z</time>
      </trkpt>
      <trkpt lat="43.74372" lon="4.90458">
        <ele>212.108032</ele>
        <time>2010-12-30T13:42:26Z</time>
      </trkpt>
      <trkpt lat="43.74365" lon="4.90475">
        <ele>211.627441</ele>
        <time>2010-12-30T13:42:35Z</time>
      </trkpt>
      <trkpt lat="43.74361" lon="4.90482">
        <ele>213.550049</ele>
        <time>2010-12-30T13:42:41Z</time>
      </trkpt>
      <trkpt lat="43.74346" lon="4.9049">
        <ele>210.185425</ele>
        <time>2010-12-30T13:42:54Z</time>
      </trkpt>
      <trkpt lat="43.7434" lon="4.90495">
        <ele>210.185425</ele>
        <time>2010-12-30T13:43:04Z</time>
      </trkpt>
      <trkpt lat="43.74335" lon="4.90497">
        <ele>210.185425</ele>
        <time>2010-12-30T13:43:08Z</time>
      </trkpt>
      <trkpt lat="43.74327" lon="4.90503">
        <ele>211.146729</ele>
        <time>2010-12-30T13:43:18Z</time>
      </trkpt>
      <trkpt lat="43.7432" lon="4.90505">
        <ele>212.108032</ele>
        <time>2010-12-30T13:43:27Z</time>
      </trkpt>
      <trkpt lat="43.74316" lon="4.90505">
        <ele>212.588623</ele>
        <time>2010-12-30T13:43:32Z</time>
      </trkpt>
      <trkpt lat="43.7431" lon="4.90507">
        <ele>213.069336</ele>
        <time>2010-12-30T13:43:41Z</time>
      </trkpt>
      <trkpt lat="43.74277" lon="4.90529">
        <ele>212.108032</ele>
        <time>2010-12-30T13:44:16Z</time>
      </trkpt>
      <trkpt lat="43.74271" lon="4.90535">
        <ele>212.108032</ele>
        <time>2010-12-30T13:44:23Z</time>
      </trkpt>
      <trkpt lat="43.74262" lon="4.90542">
        <ele>212.108032</ele>
        <time>2010-12-30T13:44:32Z</time>
      </trkpt>
      <trkpt lat="43.7426" lon="4.90544">
        <ele>212.108032</ele>
        <time>2010-12-30T13:44:34Z</time>
      </trkpt>
      <trkpt lat="43.74254" lon="4.90555">
        <ele>213.069336</ele>
        <time>2010-12-30T13:44:42Z</time>
      </trkpt>
      <trkpt lat="43.7425" lon="4.90559">
        <ele>213.069336</ele>
        <time>2010-12-30T13:44:46Z</time>
      </trkpt>
      <trkpt lat="43.74241" lon="4.90567">
        <ele>213.069336</ele>
        <time>2010-12-30T13:44:56Z</time>
      </trkpt>
      <trkpt lat="43.74232" lon="4.90578">
        <ele>213.550049</ele>
        <time>2010-12-30T13:45:07Z</time>
      </trkpt>
      <trkpt lat="43.74224" lon="4.90587">
        <ele>213.069336</ele>
        <time>2010-12-30T13:45:16Z</time>
      </trkpt>
      <trkpt lat="43.74213" lon="4.906">
        <ele>212.108032</ele>
        <time>2010-12-30T13:45:25Z</time>
      </trkpt>
      <trkpt lat="43.74204" lon="4.90606">
        <ele>212.108032</ele>
        <time>2010-12-30T13:45:34Z</time>
      </trkpt>
      <trkpt lat="43.74192" lon="4.90617">
        <ele>213.069336</ele>
        <time>2010-12-30T13:45:46Z</time>
      </trkpt>
      <trkpt lat="43.74183" lon="4.90621">
        <ele>213.069336</ele>
        <time>2010-12-30T13:45:54Z</time>
      </trkpt>
      <trkpt lat="43.74181" lon="4.90623">
        <ele>213.069336</ele>
        <time>2010-12-30T13:45:56Z</time>
      </trkpt>
      <trkpt lat="43.74174" lon="4.90628">
        <ele>212.108032</ele>
        <time>2010-12-30T13:46:00Z</time>
      </trkpt>
      <trkpt lat="43.74162" lon="4.90636">
        <ele>210.185425</ele>
        <time>2010-12-30T13:46:11Z</time>
      </trkpt>
      <trkpt lat="43.74151" lon="4.9064">
        <ele>207.301392</ele>
        <time>2010-12-30T13:46:21Z</time>
      </trkpt>
      <trkpt lat="43.74151" lon="4.90643">
        <ele>206.820679</ele>
        <time>2010-12-30T13:46:22Z</time>
      </trkpt>
      <trkpt lat="43.74147" lon="4.90643">
        <ele>206.340088</ele>
        <time>2010-12-30T13:46:25Z</time>
      </trkpt>
      <trkpt lat="43.74144" lon="4.90647">
        <ele>205.378784</ele>
        <time>2010-12-30T13:46:28Z</time>
      </trkpt>
      <trkpt lat="43.74136" lon="4.90645">
        <ele>203.93689</ele>
        <time>2010-12-30T13:46:37Z</time>
      </trkpt>
      <trkpt lat="43.74134" lon="4.90645">
        <ele>203.456177</ele>
        <time>2010-12-30T13:46:39Z</time>
      </trkpt>
      <trkpt lat="43.74131" lon="4.90647">
        <ele>203.456177</ele>
        <time>2010-12-30T13:46:41Z</time>
      </trkpt>
      <trkpt lat="43.74129" lon="4.90651">
        <ele>202.975464</ele>
        <time>2010-12-30T13:46:43Z</time>
      </trkpt>
      <trkpt lat="43.74121" lon="4.90655">
        <ele>202.014282</ele>
        <time>2010-12-30T13:46:53Z</time>
      </trkpt>
      <trkpt lat="43.74112" lon="4.90649">
        <ele>205.378784</ele>
        <time>2010-12-30T13:47:07Z</time>
      </trkpt>
      <trkpt lat="43.74104" lon="4.90645">
        <ele>206.820679</ele>
        <time>2010-12-30T13:47:19Z</time>
      </trkpt>
      <trkpt lat="43.74084" lon="4.90651">
        <ele>206.340088</ele>
        <time>2010-12-30T13:47:33Z</time>
      </trkpt>
      <trkpt lat="43.74078" lon="4.90651">
        <ele>204.898071</ele>
        <time>2010-12-30T13:47:41Z</time>
      </trkpt>
      <trkpt lat="43.74067" lon="4.90653">
        <ele>205.378784</ele>
        <time>2010-12-30T13:47:51Z</time>
      </trkpt>
      <trkpt lat="43.74059" lon="4.90655">
        <ele>206.340088</ele>
        <time>2010-12-30T13:48:02Z</time>
      </trkpt>
      <trkpt lat="43.74046" lon="4.90658">
        <ele>208.743408</ele>
        <time>2010-12-30T13:48:14Z</time>
      </trkpt>
      <trkpt lat="43.74035" lon="4.90664">
        <ele>207.782104</ele>
        <time>2010-12-30T13:48:23Z</time>
      </trkpt>
      <trkpt lat="43.74035" lon="4.90666">
        <ele>207.782104</ele>
        <time>2010-12-30T13:48:24Z</time>
      </trkpt>
      <trkpt lat="43.74022" lon="4.90668">
        <ele>206.820679</ele>
        <time>2010-12-30T13:48:33Z</time>
      </trkpt>
      <trkpt lat="43.74016" lon="4.90675">
        <ele>205.378784</ele>
        <time>2010-12-30T13:48:44Z</time>
      </trkpt>
      <trkpt lat="43.74009" lon="4.90681">
        <ele>203.456177</ele>
        <time>2010-12-30T13:48:51Z</time>
      </trkpt>
      <trkpt lat="43.74007" lon="4.90683">
        <ele>203.456177</ele>
        <time>2010-12-30T13:48:53Z</time>
      </trkpt>
      <trkpt lat="43.73998" lon="4.9069">
        <ele>201.533569</ele>
        <time>2010-12-30T13:49:01Z</time>
      </trkpt>
      <trkpt lat="43.73992" lon="4.90705">
        <ele>199.130127</ele>
        <time>2010-12-30T13:49:12Z</time>
      </trkpt>
      <trkpt lat="43.73986" lon="4.90718">
        <ele>196.246338</ele>
        <time>2010-12-30T13:49:27Z</time>
      </trkpt>
      <trkpt lat="43.73986" lon="4.90735">
        <ele>196.726929</ele>
        <time>2010-12-30T13:49:40Z</time>
      </trkpt>
      <trkpt lat="43.73988" lon="4.90748">
        <ele>198.168945</ele>
        <time>2010-12-30T13:49:49Z</time>
      </trkpt>
      <trkpt lat="43.73992" lon="4.90758">
        <ele>198.649536</ele>
        <time>2010-12-30T13:49:59Z</time>
      </trkpt>
      <trkpt lat="43.73994" lon="4.90767">
        <ele>199.61084</ele>
        <time>2010-12-30T13:50:08Z</time>
      </trkpt>
      <trkpt lat="43.73998" lon="4.90776">
        <ele>198.168945</ele>
        <time>2010-12-30T13:50:12Z</time>
      </trkpt>
      <trkpt lat="43.74001" lon="4.90778">
        <ele>195.765625</ele>
        <time>2010-12-30T13:50:28Z</time>
      </trkpt>
      <trkpt lat="43.74001" lon="4.90776">
        <ele>198.168945</ele>
        <time>2010-12-30T13:52:03Z</time>
      </trkpt>
      <trkpt lat="43.74001" lon="4.9078">
        <ele>197.688232</ele>
        <time>2010-12-30T13:52:17Z</time>
      </trkpt>
      <trkpt lat="43.73998" lon="4.90791">
        <ele>197.688232</ele>
        <time>2010-12-30T13:52:35Z</time>
      </trkpt>
      <trkpt lat="43.73998" lon="4.90799">
        <ele>200.572266</ele>
        <time>2010-12-30T13:52:46Z</time>
      </trkpt>
      <trkpt lat="43.73996" lon="4.9081">
        <ele>202.975464</ele>
        <time>2010-12-30T13:52:56Z</time>
      </trkpt>
      <trkpt lat="43.73996" lon="4.90812">
        <ele>202.975464</ele>
        <time>2010-12-30T13:52:57Z</time>
      </trkpt>
      <trkpt lat="43.73994" lon="4.90821">
        <ele>204.898071</ele>
        <time>2010-12-30T13:53:09Z</time>
      </trkpt>
      <trkpt lat="43.73994" lon="4.90834">
        <ele>205.378784</ele>
        <time>2010-12-30T13:53:22Z</time>
      </trkpt>
      <trkpt lat="43.73994" lon="4.90849">
        <ele>207.782104</ele>
        <time>2010-12-30T13:53:33Z</time>
      </trkpt>
      <trkpt lat="43.73994" lon="4.90859">
        <ele>209.704834</ele>
        <time>2010-12-30T13:53:42Z</time>
      </trkpt>
      <trkpt lat="43.73994" lon="4.90866">
        <ele>209.224121</ele>
        <time>2010-12-30T13:54:02Z</time>
      </trkpt>
      <trkpt lat="43.73994" lon="4.90872">
        <ele>208.743408</ele>
        <time>2010-12-30T13:54:07Z</time>
      </trkpt>
      <trkpt lat="43.73994" lon="4.90881">
        <ele>208.262817</ele>
        <time>2010-12-30T13:54:14Z</time>
      </trkpt>
      <trkpt lat="43.73994" lon="4.90889">
        <ele>208.743408</ele>
        <time>2010-12-30T13:54:19Z</time>
      </trkpt>
      <trkpt lat="43.73992" lon="4.909">
        <ele>209.224121</ele>
        <time>2010-12-30T13:54:27Z</time>
      </trkpt>
      <trkpt lat="43.73992" lon="4.90913">
        <ele>208.743408</ele>
        <time>2010-12-30T13:54:37Z</time>
      </trkpt>
      <trkpt lat="43.73992" lon="4.90919">
        <ele>207.782104</ele>
        <time>2010-12-30T13:54:43Z</time>
      </trkpt>
      <trkpt lat="43.7399" lon="4.90928">
        <ele>207.301392</ele>
        <time>2010-12-30T13:54:48Z</time>
      </trkpt>
      <trkpt lat="43.73992" lon="4.90943">
        <ele>206.820679</ele>
        <time>2010-12-30T13:54:59Z</time>
      </trkpt>
      <trkpt lat="43.7399" lon="4.90949">
        <ele>206.820679</ele>
        <time>2010-12-30T13:55:04Z</time>
      </trkpt>
      <trkpt lat="43.7399" lon="4.90962">
        <ele>207.301392</ele>
        <time>2010-12-30T13:55:11Z</time>
      </trkpt>
      <trkpt lat="43.7399" lon="4.90977">
        <ele>210.185425</ele>
        <time>2010-12-30T13:55:24Z</time>
      </trkpt>
      <trkpt lat="43.73988" lon="4.9099">
        <ele>209.704834</ele>
        <time>2010-12-30T13:55:33Z</time>
      </trkpt>
      <trkpt lat="43.73988" lon="4.90999">
        <ele>210.666016</ele>
        <time>2010-12-30T13:55:40Z</time>
      </trkpt>
      <trkpt lat="43.7399" lon="4.91014">
        <ele>212.108032</ele>
        <time>2010-12-30T13:55:50Z</time>
      </trkpt>
      <trkpt lat="43.73988" lon="4.91033">
        <ele>215.953247</ele>
        <time>2010-12-30T13:56:04Z</time>
      </trkpt>
      <trkpt lat="43.73986" lon="4.91048">
        <ele>218.356567</ele>
        <time>2010-12-30T13:56:16Z</time>
      </trkpt>
      <trkpt lat="43.73988" lon="4.91065">
        <ele>218.356567</ele>
        <time>2010-12-30T13:56:28Z</time>
      </trkpt>
      <trkpt lat="43.73988" lon="4.91082">
        <ele>219.798584</ele>
        <time>2010-12-30T13:56:40Z</time>
      </trkpt>
      <trkpt lat="43.73986" lon="4.911">
        <ele>220.759888</ele>
        <time>2010-12-30T13:56:54Z</time>
      </trkpt>
      <trkpt lat="43.73986" lon="4.91117">
        <ele>221.240601</ele>
        <time>2010-12-30T13:57:07Z</time>
      </trkpt>
      <trkpt lat="43.73986" lon="4.9113">
        <ele>221.721191</ele>
        <time>2010-12-30T13:57:17Z</time>
      </trkpt>
      <trkpt lat="43.73981" lon="4.91143">
        <ele>223.643799</ele>
        <time>2010-12-30T13:57:30Z</time>
      </trkpt>
      <trkpt lat="43.73979" lon="4.91155">
        <ele>223.643799</ele>
        <time>2010-12-30T13:57:39Z</time>
      </trkpt>
      <trkpt lat="43.73977" lon="4.91175">
        <ele>224.124512</ele>
        <time>2010-12-30T13:57:52Z</time>
      </trkpt>
      <trkpt lat="43.73975" lon="4.91185">
        <ele>225.085938</ele>
        <time>2010-12-30T13:58:03Z</time>
      </trkpt>
      <trkpt lat="43.73975" lon="4.91196">
        <ele>226.527832</ele>
        <time>2010-12-30T13:58:12Z</time>
      </trkpt>
      <trkpt lat="43.73973" lon="4.91207">
        <ele>227.969727</ele>
        <time>2010-12-30T13:58:22Z</time>
      </trkpt>
      <trkpt lat="43.73975" lon="4.91228">
        <ele>227.489136</ele>
        <time>2010-12-30T13:58:37Z</time>
      </trkpt>
      <trkpt lat="43.73973" lon="4.91246">
        <ele>227.969727</ele>
        <time>2010-12-30T13:58:52Z</time>
      </trkpt>
      <trkpt lat="43.73971" lon="4.91258">
        <ele>228.931152</ele>
        <time>2010-12-30T13:59:02Z</time>
      </trkpt>
      <trkpt lat="43.73968" lon="4.91271">
        <ele>229.411743</ele>
        <time>2010-12-30T13:59:12Z</time>
      </trkpt>
      <trkpt lat="43.73968" lon="4.91291">
        <ele>228.450439</ele>
        <time>2010-12-30T13:59:23Z</time>
      </trkpt>
      <trkpt lat="43.73966" lon="4.91303">
        <ele>228.450439</ele>
        <time>2010-12-30T13:59:34Z</time>
      </trkpt>
      <trkpt lat="43.73964" lon="4.91314">
        <ele>227.489136</ele>
        <time>2010-12-30T13:59:42Z</time>
      </trkpt>
      <trkpt lat="43.73964" lon="4.91331">
        <ele>227.969727</ele>
        <time>2010-12-30T13:59:53Z</time>
      </trkpt>
      <trkpt lat="43.73964" lon="4.91346">
        <ele>229.892334</ele>
        <time>2010-12-30T14:00:04Z</time>
      </trkpt>
      <trkpt lat="43.73962" lon="4.91351">
        <ele>229.411743</ele>
        <time>2010-12-30T14:00:08Z</time>
      </trkpt>
      <trkpt lat="43.73958" lon="4.91359">
        <ele>231.814941</ele>
        <time>2010-12-30T14:00:18Z</time>
      </trkpt>
      <trkpt lat="43.73956" lon="4.91372">
        <ele>232.776489</ele>
        <time>2010-12-30T14:00:27Z</time>
      </trkpt>
      <trkpt lat="43.73953" lon="4.91385">
        <ele>232.776489</ele>
        <time>2010-12-30T14:00:36Z</time>
      </trkpt>
      <trkpt lat="43.73949" lon="4.91409">
        <ele>231.814941</ele>
        <time>2010-12-30T14:00:52Z</time>
      </trkpt>
      <trkpt lat="43.73943" lon="4.9143">
        <ele>229.892334</ele>
        <time>2010-12-30T14:01:08Z</time>
      </trkpt>
      <trkpt lat="43.73941" lon="4.91437">
        <ele>229.411743</ele>
        <time>2010-12-30T14:01:13Z</time>
      </trkpt>
      <trkpt lat="43.73938" lon="4.91445">
        <ele>228.931152</ele>
        <time>2010-12-30T14:01:20Z</time>
      </trkpt>
      <trkpt lat="43.73936" lon="4.91447">
        <ele>228.931152</ele>
        <time>2010-12-30T14:01:22Z</time>
      </trkpt>
      <trkpt lat="43.7393" lon="4.9146">
        <ele>227.008545</ele>
        <time>2010-12-30T14:01:33Z</time>
      </trkpt>
      <trkpt lat="43.73921" lon="4.91471">
        <ele>226.047119</ele>
        <time>2010-12-30T14:01:43Z</time>
      </trkpt>
      <trkpt lat="43.73917" lon="4.91475">
        <ele>225.566528</ele>
        <time>2010-12-30T14:01:48Z</time>
      </trkpt>
      <trkpt lat="43.73904" lon="4.91488">
        <ele>224.605225</ele>
        <time>2010-12-30T14:02:03Z</time>
      </trkpt>
      <trkpt lat="43.73902" lon="4.9149">
        <ele>224.124512</ele>
        <time>2010-12-30T14:02:06Z</time>
      </trkpt>
      <trkpt lat="43.73889" lon="4.91497">
        <ele>223.643799</ele>
        <time>2010-12-30T14:02:18Z</time>
      </trkpt>
      <trkpt lat="43.73878" lon="4.91509">
        <ele>222.682495</ele>
        <time>2010-12-30T14:02:32Z</time>
      </trkpt>
      <trkpt lat="43.73874" lon="4.91533">
        <ele>222.201782</ele>
        <time>2010-12-30T14:02:48Z</time>
      </trkpt>
      <trkpt lat="43.73876" lon="4.91555">
        <ele>221.721191</ele>
        <time>2010-12-30T14:03:04Z</time>
      </trkpt>
      <trkpt lat="43.73878" lon="4.91572">
        <ele>220.279175</ele>
        <time>2010-12-30T14:03:17Z</time>
      </trkpt>
      <trkpt lat="43.73878" lon="4.91582">
        <ele>219.798584</ele>
        <time>2010-12-30T14:03:27Z</time>
      </trkpt>
      <trkpt lat="43.73874" lon="4.916">
        <ele>220.279175</ele>
        <time>2010-12-30T14:03:41Z</time>
      </trkpt>
      <trkpt lat="43.73872" lon="4.91604">
        <ele>220.759888</ele>
        <time>2010-12-30T14:03:44Z</time>
      </trkpt>
      <trkpt lat="43.73865" lon="4.91621">
        <ele>220.279175</ele>
        <time>2010-12-30T14:03:58Z</time>
      </trkpt>
      <trkpt lat="43.73859" lon="4.91628">
        <ele>220.279175</ele>
        <time>2010-12-30T14:04:10Z</time>
      </trkpt>
      <trkpt lat="43.73857" lon="4.91625">
        <ele>220.279175</ele>
        <time>2010-12-30T14:04:16Z</time>
      </trkpt>
      <trkpt lat="43.73855" lon="4.91619">
        <ele>219.798584</ele>
        <time>2010-12-30T14:04:22Z</time>
      </trkpt>
      <trkpt lat="43.73853" lon="4.91617">
        <ele>219.317993</ele>
        <time>2010-12-30T14:04:24Z</time>
      </trkpt>
      <trkpt lat="43.7385" lon="4.91597">
        <ele>218.83728</ele>
        <time>2010-12-30T14:04:39Z</time>
      </trkpt>
      <trkpt lat="43.73846" lon="4.91582">
        <ele>219.317993</ele>
        <time>2010-12-30T14:04:50Z</time>
      </trkpt>
      <trkpt lat="43.73842" lon="4.91567">
        <ele>218.83728</ele>
        <time>2010-12-30T14:05:03Z</time>
      </trkpt>
      <trkpt lat="43.7384" lon="4.91559">
        <ele>218.83728</ele>
        <time>2010-12-30T14:05:10Z</time>
      </trkpt>
      <trkpt lat="43.73835" lon="4.9155">
        <ele>219.317993</ele>
        <time>2010-12-30T14:05:16Z</time>
      </trkpt>
      <trkpt lat="43.73829" lon="4.91542">
        <ele>219.317993</ele>
        <time>2010-12-30T14:05:25Z</time>
      </trkpt>
      <trkpt lat="43.73825" lon="4.9154">
        <ele>219.317993</ele>
        <time>2010-12-30T14:05:28Z</time>
      </trkpt>
      <trkpt lat="43.7382" lon="4.9154">
        <ele>219.798584</ele>
        <time>2010-12-30T14:05:31Z</time>
      </trkpt>
      <trkpt lat="43.73816" lon="4.91542">
        <ele>219.798584</ele>
        <time>2010-12-30T14:05:35Z</time>
      </trkpt>
      <trkpt lat="43.73814" lon="4.91544">
        <ele>219.798584</ele>
        <time>2010-12-30T14:05:39Z</time>
      </trkpt>
      <trkpt lat="43.73807" lon="4.9155">
        <ele>219.798584</ele>
        <time>2010-12-30T14:05:47Z</time>
      </trkpt>
      <trkpt lat="43.73803" lon="4.91555">
        <ele>219.798584</ele>
        <time>2010-12-30T14:05:55Z</time>
      </trkpt>
      <trkpt lat="43.73801" lon="4.91559">
        <ele>219.317993</ele>
        <time>2010-12-30T14:05:58Z</time>
      </trkpt>
      <trkpt lat="43.73799" lon="4.91565">
        <ele>217.395386</ele>
        <time>2010-12-30T14:06:09Z</time>
      </trkpt>
      <trkpt lat="43.73795" lon="4.91574">
        <ele>217.395386</ele>
        <time>2010-12-30T14:06:15Z</time>
      </trkpt>
      <trkpt lat="43.73795" lon="4.91578">
        <ele>218.356567</ele>
        <time>2010-12-30T14:06:18Z</time>
      </trkpt>
      <trkpt lat="43.7379" lon="4.91589">
        <ele>221.240601</ele>
        <time>2010-12-30T14:06:26Z</time>
      </trkpt>
      <trkpt lat="43.73786" lon="4.91593">
        <ele>222.682495</ele>
        <time>2010-12-30T14:06:31Z</time>
      </trkpt>
      <trkpt lat="43.7378" lon="4.91604">
        <ele>224.605225</ele>
        <time>2010-12-30T14:06:42Z</time>
      </trkpt>
      <trkpt lat="43.73775" lon="4.91612">
        <ele>223.643799</ele>
        <time>2010-12-30T14:06:48Z</time>
      </trkpt>
      <trkpt lat="43.73765" lon="4.9163">
        <ele>222.682495</ele>
        <time>2010-12-30T14:07:02Z</time>
      </trkpt>
      <trkpt lat="43.73762" lon="4.91643">
        <ele>223.163208</ele>
        <time>2010-12-30T14:07:12Z</time>
      </trkpt>
      <trkpt lat="43.73758" lon="4.91651">
        <ele>222.682495</ele>
        <time>2010-12-30T14:07:20Z</time>
      </trkpt>
      <trkpt lat="43.73752" lon="4.91666">
        <ele>223.163208</ele>
        <time>2010-12-30T14:07:31Z</time>
      </trkpt>
      <trkpt lat="43.73743" lon="4.91683">
        <ele>223.163208</ele>
        <time>2010-12-30T14:07:43Z</time>
      </trkpt>
      <trkpt lat="43.73737" lon="4.91698">
        <ele>224.124512</ele>
        <time>2010-12-30T14:07:56Z</time>
      </trkpt>
      <trkpt lat="43.7373" lon="4.91713">
        <ele>224.605225</ele>
        <time>2010-12-30T14:08:09Z</time>
      </trkpt>
      <trkpt lat="43.73726" lon="4.91728">
        <ele>224.605225</ele>
        <time>2010-12-30T14:08:20Z</time>
      </trkpt>
      <trkpt lat="43.7372" lon="4.91748">
        <ele>224.124512</ele>
        <time>2010-12-30T14:08:33Z</time>
      </trkpt>
      <trkpt lat="43.73715" lon="4.91756">
        <ele>225.085938</ele>
        <time>2010-12-30T14:08:42Z</time>
      </trkpt>
      <trkpt lat="43.73707" lon="4.91769">
        <ele>223.163208</ele>
        <time>2010-12-30T14:08:56Z</time>
      </trkpt>
      <trkpt lat="43.73696" lon="4.91778">
        <ele>224.605225</ele>
        <time>2010-12-30T14:09:10Z</time>
      </trkpt>
      <trkpt lat="43.73683" lon="4.91793">
        <ele>226.047119</ele>
        <time>2010-12-30T14:09:26Z</time>
      </trkpt>
      <trkpt lat="43.73677" lon="4.91799">
        <ele>225.566528</ele>
        <time>2010-12-30T14:09:33Z</time>
      </trkpt>
      <trkpt lat="43.73668" lon="4.91814">
        <ele>223.163208</ele>
        <time>2010-12-30T14:09:45Z</time>
      </trkpt>
      <trkpt lat="43.73659" lon="4.91831">
        <ele>221.721191</ele>
        <time>2010-12-30T14:09:59Z</time>
      </trkpt>
      <trkpt lat="43.73651" lon="4.91846">
        <ele>222.201782</ele>
        <time>2010-12-30T14:10:15Z</time>
      </trkpt>
      <trkpt lat="43.73649" lon="4.91853">
        <ele>222.682495</ele>
        <time>2010-12-30T14:10:21Z</time>
      </trkpt>
      <trkpt lat="43.73649" lon="4.91861">
        <ele>223.643799</ele>
        <time>2010-12-30T14:10:28Z</time>
      </trkpt>
      <trkpt lat="43.73647" lon="4.91864">
        <ele>224.124512</ele>
        <time>2010-12-30T14:10:30Z</time>
      </trkpt>
      <trkpt lat="43.73642" lon="4.91876">
        <ele>225.085938</ele>
        <time>2010-12-30T14:10:41Z</time>
      </trkpt>
      <trkpt lat="43.73638" lon="4.91896">
        <ele>226.527832</ele>
        <time>2010-12-30T14:10:56Z</time>
      </trkpt>
      <trkpt lat="43.73632" lon="4.91911">
        <ele>227.489136</ele>
        <time>2010-12-30T14:11:10Z</time>
      </trkpt>
      <trkpt lat="43.73632" lon="4.91913">
        <ele>227.489136</ele>
        <time>2010-12-30T14:11:11Z</time>
      </trkpt>
      <trkpt lat="43.73625" lon="4.91926">
        <ele>228.450439</ele>
        <time>2010-12-30T14:11:22Z</time>
      </trkpt>
      <trkpt lat="43.73619" lon="4.91941">
        <ele>228.931152</ele>
        <time>2010-12-30T14:11:34Z</time>
      </trkpt>
      <trkpt lat="43.73617" lon="4.91947">
        <ele>229.411743</ele>
        <time>2010-12-30T14:11:41Z</time>
      </trkpt>
      <trkpt lat="43.73612" lon="4.91962">
        <ele>228.931152</ele>
        <time>2010-12-30T14:11:54Z</time>
      </trkpt>
      <trkpt lat="43.73604" lon="4.91973">
        <ele>229.892334</ele>
        <time>2010-12-30T14:12:07Z</time>
      </trkpt>
      <trkpt lat="43.73593" lon="4.91982">
        <ele>229.892334</ele>
        <time>2010-12-30T14:12:20Z</time>
      </trkpt>
      <trkpt lat="43.73578" lon="4.91988">
        <ele>231.334351</ele>
        <time>2010-12-30T14:12:35Z</time>
      </trkpt>
      <trkpt lat="43.73567" lon="4.91994">
        <ele>233.737671</ele>
        <time>2010-12-30T14:12:49Z</time>
      </trkpt>
      <trkpt lat="43.73556" lon="4.92005">
        <ele>233.25708</ele>
        <time>2010-12-30T14:13:04Z</time>
      </trkpt>
      <trkpt lat="43.7355" lon="4.92014">
        <ele>234.218384</ele>
        <time>2010-12-30T14:13:15Z</time>
      </trkpt>
      <trkpt lat="43.73544" lon="4.92022">
        <ele>236.140991</ele>
        <time>2010-12-30T14:13:28Z</time>
      </trkpt>
      <trkpt lat="43.73533" lon="4.92042">
        <ele>236.140991</ele>
        <time>2010-12-30T14:13:44Z</time>
      </trkpt>
      <trkpt lat="43.73524" lon="4.92057">
        <ele>236.140991</ele>
        <time>2010-12-30T14:13:59Z</time>
      </trkpt>
      <trkpt lat="43.73518" lon="4.92067">
        <ele>237.102295</ele>
        <time>2010-12-30T14:14:13Z</time>
      </trkpt>
      <trkpt lat="43.73516" lon="4.92074">
        <ele>236.140991</ele>
        <time>2010-12-30T14:14:31Z</time>
      </trkpt>
      <trkpt lat="43.73509" lon="4.92082">
        <ele>236.621704</ele>
        <time>2010-12-30T14:14:47Z</time>
      </trkpt>
      <trkpt lat="43.73503" lon="4.92093">
        <ele>236.621704</ele>
        <time>2010-12-30T14:14:59Z</time>
      </trkpt>
      <trkpt lat="43.73501" lon="4.92095">
        <ele>237.102295</ele>
        <time>2010-12-30T14:15:01Z</time>
      </trkpt>
      <trkpt lat="43.73492" lon="4.92106">
        <ele>237.582886</ele>
        <time>2010-12-30T14:15:14Z</time>
      </trkpt>
      <trkpt lat="43.73483" lon="4.92121">
        <ele>238.544312</ele>
        <time>2010-12-30T14:15:27Z</time>
      </trkpt>
      <trkpt lat="43.73475" lon="4.92136">
        <ele>238.063599</ele>
        <time>2010-12-30T14:15:41Z</time>
      </trkpt>
      <trkpt lat="43.73466" lon="4.92153">
        <ele>238.063599</ele>
        <time>2010-12-30T14:15:53Z</time>
      </trkpt>
      <trkpt lat="43.73456" lon="4.92168">
        <ele>239.505493</ele>
        <time>2010-12-30T14:16:07Z</time>
      </trkpt>
      <trkpt lat="43.73447" lon="4.92185">
        <ele>240.467041</ele>
        <time>2010-12-30T14:16:21Z</time>
      </trkpt>
      <trkpt lat="43.73438" lon="4.92203">
        <ele>240.467041</ele>
        <time>2010-12-30T14:16:35Z</time>
      </trkpt>
      <trkpt lat="43.7343" lon="4.92218">
        <ele>240.467041</ele>
        <time>2010-12-30T14:16:48Z</time>
      </trkpt>
      <trkpt lat="43.73421" lon="4.92235">
        <ele>239.986206</ele>
        <time>2010-12-30T14:17:02Z</time>
      </trkpt>
      <trkpt lat="43.73415" lon="4.92256">
        <ele>239.986206</ele>
        <time>2010-12-30T14:17:17Z</time>
      </trkpt>
      <trkpt lat="43.73411" lon="4.92271">
        <ele>239.505493</ele>
        <time>2010-12-30T14:17:31Z</time>
      </trkpt>
      <trkpt lat="43.73408" lon="4.92282">
        <ele>240.947632</ele>
        <time>2010-12-30T14:17:41Z</time>
      </trkpt>
      <trkpt lat="43.73404" lon="4.92291">
        <ele>242.870239</ele>
        <time>2010-12-30T14:17:52Z</time>
      </trkpt>
      <trkpt lat="43.73402" lon="4.92295">
        <ele>243.35083</ele>
        <time>2010-12-30T14:17:56Z</time>
      </trkpt>
      <trkpt lat="43.734" lon="4.92299">
        <ele>243.35083</ele>
        <time>2010-12-30T14:17:59Z</time>
      </trkpt>
      <trkpt lat="43.73398" lon="4.92301">
        <ele>243.831543</ele>
        <time>2010-12-30T14:18:02Z</time>
      </trkpt>
      <trkpt lat="43.73389" lon="4.92318">
        <ele>245.273438</ele>
        <time>2010-12-30T14:18:15Z</time>
      </trkpt>
      <trkpt lat="43.7338" lon="4.92333">
        <ele>248.157593</ele>
        <time>2010-12-30T14:18:29Z</time>
      </trkpt>
      <trkpt lat="43.73372" lon="4.92348">
        <ele>249.599487</ele>
        <time>2010-12-30T14:18:43Z</time>
      </trkpt>
      <trkpt lat="43.73361" lon="4.92366">
        <ele>248.157593</ele>
        <time>2010-12-30T14:18:58Z</time>
      </trkpt>
      <trkpt lat="43.73357" lon="4.92381">
        <ele>246.715454</ele>
        <time>2010-12-30T14:19:14Z</time>
      </trkpt>
      <trkpt lat="43.73353" lon="4.92387">
        <ele>248.157593</ele>
        <time>2010-12-30T14:19:24Z</time>
      </trkpt>
      <trkpt lat="43.73346" lon="4.92394">
        <ele>249.118774</ele>
        <time>2010-12-30T14:19:34Z</time>
      </trkpt>
      <trkpt lat="43.73342" lon="4.924">
        <ele>250.0802</ele>
        <time>2010-12-30T14:19:45Z</time>
      </trkpt>
      <trkpt lat="43.73338" lon="4.92411">
        <ele>251.041382</ele>
        <time>2010-12-30T14:19:56Z</time>
      </trkpt>
      <trkpt lat="43.73327" lon="4.92421">
        <ele>253.444702</ele>
        <time>2010-12-30T14:20:09Z</time>
      </trkpt>
      <trkpt lat="43.73325" lon="4.9243">
        <ele>254.406006</ele>
        <time>2010-12-30T14:20:17Z</time>
      </trkpt>
      <trkpt lat="43.73316" lon="4.92439">
        <ele>255.36731</ele>
        <time>2010-12-30T14:20:27Z</time>
      </trkpt>
      <trkpt lat="43.73316" lon="4.92441">
        <ele>255.36731</ele>
        <time>2010-12-30T14:20:30Z</time>
      </trkpt>
      <trkpt lat="43.7331" lon="4.92456">
        <ele>253.444702</ele>
        <time>2010-12-30T14:20:41Z</time>
      </trkpt>
      <trkpt lat="43.73301" lon="4.92469">
        <ele>252.002808</ele>
        <time>2010-12-30T14:20:53Z</time>
      </trkpt>
      <trkpt lat="43.73297" lon="4.92477">
        <ele>252.002808</ele>
        <time>2010-12-30T14:20:59Z</time>
      </trkpt>
      <trkpt lat="43.73288" lon="4.92488">
        <ele>252.963989</ele>
        <time>2010-12-30T14:21:12Z</time>
      </trkpt>
      <trkpt lat="43.73282" lon="4.92499">
        <ele>253.925415</ele>
        <time>2010-12-30T14:21:24Z</time>
      </trkpt>
      <trkpt lat="43.73273" lon="4.92509">
        <ele>255.36731</ele>
        <time>2010-12-30T14:21:36Z</time>
      </trkpt>
      <trkpt lat="43.7326" lon="4.92529">
        <ele>255.848022</ele>
        <time>2010-12-30T14:21:52Z</time>
      </trkpt>
      <trkpt lat="43.73258" lon="4.92531">
        <ele>255.848022</ele>
        <time>2010-12-30T14:21:54Z</time>
      </trkpt>
      <trkpt lat="43.73252" lon="4.92546">
        <ele>252.483398</ele>
        <time>2010-12-30T14:22:06Z</time>
      </trkpt>
      <trkpt lat="43.73241" lon="4.92561">
        <ele>252.002808</ele>
        <time>2010-12-30T14:22:20Z</time>
      </trkpt>
      <trkpt lat="43.73232" lon="4.92574">
        <ele>252.483398</ele>
        <time>2010-12-30T14:22:33Z</time>
      </trkpt>
      <trkpt lat="43.73222" lon="4.92589">
        <ele>252.002808</ele>
        <time>2010-12-30T14:22:48Z</time>
      </trkpt>
      <trkpt lat="43.73209" lon="4.926">
        <ele>251.522095</ele>
        <time>2010-12-30T14:23:04Z</time>
      </trkpt>
      <trkpt lat="43.73205" lon="4.92604">
        <ele>251.522095</ele>
        <time>2010-12-30T14:23:10Z</time>
      </trkpt>
      <trkpt lat="43.73202" lon="4.92606">
        <ele>251.522095</ele>
        <time>2010-12-30T14:23:12Z</time>
      </trkpt>
      <trkpt lat="43.73187" lon="4.9261">
        <ele>252.483398</ele>
        <time>2010-12-30T14:23:26Z</time>
      </trkpt>
      <trkpt lat="43.73174" lon="4.92612">
        <ele>252.002808</ele>
        <time>2010-12-30T14:23:39Z</time>
      </trkpt>
      <trkpt lat="43.73172" lon="4.92612">
        <ele>251.522095</ele>
        <time>2010-12-30T14:23:42Z</time>
      </trkpt>
      <trkpt lat="43.73166" lon="4.92615">
        <ele>251.522095</ele>
        <time>2010-12-30T14:23:47Z</time>
      </trkpt>
      <trkpt lat="43.73155" lon="4.92617">
        <ele>251.522095</ele>
        <time>2010-12-30T14:23:58Z</time>
      </trkpt>
      <trkpt lat="43.7314" lon="4.92619">
        <ele>249.599487</ele>
        <time>2010-12-30T14:24:10Z</time>
      </trkpt>
      <trkpt lat="43.73136" lon="4.92619">
        <ele>249.599487</ele>
        <time>2010-12-30T14:24:16Z</time>
      </trkpt>
      <trkpt lat="43.73132" lon="4.92619">
        <ele>249.599487</ele>
        <time>2010-12-30T14:24:19Z</time>
      </trkpt>
      <trkpt lat="43.73119" lon="4.92619">
        <ele>248.638184</ele>
        <time>2010-12-30T14:24:32Z</time>
      </trkpt>
      <trkpt lat="43.73108" lon="4.92623">
        <ele>247.196045</ele>
        <time>2010-12-30T14:24:44Z</time>
      </trkpt>
      <trkpt lat="43.73099" lon="4.92627">
        <ele>247.676758</ele>
        <time>2010-12-30T14:24:55Z</time>
      </trkpt>
      <trkpt lat="43.73095" lon="4.9263">
        <ele>247.676758</ele>
        <time>2010-12-30T14:24:59Z</time>
      </trkpt>
      <trkpt lat="43.73089" lon="4.9263">
        <ele>246.715454</ele>
        <time>2010-12-30T14:25:07Z</time>
      </trkpt>
      <trkpt lat="43.73084" lon="4.92632">
        <ele>246.715454</ele>
        <time>2010-12-30T14:25:13Z</time>
      </trkpt>
      <trkpt lat="43.73076" lon="4.92632">
        <ele>246.715454</ele>
        <time>2010-12-30T14:25:20Z</time>
      </trkpt>
      <trkpt lat="43.73067" lon="4.92632">
        <ele>246.715454</ele>
        <time>2010-12-30T14:25:29Z</time>
      </trkpt>
      <trkpt lat="43.73059" lon="4.92632">
        <ele>247.196045</ele>
        <time>2010-12-30T14:25:37Z</time>
      </trkpt>
      <trkpt lat="43.73046" lon="4.92634">
        <ele>247.676758</ele>
        <time>2010-12-30T14:25:50Z</time>
      </trkpt>
      <trkpt lat="43.73033" lon="4.92636">
        <ele>246.234863</ele>
        <time>2010-12-30T14:26:04Z</time>
      </trkpt>
      <trkpt lat="43.73026" lon="4.92638">
        <ele>245.75415</ele>
        <time>2010-12-30T14:26:08Z</time>
      </trkpt>
      <trkpt lat="43.73007" lon="4.92638">
        <ele>243.831543</ele>
        <time>2010-12-30T14:26:22Z</time>
      </trkpt>
      <trkpt lat="43.72994" lon="4.92638">
        <ele>242.870239</ele>
        <time>2010-12-30T14:26:34Z</time>
      </trkpt>
      <trkpt lat="43.72981" lon="4.9263">
        <ele>240.947632</ele>
        <time>2010-12-30T14:26:48Z</time>
      </trkpt>
      <trkpt lat="43.72966" lon="4.92617">
        <ele>238.544312</ele>
        <time>2010-12-30T14:27:03Z</time>
      </trkpt>
      <trkpt lat="43.72964" lon="4.92615">
        <ele>238.544312</ele>
        <time>2010-12-30T14:27:06Z</time>
      </trkpt>
      <trkpt lat="43.72951" lon="4.92606">
        <ele>238.544312</ele>
        <time>2010-12-30T14:27:21Z</time>
      </trkpt>
      <trkpt lat="43.72938" lon="4.92602">
        <ele>239.024902</ele>
        <time>2010-12-30T14:27:33Z</time>
      </trkpt>
      <trkpt lat="43.72928" lon="4.92597">
        <ele>240.467041</ele>
        <time>2010-12-30T14:27:46Z</time>
      </trkpt>
      <trkpt lat="43.72919" lon="4.92591">
        <ele>241.908936</ele>
        <time>2010-12-30T14:27:55Z</time>
      </trkpt>
      <trkpt lat="43.72904" lon="4.92585">
        <ele>245.75415</ele>
        <time>2010-12-30T14:28:10Z</time>
      </trkpt>
      <trkpt lat="43.72902" lon="4.92582">
        <ele>245.75415</ele>
        <time>2010-12-30T14:28:11Z</time>
      </trkpt>
      <trkpt lat="43.72891" lon="4.92578">
        <ele>247.196045</ele>
        <time>2010-12-30T14:28:23Z</time>
      </trkpt>
      <trkpt lat="43.72876" lon="4.92567">
        <ele>245.75415</ele>
        <time>2010-12-30T14:28:36Z</time>
      </trkpt>
      <trkpt lat="43.72876" lon="4.92567">
        <ele>245.75415</ele>
        <time>2010-12-30T14:28:38Z</time>
      </trkpt>
      <trkpt lat="43.72868" lon="4.92561">
        <ele>243.831543</ele>
        <time>2010-12-30T14:28:46Z</time>
      </trkpt>
      <trkpt lat="43.72857" lon="4.9255">
        <ele>242.389648</ele>
        <time>2010-12-30T14:28:57Z</time>
      </trkpt>
      <trkpt lat="43.72848" lon="4.92546">
        <ele>241.908936</ele>
        <time>2010-12-30T14:29:05Z</time>
      </trkpt>
      <trkpt lat="43.72833" lon="4.92539">
        <ele>239.986206</ele>
        <time>2010-12-30T14:29:19Z</time>
      </trkpt>
      <trkpt lat="43.72831" lon="4.92539">
        <ele>239.986206</ele>
        <time>2010-12-30T14:29:21Z</time>
      </trkpt>
      <trkpt lat="43.72827" lon="4.92537">
        <ele>239.505493</ele>
        <time>2010-12-30T14:29:24Z</time>
      </trkpt>
      <trkpt lat="43.72816" lon="4.92533">
        <ele>238.063599</ele>
        <time>2010-12-30T14:29:36Z</time>
      </trkpt>
      <trkpt lat="43.7281" lon="4.92535">
        <ele>236.140991</ele>
        <time>2010-12-30T14:29:44Z</time>
      </trkpt>
      <trkpt lat="43.72797" lon="4.92539">
        <ele>235.179688</ele>
        <time>2010-12-30T14:29:57Z</time>
      </trkpt>
      <trkpt lat="43.72788" lon="4.92537">
        <ele>231.814941</ele>
        <time>2010-12-30T14:30:09Z</time>
      </trkpt>
      <trkpt lat="43.7278" lon="4.92542">
        <ele>228.450439</ele>
        <time>2010-12-30T14:30:22Z</time>
      </trkpt>
      <trkpt lat="43.72771" lon="4.92548">
        <ele>225.566528</ele>
        <time>2010-12-30T14:30:36Z</time>
      </trkpt>
      <trkpt lat="43.72765" lon="4.92552">
        <ele>224.605225</ele>
        <time>2010-12-30T14:30:45Z</time>
      </trkpt>
      <trkpt lat="43.72758" lon="4.92559">
        <ele>223.643799</ele>
        <time>2010-12-30T14:30:55Z</time>
      </trkpt>
      <trkpt lat="43.72747" lon="4.92563">
        <ele>221.721191</ele>
        <time>2010-12-30T14:31:05Z</time>
      </trkpt>
      <trkpt lat="43.72741" lon="4.92569">
        <ele>220.759888</ele>
        <time>2010-12-30T14:31:15Z</time>
      </trkpt>
      <trkpt lat="43.72737" lon="4.92572">
        <ele>220.759888</ele>
        <time>2010-12-30T14:31:19Z</time>
      </trkpt>
      <trkpt lat="43.72735" lon="4.92585">
        <ele>218.356567</ele>
        <time>2010-12-30T14:31:29Z</time>
      </trkpt>
      <trkpt lat="43.72737" lon="4.9258">
        <ele>214.991943</ele>
        <time>2010-12-30T14:31:49Z</time>
      </trkpt>
      <trkpt lat="43.72737" lon="4.9258">
        <ele>214.51123</ele>
        <time>2010-12-30T14:32:20Z</time>
      </trkpt>
      <trkpt lat="43.72735" lon="4.9258">
        <ele>217.395386</ele>
        <time>2010-12-30T14:32:29Z</time>
      </trkpt>
      <trkpt lat="43.72732" lon="4.9258">
        <ele>217.395386</ele>
        <time>2010-12-30T14:32:59Z</time>
      </trkpt>
      <trkpt lat="43.72735" lon="4.92582">
        <ele>217.875977</ele>
        <time>2010-12-30T14:33:14Z</time>
      </trkpt>
      <trkpt lat="43.72735" lon="4.9258">
        <ele>218.356567</ele>
        <time>2010-12-30T14:33:28Z</time>
      </trkpt>
      <trkpt lat="43.72735" lon="4.92582">
        <ele>218.356567</ele>
        <time>2010-12-30T14:34:01Z</time>
      </trkpt>
      <trkpt lat="43.72732" lon="4.92582">
        <ele>218.356567</ele>
        <time>2010-12-30T14:34:34Z</time>
      </trkpt>
      <trkpt lat="43.72735" lon="4.92585">
        <ele>216.914673</ele>
        <time>2010-12-30T14:35:07Z</time>
      </trkpt>
      <trkpt lat="43.72732" lon="4.92585">
        <ele>216.914673</ele>
        <time>2010-12-30T14:35:15Z</time>
      </trkpt>
      <trkpt lat="43.7273" lon="4.92587">
        <ele>216.914673</ele>
        <time>2010-12-30T14:35:17Z</time>
      </trkpt>
      <trkpt lat="43.72728" lon="4.92589">
        <ele>217.395386</ele>
        <time>2010-12-30T14:35:20Z</time>
      </trkpt>
      <trkpt lat="43.72726" lon="4.92589">
        <ele>217.395386</ele>
        <time>2010-12-30T14:35:22Z</time>
      </trkpt>
      <trkpt lat="43.72724" lon="4.92591">
        <ele>217.395386</ele>
        <time>2010-12-30T14:35:25Z</time>
      </trkpt>
      <trkpt lat="43.72724" lon="4.92593">
        <ele>217.875977</ele>
        <time>2010-12-30T14:35:28Z</time>
      </trkpt>
      <trkpt lat="43.72722" lon="4.92595">
        <ele>217.875977</ele>
        <time>2010-12-30T14:35:31Z</time>
      </trkpt>
      <trkpt lat="43.7272" lon="4.92597">
        <ele>218.83728</ele>
        <time>2010-12-30T14:35:34Z</time>
      </trkpt>
      <trkpt lat="43.72715" lon="4.92602">
        <ele>219.317993</ele>
        <time>2010-12-30T14:35:40Z</time>
      </trkpt>
      <trkpt lat="43.72705" lon="4.92608">
        <ele>217.875977</ele>
        <time>2010-12-30T14:35:51Z</time>
      </trkpt>
      <trkpt lat="43.72698" lon="4.9261">
        <ele>216.914673</ele>
        <time>2010-12-30T14:36:01Z</time>
      </trkpt>
      <trkpt lat="43.72687" lon="4.92608">
        <ele>219.317993</ele>
        <time>2010-12-30T14:36:13Z</time>
      </trkpt>
      <trkpt lat="43.72677" lon="4.92606">
        <ele>222.682495</ele>
        <time>2010-12-30T14:36:27Z</time>
      </trkpt>
      <trkpt lat="43.72675" lon="4.92606">
        <ele>223.163208</ele>
        <time>2010-12-30T14:36:30Z</time>
      </trkpt>
      <trkpt lat="43.72664" lon="4.92604">
        <ele>225.566528</ele>
        <time>2010-12-30T14:36:39Z</time>
      </trkpt>
      <trkpt lat="43.72653" lon="4.92597">
        <ele>231.334351</ele>
        <time>2010-12-30T14:36:49Z</time>
      </trkpt>
      <trkpt lat="43.72638" lon="4.92591">
        <ele>239.505493</ele>
        <time>2010-12-30T14:37:01Z</time>
      </trkpt>
      <trkpt lat="43.72625" lon="4.92585">
        <ele>243.831543</ele>
        <time>2010-12-30T14:37:11Z</time>
      </trkpt>
      <trkpt lat="43.72617" lon="4.92582">
        <ele>246.715454</ele>
        <time>2010-12-30T14:37:19Z</time>
      </trkpt>
      <trkpt lat="43.72606" lon="4.92578">
        <ele>249.599487</ele>
        <time>2010-12-30T14:37:28Z</time>
      </trkpt>
      <trkpt lat="43.72593" lon="4.92576">
        <ele>252.002808</ele>
        <time>2010-12-30T14:37:39Z</time>
      </trkpt>
      <trkpt lat="43.72584" lon="4.9258">
        <ele>253.925415</ele>
        <time>2010-12-30T14:37:50Z</time>
      </trkpt>
      <trkpt lat="43.72578" lon="4.92585">
        <ele>254.406006</ele>
        <time>2010-12-30T14:37:57Z</time>
      </trkpt>
      <trkpt lat="43.72574" lon="4.92589">
        <ele>253.925415</ele>
        <time>2010-12-30T14:38:01Z</time>
      </trkpt>
      <trkpt lat="43.72567" lon="4.92595">
        <ele>252.483398</ele>
        <time>2010-12-30T14:38:06Z</time>
      </trkpt>
      <trkpt lat="43.72563" lon="4.92608">
        <ele>249.118774</ele>
        <time>2010-12-30T14:38:17Z</time>
      </trkpt>
      <trkpt lat="43.72559" lon="4.92621">
        <ele>246.234863</ele>
        <time>2010-12-30T14:38:29Z</time>
      </trkpt>
      <trkpt lat="43.72554" lon="4.92634">
        <ele>245.273438</ele>
        <time>2010-12-30T14:38:42Z</time>
      </trkpt>
      <trkpt lat="43.72548" lon="4.92647">
        <ele>244.312256</ele>
        <time>2010-12-30T14:38:53Z</time>
      </trkpt>
      <trkpt lat="43.72546" lon="4.92657">
        <ele>242.389648</ele>
        <time>2010-12-30T14:39:03Z</time>
      </trkpt>
      <trkpt lat="43.72544" lon="4.9266">
        <ele>242.389648</ele>
        <time>2010-12-30T14:39:06Z</time>
      </trkpt>
      <trkpt lat="43.72537" lon="4.92668">
        <ele>239.986206</ele>
        <time>2010-12-30T14:39:17Z</time>
      </trkpt>
      <trkpt lat="43.72537" lon="4.92668">
        <ele>239.505493</ele>
        <time>2010-12-30T14:39:18Z</time>
      </trkpt>
      <trkpt lat="43.72529" lon="4.92679">
        <ele>240.467041</ele>
        <time>2010-12-30T14:39:32Z</time>
      </trkpt>
      <trkpt lat="43.72524" lon="4.92688">
        <ele>242.870239</ele>
        <time>2010-12-30T14:39:41Z</time>
      </trkpt>
      <trkpt lat="43.72518" lon="4.92694">
        <ele>244.312256</ele>
        <time>2010-12-30T14:39:52Z</time>
      </trkpt>
      <trkpt lat="43.72511" lon="4.92698">
        <ele>245.273438</ele>
        <time>2010-12-30T14:40:02Z</time>
      </trkpt>
      <trkpt lat="43.72503" lon="4.92705">
        <ele>245.75415</ele>
        <time>2010-12-30T14:40:13Z</time>
      </trkpt>
      <trkpt lat="43.72492" lon="4.92715">
        <ele>245.273438</ele>
        <time>2010-12-30T14:40:26Z</time>
      </trkpt>
      <trkpt lat="43.72484" lon="4.92722">
        <ele>245.75415</ele>
        <time>2010-12-30T14:40:39Z</time>
      </trkpt>
      <trkpt lat="43.72473" lon="4.92726">
        <ele>245.75415</ele>
        <time>2010-12-30T14:40:53Z</time>
      </trkpt>
      <trkpt lat="43.72462" lon="4.92737">
        <ele>246.715454</ele>
        <time>2010-12-30T14:41:07Z</time>
      </trkpt>
      <trkpt lat="43.72456" lon="4.92745">
        <ele>245.75415</ele>
        <time>2010-12-30T14:41:18Z</time>
      </trkpt>
      <trkpt lat="43.72447" lon="4.92756">
        <ele>243.831543</ele>
        <time>2010-12-30T14:41:30Z</time>
      </trkpt>
      <trkpt lat="43.72445" lon="4.92756">
        <ele>243.831543</ele>
        <time>2010-12-30T14:41:32Z</time>
      </trkpt>
      <trkpt lat="43.72441" lon="4.9276">
        <ele>242.870239</ele>
        <time>2010-12-30T14:41:37Z</time>
      </trkpt>
      <trkpt lat="43.72441" lon="4.92763">
        <ele>242.389648</ele>
        <time>2010-12-30T14:41:39Z</time>
      </trkpt>
      <trkpt lat="43.72434" lon="4.92767">
        <ele>241.428223</ele>
        <time>2010-12-30T14:41:45Z</time>
      </trkpt>
      <trkpt lat="43.72432" lon="4.92769">
        <ele>240.947632</ele>
        <time>2010-12-30T14:41:47Z</time>
      </trkpt>
      <trkpt lat="43.72432" lon="4.92771">
        <ele>240.467041</ele>
        <time>2010-12-30T14:41:49Z</time>
      </trkpt>
      <trkpt lat="43.72428" lon="4.92773">
        <ele>239.986206</ele>
        <time>2010-12-30T14:41:52Z</time>
      </trkpt>
      <trkpt lat="43.72423" lon="4.92775">
        <ele>239.024902</ele>
        <time>2010-12-30T14:41:57Z</time>
      </trkpt>
      <trkpt lat="43.72415" lon="4.9278">
        <ele>238.063599</ele>
        <time>2010-12-30T14:42:06Z</time>
      </trkpt>
      <trkpt lat="43.72415" lon="4.9278">
        <ele>238.063599</ele>
        <time>2010-12-30T14:42:07Z</time>
      </trkpt>
      <trkpt lat="43.72406" lon="4.9278">
        <ele>237.102295</ele>
        <time>2010-12-30T14:42:17Z</time>
      </trkpt>
      <trkpt lat="43.72396" lon="4.92782">
        <ele>235.179688</ele>
        <time>2010-12-30T14:42:29Z</time>
      </trkpt>
      <trkpt lat="43.72383" lon="4.92788">
        <ele>234.218384</ele>
        <time>2010-12-30T14:42:42Z</time>
      </trkpt>
      <trkpt lat="43.7237" lon="4.92793">
        <ele>233.25708</ele>
        <time>2010-12-30T14:42:55Z</time>
      </trkpt>
      <trkpt lat="43.72363" lon="4.92797">
        <ele>232.776489</ele>
        <time>2010-12-30T14:43:04Z</time>
      </trkpt>
      <trkpt lat="43.72361" lon="4.92799">
        <ele>232.295776</ele>
        <time>2010-12-30T14:43:07Z</time>
      </trkpt>
      <trkpt lat="43.72348" lon="4.92803">
        <ele>231.814941</ele>
        <time>2010-12-30T14:43:19Z</time>
      </trkpt>
      <trkpt lat="43.72342" lon="4.92808">
        <ele>230.373047</ele>
        <time>2010-12-30T14:43:27Z</time>
      </trkpt>
      <trkpt lat="43.72329" lon="4.92814">
        <ele>228.450439</ele>
        <time>2010-12-30T14:43:41Z</time>
      </trkpt>
      <trkpt lat="43.7232" lon="4.92818">
        <ele>227.489136</ele>
        <time>2010-12-30T14:43:52Z</time>
      </trkpt>
      <trkpt lat="43.72318" lon="4.92818">
        <ele>226.527832</ele>
        <time>2010-12-30T14:43:54Z</time>
      </trkpt>
      <trkpt lat="43.72312" lon="4.92823">
        <ele>225.085938</ele>
        <time>2010-12-30T14:44:01Z</time>
      </trkpt>
      <trkpt lat="43.72301" lon="4.92827">
        <ele>223.643799</ele>
        <time>2010-12-30T14:44:13Z</time>
      </trkpt>
      <trkpt lat="43.7229" lon="4.92831">
        <ele>223.163208</ele>
        <time>2010-12-30T14:44:24Z</time>
      </trkpt>
      <trkpt lat="43.72288" lon="4.92831">
        <ele>222.682495</ele>
        <time>2010-12-30T14:44:27Z</time>
      </trkpt>
      <trkpt lat="43.7228" lon="4.92836">
        <ele>223.643799</ele>
        <time>2010-12-30T14:44:39Z</time>
      </trkpt>
      <trkpt lat="43.72269" lon="4.9284">
        <ele>224.124512</ele>
        <time>2010-12-30T14:44:48Z</time>
      </trkpt>
      <trkpt lat="43.72256" lon="4.92846">
        <ele>223.163208</ele>
        <time>2010-12-30T14:45:01Z</time>
      </trkpt>
      <trkpt lat="43.72241" lon="4.92853">
        <ele>222.682495</ele>
        <time>2010-12-30T14:45:17Z</time>
      </trkpt>
      <trkpt lat="43.72239" lon="4.92853">
        <ele>222.682495</ele>
        <time>2010-12-30T14:45:19Z</time>
      </trkpt>
      <trkpt lat="43.72226" lon="4.92857">
        <ele>224.124512</ele>
        <time>2010-12-30T14:45:33Z</time>
      </trkpt>
      <trkpt lat="43.72224" lon="4.92857">
        <ele>224.124512</ele>
        <time>2010-12-30T14:45:35Z</time>
      </trkpt>
      <trkpt lat="43.72209" lon="4.92863">
        <ele>225.085938</ele>
        <time>2010-12-30T14:45:49Z</time>
      </trkpt>
      <trkpt lat="43.722" lon="4.92868">
        <ele>225.085938</ele>
        <time>2010-12-30T14:45:57Z</time>
      </trkpt>
      <trkpt lat="43.72198" lon="4.92868">
        <ele>224.605225</ele>
        <time>2010-12-30T14:46:00Z</time>
      </trkpt>
      <trkpt lat="43.72194" lon="4.92868">
        <ele>224.605225</ele>
        <time>2010-12-30T14:46:03Z</time>
      </trkpt>
      <trkpt lat="43.72185" lon="4.92872">
        <ele>223.643799</ele>
        <time>2010-12-30T14:46:11Z</time>
      </trkpt>
      <trkpt lat="43.72183" lon="4.92872">
        <ele>223.643799</ele>
        <time>2010-12-30T14:46:14Z</time>
      </trkpt>
      <trkpt lat="43.7217" lon="4.92876">
        <ele>222.682495</ele>
        <time>2010-12-30T14:46:28Z</time>
      </trkpt>
      <trkpt lat="43.72157" lon="4.92874">
        <ele>221.721191</ele>
        <time>2010-12-30T14:46:40Z</time>
      </trkpt>
      <trkpt lat="43.72157" lon="4.92874">
        <ele>221.721191</ele>
        <time>2010-12-30T14:46:41Z</time>
      </trkpt>
      <trkpt lat="43.72142" lon="4.92872">
        <ele>220.279175</ele>
        <time>2010-12-30T14:46:55Z</time>
      </trkpt>
      <trkpt lat="43.7214" lon="4.92872">
        <ele>219.798584</ele>
        <time>2010-12-30T14:46:58Z</time>
      </trkpt>
      <trkpt lat="43.72129" lon="4.92874">
        <ele>218.83728</ele>
        <time>2010-12-30T14:47:10Z</time>
      </trkpt>
      <trkpt lat="43.72121" lon="4.92874">
        <ele>217.395386</ele>
        <time>2010-12-30T14:47:17Z</time>
      </trkpt>
      <trkpt lat="43.72114" lon="4.92874">
        <ele>216.914673</ele>
        <time>2010-12-30T14:47:22Z</time>
      </trkpt>
      <trkpt lat="43.72106" lon="4.92874">
        <ele>216.914673</ele>
        <time>2010-12-30T14:47:31Z</time>
      </trkpt>
      <trkpt lat="43.72093" lon="4.92872">
        <ele>218.83728</ele>
        <time>2010-12-30T14:47:44Z</time>
      </trkpt>
      <trkpt lat="43.72087" lon="4.92876">
        <ele>220.279175</ele>
        <time>2010-12-30T14:47:54Z</time>
      </trkpt>
      <trkpt lat="43.72074" lon="4.92878">
        <ele>220.279175</ele>
        <time>2010-12-30T14:48:07Z</time>
      </trkpt>
      <trkpt lat="43.72063" lon="4.92878">
        <ele>220.279175</ele>
        <time>2010-12-30T14:48:18Z</time>
      </trkpt>
      <trkpt lat="43.72057" lon="4.92878">
        <ele>220.279175</ele>
        <time>2010-12-30T14:48:24Z</time>
      </trkpt>
      <trkpt lat="43.72048" lon="4.92881">
        <ele>219.798584</ele>
        <time>2010-12-30T14:48:35Z</time>
      </trkpt>
      <trkpt lat="43.72037" lon="4.92883">
        <ele>219.317993</ele>
        <time>2010-12-30T14:48:45Z</time>
      </trkpt>
      <trkpt lat="43.72026" lon="4.92885">
        <ele>219.317993</ele>
        <time>2010-12-30T14:48:56Z</time>
      </trkpt>
      <trkpt lat="43.72016" lon="4.92885">
        <ele>219.317993</ele>
        <time>2010-12-30T14:49:06Z</time>
      </trkpt>
      <trkpt lat="43.72003" lon="4.92885">
        <ele>219.317993</ele>
        <time>2010-12-30T14:49:19Z</time>
      </trkpt>
      <trkpt lat="43.7199" lon="4.92889">
        <ele>219.317993</ele>
        <time>2010-12-30T14:49:31Z</time>
      </trkpt>
      <trkpt lat="43.71981" lon="4.92891">
        <ele>217.875977</ele>
        <time>2010-12-30T14:49:41Z</time>
      </trkpt>
      <trkpt lat="43.71971" lon="4.92891">
        <ele>216.43396</ele>
        <time>2010-12-30T14:49:50Z</time>
      </trkpt>
      <trkpt lat="43.71956" lon="4.92891">
        <ele>215.953247</ele>
        <time>2010-12-30T14:50:03Z</time>
      </trkpt>
      <trkpt lat="43.71949" lon="4.92891">
        <ele>215.472656</ele>
        <time>2010-12-30T14:50:08Z</time>
      </trkpt>
      <trkpt lat="43.71936" lon="4.92896">
        <ele>215.472656</ele>
        <time>2010-12-30T14:50:21Z</time>
      </trkpt>
      <trkpt lat="43.71934" lon="4.92896">
        <ele>214.991943</ele>
        <time>2010-12-30T14:50:26Z</time>
      </trkpt>
      <trkpt lat="43.71923" lon="4.929">
        <ele>213.550049</ele>
        <time>2010-12-30T14:50:38Z</time>
      </trkpt>
      <trkpt lat="43.71913" lon="4.92906">
        <ele>210.185425</ele>
        <time>2010-12-30T14:50:51Z</time>
      </trkpt>
      <trkpt lat="43.71902" lon="4.92919">
        <ele>209.224121</ele>
        <time>2010-12-30T14:51:04Z</time>
      </trkpt>
      <trkpt lat="43.71896" lon="4.9293">
        <ele>207.301392</ele>
        <time>2010-12-30T14:51:14Z</time>
      </trkpt>
      <trkpt lat="43.71893" lon="4.92932">
        <ele>206.820679</ele>
        <time>2010-12-30T14:51:18Z</time>
      </trkpt>
      <trkpt lat="43.71887" lon="4.92943">
        <ele>204.898071</ele>
        <time>2010-12-30T14:51:32Z</time>
      </trkpt>
      <trkpt lat="43.71881" lon="4.92951">
        <ele>203.93689</ele>
        <time>2010-12-30T14:51:40Z</time>
      </trkpt>
      <trkpt lat="43.71878" lon="4.92954">
        <ele>203.93689</ele>
        <time>2010-12-30T14:51:42Z</time>
      </trkpt>
      <trkpt lat="43.7187" lon="4.92962">
        <ele>202.494873</ele>
        <time>2010-12-30T14:51:54Z</time>
      </trkpt>
      <trkpt lat="43.71863" lon="4.92971">
        <ele>201.052856</ele>
        <time>2010-12-30T14:52:05Z</time>
      </trkpt>
      <trkpt lat="43.71863" lon="4.92971">
        <ele>202.975464</ele>
        <time>2010-12-30T14:52:24Z</time>
      </trkpt>
      <trkpt lat="43.71859" lon="4.92971">
        <ele>201.533569</ele>
        <time>2010-12-30T14:52:30Z</time>
      </trkpt>
      <trkpt lat="43.71851" lon="4.92977">
        <ele>199.61084</ele>
        <time>2010-12-30T14:52:41Z</time>
      </trkpt>
      <trkpt lat="43.71844" lon="4.92981">
        <ele>197.20752</ele>
        <time>2010-12-30T14:52:51Z</time>
      </trkpt>
      <trkpt lat="43.71844" lon="4.92984">
        <ele>197.20752</ele>
        <time>2010-12-30T14:52:54Z</time>
      </trkpt>
      <trkpt lat="43.71838" lon="4.92986">
        <ele>194.804321</ele>
        <time>2010-12-30T14:53:02Z</time>
      </trkpt>
      <trkpt lat="43.71829" lon="4.92992">
        <ele>191.439575</ele>
        <time>2010-12-30T14:53:13Z</time>
      </trkpt>
      <trkpt lat="43.7182" lon="4.92999">
        <ele>188.075073</ele>
        <time>2010-12-30T14:53:26Z</time>
      </trkpt>
      <trkpt lat="43.71816" lon="4.93003">
        <ele>185.671753</ele>
        <time>2010-12-30T14:53:34Z</time>
      </trkpt>
      <trkpt lat="43.7181" lon="4.93009">
        <ele>183.749023</ele>
        <time>2010-12-30T14:53:44Z</time>
      </trkpt>
      <trkpt lat="43.71805" lon="4.93014">
        <ele>181.826416</ele>
        <time>2010-12-30T14:53:52Z</time>
      </trkpt>
      <trkpt lat="43.71797" lon="4.93018">
        <ele>180.865234</ele>
        <time>2010-12-30T14:54:02Z</time>
      </trkpt>
      <trkpt lat="43.71788" lon="4.93024">
        <ele>180.865234</ele>
        <time>2010-12-30T14:54:13Z</time>
      </trkpt>
      <trkpt lat="43.7178" lon="4.93029">
        <ele>180.865234</ele>
        <time>2010-12-30T14:54:21Z</time>
      </trkpt>
      <trkpt lat="43.71771" lon="4.93033">
        <ele>181.345825</ele>
        <time>2010-12-30T14:54:32Z</time>
      </trkpt>
      <trkpt lat="43.71763" lon="4.93037">
        <ele>178.942627</ele>
        <time>2010-12-30T14:54:43Z</time>
      </trkpt>
      <trkpt lat="43.71754" lon="4.93044">
        <ele>176.539307</ele>
        <time>2010-12-30T14:54:54Z</time>
      </trkpt>
      <trkpt lat="43.7175" lon="4.93048">
        <ele>175.09729</ele>
        <time>2010-12-30T14:55:04Z</time>
      </trkpt>
      <trkpt lat="43.71743" lon="4.93052">
        <ele>173.174683</ele>
        <time>2010-12-30T14:55:14Z</time>
      </trkpt>
      <trkpt lat="43.71737" lon="4.93059">
        <ele>172.69397</ele>
        <time>2010-12-30T14:55:23Z</time>
      </trkpt>
      <trkpt lat="43.71728" lon="4.93065">
        <ele>171.252075</ele>
        <time>2010-12-30T14:55:34Z</time>
      </trkpt>
      <trkpt lat="43.71718" lon="4.93069">
        <ele>169.329468</ele>
        <time>2010-12-30T14:55:45Z</time>
      </trkpt>
      <trkpt lat="43.71709" lon="4.93076">
        <ele>168.848755</ele>
        <time>2010-12-30T14:55:56Z</time>
      </trkpt>
      <trkpt lat="43.717" lon="4.9308">
        <ele>168.848755</ele>
        <time>2010-12-30T14:56:06Z</time>
      </trkpt>
      <trkpt lat="43.7169" lon="4.93087">
        <ele>168.848755</ele>
        <time>2010-12-30T14:56:16Z</time>
      </trkpt>
      <trkpt lat="43.71681" lon="4.93093">
        <ele>167.887329</ele>
        <time>2010-12-30T14:56:28Z</time>
      </trkpt>
      <trkpt lat="43.71672" lon="4.93097">
        <ele>168.848755</ele>
        <time>2010-12-30T14:56:38Z</time>
      </trkpt>
      <trkpt lat="43.71666" lon="4.93102">
        <ele>169.329468</ele>
        <time>2010-12-30T14:56:47Z</time>
      </trkpt>
      <trkpt lat="43.7166" lon="4.93108">
        <ele>168.848755</ele>
        <time>2010-12-30T14:56:58Z</time>
      </trkpt>
      <trkpt lat="43.71655" lon="4.9311">
        <ele>168.848755</ele>
        <time>2010-12-30T14:57:01Z</time>
      </trkpt>
      <trkpt lat="43.71647" lon="4.93115">
        <ele>168.368042</ele>
        <time>2010-12-30T14:57:12Z</time>
      </trkpt>
      <trkpt lat="43.71636" lon="4.93121">
        <ele>168.848755</ele>
        <time>2010-12-30T14:57:24Z</time>
      </trkpt>
      <trkpt lat="43.71627" lon="4.93127">
        <ele>168.368042</ele>
        <time>2010-12-30T14:57:34Z</time>
      </trkpt>
      <trkpt lat="43.71617" lon="4.93132">
        <ele>167.406738</ele>
        <time>2010-12-30T14:57:45Z</time>
      </trkpt>
      <trkpt lat="43.71608" lon="4.93138">
        <ele>167.887329</ele>
        <time>2010-12-30T14:57:54Z</time>
      </trkpt>
      <trkpt lat="43.71602" lon="4.93142">
        <ele>166.926025</ele>
        <time>2010-12-30T14:58:02Z</time>
      </trkpt>
      <trkpt lat="43.71602" lon="4.93145">
        <ele>166.926025</ele>
        <time>2010-12-30T14:58:03Z</time>
      </trkpt>
      <trkpt lat="43.71599" lon="4.93145">
        <ele>166.926025</ele>
        <time>2010-12-30T14:58:06Z</time>
      </trkpt>
      <trkpt lat="43.71589" lon="4.93151">
        <ele>166.445313</ele>
        <time>2010-12-30T14:58:17Z</time>
      </trkpt>
      <trkpt lat="43.71584" lon="4.93155">
        <ele>165.484131</ele>
        <time>2010-12-30T14:58:25Z</time>
      </trkpt>
      <trkpt lat="43.7158" lon="4.93157">
        <ele>165.003418</ele>
        <time>2010-12-30T14:58:28Z</time>
      </trkpt>
      <trkpt lat="43.71574" lon="4.93164">
        <ele>163.080811</ele>
        <time>2010-12-30T14:58:40Z</time>
      </trkpt>
      <trkpt lat="43.71563" lon="4.9317">
        <ele>164.522705</ele>
        <time>2010-12-30T14:58:51Z</time>
      </trkpt>
      <trkpt lat="43.7155" lon="4.93177">
        <ele>165.003418</ele>
        <time>2010-12-30T14:59:05Z</time>
      </trkpt>
      <trkpt lat="43.71537" lon="4.93185">
        <ele>164.042114</ele>
        <time>2010-12-30T14:59:18Z</time>
      </trkpt>
      <trkpt lat="43.71533" lon="4.93187">
        <ele>163.561523</ele>
        <time>2010-12-30T14:59:24Z</time>
      </trkpt>
      <trkpt lat="43.71524" lon="4.93194">
        <ele>163.080811</ele>
        <time>2010-12-30T14:59:34Z</time>
      </trkpt>
      <trkpt lat="43.71518" lon="4.93198">
        <ele>162.600098</ele>
        <time>2010-12-30T14:59:42Z</time>
      </trkpt>
      <trkpt lat="43.71516" lon="4.93198">
        <ele>162.600098</ele>
        <time>2010-12-30T14:59:45Z</time>
      </trkpt>
      <trkpt lat="43.71505" lon="4.93207">
        <ele>161.158203</ele>
        <time>2010-12-30T14:59:57Z</time>
      </trkpt>
      <trkpt lat="43.71496" lon="4.93213">
        <ele>158.754761</ele>
        <time>2010-12-30T15:00:08Z</time>
      </trkpt>
      <trkpt lat="43.71488" lon="4.9322">
        <ele>157.312866</ele>
        <time>2010-12-30T15:00:18Z</time>
      </trkpt>
      <trkpt lat="43.71479" lon="4.93224">
        <ele>157.312866</ele>
        <time>2010-12-30T15:00:28Z</time>
      </trkpt>
      <trkpt lat="43.71473" lon="4.9323">
        <ele>158.27417</ele>
        <time>2010-12-30T15:00:37Z</time>
      </trkpt>
      <trkpt lat="43.71466" lon="4.93235">
        <ele>157.793579</ele>
        <time>2010-12-30T15:00:47Z</time>
      </trkpt>
      <trkpt lat="43.71458" lon="4.93239">
        <ele>155.870972</ele>
        <time>2010-12-30T15:00:56Z</time>
      </trkpt>
      <trkpt lat="43.71449" lon="4.93245">
        <ele>154.428955</ele>
        <time>2010-12-30T15:01:07Z</time>
      </trkpt>
      <trkpt lat="43.71443" lon="4.9325">
        <ele>153.467651</ele>
        <time>2010-12-30T15:01:13Z</time>
      </trkpt>
      <trkpt lat="43.71434" lon="4.93254">
        <ele>151.064209</ele>
        <time>2010-12-30T15:01:21Z</time>
      </trkpt>
      <trkpt lat="43.71424" lon="4.9326">
        <ele>148.661011</ele>
        <time>2010-12-30T15:01:33Z</time>
      </trkpt>
      <trkpt lat="43.71415" lon="4.93267">
        <ele>149.141602</ele>
        <time>2010-12-30T15:01:44Z</time>
      </trkpt>
      <trkpt lat="43.71406" lon="4.93273">
        <ele>152.025757</ele>
        <time>2010-12-30T15:01:57Z</time>
      </trkpt>
      <trkpt lat="43.71393" lon="4.93278">
        <ele>155.390259</ele>
        <time>2010-12-30T15:02:10Z</time>
      </trkpt>
      <trkpt lat="43.71381" lon="4.93284">
        <ele>155.870972</ele>
        <time>2010-12-30T15:02:24Z</time>
      </trkpt>
      <trkpt lat="43.7137" lon="4.9329">
        <ele>156.351563</ele>
        <time>2010-12-30T15:02:36Z</time>
      </trkpt>
      <trkpt lat="43.71359" lon="4.93295">
        <ele>155.390259</ele>
        <time>2010-12-30T15:02:48Z</time>
      </trkpt>
      <trkpt lat="43.71351" lon="4.93299">
        <ele>155.390259</ele>
        <time>2010-12-30T15:02:57Z</time>
      </trkpt>
      <trkpt lat="43.7134" lon="4.93305">
        <ele>155.390259</ele>
        <time>2010-12-30T15:03:09Z</time>
      </trkpt>
      <trkpt lat="43.71329" lon="4.93312">
        <ele>155.870972</ele>
        <time>2010-12-30T15:03:21Z</time>
      </trkpt>
      <trkpt lat="43.71316" lon="4.93318">
        <ele>156.351563</ele>
        <time>2010-12-30T15:03:33Z</time>
      </trkpt>
      <trkpt lat="43.71306" lon="4.93325">
        <ele>158.27417</ele>
        <time>2010-12-30T15:03:45Z</time>
      </trkpt>
      <trkpt lat="43.71295" lon="4.93329">
        <ele>157.793579</ele>
        <time>2010-12-30T15:03:56Z</time>
      </trkpt>
      <trkpt lat="43.71284" lon="4.93336">
        <ele>159.235474</ele>
        <time>2010-12-30T15:04:07Z</time>
      </trkpt>
      <trkpt lat="43.71271" lon="4.93342">
        <ele>161.158203</ele>
        <time>2010-12-30T15:04:19Z</time>
      </trkpt>
      <trkpt lat="43.71258" lon="4.93346">
        <ele>160.67749</ele>
        <time>2010-12-30T15:04:29Z</time>
      </trkpt>
      <trkpt lat="43.71245" lon="4.93351">
        <ele>164.522705</ele>
        <time>2010-12-30T15:04:42Z</time>
      </trkpt>
      <trkpt lat="43.71233" lon="4.93359">
        <ele>166.445313</ele>
        <time>2010-12-30T15:04:56Z</time>
      </trkpt>
      <trkpt lat="43.7122" lon="4.93366">
        <ele>171.252075</ele>
        <time>2010-12-30T15:05:11Z</time>
      </trkpt>
      <trkpt lat="43.71207" lon="4.93372">
        <ele>173.174683</ele>
        <time>2010-12-30T15:05:24Z</time>
      </trkpt>
      <trkpt lat="43.7119" lon="4.93378">
        <ele>174.135864</ele>
        <time>2010-12-30T15:05:39Z</time>
      </trkpt>
      <trkpt lat="43.71177" lon="4.93387">
        <ele>175.577881</ele>
        <time>2010-12-30T15:05:53Z</time>
      </trkpt>
      <trkpt lat="43.71175" lon="4.93389">
        <ele>176.058594</ele>
        <time>2010-12-30T15:05:55Z</time>
      </trkpt>
      <trkpt lat="43.71162" lon="4.93404">
        <ele>175.09729</ele>
        <time>2010-12-30T15:06:09Z</time>
      </trkpt>
      <trkpt lat="43.71151" lon="4.93417">
        <ele>175.577881</ele>
        <time>2010-12-30T15:06:23Z</time>
      </trkpt>
      <trkpt lat="43.71142" lon="4.93432">
        <ele>176.058594</ele>
        <time>2010-12-30T15:06:37Z</time>
      </trkpt>
      <trkpt lat="43.71134" lon="4.93449">
        <ele>175.09729</ele>
        <time>2010-12-30T15:06:51Z</time>
      </trkpt>
      <trkpt lat="43.71123" lon="4.93464">
        <ele>173.655273</ele>
        <time>2010-12-30T15:07:05Z</time>
      </trkpt>
      <trkpt lat="43.71115" lon="4.93481">
        <ele>172.69397</ele>
        <time>2010-12-30T15:07:19Z</time>
      </trkpt>
      <trkpt lat="43.71108" lon="4.9349">
        <ele>172.69397</ele>
        <time>2010-12-30T15:07:33Z</time>
      </trkpt>
      <trkpt lat="43.71108" lon="4.93492">
        <ele>168.848755</ele>
        <time>2010-12-30T15:08:19Z</time>
      </trkpt>
      <trkpt lat="43.71108" lon="4.93494">
        <ele>169.329468</ele>
        <time>2010-12-30T15:10:07Z</time>
      </trkpt>
      <trkpt lat="43.71106" lon="4.93499">
        <ele>169.329468</ele>
        <time>2010-12-30T15:10:16Z</time>
      </trkpt>
      <trkpt lat="43.71095" lon="4.93507">
        <ele>168.368042</ele>
        <time>2010-12-30T15:10:30Z</time>
      </trkpt>
      <trkpt lat="43.71085" lon="4.93518">
        <ele>166.445313</ele>
        <time>2010-12-30T15:10:44Z</time>
      </trkpt>
      <trkpt lat="43.71085" lon="4.9352">
        <ele>166.445313</ele>
        <time>2010-12-30T15:10:46Z</time>
      </trkpt>
      <trkpt lat="43.71074" lon="4.93529">
        <ele>165.964722</ele>
        <time>2010-12-30T15:10:59Z</time>
      </trkpt>
      <trkpt lat="43.71065" lon="4.93537">
        <ele>167.406738</ele>
        <time>2010-12-30T15:11:13Z</time>
      </trkpt>
      <trkpt lat="43.71054" lon="4.93542">
        <ele>166.926025</ele>
        <time>2010-12-30T15:11:22Z</time>
      </trkpt>
      <trkpt lat="43.7105" lon="4.93548">
        <ele>167.887329</ele>
        <time>2010-12-30T15:11:30Z</time>
      </trkpt>
      <trkpt lat="43.71046" lon="4.9355">
        <ele>168.368042</ele>
        <time>2010-12-30T15:11:34Z</time>
      </trkpt>
      <trkpt lat="43.71044" lon="4.93552">
        <ele>168.368042</ele>
        <time>2010-12-30T15:11:36Z</time>
      </trkpt>
      <trkpt lat="43.71031" lon="4.93561">
        <ele>168.848755</ele>
        <time>2010-12-30T15:11:49Z</time>
      </trkpt>
      <trkpt lat="43.71024" lon="4.93569">
        <ele>169.329468</ele>
        <time>2010-12-30T15:11:59Z</time>
      </trkpt>
      <trkpt lat="43.71022" lon="4.93576">
        <ele>170.290649</ele>
        <time>2010-12-30T15:12:05Z</time>
      </trkpt>
      <trkpt lat="43.71012" lon="4.93587">
        <ele>174.135864</ele>
        <time>2010-12-30T15:12:17Z</time>
      </trkpt>
      <trkpt lat="43.71007" lon="4.93591">
        <ele>174.616577</ele>
        <time>2010-12-30T15:12:23Z</time>
      </trkpt>
      <trkpt lat="43.71003" lon="4.93593">
        <ele>175.09729</ele>
        <time>2010-12-30T15:12:26Z</time>
      </trkpt>
      <trkpt lat="43.70994" lon="4.93602">
        <ele>175.577881</ele>
        <time>2010-12-30T15:12:37Z</time>
      </trkpt>
      <trkpt lat="43.70988" lon="4.93606">
        <ele>175.577881</ele>
        <time>2010-12-30T15:12:45Z</time>
      </trkpt>
      <trkpt lat="43.70975" lon="4.93614">
        <ele>175.09729</ele>
        <time>2010-12-30T15:13:00Z</time>
      </trkpt>
      <trkpt lat="43.7096" lon="4.93627">
        <ele>171.252075</ele>
        <time>2010-12-30T15:13:17Z</time>
      </trkpt>
      <trkpt lat="43.70949" lon="4.93642">
        <ele>169.329468</ele>
        <time>2010-12-30T15:13:32Z</time>
      </trkpt>
      <trkpt lat="43.70945" lon="4.93649">
        <ele>168.848755</ele>
        <time>2010-12-30T15:13:37Z</time>
      </trkpt>
      <trkpt lat="43.70943" lon="4.93651">
        <ele>168.848755</ele>
        <time>2010-12-30T15:13:40Z</time>
      </trkpt>
      <trkpt lat="43.70939" lon="4.93655">
        <ele>168.368042</ele>
        <time>2010-12-30T15:13:44Z</time>
      </trkpt>
      <trkpt lat="43.70939" lon="4.93657">
        <ele>168.368042</ele>
        <time>2010-12-30T15:13:46Z</time>
      </trkpt>
      <trkpt lat="43.70928" lon="4.93672">
        <ele>166.445313</ele>
        <time>2010-12-30T15:14:00Z</time>
      </trkpt>
      <trkpt lat="43.70926" lon="4.93683">
        <ele>158.27417</ele>
        <time>2010-12-30T15:14:09Z</time>
      </trkpt>
      <trkpt lat="43.70926" lon="4.93685">
        <ele>155.870972</ele>
        <time>2010-12-30T15:14:24Z</time>
      </trkpt>
      <trkpt lat="43.70921" lon="4.93692">
        <ele>156.351563</ele>
        <time>2010-12-30T15:14:38Z</time>
      </trkpt>
      <trkpt lat="43.70917" lon="4.93709">
        <ele>153.948364</ele>
        <time>2010-12-30T15:14:52Z</time>
      </trkpt>
      <trkpt lat="43.70911" lon="4.93724">
        <ele>152.025757</ele>
        <time>2010-12-30T15:15:04Z</time>
      </trkpt>
      <trkpt lat="43.70911" lon="4.93726">
        <ele>152.025757</ele>
        <time>2010-12-30T15:15:17Z</time>
      </trkpt>
      <trkpt lat="43.70911" lon="4.93726">
        <ele>153.467651</ele>
        <time>2010-12-30T15:16:51Z</time>
      </trkpt>
      <trkpt lat="43.70911" lon="4.93726">
        <ele>153.467651</ele>
        <time>2010-12-30T15:16:59Z</time>
      </trkpt>
    </trkseg>
  </trk>
</gpx>